# Wetter Temperatur Luftdruck Luftfeuchtigkeit Sichtweite Windgeschwindigkeit Windrichtung Zeit
1 Clear 9 1022 64 10000 2 340 20:45 02.04.2020
2 Clear 9 1022 60 10000 3 350 20:25 02.04.2020
3 Clear 9 1022 64 10000 1 340 19:59 02.04.2020
4 Clear 9 1022 56 10000 1 50 19:40 02.04.2020
5 Clear 9 1022 56 10000 1 50 19:20 02.04.2020
6 Clear 9 1022 52 10000 2.05 328 18:56 02.04.2020
7 Clear 10 1022 48 10000 1 0 18:37 02.04.2020
8 Clear 11 1021 45 10000 2 60 18:18 02.04.2020
9 Clear 12 1021 45 10000 2 60 17:43 02.04.2020
10 Clear 14 1021 37 10000 1 0 17:24 02.04.2020
11 Clear 14 1021 28 10000 3 230 16:58 02.04.2020
12 Clear 14 1021 26 10000 4 220 16:40 02.04.2020
13 Clear 14 1021 26 10000 4 220 16:22 02.04.2020
14 Clear 15 1021 24 10000 5 210 15:57 02.04.2020
15 Clear 15 1021 23 10000 6 220 15:39 02.04.2020
16 Clear 15 1021 23 10000 6 220 15:19 02.04.2020
17 Clear 15 1020 23 10000 7 220 14:57 02.04.2020
18 Clear 16 1020 19 10000 6 220 14:38 02.04.2020
19 Clear 17 1019 14 10000 8 220 14:18 02.04.2020
20 Clear 16 1019 14 10000 8 220 13:55 02.04.2020
21 Clear 18 1019 12 10000 6 200 13:37 02.04.2020
22 Clear 18 1019 10 10000 5 200 13:18 02.04.2020
23 Clear 19 1019 10 10000 5 200 12:45 02.04.2020
24 Clear 19 1019 10 10000 5 200 12:45 02.04.2020
25 Clear 20 1019 7 10000 2 240 12:20 02.04.2020
26 Clear 20 1019 7 10000 2 240 11:58 02.04.2020
27 Clear 20 1019 7 10000 2 240 11:58 02.04.2020
28 Clear 21 1019 7 10000 4 260 11:39 02.04.2020
29 Clear 21 1019 7 10000 4 260 11:20 02.04.2020
30 Clear 21 1019 7 10000 4 260 11:20 02.04.2020
31 Clear 21 1019 7 10000 5 260 10:57 02.04.2020
32 Clear 22 1019 8 10000 3 200 10:38 02.04.2020
33 Clear 22 1019 8 10000 3 200 10:20 02.04.2020
34 Clear 21 1020 7 10000 4 250 09:59 02.04.2020
35 Clear 21 1020 7 10000 4 250 09:41 02.04.2020
36 Clear 21 1020 8 10000 5 320 09:21 02.04.2020
37 Clear 20 1020 8 10000 3 240 08:47 02.04.2020
38 Clear 21 1021 7 10000 2 300 08:28 02.04.2020
39 Clear 20 1022 8 10000 4 300 07:57 02.04.2020
40 Clear 20 1022 8 10000 2 0 07:38 02.04.2020
41 Clear 20 1022 8 10000 2 0 07:19 02.04.2020
42 Clear 19 1023 8 10000 4 230 06:24 02.04.2020
43 Clear 17 1024 10 10000 3 320 05:46 02.04.2020
44 Clear 17 1024 10 10000 3 310 04:55 02.04.2020
45 Clear 10 1025 27 10000 2 340 02:19 02.04.2020
46 Clear 8 1025 48 10000 3 350 01:27 02.04.2020
47 Clear 9 1024 38 10000 2 310 00:41 02.04.2020
48 Clear 7 1024 38 10000 2 310 00:19 02.04.2020
49 Clear 6 1024 51 10000 3 340 23:39 01.04.2020
50 Clear 6 1024 51 10000 3 340 23:19 01.04.2020
51 Clear 5 1024 69 10000 2 360 22:56 01.04.2020
52 Clear 6 1024 59 10000 2 330 22:38 01.04.2020
53 Clear 6 1024 59 10000 2 330 22:19 01.04.2020
54 Clear 6 1024 69 10000 2 350 21:41 01.04.2020
55 Clear 9 1023 80 10000 2 350 21:19 01.04.2020
56 Clouds 9 1024 80 10000 1 350 20:56 01.04.2020
57 Clouds 9 1024 45 10000 2 360 20:38 01.04.2020
58 Clouds 9 1024 45 10000 2 360 20:19 01.04.2020
59 Clouds 9 1024 74 10000 1 0 19:58 01.04.2020
60 Clouds 9 1024 45 10000 1 70 19:38 01.04.2020
61 Clouds 10 1024 45 10000 1 70 19:19 01.04.2020
62 Clouds 10 1024 65 10000 1 170 18:42 01.04.2020
63 Clouds 10 1024 65 10000 1 170 18:23 01.04.2020
64 Clouds 11 1024 41 10000 1 0 17:57 01.04.2020
65 Clouds 11 1024 46 10000 2 200 17:38 01.04.2020
66 Clouds 11 1024 46 10000 2 200 17:19 01.04.2020
67 Clouds 11 1024 46 10000 2 200 17:19 01.04.2020
68 Clouds 11 1024 41 10000 2 160 16:58 01.04.2020
69 Clouds 10 1023 46 10000 4 190 16:39 01.04.2020
70 Clouds 10 1023 46 10000 4 190 16:39 01.04.2020
71 Clouds 11 1023 46 10000 4 190 16:20 01.04.2020
72 Clouds 11 1023 41 10000 5 210 15:56 01.04.2020
73 Clouds 11 1023 40 10000 5 210 15:37 01.04.2020
74 Clouds 13 1023 37 10000 5 220 15:18 01.04.2020
75 Clouds 12 1023 37 10000 5 220 14:40 01.04.2020
76 Clouds 12 1023 28 10000 4 210 14:22 01.04.2020
77 Clouds 13 1022 12 10000 3 190 13:59 01.04.2020
78 Clouds 13 1022 11 10000 4 200 13:40 01.04.2020
79 Clouds 14 1022 11 10000 4 200 13:20 01.04.2020
80 Clouds 14 1022 11 10000 4 200 13:20 01.04.2020
81 Clouds 14 1022 10 10000 4 180 12:59 01.04.2020
82 Clouds 14 1022 10 10000 4 180 12:41 01.04.2020
83 Clouds 16 1022 10 10000 4 180 12:22 01.04.2020
84 Clouds 15 1022 7 10000 3 180 11:57 01.04.2020
85 Clouds 16 1022 6 10000 3 210 11:38 01.04.2020
86 Clouds 17 1022 6 10000 3 210 11:20 01.04.2020
87 Clouds 17 1022 6 10000 2 170 10:41 01.04.2020
88 Clouds 17 1022 8 10000 3 200 10:22 01.04.2020
89 Clouds 17 1023 8 10000 4 180 09:59 01.04.2020
90 Clouds 17 1023 8 10000 3 0 09:40 01.04.2020
91 Clouds 17 1023 8 10000 3 0 09:21 01.04.2020
92 Clouds 17 1024 8 10000 2 0 08:57 01.04.2020
93 Clouds 17 1024 7 10000 1 0 08:38 01.04.2020
94 Clouds 17 1024 7 10000 1 0 08:18 01.04.2020
95 Clouds 17 1026 9 10000 3 220 07:41 01.04.2020
96 Clouds 16 1026 9 10000 3 220 07:19 01.04.2020
97 Clouds 16 1027 10 10000 1 0 06:47 01.04.2020
98 Clouds 15 1027 10 10000 1 0 06:21 01.04.2020
99 Clouds 15 1027 10 10000 2 320 05:53 01.04.2020
100 Clouds 14 1029 11 10000 4 350 04:29 01.04.2020
101 Clouds 12 1029 12 10000 3 10 03:21 01.04.2020
102 Clouds 11 1029 12 10000 4 20 02:41 01.04.2020
103 Clouds 10 1028 15 10000 3 10 01:53 01.04.2020
104 Clouds 10 1028 15 10000 3 20 01:29 01.04.2020
105 Clouds 10 1027 15 10000 3 20 00:47 01.04.2020
106 Clouds 9 1027 16 10000 4 20 00:25 01.04.2020
107 Clouds 9 1027 16 10000 3 20 23:59 31.03.2020
108 Clouds 9 1027 18 10000 3 20 23:41 31.03.2020
109 Clouds 9 1027 18 10000 3 20 23:22 31.03.2020
110 Clouds 10 1026 16 10000 3 20 22:42 31.03.2020
111 Clouds 10 1026 16 10000 4 20 22:22 31.03.2020
112 Clouds 10 1026 16 10000 4 20 21:59 31.03.2020
113 Clouds 11 1026 15 10000 4 30 21:40 31.03.2020
114 Clouds 11 1026 15 10000 4 30 21:40 31.03.2020
115 Clouds 11 1026 15 10000 4 30 21:22 31.03.2020
116 Clouds 11 1026 14 10000 5 30 20:58 31.03.2020
117 Clouds 11 1026 14 10000 5 30 20:38 31.03.2020
118 Clouds 12 1026 14 10000 6 40 20:20 31.03.2020
119 Clouds 12 1026 14 10000 6 40 19:58 31.03.2020
120 Clouds 12 1025 13 10000 7 30 19:40 31.03.2020
121 Clouds 12 1025 14 10000 7 30 19:21 31.03.2020
122 Clouds 12 1025 14 10000 7 30 18:54 31.03.2020
123 Clouds 13 1025 14 10000 7 30 18:36 31.03.2020
124 Clouds 13 1024 16 10000 7 10 18:18 31.03.2020
125 Clouds 13 1024 22 10000 4 20 17:54 31.03.2020
126 Clouds 13 1024 22 10000 4 20 17:36 31.03.2020
127 Clouds 13 1023 50 10000 2 20 17:18 31.03.2020
128 Clouds 13 1023 58 10000 3 360 16:37 31.03.2020
129 Clouds 13 1023 58 10000 3 360 16:18 31.03.2020
130 Clouds 13 1022 54 10000 2 70 15:56 31.03.2020
131 Clouds 13 1021 54 10000 4 70 15:37 31.03.2020
132 Clouds 13 1021 54 10000 4 70 15:19 31.03.2020
133 Clouds 13 1021 54 10000 4 70 14:56 31.03.2020
134 Clouds 13 1020 54 10000 4 80 14:38 31.03.2020
135 Clouds 13 1020 54 10000 4 80 14:18 31.03.2020
136 Clouds 14 1019 58 10000 4 80 13:41 31.03.2020
137 Clouds 15 1018 58 10000 5 80 13:19 31.03.2020
138 Clouds 17 1017 51 10000 3 100 12:54 31.03.2020
139 Clouds 17 1016 51 8000 2 80 12:36 31.03.2020
140 Clouds 17 1016 51 8000 2 80 12:18 31.03.2020
141 Rain 18 1016 48 10000 4 20 11:38 31.03.2020
142 Rain 18 1016 48 10000 4 20 11:19 31.03.2020
143 Rain 18 1015 45 10000 7 360 10:57 31.03.2020
144 Clouds 19 1015 39 7000 4 150 10:39 31.03.2020
145 Clouds 19 1015 39 7000 4 150 10:20 31.03.2020
146 Clouds 20 1014 39 7000 4 150 09:55 31.03.2020
147 Clouds 20 1014 37 7000 5 140 09:37 31.03.2020
148 Clouds 20 1014 37 7000 5 140 09:19 31.03.2020
149 Clouds 19 1014 39 7000 4 140 08:54 31.03.2020
150 Clouds 19 1014 39 7000 4 130 08:36 31.03.2020
151 Clouds 20 1014 39 7000 4 130 08:18 31.03.2020
152 Clouds 19 1014 37 7000 3 60 07:43 31.03.2020
153 Clouds 19 1015 39 7000 3 40 07:23 31.03.2020
154 Clouds 19 1016 42 7000 3 40 06:58 31.03.2020
155 Clouds 18 1016 48 7000 2 0 06:39 31.03.2020
156 Clouds 16 1017 51 7000 2 360 05:42 31.03.2020
157 Clouds 17 1017 51 7000 2 360 05:23 31.03.2020
158 Clouds 12 1016 62 7000 2 160 02:53 31.03.2020
159 Clouds 11 1016 66 7000 1 140 01:47 31.03.2020
160 Clouds 10 1016 70 7000 2 150 01:19 31.03.2020
161 Clouds 9 1015 75 10000 2 170 00:43 31.03.2020
162 Clouds 9 1015 75 10000 2 170 00:20 31.03.2020
163 Clouds 9 1015 75 10000 2 120 23:40 30.03.2020
164 Clouds 9 1015 75 10000 2 120 23:20 30.03.2020
165 Clouds 9 1015 65 10000 1 0 22:57 30.03.2020
166 Clouds 10 1015 66 10000 2 140 22:38 30.03.2020
167 Clouds 11 1015 66 10000 2 140 22:19 30.03.2020
168 Clouds 10 1015 70 10000 1 0 21:57 30.03.2020
169 Clouds 12 1015 61 10000 2 130 21:38 30.03.2020
170 Clouds 12 1015 61 10000 2 130 21:20 30.03.2020
171 Clouds 12 1015 57 10000 2 140 20:57 30.03.2020
172 Clouds 12 1015 53 10000 3 130 20:38 30.03.2020
173 Clouds 13 1015 53 10000 3 130 20:19 30.03.2020
174 Clouds 13 1015 53 10000 3 130 20:19 30.03.2020
175 Clouds 13 1015 50 10000 3 130 19:41 30.03.2020
176 Clouds 13 1015 50 10000 3 130 19:22 30.03.2020
177 Clouds 13 1015 46 10000 3 140 18:59 30.03.2020
178 Clouds 13 1016 50 10000 3 140 18:41 30.03.2020
179 Clouds 13 1016 50 10000 3 140 18:22 30.03.2020
180 Clouds 13 1016 53 10000 2 120 17:57 30.03.2020
181 Clouds 14 1016 50 10000 3 140 17:39 30.03.2020
182 Clouds 14 1016 50 10000 3 140 17:39 30.03.2020
183 Clouds 14 1016 50 10000 3 140 17:19 30.03.2020
184 Clouds 12 1016 57 10000 2 120 16:57 30.03.2020
185 Clouds 13 1016 57 10000 2 150 16:38 30.03.2020
186 Clouds 15 1016 57 10000 2 150 16:20 30.03.2020
187 Clouds 13 1016 54 10000 2 140 15:55 30.03.2020
188 Clouds 14 1016 54 10000 1 160 15:36 30.03.2020
189 Clouds 15 1016 54 10000 1 160 15:18 30.03.2020
190 Clouds 15 1016 47 10000 2 160 14:55 30.03.2020
191 Clouds 16 1016 47 10000 3 180 14:36 30.03.2020
192 Clouds 16 1016 47 10000 3 180 14:18 30.03.2020
193 Clouds 16 1016 41 10000 6 210 13:43 30.03.2020
194 Clouds 16 1015 41 10000 3 190 13:21 30.03.2020
195 Clouds 16 1015 36 10000 5 200 12:58 30.03.2020
196 Clouds 16 1015 33 10000 4 210 12:40 30.03.2020
197 Clouds 17 1015 33 10000 4 210 12:19 30.03.2020
198 Clouds 17 1014 33 10000 5 210 11:56 30.03.2020
199 Clouds 18 1014 29 10000 5 190 11:38 30.03.2020
200 Clouds 18 1014 29 10000 5 190 11:20 30.03.2020
201 Clouds 19 1014 29 10000 5 210 10:40 30.03.2020
202 Clouds 19 1014 31 10000 4 190 10:22 30.03.2020
203 Clouds 19 1014 31 10000 5 200 09:56 30.03.2020
204 Clouds 19 1015 31 10000 4 190 09:38 30.03.2020
205 Clouds 19 1015 31 10000 4 190 09:19 30.03.2020
206 Clouds 19 1015 27 10000 5 170 08:42 30.03.2020
207 Clouds 19 1016 31 10000 4 180 08:22 30.03.2020
208 Clouds 18 1016 36 10000 4 180 07:49 30.03.2020
209 Clouds 19 1016 38 10000 4 200 07:31 30.03.2020
210 Clouds 18 1017 36 10000 4 180 06:56 30.03.2020
211 Clouds 17 1017 41 10000 2 170 06:32 30.03.2020
212 Clouds 16 1018 44 10000 3 180 05:53 30.03.2020
213 Clouds 15 1018 41 10000 4 190 05:22 30.03.2020
214 Clouds 14 1019 47 10000 1 0 04:23 30.03.2020
215 Clouds 13 1019 35 10000 1 0 03:44 30.03.2020
216 Clear 10 1018 57 10000 1 0 02:39 30.03.2020
217 Clear 9 1018 70 10000 0.88 258 01:44 30.03.2020
218 Clear 7 1018 80 10000 1 0 00:50 30.03.2020
219 Clear 6 1017 74 10000 1 60 00:23 30.03.2020
220 Clear 6 1017 80 10000 2 70 23:42 29.03.2020
221 Clear 7 1017 74 10000 1 40 23:24 29.03.2020
222 Clear 7 1017 69 10000 1.49 226 22:58 29.03.2020
223 Clear 7 1017 69 10000 2 70 22:38 29.03.2020
224 Clear 8 1017 69 10000 2 70 22:19 29.03.2020
225 Clear 7 1017 74 10000 1 40 21:56 29.03.2020
226 Clear 7 1017 60 10000 1.49 226 21:36 29.03.2020
227 Clear 8 1017 60 10000 2.31 192 21:18 29.03.2020
228 Clear 8 1017 56 10000 1 0 20:55 29.03.2020
229 Clear 9 1017 48 10000 1 0 20:36 29.03.2020
230 Clear 9 1017 48 10000 1 100 20:18 29.03.2020
231 Clear 9 1017 48 10000 1 100 20:18 29.03.2020
232 Clear 9 1017 45 10000 2 100 19:42 29.03.2020
233 Clear 9 1017 45 10000 2 100 19:42 29.03.2020
234 Clear 9 1017 45 10000 2 100 19:24 29.03.2020
235 Clear 10 1017 45 10000 2 100 18:58 29.03.2020
236 Clear 10 1017 45 10000 2 110 18:40 29.03.2020
237 Clear 10 1017 42 10000 2 100 18:21 29.03.2020
238 Clear 10 1017 42 10000 2 100 17:59 29.03.2020
239 Clear 11 1017 42 10000 2 110 17:41 29.03.2020
240 Clear 11 1017 42 10000 2 110 17:22 29.03.2020
241 Clear 11 1017 42 10000 2 110 17:22 29.03.2020
242 Clear 11 1017 39 10000 2 90 16:58 29.03.2020
243 Clear 11 1017 49 10000 3.2 189 16:39 29.03.2020
244 Clear 11 1017 49 10000 3.2 189 16:21 29.03.2020
245 Clear 11 1017 52 10000 2 130 15:58 29.03.2020
246 Clear 11 1017 42 10000 2 180 15:39 29.03.2020
247 Clear 12 1017 42 10000 2 180 15:19 29.03.2020
248 Clear 13 1016 32 10000 3 190 14:55 29.03.2020
249 Clear 12 1016 37 10000 2 180 14:36 29.03.2020
250 Clear 12 1016 37 10000 2 180 14:36 29.03.2020
251 Clear 14 1016 32 10000 2 170 14:18 29.03.2020
252 Clear 14 1015 30 10000 2 190 13:42 29.03.2020
253 Clear 15 1015 30 10000 2 190 13:22 29.03.2020
254 Clear 16 1015 24 10000 4 180 12:58 29.03.2020
255 Clear 16 1015 24 10000 4 180 12:39 29.03.2020
256 Clouds 16 1015 23 10000 5 180 12:19 29.03.2020
257 Clouds 17 1015 23 10000 5 180 11:59 29.03.2020
258 Clouds 17 1015 23 10000 3 180 11:38 29.03.2020
259 Clouds 18 1015 23 10000 3 180 11:19 29.03.2020
260 Clouds 18 1016 20 10000 4 180 10:39 29.03.2020
261 Clouds 18 1016 20 10000 4 180 10:20 29.03.2020
262 Clouds 18 1016 20 10000 5 220 09:56 29.03.2020
263 Clouds 18 1017 20 10000 5 170 09:38 29.03.2020
264 Clouds 18 1017 20 10000 5 170 09:18 29.03.2020
265 Clouds 17 1018 21 10000 5 190 08:43 29.03.2020
266 Clouds 18 1018 21 10000 5 190 08:25 29.03.2020
267 Clouds 17 1019 22 10000 5 210 07:47 29.03.2020
268 Clouds 17 1019 22 10000 4 170 07:23 29.03.2020
269 Clouds 16 1020 24 10000 5 180 06:34 29.03.2020
270 Clouds 13 1021 32 10000 2 240 04:56 29.03.2020
271 Clouds 12 1022 36 10000 1 0 03:41 29.03.2020
272 Clouds 9 1022 36 10000 1 0 03:20 29.03.2020
273 Clouds 8 1022 42 10000 1 0 01:40 29.03.2020
274 Clear 8 1022 42 10000 1 0 01:21 29.03.2020
275 Clear 6 1021 64 10000 1 40 00:40 29.03.2020
276 Clear 5 1021 44 10000 1 50 00:19 29.03.2020
277 Clear 4 1021 63 10000 1 0 23:41 28.03.2020
278 Clear 3 1021 63 10000 1 0 23:22 28.03.2020
279 Clear 4 1020 50 10000 1 50 22:44 28.03.2020
280 Clear 4 1020 55 10000 2 70 22:23 28.03.2020
281 Clear 4 1021 55 10000 2 70 21:59 28.03.2020
282 Clear 4 1021 55 10000 2 70 21:39 28.03.2020
283 Clear 4 1021 55 10000 2 70 21:21 28.03.2020
284 Clear 5 1021 55 10000 2 80 20:57 28.03.2020
285 Clear 5 1021 50 10000 2 100 20:38 28.03.2020
286 Clear 5 1021 45 10000 2 100 20:20 28.03.2020
287 Clear 5 1022 68 10000 2 70 19:55 28.03.2020
288 Clear 5 1022 55 10000 1 0 19:36 28.03.2020
289 Clear 5 1022 55 10000 1 0 19:18 28.03.2020
290 Clear 6 1022 51 10000 1 0 18:42 28.03.2020
291 Clear 7 1022 41 10000 2 160 18:20 28.03.2020
292 Clear 7 1022 44 10000 2 160 17:43 28.03.2020
293 Clear 7 1022 44 10000 2 160 17:24 28.03.2020
294 Clear 8 1022 38 10000 2 150 17:00 28.03.2020
295 Clear 8 1022 38 10000 2 150 17:00 28.03.2020
296 Clear 8 1022 35 10000 2 160 16:40 28.03.2020
297 Clear 8 1022 35 10000 2 160 16:20 28.03.2020
298 Clear 8 1022 35 10000 2 150 15:55 28.03.2020
299 Clear 9 1022 28 10000 2 170 15:37 28.03.2020
300 Clear 9 1022 28 10000 2 170 15:18 28.03.2020
301 Clear 9 1022 23 10000 3 170 14:41 28.03.2020
302 Clear 10 1022 23 10000 3 170 14:22 28.03.2020
303 Clear 10 1022 19 10000 4 180 13:46 28.03.2020
304 Clear 10 1022 19 10000 4 180 13:26 28.03.2020
305 Clear 11 1021 19 10000 4 180 12:57 28.03.2020
306 Clear 11 1021 19 10000 4 180 12:37 28.03.2020
307 Clear 12 1021 19 10000 4 180 12:18 28.03.2020
308 Clear 12 1021 14 10000 5 180 11:42 28.03.2020
309 Clear 12 1021 13 10000 5 180 11:21 28.03.2020
310 Clear 12 1021 13 10000 5 180 11:21 28.03.2020
311 Clear 14 1021 11 10000 5 180 10:41 28.03.2020
312 Clear 14 1021 11 10000 5 180 10:22 28.03.2020
313 Clear 15 1021 12 10000 4 190 09:59 28.03.2020
314 Clear 15 1021 11 10000 3 220 09:39 28.03.2020
315 Clear 15 1021 11 10000 3 220 09:21 28.03.2020
316 Clear 15 1022 11 10000 3 190 08:42 28.03.2020
317 Clear 15 1022 11 10000 3 190 08:42 28.03.2020
318 Clear 14 1023 11 10000 3 0 08:24 28.03.2020
319 Clouds 14 1023 10 10000 5 220 07:52 28.03.2020
320 Clouds 14 1024 11 10000 3 0 07:34 28.03.2020
321 Clouds 13 1026 11 10000 3 200 06:45 28.03.2020
322 Clouds 14 1026 11 10000 3 200 06:23 28.03.2020
323 Clouds 13 1027 10 10000 4 0 05:26 28.03.2020
324 Clouds 12 1028 12 10000 4 230 04:53 28.03.2020
325 Clouds 11 1029 14 10000 4 180 04:35 28.03.2020
326 Clouds 10 1030 18 10000 2 240 02:50 28.03.2020
327 Clear 7 1030 20 10000 1 0 01:47 28.03.2020
328 Clear 7 1030 24 10000 1 0 01:23 28.03.2020
329 Clear 7 1030 35 10000 1 0 00:49 28.03.2020
330 Clear 5 1030 55 10000 1 40 00:24 28.03.2020
331 Clear 4 1030 46 10000 2 0 23:44 27.03.2020
332 Clear 3 1030 46 10000 2 0 23:26 27.03.2020
333 Clear 1 1029 58 10000 1 0 22:57 27.03.2020
334 Clear 2 1029 53 10000 0.54 171 22:39 27.03.2020
335 Clear 2 1029 53 10000 0.54 171 22:20 27.03.2020
336 Clear 2 1029 62 10000 1 0 21:58 27.03.2020
337 Clear 2 1029 50 10000 1 0 21:40 27.03.2020
338 Clear 2 1029 50 10000 1 0 21:22 27.03.2020
339 Clear 2 1029 53 10000 1 0 20:55 27.03.2020
340 Clear 2 1029 50 10000 1 0 20:37 27.03.2020
341 Clear 2 1029 50 10000 1 0 20:19 27.03.2020
342 Clear 2 1029 49 10000 1 320 19:43 27.03.2020
343 Clear 3 1029 49 10000 1 320 19:23 27.03.2020
344 Clear 3 1029 50 10000 2.43 20 18:57 27.03.2020
345 Clear 4 1029 42 10000 1 40 18:39 27.03.2020
346 Clear 4 1029 42 10000 1 40 18:20 27.03.2020
347 Clear 5 1029 38 10000 1 0 17:41 27.03.2020
348 Clear 5 1029 22 10000 1 0 17:21 27.03.2020
349 Clear 5 1029 22 10000 1 0 16:57 27.03.2020
350 Clear 6 1029 19 10000 1 0 16:39 27.03.2020
351 Clear 6 1029 19 10000 1 0 16:20 27.03.2020
352 Clear 7 1029 17 10000 4 350 15:42 27.03.2020
353 Clear 8 1022 17 0 0.45 0 15:24 27.03.2020
354 Clear 8 1022 17 0 4.22 11 14:48 27.03.2020
355 Clear 8 1022 19 0 4.22 11 14:27 27.03.2020
356 Clear 8 1022 18 0 0.89 315 13:58 27.03.2020
357 Clear 11 1022 19 0 4.82 3 13:40 27.03.2020
358 Clear 11 1022 19 0 4.8 4 13:21 27.03.2020
359 Clear 11 1021 20 0 4.8 4 12:57 27.03.2020
360 Clear 11 1021 19 0 4.8 4 12:39 27.03.2020
361 Clear 12 1021 18 0 1.34 0 12:19 27.03.2020
362 Clear 12 1019 18 0 4.8 4 11:41 27.03.2020
363 Clear 13 1019 15 0 1.34 315 11:23 27.03.2020
364 Clear 13 1019 15 0 0.89 0 11:23 27.03.2020
365 Clear 14 1018 15 0 2.24 0 10:55 27.03.2020
366 Clear 14 1018 16 0 1.34 0 10:37 27.03.2020
367 Clear 14 1018 15 0 0.89 315 10:19 27.03.2020
368 Clear 15 1017 14 0 1.34 180 09:57 27.03.2020
369 Clear 16 1017 14 0 0.45 0 09:37 27.03.2020
370 Clear 14 1017 13 0 2.68 315 09:18 27.03.2020
371 Clear 14 1017 15 0 1.34 315 08:56 27.03.2020
372 Clear 14 1018 15 0 0.45 315 08:38 27.03.2020
373 Clear 14 1018 14 0 1.34 23 08:20 27.03.2020
374 Clear 14 1018 15 0 0.89 315 07:50 27.03.2020
375 Clear 14 1019 14 0 1.34 0 07:24 27.03.2020
376 Clear 14 1020 14 0 0.89 315 06:53 27.03.2020
377 Clear 15 1020 13 0 4.68 296 06:35 27.03.2020
378 Clear 12 1022 15 0 0.89 90 04:24 27.03.2020
379 Clear 10 1023 19 0 0.45 315 02:32 27.03.2020
380 Clear 7 1023 22 0 0.45 315 01:23 27.03.2020
381 Clear 7 1023 24 0 0.45 0 00:48 27.03.2020
382 Clear 6 1023 28 0 3.49 332 00:24 27.03.2020
383 Clear 5 1023 35 0 3.49 332 23:44 26.03.2020
384 Clear 4 1027 24 0 3.02 337 23:22 26.03.2020
385 Clear 3 1023 38 0 3.02 337 22:59 26.03.2020
386 Clear 4 1023 36 0 3.02 337 22:38 26.03.2020
387 Clear 4 1023 37 0 3.02 337 22:19 26.03.2020
388 Clear 4 1023 36 0 3.02 337 21:56 26.03.2020
389 Clear 4 1023 36 0 3.02 337 21:37 26.03.2020
390 Clear 5 1023 32 0 3.02 337 21:18 26.03.2020
391 Clear 5 1022 30 0 3.02 337 20:56 26.03.2020
392 Clear 5 1022 26 0 3.02 337 20:37 26.03.2020
393 Clouds 5 1022 23 0 4.93 348 20:19 26.03.2020
394 Clouds 5 1022 23 0 0.45 315 19:54 26.03.2020
395 Clouds 6 1022 23 0 0.45 0 19:36 26.03.2020
396 Clouds 6 1022 23 0 5.04 355 19:18 26.03.2020
397 Clouds 6 1022 22 0 0.89 315 18:41 26.03.2020
398 Clouds 6 1022 22 0 5.04 355 18:23 26.03.2020
399 Clouds 6 1022 22 0 5.04 355 18:23 26.03.2020
400 Clouds 7 1022 22 0 0.45 0 17:56 26.03.2020
401 Clouds 7 1022 22 0 0.89 0 17:37 26.03.2020
402 Clouds 7 1022 22 0 1.34 338 17:18 26.03.2020
403 Clouds 7 1022 26 0 0.89 315 16:40 26.03.2020
404 Clouds 9 1022 27 0 0.45 0 16:21 26.03.2020
405 Clouds 7 1022 28 0 0.45 0 15:57 26.03.2020
406 Clouds 7 1022 28 0 0.45 0 15:57 26.03.2020
407 Clouds 9 1022 28 0 0.89 0 15:39 26.03.2020
408 Clouds 9 1022 28 0 0.89 0 15:20 26.03.2020
409 Clouds 9 1022 30 0 0.45 315 14:57 26.03.2020
410 Clouds 9 1019 13 0 5.11 360 14:37 26.03.2020
411 Clouds 10 1022 27 0 0.45 0 14:18 26.03.2020
412 Clouds 10 1021 23 0 1.34 0 13:41 26.03.2020
413 Clouds 13 1018 11 0 5.91 349 13:22 26.03.2020
414 Clouds 10 1021 22 0 1.79 338 12:55 26.03.2020
415 Clouds 11 1021 22 0 1.34 315 12:37 26.03.2020
416 Clouds 11 1021 22 0 1.34 0 12:18 26.03.2020
417 Clouds 10 1020 22 0 1.34 0 11:44 26.03.2020
418 Clouds 13 1016 10 0 4.07 351 11:20 26.03.2020
419 Clouds 14 1015 10 0 4.07 351 10:42 26.03.2020
420 Clouds 14 1015 9 0 4.07 351 10:20 26.03.2020
421 Clouds 14 1015 8 0 4.07 351 09:59 26.03.2020
422 Clouds 12 1015 8 0 4.07 351 09:41 26.03.2020
423 Clouds 12 1018 18 0 1.79 0 09:19 26.03.2020
424 Clouds 13 1017 19 0 1.34 225 08:44 26.03.2020
425 Clouds 11 1017 19 0 1.34 0 08:26 26.03.2020
426 Rain 12 1017 18 0 1.34 0 07:57 26.03.2020
427 Rain 12 1017 19 0 1.34 0 07:38 26.03.2020
428 Rain 11 1017 18 0 1.34 45 07:20 26.03.2020
429 Rain 11 1017 18 0 1.34 0 06:38 26.03.2020
430 Rain 11 1017 22 0 4.3 1 05:51 26.03.2020
431 Rain 8 1016 96 0 4.13 14 03:48 26.03.2020
432 Rain 7 1016 95 0 0.45 270 03:26 26.03.2020
433 Rain 7 1016 96 0 4.13 14 02:52 26.03.2020
434 Rain 6 1016 97 0 6.73 346 01:20 26.03.2020
435 Rain 4 1015 97 0 6.66 346 00:33 26.03.2020
436 Rain 5 1014 97 0 6.66 346 23:44 25.03.2020
437 Rain 7 1014 97 0 1.34 315 23:26 25.03.2020
438 Rain 8 1010 66 0 7.58 347 22:56 25.03.2020
439 Rain 9 1009 66 0 7.58 347 22:38 25.03.2020
440 Rain 9 1009 67 0 7.58 347 22:19 25.03.2020
441 Rain 10 1009 66 0 7.58 347 21:54 25.03.2020
442 Rain 10 1008 65 0 7.58 347 21:36 25.03.2020
443 Rain 10 1008 66 0 7.58 347 21:18 25.03.2020
444 Rain 10 1010 95 0 1.34 338 20:39 25.03.2020
445 Rain 11 1008 62 0 5.81 346 20:19 25.03.2020
446 Rain 13 1007 56 0 5.48 354 19:56 25.03.2020
447 Rain 13 1006 53 0 5.48 354 19:38 25.03.2020
448 Rain 14 1006 53 0 5.48 354 19:19 25.03.2020
449 Rain 14 1005 46 0 5.48 354 18:43 25.03.2020
450 Clouds 14 1007 50 0 0.89 225 18:25 25.03.2020
451 Rain 15 1006 44 0 0.89 315 17:59 25.03.2020
452 Rain 15 1006 50 0 5.48 354 17:41 25.03.2020
453 Rain 15 1005 50 0 5.48 354 17:22 25.03.2020
454 Clouds 16 1004 47 0 2.8 96 16:58 25.03.2020
455 Clouds 16 1004 47 0 2.66 89 16:58 25.03.2020
456 Clouds 16 1004 45 0 2.66 89 16:39 25.03.2020
457 Clouds 16 1004 44 0 2.66 89 16:20 25.03.2020
458 Clouds 16 1004 41 0 2.66 89 15:43 25.03.2020
459 Clouds 17 1004 40 0 2.66 89 15:21 25.03.2020
460 Clouds 17 1004 38 0 2.66 89 14:57 25.03.2020
461 Clouds 17 1003 37 0 2.66 89 14:39 25.03.2020
462 Clouds 17 1003 36 0 4.32 141 14:20 25.03.2020
463 Clouds 18 1003 41 0 4.26 136 13:44 25.03.2020
464 Clouds 18 1002 43 0 4.26 136 13:24 25.03.2020
465 Clouds 19 1002 44 0 4.32 141 12:39 25.03.2020
466 Clouds 21 1002 43 0 4.26 136 12:21 25.03.2020
467 Clouds 21 1001 42 0 4.26 136 11:59 25.03.2020
468 Clouds 22 1001 42 0 4.26 136 11:40 25.03.2020
469 Clouds 25 999 31 0 2.37 177 11:21 25.03.2020
470 Clouds 23 1001 42 0 2.37 177 10:58 25.03.2020
471 Clouds 23 1001 41 0 2.37 177 10:40 25.03.2020
472 Clouds 23 1001 41 0 2.37 177 10:19 25.03.2020
473 Clouds 23 1001 41 0 2.37 177 09:56 25.03.2020
474 Clouds 23 999 30 0 2.37 177 09:38 25.03.2020
475 Clouds 24 1001 40 0 2.37 177 09:20 25.03.2020
476 Clouds 22 1002 38 0 2.37 177 08:42 25.03.2020
477 Clouds 22 1002 38 0 2.37 177 08:42 25.03.2020
478 Clouds 23 1001 37 0 2.37 177 08:24 25.03.2020
479 Clear 23 1002 37 0 1.94 186 07:57 25.03.2020
480 Clear 23 1002 36 0 1.94 186 07:38 25.03.2020
481 Clear 23 1002 36 0 1.94 186 07:18 25.03.2020
482 Clear 23 1002 37 0 1.94 186 06:42 25.03.2020
483 Clear 23 1003 36 0 1.94 186 06:23 25.03.2020
484 Clear 22 1003 41 0 1.94 186 05:47 25.03.2020
485 Clear 21 1004 45 0 1.36 155 04:46 25.03.2020
486 Clear 20 1005 47 0 1.36 155 03:58 25.03.2020
487 Clear 19 1005 49 0 1.36 155 03:33 25.03.2020
488 Clouds 16 1005 57 0 1.12 73 01:41 25.03.2020
489 Clouds 13 1005 63 0 1.1 58 00:51 25.03.2020
490 Clouds 12 1005 65 0 1.1 58 00:30 25.03.2020
491 Clouds 11 1005 69 0 1.1 58 23:58 24.03.2020
492 Clouds 11 1004 68 0 1.1 58 23:39 24.03.2020
493 Clouds 11 1004 68 0 0.73 85 23:20 24.03.2020
494 Clouds 12 1004 65 0 0.73 85 22:55 24.03.2020
495 Clouds 12 1004 65 0 0.73 85 22:36 24.03.2020
496 Clouds 12 1004 64 0 0.73 85 22:18 24.03.2020
497 Clouds 12 1004 63 0 0.73 85 21:42 24.03.2020
498 Clouds 12 1004 62 0 0.73 85 21:19 24.03.2020
499 Clouds 13 1004 62 0 0.73 85 20:59 24.03.2020
500 Clouds 12 1004 62 0 0.73 85 20:41 24.03.2020
501 Clouds 12 1004 62 0 1.01 99 20:22 24.03.2020
502 Clouds 12 1004 61 0 1.42 138 19:48 24.03.2020
503 Clouds 12 1004 61 0 1.42 138 19:48 24.03.2020
504 Clouds 13 1005 61 0 1.42 138 19:24 24.03.2020
505 Clouds 13 1005 55 0 1.42 138 18:59 24.03.2020
506 Clouds 13 1005 55 0 1.42 138 18:40 24.03.2020
507 Clouds 13 1005 55 0 1.42 138 18:20 24.03.2020
508 Clouds 13 1005 54 0 1.42 138 17:59 24.03.2020
509 Clouds 13 1005 54 0 1.42 138 17:40 24.03.2020
510 Clouds 13 1005 54 0 1.42 138 17:22 24.03.2020
511 Clouds 13 1012 58 10000 2 110 16:57 24.03.2020
512 Clouds 13 1012 62 10000 2 90 16:38 24.03.2020
513 Clouds 13 1012 62 10000 2 90 16:20 24.03.2020
514 Clouds 14 1013 58 10000 2 130 15:44 24.03.2020
515 Clouds 14 1013 58 10000 2 130 15:44 24.03.2020
516 Clouds 14 1013 62 10000 2 110 15:25 24.03.2020
517 Clouds 13 1013 66 10000 2 110 14:57 24.03.2020
518 Clouds 14 1013 58 10000 1 0 14:39 24.03.2020
519 Clouds 14 1006 49 0 1.78 204 14:18 24.03.2020
520 Clouds 17 1006 48 0 1.78 204 13:42 24.03.2020
521 Clouds 17 1006 49 0 1.7 193 13:22 24.03.2020
522 Clouds 17 1006 48 0 1.7 193 12:47 24.03.2020
523 Clouds 17 1006 47 0 1.7 193 12:28 24.03.2020
524 Clouds 18 1003 32 0 1.7 193 11:58 24.03.2020
525 Clouds 18 1006 46 0 1.7 193 11:39 24.03.2020
526 Clouds 19 1012 36 10000 3 150 11:19 24.03.2020
527 Clouds 18 1012 36 10000 3 140 10:42 24.03.2020
528 Clouds 19 1012 36 10000 3 140 10:19 24.03.2020
529 Clouds 19 1012 34 10000 4 150 09:57 24.03.2020
530 Clouds 20 1012 34 10000 3 150 09:39 24.03.2020
531 Clouds 19 1012 34 10000 3 150 09:20 24.03.2020
532 Clouds 19 1013 31 10000 3 130 08:38 24.03.2020
533 Clouds 19 1013 31 10000 3 130 08:20 24.03.2020
534 Clouds 19 1013 22 10000 2 160 07:47 24.03.2020
535 Clouds 19 1014 22 10000 2 0 07:24 24.03.2020
536 Clouds 19 1016 27 10000 2 120 06:50 24.03.2020
537 Clouds 19 1016 27 10000 2 120 06:25 24.03.2020
538 Clouds 15 1017 24 10000 1 0 04:57 24.03.2020
539 Clouds 15 1018 26 10000 3 150 03:48 24.03.2020
540 Clouds 14 1019 30 10000 2 300 02:49 24.03.2020
541 Clouds 11 1019 37 10000 2 340 01:42 24.03.2020
542 Clouds 10 1019 36 10000 2 300 00:44 24.03.2020
543 Clouds 8 1019 48 10000 2 310 00:23 24.03.2020
544 Clouds 7 1019 55 10000 2 310 23:44 23.03.2020
545 Clouds 7 1019 55 10000 2 310 23:26 23.03.2020
546 Clouds 7 1019 55 10000 2 310 23:26 23.03.2020
547 Clouds 7 1019 55 10000 2 330 22:55 23.03.2020
548 Clouds 7 1019 60 10000 2 340 22:36 23.03.2020
549 Clouds 7 1019 60 10000 2 340 22:18 23.03.2020
550 Clouds 7 1019 64 10000 1 360 21:42 23.03.2020
551 Clouds 7 1019 64 10000 1 360 21:20 23.03.2020
552 Clouds 7 1019 51 10000 1 350 20:57 23.03.2020
553 Clouds 7 1020 64 10000 2 360 20:38 23.03.2020
554 Clouds 7 1020 64 10000 2 360 20:19 23.03.2020
555 Clouds 7 1020 55 10000 1 360 19:45 23.03.2020
556 Clouds 7 1020 55 10000 1 360 19:26 23.03.2020
557 Clouds 8 1021 45 10000 1 0 18:57 23.03.2020
558 Clouds 8 1021 45 10000 1 0 18:39 23.03.2020
559 Clouds 8 1021 45 10000 1 0 18:20 23.03.2020
560 Clouds 8 1021 48 10000 1 70 17:42 23.03.2020
561 Clouds 9 1021 39 10000 1 0 17:21 23.03.2020
562 Clouds 9 1021 39 10000 1 0 16:57 23.03.2020
563 Clouds 9 1021 39 10000 1 110 16:39 23.03.2020
564 Clouds 9 1021 39 10000 1 110 16:20 23.03.2020
565 Clouds 10 1021 31 10000 2 140 15:41 23.03.2020
566 Clouds 10 1021 31 10000 2 140 15:19 23.03.2020
567 Clouds 10 1020 31 10000 3 160 14:38 23.03.2020
568 Clouds 12 1020 31 10000 3 160 14:20 23.03.2020
569 Clouds 12 1020 25 10000 4 130 13:59 23.03.2020
570 Clouds 12 1020 30 10000 4 130 13:40 23.03.2020
571 Clouds 14 1020 30 10000 4 130 13:20 23.03.2020
572 Clouds 13 1018 30 10000 2 130 12:45 23.03.2020
573 Clouds 13 1018 30 10000 2 130 12:45 23.03.2020
574 Clouds 14 1018 30 10000 2 130 12:25 23.03.2020
575 Clouds 15 1018 28 10000 3 140 11:59 23.03.2020
576 Clouds 15 1018 25 10000 5 150 11:40 23.03.2020
577 Clouds 19 1017 25 10000 6 150 11:20 23.03.2020
578 Clouds 19 1017 25 10000 6 150 11:20 23.03.2020
579 Clouds 19 1017 25 10000 6 150 10:58 23.03.2020
580 Clouds 18 1017 22 10000 5 150 10:38 23.03.2020
581 Clouds 19 1017 22 10000 5 150 10:20 23.03.2020
582 Clouds 20 1017 19 10000 6 150 09:44 23.03.2020
583 Clouds 20 1017 19 10000 6 150 09:21 23.03.2020
584 Clouds 21 1017 19 10000 5 140 08:57 23.03.2020
585 Clouds 21 1018 19 10000 5 130 08:36 23.03.2020
586 Clear 21 1018 19 10000 5 130 08:18 23.03.2020
587 Clear 22 1018 19 10000 5 150 07:45 23.03.2020
588 Clear 22 1018 19 10000 5 150 07:27 23.03.2020
589 Clear 22 1019 19 10000 5 140 06:51 23.03.2020
590 Clear 22 1020 13 10000 3 0 05:54 23.03.2020
591 Clear 22 1020 13 10000 3 0 05:29 23.03.2020
592 Clear 19 1021 17 10000 3 320 03:29 23.03.2020
593 Clear 15 1021 30 10000 1 0 01:51 23.03.2020
594 Clear 14 1020 35 10000 1 0 01:33 23.03.2020
595 Clear 11 1020 56 10000 2 360 00:39 23.03.2020
596 Clear 9 1019 60 10000 1 340 23:47 22.03.2020
597 Clear 8 1019 60 10000 1 340 23:26 22.03.2020
598 Clear 9 1019 52 10000 2 20 22:45 22.03.2020
599 Clear 9 1019 52 10000 2 20 22:26 22.03.2020
600 Clear 8 1018 56 10000 3 320 21:56 22.03.2020
601 Clear 9 1018 56 10000 2 320 21:37 22.03.2020
602 Clear 9 1018 56 10000 2 320 21:19 22.03.2020
603 Clear 9 1018 60 10000 2 340 20:46 22.03.2020
604 Clear 9 1018 69 10000 1 350 20:26 22.03.2020
605 Clear 10 1018 65 10000 1 0 19:59 22.03.2020
606 Clear 10 1018 60 10000 2 350 19:40 22.03.2020
607 Clear 10 1018 60 10000 2 350 19:21 22.03.2020
608 Clear 10 1018 56 10000 1 0 18:59 22.03.2020
609 Clear 10 1018 60 10000 2 360 18:41 22.03.2020
610 Clear 10 1018 60 10000 2 360 18:22 22.03.2020
611 Clear 10 1018 60 10000 2 360 18:22 22.03.2020
612 Clear 11 1018 60 10000 3 360 17:59 22.03.2020
613 Clear 11 1018 60 10000 3 360 17:59 22.03.2020
614 Clear 11 1018 18 10000 2 360 17:39 22.03.2020
615 Clear 11 1018 18 10000 2 360 17:21 22.03.2020
616 Clear 11 1018 18 10000 2 360 17:21 22.03.2020
617 Clear 11 1017 60 10000 1 0 16:59 22.03.2020
618 Clear 11 1017 60 10000 1 0 16:59 22.03.2020
619 Clear 12 1017 49 10000 1.56 339 16:41 22.03.2020
620 Clear 12 1017 49 10000 1.56 339 16:22 22.03.2020
621 Clear 12 1017 56 10000 2 60 15:58 22.03.2020
622 Clear 13 1017 46 10000 1 0 15:39 22.03.2020
623 Clear 14 1016 46 10000 1.56 339 14:47 22.03.2020
624 Clear 14 1016 43 10000 1 80 14:19 22.03.2020
625 Clear 16 1015 35 10000 1 0 13:57 22.03.2020
626 Clear 16 1015 33 10000 2 150 13:39 22.03.2020
627 Clear 17 1015 33 10000 2 150 13:19 22.03.2020
628 Clear 18 1014 25 10000 3 200 12:44 22.03.2020
629 -273 0 0 0 0 0 12:20 22.03.2020
630 Clear 18 1014 25 10000 3 190 11:56 22.03.2020
631 Clear 19 1013 20 10000 6 210 11:38 22.03.2020
632 Clear 20 1013 20 10000 6 210 11:19 22.03.2020
633 Clear 21 1013 19 10000 7 200 10:43 22.03.2020
634 Clear 21 1013 19 10000 7 200 10:24 22.03.2020
635 Clear 21 1013 19 10000 7 200 10:24 22.03.2020
636 Clear 21 1013 18 10000 6 190 09:49 22.03.2020
637 Clear 22 1013 17 10000 6 200 09:30 22.03.2020
638 Clear 22 1014 17 10000 5 210 08:55 22.03.2020
639 Clear 22 1014 17 10000 5 210 08:36 22.03.2020
640 Clear 22 1014 17 10000 5 210 08:36 22.03.2020
641 Clear 22 1014 17 10000 5 210 08:18 22.03.2020
642 Clear 21 1015 18 10000 7 190 07:48 22.03.2020
643 Clear 21 1015 18 10000 6 220 07:18 22.03.2020
644 Clear 21 1017 18 10000 5 190 05:54 22.03.2020
645 Clear 17 1019 23 10000 2 0 04:50 22.03.2020
646 Clear 14 1021 34 10000 2 260 02:43 22.03.2020
647 Clear 10 1021 45 10000 1 0 01:20 22.03.2020
648 Clear 8 1020 69 10000 1 170 00:35 22.03.2020
649 Clear 7 1020 24 10000 1 10 23:57 21.03.2020
650 Clear 6 1020 24 10000 1 30 23:38 21.03.2020
651 Clear 4 1020 26 10000 2 20 23:18 21.03.2020
652 Clear 5 1020 69 10000 1 0 22:38 21.03.2020
653 Clear 5 1020 69 10000 1 0 22:20 21.03.2020
654 Clear 6 1019 59 10000 1 0 21:59 21.03.2020
655 Clear 6 1019 64 10000 2 70 21:39 21.03.2020
656 Clear 6 1019 64 10000 2 70 21:21 21.03.2020
657 Clear 7 1019 55 10000 2 50 20:46 21.03.2020
658 Clear 7 1019 55 10000 2 50 20:23 21.03.2020
659 Clear 8 1019 52 10000 2 110 19:57 21.03.2020
660 Clear 7 1019 55 10000 2 110 19:39 21.03.2020
661 Clear 7 1019 55 10000 2 110 19:20 21.03.2020
662 Clear 7 1019 45 10000 1 0 18:54 21.03.2020
663 Clear 8 1019 42 10000 1 0 18:36 21.03.2020
664 Clear 8 1019 42 10000 1 0 18:18 21.03.2020
665 Clear 9 1019 36 10000 2 160 17:42 21.03.2020
666 Clear 9 1019 36 10000 2 160 17:23 21.03.2020
667 Clear 10 1019 34 10000 2 150 16:56 21.03.2020
668 Clear 10 1018 36 10000 4 160 16:38 21.03.2020
669 Clear 10 1018 36 10000 4 160 16:18 21.03.2020
670 Clear 10 1018 36 10000 4 160 16:18 21.03.2020
671 Clear 10 1018 31 10000 3 160 15:41 21.03.2020
672 Clear 10 1018 31 10000 3 160 15:23 21.03.2020
673 Clear 11 1017 27 10000 3 150 14:58 21.03.2020
674 Clear 12 1017 27 10000 3 140 14:40 21.03.2020
675 Clear 13 1017 27 10000 3 140 14:20 21.03.2020
676 Clear 13 1016 29 10000 2 160 13:59 21.03.2020
677 Clear 14 1016 32 10000 3 190 13:40 21.03.2020
678 Clear 14 1016 32 10000 3 190 13:22 21.03.2020
679 Clear 14 1015 27 10000 3 180 12:59 21.03.2020
680 Clear 15 1015 28 10000 3 160 12:38 21.03.2020
681 Clear 14 1014 24 10000 3 150 12:19 21.03.2020
682 Clear 14 1014 24 10000 3 150 12:19 21.03.2020
683 Clear 14 1014 24 10000 3 150 11:56 21.03.2020
684 Clear 16 1014 24 10000 4 170 11:38 21.03.2020
685 Clear 15 1013 21 10000 5 180 11:19 21.03.2020
686 Clear 16 1013 21 10000 5 180 10:56 21.03.2020
687 Clear 17 1013 21 10000 4 190 10:38 21.03.2020
688 Clear 17 1013 21 10000 4 190 10:19 21.03.2020
689 Clear 18 1012 20 10000 4 190 09:55 21.03.2020
690 Clear 18 1012 18 10000 4 190 09:37 21.03.2020
691 Clear 18 1012 18 10000 4 190 09:18 21.03.2020
692 Clear 18 1012 19 10000 5 180 08:43 21.03.2020
693 Clear 18 1012 20 10000 3 150 08:24 21.03.2020
694 Clouds 18 1012 17 10000 4 170 07:43 21.03.2020
695 Clouds 17 1012 17 10000 4 170 07:23 21.03.2020
696 Clouds 17 1013 18 10000 2 190 06:48 21.03.2020
697 Clouds 18 1013 18 10000 2 190 06:27 21.03.2020
698 Clouds 17 1013 18 10000 2 0 05:46 21.03.2020
699 Clouds 15 1014 19 10000 3 150 04:46 21.03.2020
700 Clouds 14 1014 24 10000 2 170 02:51 21.03.2020
701 Clouds 15 1013 24 10000 5 170 02:33 21.03.2020
702 Clouds 14 1013 24 10000 3 170 01:32 21.03.2020
703 Clouds 13 1011 30 10000 4 160 00:48 21.03.2020
704 Clouds 12 1011 30 10000 4 160 00:26 21.03.2020
705 Clouds 12 1011 32 10000 3 180 23:51 20.03.2020
706 Clouds 12 1010 32 10000 3 170 23:27 20.03.2020
707 Clouds 12 1010 30 10000 2 140 22:59 20.03.2020
708 Clouds 13 1009 28 10000 2 110 22:40 20.03.2020
709 Clouds 13 1009 28 10000 2 110 22:21 20.03.2020
710 Clouds 13 1009 28 10000 3 120 21:56 20.03.2020
711 Clouds 13 1009 28 10000 3 110 21:38 20.03.2020
712 Clouds 14 1009 33 10000 3 110 21:18 20.03.2020
713 Clouds 14 1009 33 10000 3 110 20:56 20.03.2020
714 Clouds 14 1009 33 10000 3 110 20:38 20.03.2020
715 Clouds 14 1009 33 10000 3 110 20:18 20.03.2020
716 Clouds 15 1009 26 10000 2 90 19:44 20.03.2020
717 Clouds 15 1009 21 10000 2 60 19:19 20.03.2020
718 Clouds 15 1009 19 10000 3 30 18:55 20.03.2020
719 Clouds 15 1008 19 10000 5 30 18:37 20.03.2020
720 Clouds 16 1008 17 10000 4 20 18:19 20.03.2020
721 Clouds 17 1008 17 10000 4 20 17:39 20.03.2020
722 Clear 16 1008 34 10000 3 360 17:21 20.03.2020
723 Clear 16 1008 34 10000 3 360 17:21 20.03.2020
724 Clear 15 1008 34 10000 3 360 16:57 20.03.2020
725 Clear 16 1008 28 10000 4.9 42 16:39 20.03.2020
726 Clear 16 1008 28 10000 4.9 42 16:18 20.03.2020
727 Clear 15 1008 27 10000 1 0 15:42 20.03.2020
728 Clear 17 1007 17 10000 1 0 15:21 20.03.2020
729 Clear 18 1007 16 10000 3 50 14:56 20.03.2020
730 Clear 17 1006 24 10000 2 140 14:37 20.03.2020
731 Clear 16 1006 24 10000 2 140 14:18 20.03.2020
732 Clear 17 1005 21 10000 1 40 13:43 20.03.2020
733 Clear 18 1005 21 10000 1 40 13:19 20.03.2020
734 Clear 21 1004 12 10000 5 300 12:41 20.03.2020
735 Clear 21 1004 12 10000 5 300 12:23 20.03.2020
736 Clear 21 1004 12 10000 5 300 11:58 20.03.2020
737 Clear 22 1003 11 10000 7 300 11:38 20.03.2020
738 Clear 22 1002 10 10000 8 290 11:19 20.03.2020
739 Clear 24 1002 9 10000 8 280 10:42 20.03.2020
740 Clear 25 1002 9 10000 8 280 10:21 20.03.2020
741 Clear 24 1002 9 10000 8 280 09:59 20.03.2020
742 Clear 25 1002 9 10000 8 280 09:41 20.03.2020
743 Clear 25 1002 11 10000 3 300 09:19 20.03.2020
744 Clear 25 1002 10 10000 3 260 08:43 20.03.2020
745 Clear 24 1002 12 10000 4 250 08:22 20.03.2020
746 Clear 24 1002 12 10000 4 250 08:22 20.03.2020
747 Clouds 23 1002 16 10000 2 210 07:55 20.03.2020
748 Clouds 22 1003 18 10000 1 0 07:37 20.03.2020
749 Clouds 22 1003 18 10000 1 0 07:18 20.03.2020
750 Clouds 22 1004 20 10000 1 0 06:41 20.03.2020
751 Clouds 16 1005 26 10000 2 200 04:52 20.03.2020
752 Clouds 15 1005 28 10000 1 0 03:50 20.03.2020
753 Clouds 11 1006 34 10000 1 0 02:21 20.03.2020
754 Clouds 10 1006 45 10000 1 0 01:33 20.03.2020
755 Clouds 7 1006 64 10000 2 350 00:33 20.03.2020
756 Clouds 7 1005 51 10000 1 30 23:49 19.03.2020
757 Clouds 7 1005 51 10000 1 30 23:30 19.03.2020
758 Clouds 8 1005 39 10000 1 0 22:57 19.03.2020
759 Clouds 8 1006 41 10000 1 0 22:38 19.03.2020
760 Clouds 8 1006 41 10000 1 0 22:20 19.03.2020
761 Clouds 8 1006 41 10000 2 110 21:55 19.03.2020
762 Clouds 8 1006 39 10000 2 70 21:37 19.03.2020
763 Clouds 8 1006 39 10000 2 70 21:18 19.03.2020
764 Clouds 9 1007 39 10000 2 120 20:42 19.03.2020
765 Clouds 9 1007 39 10000 2 120 20:23 19.03.2020
766 Clouds 8 1007 48 10000 1 100 19:56 19.03.2020
767 Clouds 9 1008 33 10000 1 0 19:38 19.03.2020
768 Clouds 10 1008 33 10000 2 90 19:19 19.03.2020
769 Clouds 10 1008 33 10000 2 90 18:56 19.03.2020
770 Clouds 10 1009 36 10000 2 130 18:38 19.03.2020
771 Clouds 10 1009 36 10000 2 130 18:19 19.03.2020
772 Clouds 11 1009 29 10000 2 140 17:42 19.03.2020
773 Clouds 11 1010 36 10000 2 110 17:19 19.03.2020
774 Clouds 12 1010 21 10000 2 140 16:45 19.03.2020
775 Clouds 11 1010 21 10000 2 140 16:25 19.03.2020
776 Clouds 12 1011 21 10000 3 150 15:55 19.03.2020
777 Clouds 12 1011 25 10000 3 160 15:36 19.03.2020
778 Clouds 13 1011 25 10000 3 160 15:18 19.03.2020
779 Clouds 12 1011 23 10000 2 150 14:43 19.03.2020
780 Clouds 13 1011 23 10000 2 150 14:21 19.03.2020
781 Clear 12 1011 23 10000 3 170 13:41 19.03.2020
782 Clear 14 1011 18 10000 4 180 13:20 19.03.2020
783 Clear 14 1011 18 10000 4 180 12:58 19.03.2020
784 Clear 14 1011 14 10000 6 190 12:40 19.03.2020
785 Clear 15 1011 14 10000 6 190 12:21 19.03.2020
786 Clear 15 1011 12 10000 4 190 11:43 19.03.2020
787 Clear 16 1010 7 10000 5 210 11:24 19.03.2020
788 Clear 17 1010 7 10000 5 210 10:57 19.03.2020
789 Clear 18 1010 6 10000 3 310 10:38 19.03.2020
790 Clear 18 1010 6 10000 3 310 10:19 19.03.2020
791 Clear 18 1011 6 10000 5 290 09:55 19.03.2020
792 Clear 18 1011 6 10000 5 290 09:37 19.03.2020
793 Clear 18 1011 6 10000 5 290 09:18 19.03.2020
794 Clear 18 1012 7 10000 6 300 08:41 19.03.2020
795 Clear 17 1012 7 10000 6 300 08:20 19.03.2020
796 Clear 17 1013 9 10000 7 280 07:44 19.03.2020
797 Clear 17 1013 8 10000 6 270 07:25 19.03.2020
798 Clear 16 1014 11 10000 6 290 06:35 19.03.2020
799 Clear 15 1015 11 10000 7 290 05:48 19.03.2020
800 Clear 14 1015 11 10000 7 290 04:54 19.03.2020
801 Clear 14 1015 11 10000 8 310 04:34 19.03.2020
802 Clear 12 1016 15 10000 12 320 02:37 19.03.2020
803 Clear 10 1016 16 10000 9 310 01:21 19.03.2020
804 Clear 9 1015 18 10000 9 310 00:28 19.03.2020
805 Clear 9 1014 17 10000 9 320 23:48 18.03.2020
806 Clear 8 1014 17 10000 9 320 23:29 18.03.2020
807 Clear 8 1014 17 10000 10 320 22:56 18.03.2020
808 Clear 9 1013 15 10000 8 320 22:38 18.03.2020
809 Clear 9 1013 15 10000 8 320 22:20 18.03.2020
810 Clear 9 1013 14 10000 8 310 21:41 18.03.2020
811 Clear 9 1013 15 10000 9 310 21:21 18.03.2020
812 Clear 9 1013 15 10000 10 320 20:57 18.03.2020
813 Clear 9 1013 16 10000 5 310 20:39 18.03.2020
814 Clear 9 1013 16 10000 5 310 20:20 18.03.2020
815 Clear 9 1013 19 10000 4 300 19:56 18.03.2020
816 Clear 9 1013 30 10000 2 320 19:37 18.03.2020
817 Clear 9 1013 22 10000 3 270 19:19 18.03.2020
818 Clear 9 1013 22 10000 3 270 19:19 18.03.2020
819 Clear 9 1013 22 10000 3 270 18:41 18.03.2020
820 Clear 10 1013 21 10000 2 260 18:20 18.03.2020
821 Clear 9 1013 21 10000 2 260 17:58 18.03.2020
822 Clear 10 1012 18 10000 6 320 17:39 18.03.2020
823 Clear 11 1012 18 10000 7 320 17:21 18.03.2020
824 Clear 11 1012 18 10000 7 320 16:55 18.03.2020
825 Clear 10 1012 19 10000 9 320 16:37 18.03.2020
826 Clear 10 1012 19 10000 9 320 16:19 18.03.2020
827 Clear 10 1012 21 10000 8 310 15:45 18.03.2020
828 Clear 10 1012 23 10000 9 310 15:20 18.03.2020
829 Clear 11 1011 21 10000 10 310 14:45 18.03.2020
830 Clear 12 1011 23 10000 11 310 14:22 18.03.2020
831 Clouds 12 1011 21 10000 14 320 13:58 18.03.2020
832 Clouds 12 1010 23 10000 14 320 13:36 18.03.2020
833 Clouds 13 1008 25 10000 14 310 13:18 18.03.2020
834 Rain 13 1008 25 10000 14 310 12:41 18.03.2020
835 Rain 14 1007 24 8000 15 310 12:19 18.03.2020
836 Rain 16 1006 18 8000 16 310 11:40 18.03.2020
837 Rain 18 1001 14 7000 14 310 11:21 18.03.2020
838 Dust 20 1001 14 7000 14 310 10:58 18.03.2020
839 Rain 21 999 10 5000 13 290 10:39 18.03.2020
840 Rain 21 999 10 5000 13 290 10:20 18.03.2020
841 Rain 23 997 8 8000 11 290 09:56 18.03.2020
842 Rain 24 997 7 10000 9 270 09:38 18.03.2020
843 Rain 25 997 7 10000 9 270 09:20 18.03.2020
844 Clouds 25 997 14 10000 4 220 08:39 18.03.2020
845 Clouds 25 997 14 10000 4 220 08:21 18.03.2020
846 Clouds 24 998 17 10000 3 200 07:49 18.03.2020
847 Clouds 23 998 19 10000 3 200 07:30 18.03.2020
848 Clouds 23 999 21 10000 3 210 06:50 18.03.2020
849 Clouds 23 999 24 10000 3 200 06:24 18.03.2020
850 Clouds 22 1000 8 10000 2 0 05:35 18.03.2020
851 Clouds 18 1002 19 10000 1 0 04:29 18.03.2020
852 Clouds 15 1004 19 10000 1 0 02:51 18.03.2020
853 Clouds 13 1004 19 10000 2 60 02:23 18.03.2020
854 Clouds 11 1004 70 10000 1 0 01:29 18.03.2020
855 Clouds 7 1005 69 10000 1 0 00:26 18.03.2020
856 Clouds 7 1005 69 10000 1 0 23:59 17.03.2020
857 Clouds 7 1005 69 10000 1 0 23:40 17.03.2020
858 Clouds 6 1005 74 10000 2 350 23:19 17.03.2020
859 Clear 7 1005 69 10000 1 350 22:42 17.03.2020
860 Clear 7 1005 69 10000 1 350 22:23 17.03.2020
861 Clear 8 1005 60 10000 1 0 21:42 17.03.2020
862 Clear 8 1005 60 10000 1 0 21:22 17.03.2020
863 Clouds 9 1006 52 10000 2 70 20:56 17.03.2020
864 Clouds 9 1006 60 10000 2 70 20:37 17.03.2020
865 Clear 9 1006 60 10000 2 70 20:18 17.03.2020
866 Clear 10 1007 56 10000 1 0 19:41 17.03.2020
867 Clear 10 1007 52 10000 1 0 19:18 17.03.2020
868 Clear 11 1007 48 10000 1 40 18:56 17.03.2020
869 Clear 11 1007 48 10000 1 40 18:38 17.03.2020
870 Clear 11 1007 48 10000 1 40 18:38 17.03.2020
871 Clear 12 1007 45 10000 1 0 18:20 17.03.2020
872 Clear 13 1008 42 10000 2 120 17:41 17.03.2020
873 Clear 14 1008 32 10000 2 140 17:22 17.03.2020
874 Clear 13 1008 32 10000 2 140 16:56 17.03.2020
875 Clear 15 1008 28 10000 2 140 16:38 17.03.2020
876 Clear 14 1008 28 10000 2 140 16:18 17.03.2020
877 Clear 14 1009 34 10000 2 140 15:43 17.03.2020
878 Clear 14 1009 37 10000 1 0 15:21 17.03.2020
879 Clear 15 1009 32 10000 1 0 14:44 17.03.2020
880 Clear 16 1010 30 10000 2 150 14:23 17.03.2020
881 Clear 16 1010 24 10000 2 150 13:56 17.03.2020
882 Clear 16 1010 24 10000 2 150 13:38 17.03.2020
883 Clear 17 1010 21 10000 2 150 13:20 17.03.2020
884 Clear 18 1010 18 10000 2 160 12:42 17.03.2020
885 Clear 18 1010 17 10000 4 180 12:22 17.03.2020
886 Clear 20 1010 16 10000 6 180 11:47 17.03.2020
887 Clear 20 1010 15 10000 4 150 11:29 17.03.2020
888 Clear 21 1010 15 10000 4 150 10:58 17.03.2020
889 Clear 22 1010 14 10000 5 160 10:39 17.03.2020
890 Clear 22 1010 14 10000 4 170 10:21 17.03.2020
891 Clear 22 1010 14 10000 4 170 09:59 17.03.2020
892 Clear 22 1010 14 10000 4 160 09:40 17.03.2020
893 Clear 22 1010 14 10000 4 160 09:19 17.03.2020
894 Clear 23 1011 13 10000 3 190 08:48 17.03.2020
895 Clear 22 1011 13 10000 3 180 08:23 17.03.2020
896 Clear 22 1012 13 10000 2 0 07:50 17.03.2020
897 Clear 21 1012 14 10000 3 190 07:28 17.03.2020
898 Clear 21 1013 14 10000 3 200 06:59 17.03.2020
899 Clear 21 1013 14 10000 3 200 06:34 17.03.2020
900 Clear 20 1015 15 10000 1 0 05:55 17.03.2020
901 Clear 14 1016 35 10000 1 0 03:43 17.03.2020
902 Clear 15 1017 40 10000 1 0 02:46 17.03.2020
903 Clear 9 1017 49 10000 1 0 01:44 17.03.2020
904 Clear 9 1016 56 10000 2 360 01:25 17.03.2020
905 Clear 7 1016 86 10000 1 0 00:38 17.03.2020
906 Clear 7 1016 86 10000 3 350 23:45 16.03.2020
907 Clear 6 1016 86 10000 3 350 23:27 16.03.2020
908 Clear 7 1015 74 10000 1 0 22:41 16.03.2020
909 Clear 7 1015 74 10000 1 0 22:23 16.03.2020
910 Clear 6 1015 80 10000 1 0 21:58 16.03.2020
911 Clear 8 1015 64 10000 2 290 21:40 16.03.2020
912 Clear 7 1015 64 10000 2 290 21:21 16.03.2020
913 Clear 7 1015 64 10000 1 290 20:56 16.03.2020
914 Clear 8 1015 59 10000 1 0 20:37 16.03.2020
915 Clear 8 1015 59 10000 1 0 20:18 16.03.2020
916 Clear 8 1016 64 10000 3 360 19:41 16.03.2020
917 Clear 8 1016 64 10000 3 360 19:20 16.03.2020
918 Clear 8 1016 69 10000 3 340 18:43 16.03.2020
919 Clear 8 1016 74 10000 2 340 18:21 16.03.2020
920 Clear 7 1016 74 10000 2 340 17:55 16.03.2020
921 Clear 8 1016 69 10000 1 350 17:37 16.03.2020
922 Clear 4 1016 69 10000 3 360 17:18 16.03.2020
923 Clear 5 1016 69 10000 2 350 16:44 16.03.2020
924 Clear 5 1016 69 10000 2 350 16:24 16.03.2020
925 Clear 6 1016 69 10000 0.81 295 15:45 16.03.2020
926 Clear 6 1016 69 10000 1 40 15:27 16.03.2020
927 Clear 7 1016 60 10000 1 0 14:49 16.03.2020
928 Clear 7 1016 60 10000 1 0 14:27 16.03.2020
929 Clear 8 1016 55 10000 1 0 13:58 16.03.2020
930 Clear 9 1015 52 10000 2 120 13:40 16.03.2020
931 Clear 9 1015 52 10000 2 120 13:21 16.03.2020
932 Clouds 9 1015 42 10000 1 90 12:44 16.03.2020
933 Clouds 9 1015 42 10000 1 90 12:23 16.03.2020
934 Clouds 12 1014 37 10000 1 0 11:47 16.03.2020
935 Clouds 12 1014 37 10000 1 0 11:28 16.03.2020
936 Clouds 13 1014 32 10000 1 0 10:56 16.03.2020
937 Clouds 13 1014 32 10000 2 140 10:37 16.03.2020
938 Clouds 14 1014 32 10000 2 140 10:18 16.03.2020
939 Clouds 13 1014 30 10000 1 0 09:42 16.03.2020
940 Clouds 13 1014 30 10000 1 0 09:21 16.03.2020
941 Clouds 13 1014 30 10000 2 130 08:52 16.03.2020
942 Clear 13 1015 30 10000 2 250 08:25 16.03.2020
943 Clouds 13 1015 30 10000 2 250 08:25 16.03.2020
944 Clouds 11 1016 34 10000 2 250 07:48 16.03.2020
945 Clouds 12 1016 34 10000 2 250 07:25 16.03.2020
946 Clouds 11 1017 34 10000 2 210 06:52 16.03.2020
947 Clouds 11 1019 36 10000 1 0 06:24 16.03.2020
948 Clouds 8 1021 39 10000 1 0 04:55 16.03.2020
949 Clouds 7 1023 48 10000 1 0 02:42 16.03.2020
950 Clouds 2 1024 68 10000 1 60 00:52 16.03.2020
951 Clouds 1 1024 73 10000 1 50 00:33 16.03.2020
952 Clouds 0 1025 63 10000 1 0 23:46 15.03.2020
953 Clouds 0 1025 49 10000 1 0 23:20 15.03.2020
954 Clouds 1 1025 49 10000 1 0 22:43 15.03.2020
955 Clouds 1 1025 49 10000 1 0 22:23 15.03.2020
956 Clouds 1 1025 49 10000 2 110 21:58 15.03.2020
957 Clouds 1 1025 50 10000 2 90 21:38 15.03.2020
958 Clouds 1 1025 50 10000 2 90 21:18 15.03.2020
959 Clouds 2 1025 50 10000 2 90 20:42 15.03.2020
960 Clear 2 1026 50 10000 1 0 20:20 15.03.2020
961 Clear 2 1026 50 10000 2 100 19:58 15.03.2020
962 Clear 2 1026 50 10000 3 120 19:39 15.03.2020
963 Clear 2 1026 50 10000 3 120 19:20 15.03.2020
964 Clear 2 1026 50 10000 2 100 18:55 15.03.2020
965 Clear 3 1026 47 10000 3 110 18:37 15.03.2020
966 Clear 4 1026 47 10000 3 110 18:19 15.03.2020
967 Clear 4 1026 55 10000 2 110 17:41 15.03.2020
968 Clear 5 1026 51 10000 4 110 17:21 15.03.2020
969 Clear 5 1026 51 10000 4 110 16:58 15.03.2020
970 Clear 5 1026 55 10000 4 110 16:39 15.03.2020
971 Clear 5 1026 55 10000 4 110 16:21 15.03.2020
972 Clear 6 1025 55 10000 4 100 15:46 15.03.2020
973 Clear 6 1025 52 10000 6 140 15:28 15.03.2020
974 Clear 6 1024 56 10000 6 120 14:58 15.03.2020
975 Clear 8 1023 48 10000 5 120 14:38 15.03.2020
976 Clear 10 1023 48 10000 5 120 14:19 15.03.2020
977 Clear 12 1022 39 10000 6 130 13:55 15.03.2020
978 Clear 12 1021 37 10000 5 150 13:36 15.03.2020
979 Clear 11 1021 37 10000 5 150 13:18 15.03.2020
980 Clear 11 1021 37 10000 5 150 13:18 15.03.2020
981 Clear 13 1019 20 10000 2 110 12:40 15.03.2020
982 Clear 13 1019 20 10000 2 110 12:21 15.03.2020
983 Clear 15 1018 18 10000 2 110 11:43 15.03.2020
984 Clear 15 1018 18 10000 2 110 11:24 15.03.2020
985 Clear 16 1018 17 10000 3 90 10:58 15.03.2020
986 Clear 17 1017 17 10000 3 80 10:39 15.03.2020
987 Clear 17 1017 17 10000 3 80 10:21 15.03.2020
988 Clear 18 1017 16 10000 1 0 09:57 15.03.2020
989 Clear 19 1018 16 10000 2 0 09:36 15.03.2020
990 Clear 19 1018 16 10000 2 0 09:18 15.03.2020
991 Clear 18 1017 17 10000 2 0 08:40 15.03.2020
992 Clear 18 1017 17 10000 2 0 08:19 15.03.2020
993 Clear 17 1018 18 10000 2 0 07:44 15.03.2020
994 Clear 17 1018 17 10000 3 50 07:21 15.03.2020
995 Clear 17 1019 18 10000 3 50 06:36 15.03.2020
996 Clear 17 1019 21 10000 4 30 05:46 15.03.2020
997 Clear 15 1019 22 10000 4 50 04:55 15.03.2020
998 Clear 15 1019 24 10000 4 50 04:33 15.03.2020
999 Clear 15 1019 24 10000 5 40 03:59 15.03.2020
1000 Clear 13 1019 28 10000 4 40 02:49 15.03.2020
1001 Clear 14 1019 26 10000 5 360 02:18 15.03.2020
1002 Clear 6 1018 44 10000 2 40 00:57 15.03.2020
1003 Clear 6 1017 51 10000 3 350 00:38 15.03.2020
1004 Clear 7 1016 55 10000 3 350 00:18 15.03.2020
1005 Clear 8 1016 51 10000 3 10 23:38 14.03.2020
1006 Clear 8 1015 47 10000 2 20 23:19 14.03.2020
1007 Clear 7 1015 47 10000 2 20 22:55 14.03.2020
1008 Clear 7 1014 41 10000 2 30 22:37 14.03.2020
1009 Clear 8 1014 41 10000 2 30 22:19 14.03.2020
1010 Clear 7 1014 41 10000 2 350 21:54 14.03.2020
1011 Clear 7 1014 38 10000 1 0 21:36 14.03.2020
1012 Clear 9 1014 38 10000 1 0 21:18 14.03.2020
1013 Clear 11 1014 23 10000 4 280 20:55 14.03.2020
1014 Clear 10 1014 23 10000 4 280 20:36 14.03.2020
1015 Clear 11 1014 23 10000 4 280 20:18 14.03.2020
1016 Clear 9 1014 38 10000 2 280 19:40 14.03.2020
1017 Clear 11 1014 38 10000 1 0 19:20 14.03.2020
1018 Clear 10 1014 51 10000 1 0 18:39 14.03.2020
1019 Clear 8 1014 51 10000 1 0 18:20 14.03.2020
1020 Clear 8 1015 40 10000 1 0 17:41 14.03.2020
1021 Clear 8 1015 44 10000 1 0 17:21 14.03.2020
1022 Clear 7 1015 44 10000 1 0 16:58 14.03.2020
1023 Clear 10 1015 30 10000 1 200 16:38 14.03.2020
1024 Clear 10 1015 30 10000 1 200 16:18 14.03.2020
1025 Clear 11 1015 26 10000 2.31 288 15:28 14.03.2020
1026 Clear 11 1016 23 10000 2 340 14:59 14.03.2020
1027 Clear 11 1016 23 10000 2 340 14:59 14.03.2020
1028 Clear 12 1016 21 10000 4 340 14:39 14.03.2020
1029 Clear 12 1016 21 10000 4 340 14:20 14.03.2020
1030 Clear 13 1015 18 10000 5 340 13:56 14.03.2020
1031 Clear 13 1015 16 10000 6 340 13:38 14.03.2020
1032 Clear 13 1015 16 10000 6 340 13:19 14.03.2020
1033 Clear 13 1015 17 10000 5 330 12:44 14.03.2020
1034 Clear 14 1014 16 10000 5 330 12:25 14.03.2020
1035 Clear 14 1014 15 10000 6 330 11:45 14.03.2020
1036 Clear 15 1013 14 10000 7 340 11:26 14.03.2020
1037 Clear 15 1013 14 10000 7 340 11:26 14.03.2020
1038 Clear 15 1013 14 10000 7 340 10:57 14.03.2020
1039 Clear 16 1014 13 10000 6 330 10:38 14.03.2020
1040 Clear 16 1014 13 10000 6 330 10:20 14.03.2020
1041 Clear 16 1014 11 10000 8 330 09:41 14.03.2020
1042 Clear 16 1014 11 10000 8 330 09:22 14.03.2020
1043 Clear 16 1014 11 10000 8 330 09:22 14.03.2020
1044 Rain 17 1014 11 10000 9 330 08:47 14.03.2020
1045 Rain 16 1014 11 10000 9 330 08:47 14.03.2020
1046 Rain 17 1015 11 10000 9 320 08:27 14.03.2020
1047 Clear 16 1015 11 10000 8 330 07:48 14.03.2020
1048 Clear 16 1015 11 10000 10 330 07:23 14.03.2020
1049 Clear 16 1016 12 10000 10 340 06:59 14.03.2020
1050 Clear 15 1016 13 10000 8 290 06:39 14.03.2020
1051 Clear 14 1018 11 10000 6 270 04:58 14.03.2020
1052 Clear 13 1019 11 10000 5 290 03:41 14.03.2020
1053 Clear 12 1019 11 10000 5 290 03:20 14.03.2020
1054 Clouds 11 1019 13 10000 5 300 02:19 14.03.2020
1055 Clouds 6 1019 18 10000 4 290 00:42 14.03.2020
1056 Clouds 5 1019 21 10000 4 270 23:44 13.03.2020
1057 Clouds 5 1019 21 10000 4 270 23:25 13.03.2020
1058 Clouds 3 1019 73 10000 4 300 22:46 13.03.2020
1059 Clouds 4 1019 79 10000 1 10 22:25 13.03.2020
1060 Clouds 4 1019 73 10000 4.86 298 21:42 13.03.2020
1061 Clouds 4 1019 73 10000 4.86 298 21:21 13.03.2020
1062 Clouds 5 1019 68 10000 4.86 298 20:57 13.03.2020
1063 Clouds 5 1019 68 10000 1 0 20:38 13.03.2020
1064 Clear 4 1019 68 10000 1 0 20:19 13.03.2020
1065 Clear 6 1020 63 10000 4.29 286 19:42 13.03.2020
1066 Clear 5 1020 63 10000 4.29 286 19:23 13.03.2020
1067 Clear 5 1020 63 10000 4.29 286 19:23 13.03.2020
1068 Clear 5 1021 63 10000 1 0 18:44 13.03.2020
1069 Clear 6 1021 47 10000 1 0 18:25 13.03.2020
1070 Clear 6 1021 47 10000 1 0 17:55 13.03.2020
1071 Clear 5 1021 47 10000 1 0 17:37 13.03.2020
1072 Clouds 7 1021 33 10000 3 230 17:18 13.03.2020
1073 Clouds 7 1021 33 10000 4 220 16:40 13.03.2020
1074 Clouds 7 1021 33 10000 4 220 16:22 13.03.2020
1075 Clouds 7 1021 31 10000 5 210 15:55 13.03.2020
1076 Clouds 7 1022 31 10000 5 210 15:37 13.03.2020
1077 Clouds 8 1022 31 10000 5 210 15:18 13.03.2020
1078 Clouds 8 1022 31 10000 5 210 14:40 13.03.2020
1079 Clouds 9 1022 31 10000 5 210 14:22 13.03.2020
1080 Clear 9 1022 27 10000 5 210 13:55 13.03.2020
1081 Clear 9 1022 29 10000 5 220 13:37 13.03.2020
1082 Clear 9 1022 29 10000 5 220 13:18 13.03.2020
1083 Clear 9 1022 21 10000 5 210 12:39 13.03.2020
1084 Clear 10 1022 21 10000 5 210 12:21 13.03.2020
1085 Clear 10 1022 14 10000 5 230 11:57 13.03.2020
1086 Clear 11 1022 14 10000 5 230 11:37 13.03.2020
1087 Clear 11 1022 8 10000 7 270 11:19 13.03.2020
1088 Clear 11 1022 8 10000 9 270 10:47 13.03.2020
1089 Clear 12 1022 8 10000 9 270 10:26 13.03.2020
1090 Clear 12 1023 8 10000 7 260 09:56 13.03.2020
1091 Clear 13 1023 8 10000 7 290 09:38 13.03.2020
1092 Clear 13 1023 8 10000 7 290 09:20 13.03.2020
1093 Clear 13 1024 8 10000 7 280 08:42 13.03.2020
1094 Clear 12 1024 8 10000 7 280 08:22 13.03.2020
1095 Clear 12 1025 8 10000 9 270 07:47 13.03.2020
1096 Clear 12 1025 8 10000 10 280 07:27 13.03.2020
1097 Clear 12 1027 8 10000 10 290 06:46 13.03.2020
1098 Clear 12 1027 8 10000 10 290 06:24 13.03.2020
1099 Clear 11 1028 8 10000 10 300 05:46 13.03.2020
1100 Clear 10 1029 10 10000 9 300 05:19 13.03.2020
1101 Clear 10 1030 11 10000 9 290 04:35 13.03.2020
1102 Clear 7 1031 15 10000 2 280 02:58 13.03.2020
1103 Clear 3 1032 23 10000 2 270 01:41 13.03.2020
1104 Clear 3 1032 23 10000 2 270 01:18 13.03.2020
1105 Clear 3 1032 43 10000 1 310 00:43 13.03.2020
1106 Clear 2 1031 42 10000 1 330 00:20 13.03.2020
1107 Clear 2 1031 22 10000 1 320 23:45 12.03.2020
1108 Clear 1 1031 22 10000 1 320 23:26 12.03.2020
1109 Clear 2 1031 15 10000 2 30 22:55 12.03.2020
1110 Clear 2 1031 22 10000 2 20 22:37 12.03.2020
1111 Clear 2 1031 22 10000 2 20 22:37 12.03.2020
1112 Clear 2 1031 22 10000 2 20 22:18 12.03.2020
1113 Clear 2 1031 15 10000 2 10 21:42 12.03.2020
1114 Clear 2 1031 15 10000 2 10 21:24 12.03.2020
1115 Clear 2 1031 15 10000 3 10 20:55 12.03.2020
1116 Clear 3 1031 24 10000 3 10 20:36 12.03.2020
1117 Clouds 3 1031 24 10000 3 10 20:18 12.03.2020
1118 Clouds 4 1031 21 10000 2 20 19:39 12.03.2020
1119 Clouds 4 1031 21 10000 2 20 19:19 12.03.2020
1120 Clouds 5 1030 18 10000 3 30 18:42 12.03.2020
1121 Clouds 5 1030 15 10000 3 40 18:23 12.03.2020
1122 Clouds 5 1029 17 10000 3 30 17:56 12.03.2020
1123 Clouds 5 1029 17 10000 3 30 17:37 12.03.2020
1124 Clouds 6 1029 17 10000 3 40 17:18 12.03.2020
1125 Clouds 6 1029 18 10000 2 60 16:43 12.03.2020
1126 Clouds 6 1029 18 10000 2 60 16:23 12.03.2020
1127 Clouds 7 1028 16 10000 3 50 15:59 12.03.2020
1128 Clouds 7 1028 17 10000 3 50 15:39 12.03.2020
1129 Clouds 7 1028 17 10000 3 50 15:21 12.03.2020
1130 Clouds 8 1027 16 10000 5 30 14:38 12.03.2020
1131 Clouds 8 1027 16 10000 5 30 14:38 12.03.2020
1132 Clouds 8 1027 16 10000 5 30 14:19 12.03.2020
1133 Clouds 9 1025 13 10000 5 40 13:40 12.03.2020
1134 Clouds 10 1025 13 10000 5 40 13:22 12.03.2020
1135 Clouds 10 1024 14 10000 6 20 12:55 12.03.2020
1136 Clouds 10 1023 16 10000 5 30 12:37 12.03.2020
1137 Clouds 10 1022 17 10000 4 30 12:18 12.03.2020
1138 Clouds 11 1022 17 10000 4 30 11:56 12.03.2020
1139 Clouds 11 1022 16 10000 4 40 11:37 12.03.2020
1140 Clouds 12 1021 16 10000 4 40 11:19 12.03.2020
1141 Clouds 13 1021 16 10000 4 40 10:55 12.03.2020
1142 Clouds 13 1021 16 10000 4 40 10:55 12.03.2020
1143 Clouds 13 1020 17 10000 4 40 10:37 12.03.2020
1144 Clouds 13 1020 17 10000 4 40 10:18 12.03.2020
1145 Clouds 14 1019 16 10000 4 70 09:42 12.03.2020
1146 Clouds 14 1019 16 10000 4 70 09:23 12.03.2020
1147 Clouds 14 1019 16 10000 4 30 08:40 12.03.2020
1148 Clouds 14 1019 16 10000 4 30 08:19 12.03.2020
1149 Clouds 15 1019 16 10000 5 40 07:52 12.03.2020
1150 Clouds 14 1018 16 10000 5 30 07:23 12.03.2020
1151 Clouds 15 1018 17 10000 5 40 06:38 12.03.2020
1152 Clouds 14 1019 20 10000 7 30 05:40 12.03.2020
1153 Clouds 13 1018 22 10000 6 20 03:54 12.03.2020
1154 Clouds 11 1017 27 10000 5 20 02:34 12.03.2020
1155 Clouds 10 1016 29 10000 4 30 01:30 12.03.2020
1156 Clear 7 1014 59 10000 5 360 00:42 12.03.2020
1157 Clear 6 1014 59 10000 5 350 23:59 11.03.2020
1158 Clear 6 1014 59 10000 5 350 23:59 11.03.2020
1159 Clear 5 1014 59 10000 5 350 23:40 11.03.2020
1160 Clear 6 1013 59 10000 5 350 23:22 11.03.2020
1161 Clear 6 1012 55 10000 4 350 22:45 11.03.2020
1162 Clear 5 1012 55 10000 4 350 22:25 11.03.2020
1163 Clear 5 1012 59 10000 3 340 21:58 11.03.2020
1164 Clear 4 1011 28 10000 5 350 21:40 11.03.2020
1165 Clear 4 1011 28 10000 5 350 21:22 11.03.2020
1166 Clear 4 1011 28 10000 2 350 20:58 11.03.2020
1167 Clear 5 1011 64 10000 1 330 20:38 11.03.2020
1168 Clear 5 1011 64 10000 1 330 20:19 11.03.2020
1169 Clear 4 1011 64 10000 3 340 19:43 11.03.2020
1170 Clear 4 1011 64 10000 3 340 19:25 11.03.2020
1171 Clear 4 1010 64 10000 1 340 18:57 11.03.2020
1172 Clear 5 1010 59 10000 1 0 18:38 11.03.2020
1173 Clear 6 1010 64 10000 1 20 18:20 11.03.2020
1174 Clear 6 1011 69 10000 1 0 17:56 11.03.2020
1175 Clear 6 1011 69 10000 1 0 17:37 11.03.2020
1176 Clear 7 1011 64 10000 2 20 17:19 11.03.2020
1177 Clear 6 1011 69 10000 1 10 16:45 11.03.2020
1178 Clear 7 1011 69 10000 1 10 16:21 11.03.2020
1179 Clear 8 1011 55 10000 2 360 15:44 11.03.2020
1180 Clear 8 1011 55 10000 2 360 15:24 11.03.2020
1181 Clear 7 1011 55 10000 2 340 14:57 11.03.2020
1182 Clear 8 1011 48 10000 1.87 360 14:39 11.03.2020
1183 Clear 7 1011 48 10000 1.87 360 14:21 11.03.2020
1184 Clouds 8 1011 48 10000 1 0 13:44 11.03.2020
1185 Clouds 9 1011 42 10000 1 0 13:26 11.03.2020
1186 Clouds 9 1010 45 10000 2 350 12:58 11.03.2020
1187 Clouds 10 1010 42 10000 1 40 12:39 11.03.2020
1188 Clouds 10 1010 42 10000 1 40 12:19 11.03.2020
1189 Clouds 12 1010 30 10000 1 120 11:41 11.03.2020
1190 Clouds 14 1010 19 10000 1 0 11:23 11.03.2020
1191 Clouds 15 1010 19 10000 1 0 10:56 11.03.2020
1192 Clouds 15 1010 19 10000 2 180 10:37 11.03.2020
1193 Clouds 16 1010 19 10000 2 180 10:18 11.03.2020
1194 Clouds 16 1010 19 10000 2 200 09:41 11.03.2020
1195 Clouds 16 1010 19 10000 2 200 09:23 11.03.2020
1196 Clouds 16 1010 19 10000 2 210 08:44 11.03.2020
1197 Clouds 16 1010 19 10000 2 210 08:44 11.03.2020
1198 Clear 15 1010 19 10000 3 190 08:26 11.03.2020
1199 Clear 15 1011 20 10000 3 190 07:48 11.03.2020
1200 Clear 14 1012 22 10000 1 0 07:22 11.03.2020
1201 Clear 13 1012 23 10000 3 200 06:53 11.03.2020
1202 Clear 13 1013 25 10000 2 190 06:35 11.03.2020
1203 Clear 12 1014 27 10000 2 90 05:33 11.03.2020
1204 Clear 8 1017 35 10000 2 260 03:34 11.03.2020
1205 Clear 4 1017 47 10000 1 0 01:56 11.03.2020
1206 Clear 3 1017 55 10000 1 350 01:25 11.03.2020
1207 Clear 1 1017 73 10000 1 360 00:45 11.03.2020
1208 Clear 0 1017 79 10000 1 0 23:50 10.03.2020
1209 Clear -1 1017 79 10000 1 0 23:29 10.03.2020
1210 Clear 0 1017 68 10000 2 340 22:59 10.03.2020
1211 Clear 0 1016 68 10000 1 350 22:38 10.03.2020
1212 Clear 0 1016 68 10000 1 350 22:19 10.03.2020
1213 Clear 0 1016 79 10000 1 30 21:56 10.03.2020
1214 Clear 0 1017 68 10000 1 0 21:38 10.03.2020
1215 Clear 0 1017 68 10000 1 0 21:19 10.03.2020
1216 Clear 2 1017 58 10000 1 0 20:56 10.03.2020
1217 Clear 1 1017 73 10000 1 0 20:38 10.03.2020
1218 Clear 1 1017 73 10000 1 0 20:18 10.03.2020
1219 Clear 1 1018 68 10000 1 0 19:55 10.03.2020
1220 Clear 1 1018 73 10000 1 80 19:36 10.03.2020
1221 Clear 2 1018 73 10000 1 70 19:18 10.03.2020
1222 Clear 2 1018 73 10000 1 130 18:42 10.03.2020
1223 Clear 2 1018 73 10000 1 130 18:23 10.03.2020
1224 Clear 2 1019 63 10000 1.57 77 17:56 10.03.2020
1225 Clear 3 1019 68 10000 1 0 17:38 10.03.2020
1226 Clear 3 1019 63 10000 1.35 97 17:20 10.03.2020
1227 Clear 3 1019 63 10000 2 20 16:38 10.03.2020
1228 Clear 4 1019 63 10000 2 20 16:38 10.03.2020
1229 Clear 3 1019 63 10000 2 20 16:18 10.03.2020
1230 Clear 3 1019 58 10000 1 360 15:55 10.03.2020
1231 Clear 4 1019 18 10000 1 0 15:36 10.03.2020
1232 Clear 4 1019 18 10000 1 0 15:18 10.03.2020
1233 Clear 5 1018 27 10000 2 80 14:40 10.03.2020
1234 Clouds 5 1018 27 10000 2 80 14:19 10.03.2020
1235 Clouds 7 1018 20 10000 2 80 13:54 10.03.2020
1236 Clouds 7 1018 23 10000 2 80 13:36 10.03.2020
1237 Clouds 7 1018 23 10000 2 80 13:18 10.03.2020
1238 Clouds 8 1018 22 10000 3 40 12:39 10.03.2020
1239 Clouds 8 1017 17 10000 2 360 12:19 10.03.2020
1240 Clouds 9 1017 16 10000 3 330 11:43 10.03.2020
1241 Clouds 9 1017 16 10000 3 330 11:25 10.03.2020
1242 Clouds 11 1017 11 10000 5 310 10:59 10.03.2020
1243 Clouds 11 1017 12 10000 6 300 10:41 10.03.2020
1244 Clouds 11 1017 12 10000 6 300 10:22 10.03.2020
1245 Clouds 11 1018 12 10000 5 280 09:56 10.03.2020
1246 Clouds 11 1018 13 10000 7 280 09:37 10.03.2020
1247 Clouds 12 1018 13 10000 7 280 09:18 10.03.2020
1248 Clouds 12 1018 12 10000 6 270 08:45 10.03.2020
1249 Clouds 12 1018 12 10000 6 270 08:26 10.03.2020
1250 Clouds 12 1018 13 10000 8 280 07:46 10.03.2020
1251 Clouds 11 1019 13 10000 7 280 07:28 10.03.2020
1252 Clouds 11 1019 15 10000 7 300 06:42 10.03.2020
1253 Clouds 11 1020 14 10000 8 320 06:23 10.03.2020
1254 Clouds 10 1020 13 10000 11 310 05:38 10.03.2020
1255 Clear 10 1020 14 10000 12 310 04:35 10.03.2020
1256 Clear 8 1020 15 10000 13 310 03:35 10.03.2020
1257 Clear 7 1020 26 10000 4 310 02:18 10.03.2020
1258 Clear 4 1019 55 10000 4 330 00:54 10.03.2020
1259 Clear 4 1019 68 10000 3 340 00:30 10.03.2020
1260 Clear 3 1019 79 10000 3 340 23:57 09.03.2020
1261 Clear 3 1019 79 10000 3 340 23:57 09.03.2020
1262 Clear 3 1019 92 10000 2 320 23:38 09.03.2020
1263 Clear 4 1019 80 10000 2 300 23:20 09.03.2020
1264 Clear 3 1018 92 10000 1 0 22:40 09.03.2020
1265 Clear 3 1018 92 10000 1 0 22:22 09.03.2020
1266 Clear 3 1018 100 10000 1 0 21:57 09.03.2020
1267 Clear 3 1018 92 10000 1 0 21:38 09.03.2020
1268 Clear 2 1018 92 10000 1 0 21:20 09.03.2020
1269 Clear 2 1019 100 10000 1 0 20:55 09.03.2020
1270 Clear 2 1019 100 10000 1 0 20:36 09.03.2020
1271 Clear 2 1019 100 10000 1 0 20:18 09.03.2020
1272 Clear 3 1020 17 10000 1.52 319 19:42 09.03.2020
1273 Clear 3 1020 17 10000 1.52 319 19:20 09.03.2020
1274 Clear 3 1020 92 10000 1 30 18:57 09.03.2020
1275 Clear 3 1020 100 10000 1 0 18:38 09.03.2020
1276 Clear 4 1021 17 10000 1 0 18:19 09.03.2020
1277 Clear 4 1021 17 10000 1 0 17:57 09.03.2020
1278 Clear 4 1021 100 10000 1.52 319 17:37 09.03.2020
1279 Clouds 4 1021 100 10000 1 350 17:19 09.03.2020
1280 Clouds 4 1021 100 10000 1 350 16:57 09.03.2020
1281 Clouds 5 1021 93 10000 1 0 16:39 09.03.2020
1282 Clouds 5 1021 93 10000 1 0 16:20 09.03.2020
1283 Clouds 5 1021 93 10000 1 0 15:57 09.03.2020
1284 Clouds 5 1021 93 10000 1 0 15:38 09.03.2020
1285 Clouds 5 1021 93 10000 1 0 15:19 09.03.2020
1286 Clouds 6 1020 81 10000 1 0 14:41 09.03.2020
1287 Clouds 6 1020 81 10000 1 0 14:23 09.03.2020
1288 Clouds 7 1020 75 10000 1 0 13:59 09.03.2020
1289 Clouds 8 1020 70 10000 5 220 13:40 09.03.2020
1290 Clouds 8 1020 70 10000 5 220 13:21 09.03.2020
1291 Rain 7 1020 75 10000 4 170 12:59 09.03.2020
1292 Rain 8 1019 70 10000 6 180 12:40 09.03.2020
1293 Rain 8 1019 70 10000 6 180 12:19 09.03.2020
1294 Clouds 9 1018 61 10000 3 150 11:40 09.03.2020
1295 Clouds 9 1018 61 10000 3 150 11:40 09.03.2020
1296 Clear 9 1018 61 10000 3 150 11:20 09.03.2020
1297 Clear 10 1018 57 10000 4 100 10:58 09.03.2020
1298 Clear 10 1018 57 10000 4 130 10:40 09.03.2020
1299 Clear 10 1018 57 10000 4 130 10:19 09.03.2020
1300 Clouds 11 1017 57 10000 4 150 09:42 09.03.2020
1301 Clouds 11 1017 57 10000 5 160 09:24 09.03.2020
1302 Clouds 11 1017 57 10000 4 140 08:54 09.03.2020
1303 Clouds 12 1017 57 10000 4 140 08:36 09.03.2020
1304 Clouds 12 1017 57 10000 4 140 08:18 09.03.2020
1305 Clouds 13 1018 58 10000 4 150 07:39 09.03.2020
1306 Clouds 12 1018 58 10000 4 150 07:20 09.03.2020
1307 Clouds 12 1019 62 10000 4 160 06:41 09.03.2020
1308 Clouds 12 1019 62 10000 4 160 06:23 09.03.2020
1309 Clouds 11 1020 66 8000 4 160 05:45 09.03.2020
1310 Mist 10 1020 76 5000 3 190 04:59 09.03.2020
1311 Mist 10 1020 81 5000 3 170 04:40 09.03.2020
1312 Mist 10 1020 87 4500 3 170 04:20 09.03.2020
1313 Mist 8 1020 81 4500 1 0 02:55 09.03.2020
1314 Mist 7 1018 87 3700 1 40 00:44 09.03.2020
1315 Mist 6 1018 87 3700 3 360 00:25 09.03.2020
1316 Mist 6 1017 93 3100 2 50 23:59 08.03.2020
1317 Mist 6 1017 93 3100 2 20 23:38 08.03.2020
1318 Rain 6 1017 93 3100 2 20 23:18 08.03.2020
1319 Rain 6 1016 93 2700 2 10 22:41 08.03.2020
1320 Mist 6 1016 93 2700 2 10 22:22 08.03.2020
1321 Mist 7 1016 93 2700 3 340 21:59 08.03.2020
1322 Rain 7 1016 93 2700 3 350 21:41 08.03.2020
1323 Rain 6 1016 93 2700 3 350 21:20 08.03.2020
1324 Rain 7 1016 93 2200 2 350 20:58 08.03.2020
1325 Rain 7 1017 93 2200 1 340 20:38 08.03.2020
1326 Rain 5 1017 93 2200 2 360 20:19 08.03.2020
1327 Rain 5 1017 93 2200 2 360 20:19 08.03.2020
1328 Rain 5 1017 93 2200 2 360 19:40 08.03.2020
1329 Rain 5 1017 93 2500 2 340 19:19 08.03.2020
1330 Rain 7 1017 93 2500 2 330 18:55 08.03.2020
1331 Rain 7 1017 93 2500 2 330 18:37 08.03.2020
1332 Rain 8 1007 85 0 2.29 356 18:19 08.03.2020
1333 Rain 7 1017 93 2500 2 300 17:40 08.03.2020
1334 Rain 7 1017 93 2500 2 300 17:22 08.03.2020
1335 Rain 8 1017 93 2500 2 300 16:58 08.03.2020
1336 Rain 8 1017 93 2500 2 330 16:40 08.03.2020
1337 Rain 7 1017 93 2500 2 330 16:22 08.03.2020
1338 Rain 8 1017 93 3000 1 340 15:41 08.03.2020
1339 Rain 8 1017 93 3000 1 340 15:22 08.03.2020
1340 Rain 5 1017 93 3000 3 340 14:59 08.03.2020
1341 Rain 8 1017 93 3000 3 340 14:37 08.03.2020
1342 Rain 8 1016 93 3000 2.24 352 14:19 08.03.2020
1343 Rain 8 1016 93 3000 2 350 13:42 08.03.2020
1344 Mist 8 1016 93 3000 3 320 13:21 08.03.2020
1345 Mist 8 1016 93 3000 2 350 12:56 08.03.2020
1346 Mist 9 1015 93 3000 2 310 12:36 08.03.2020
1347 Rain 9 1015 93 3000 3 330 12:18 08.03.2020
1348 Rain 9 1015 93 2200 2 350 11:41 08.03.2020
1349 Rain 8 1015 93 2200 2 350 11:21 08.03.2020
1350 Rain 8 1015 93 2200 2 350 10:57 08.03.2020
1351 Rain 9 1015 87 2200 2 350 10:39 08.03.2020
1352 Rain 8 1015 87 2200 2 350 10:20 08.03.2020
1353 Rain 8 1015 87 2200 1 360 09:38 08.03.2020
1354 Rain 8 1015 93 1700 3.05 350 09:20 08.03.2020
1355 Mist 8 1014 93 1700 3.05 350 08:43 08.03.2020
1356 Mist 8 1014 93 1700 3.05 350 08:21 08.03.2020
1357 Mist 8 1015 93 1700 1.14 360 07:46 08.03.2020
1358 Mist 8 1015 93 1700 1 0 07:27 08.03.2020
1359 Mist 8 1015 93 1700 2 120 06:43 08.03.2020
1360 Mist 9 1016 93 1700 2 120 06:25 08.03.2020
1361 Mist 9 1017 93 1400 2 140 05:43 08.03.2020
1362 Mist 5 1017 93 1500 3 150 03:52 08.03.2020
1363 Mist 6 1017 93 1400 3 140 02:58 08.03.2020
1364 Mist 4 1017 93 1700 3 140 01:38 08.03.2020
1365 Mist 4 1017 93 1700 3 140 01:19 08.03.2020
1366 Mist 4 1017 93 1700 2 140 00:32 08.03.2020
1367 Mist 4 1017 93 2100 3 160 23:58 07.03.2020
1368 Mist 4 1017 93 3100 3 130 23:37 07.03.2020
1369 Mist 4 1017 93 3100 3 130 23:18 07.03.2020
1370 Mist 4 1016 93 3100 3 110 22:38 07.03.2020
1371 Mist 4 1016 93 3100 3 110 22:19 07.03.2020
1372 Mist 4 1016 93 3100 3 110 22:19 07.03.2020
1373 Mist 4 1016 93 3500 3 140 21:45 07.03.2020
1374 Mist 4 1016 93 3500 3 140 21:23 07.03.2020
1375 Mist 5 1017 86 3500 3 130 20:41 07.03.2020
1376 Mist 5 1017 86 3500 3 130 20:22 07.03.2020
1377 Mist 5 1017 86 3500 3 110 19:55 07.03.2020
1378 Mist 5 1017 93 4000 4 120 19:36 07.03.2020
1379 Mist 5 1017 93 4000 4 120 19:18 07.03.2020
1380 Mist 5 1017 93 4000 2 80 18:40 07.03.2020
1381 Mist 5 1017 93 4000 2 80 18:21 07.03.2020
1382 Mist 7 1017 86 4000 3 120 17:42 07.03.2020
1383 Mist 8 1017 86 4000 3 120 17:21 07.03.2020
1384 Mist 6 1017 81 4000 3 140 16:59 07.03.2020
1385 Mist 7 1017 81 4000 3 130 16:41 07.03.2020
1386 Mist 8 1017 81 4000 3 130 16:22 07.03.2020
1387 Mist 8 1017 75 4000 4 140 15:57 07.03.2020
1388 Mist 8 1017 75 4000 4 140 15:37 07.03.2020
1389 Mist 8 1017 75 4000 4 140 15:37 07.03.2020
1390 Mist 8 1017 75 4000 4 140 15:19 07.03.2020
1391 Haze 9 1016 70 4500 4 150 14:46 07.03.2020
1392 Haze 9 1016 70 4500 4 140 14:26 07.03.2020
1393 Clouds 10 1016 66 6000 4 140 13:59 07.03.2020
1394 Clouds 9 1016 53 8000 4 140 13:39 07.03.2020
1395 Clouds 11 1016 53 8000 4 140 13:19 07.03.2020
1396 Clouds 11 1015 43 10000 4 130 12:42 07.03.2020
1397 Clouds 12 1015 43 10000 4 130 12:20 07.03.2020
1398 Clouds 11 1015 34 10000 3 140 11:57 07.03.2020
1399 Clouds 12 1014 35 10000 4 140 11:39 07.03.2020
1400 Clouds 13 1014 35 10000 4 140 11:21 07.03.2020
1401 Clouds 14 1014 20 10000 3 170 10:41 07.03.2020
1402 -273 0 0 0 0 0 10:21 07.03.2020
1403 Clouds 16 1015 18 10000 3 150 09:57 07.03.2020
1404 Clouds 16 1015 19 10000 4 180 09:38 07.03.2020
1405 Clouds 16 1015 19 10000 4 180 09:18 07.03.2020
1406 Clouds 16 1015 19 10000 3 170 08:44 07.03.2020
1407 Clear 16 1015 21 10000 2 0 08:21 07.03.2020
1408 Clear 16 1015 19 10000 2 180 07:51 07.03.2020
1409 Clear 16 1014 20 0 0.55 138 07:23 07.03.2020
1410 Clear 16 1014 20 0 0.45 135 06:57 07.03.2020
1411 Clear 17 1014 19 0 0.55 138 06:30 07.03.2020
1412 Clear 15 1018 27 10000 3 70 05:53 07.03.2020
1413 Clear 11 1018 34 10000 4 30 04:43 07.03.2020
1414 Clear 11 1018 70 10000 3 350 02:57 07.03.2020
1415 Clear 11 1018 70 10000 3 350 02:33 07.03.2020
1416 Clear 7 1018 60 7000 4 10 01:26 07.03.2020
1417 Mist 5 1017 58 4500 2 350 00:39 07.03.2020
1418 Mist 4 1017 58 4500 2 350 00:20 07.03.2020
1419 Mist 3 1016 58 4500 2 10 23:45 06.03.2020
1420 Mist 3 1016 58 4500 4 350 23:26 06.03.2020
1421 Mist 3 1016 100 4000 2 350 22:48 06.03.2020
1422 Mist 3 1016 100 4000 2 350 22:22 06.03.2020
1423 Mist 3 1015 75 4000 3 10 21:56 06.03.2020
1424 Mist 4 1015 93 4000 4 330 21:38 06.03.2020
1425 Mist 4 1015 93 4000 4 330 21:18 06.03.2020
1426 Mist 4 1015 93 4000 4 330 21:18 06.03.2020
1427 Mist 4 1015 93 4000 2 350 20:38 06.03.2020
1428 Mist 4 1015 93 4000 2 350 20:20 06.03.2020
1429 Mist 4 1015 93 4000 3 360 19:47 06.03.2020
1430 Mist 4 1015 93 4000 3 360 19:28 06.03.2020
1431 Mist 4 1015 93 4500 3 330 18:58 06.03.2020
1432 Mist 4 1015 93 4500 3 330 18:39 06.03.2020
1433 Mist 4 1015 93 4500 3 340 18:19 06.03.2020
1434 Mist 4 1015 93 4500 3 340 18:19 06.03.2020
1435 Mist 4 1015 93 4500 3 340 17:42 06.03.2020
1436 Mist 5 1015 93 4500 2 350 17:24 06.03.2020
1437 Mist 5 1015 93 4500 2 350 16:59 06.03.2020
1438 Mist 6 1015 93 4500 2 350 16:40 06.03.2020
1439 Mist 6 1015 93 4500 2 350 16:20 06.03.2020
1440 Rain 6 1015 93 5000 2 340 15:45 06.03.2020
1441 Rain 6 1015 86 5000 3 310 15:24 06.03.2020
1442 Mist 6 1015 93 5000 3 340 14:55 06.03.2020
1443 Rain 6 1015 86 5000 2 340 14:37 06.03.2020
1444 Rain 6 1015 86 5000 2 340 14:18 06.03.2020
1445 Rain 7 1015 87 5000 4 340 13:42 06.03.2020
1446 Rain 8 1015 87 5000 4 340 13:21 06.03.2020
1447 Rain 8 1014 87 5000 4 340 12:56 06.03.2020
1448 Rain 7 1014 87 6000 5 350 12:37 06.03.2020
1449 Rain 8 1014 87 6000 5 350 12:19 06.03.2020
1450 Rain 9 1013 81 6000 4 340 11:56 06.03.2020
1451 Rain 9 1013 57 6000 3 340 11:38 06.03.2020
1452 Rain 11 1013 57 6000 3 340 11:19 06.03.2020
1453 Clouds 10 1012 35 6000 1 0 10:38 06.03.2020
1454 Clouds 10 1012 35 6000 1 0 10:20 06.03.2020
1455 Clouds 11 1012 35 6000 1 0 09:54 06.03.2020
1456 Clouds 11 1012 35 6000 1 0 09:36 06.03.2020
1457 Clouds 11 1012 35 6000 1 0 09:18 06.03.2020
1458 Clouds 11 1012 35 6000 1 0 08:42 06.03.2020
1459 Clouds 11 1012 37 6000 1 0 08:24 06.03.2020
1460 Clouds 11 1013 46 6000 2 300 07:47 06.03.2020
1461 Clouds 12 1013 42 6000 1 0 07:26 06.03.2020
1462 Clouds 11 1013 46 7000 1 0 06:53 06.03.2020
1463 Clouds 11 1013 49 7000 1 0 06:34 06.03.2020
1464 Clouds 11 1014 49 10000 2 120 05:42 06.03.2020
1465 Clouds 10 1014 49 10000 2 120 05:21 06.03.2020
1466 Clouds 9 1014 48 10000 2 110 04:53 06.03.2020
1467 Clouds 4 1016 64 10000 1 350 01:56 06.03.2020
1468 Clouds 3 1016 35 10000 1 360 01:38 06.03.2020
1469 Clouds 3 1016 35 10000 1 360 01:19 06.03.2020
1470 Clouds 1 1015 79 10000 1 350 00:32 06.03.2020
1471 Clouds 1 1016 74 10000 1 0 23:50 05.03.2020
1472 Clouds 1 1016 74 10000 1 310 23:29 05.03.2020
1473 Clouds 1 1016 79 10000 2 340 22:57 05.03.2020
1474 Clouds 1 1015 79 10000 1 350 22:38 05.03.2020
1475 Clouds 1 1015 79 10000 1 350 22:20 05.03.2020
1476 Clouds 1 1015 86 10000 1 360 21:56 05.03.2020
1477 Clouds 1 1015 86 10000 1 360 21:38 05.03.2020
1478 Clouds 1 1015 86 10000 1 360 21:19 05.03.2020
1479 Clouds 1 1016 86 10000 1.12 42 20:55 05.03.2020
1480 Clouds 1 1016 86 10000 1 360 20:37 05.03.2020
1481 Clouds 1 1016 86 10000 1 360 20:18 05.03.2020
1482 Clouds 1 1017 79 10000 2 350 19:55 05.03.2020
1483 Clouds 1 1017 79 10000 1 360 19:37 05.03.2020
1484 Clouds 1 1017 79 10000 1 360 19:18 05.03.2020
1485 Clouds 2 1017 46 10000 1 360 18:38 05.03.2020
1486 Clouds 2 1017 46 10000 1 360 18:20 05.03.2020
1487 Clouds 3 1018 59 10000 1 0 17:59 05.03.2020
1488 Clouds 3 1018 55 10000 2 90 17:40 05.03.2020
1489 Clouds 3 1018 55 10000 2 90 17:22 05.03.2020
1490 Clouds 3 1018 55 10000 2 90 16:54 05.03.2020
1491 Clouds 4 1018 55 10000 2 90 16:36 05.03.2020
1492 Clouds 4 1018 55 10000 2 90 16:18 05.03.2020
1493 Clouds 4 1018 47 10000 2 80 15:44 05.03.2020
1494 Clouds 4 1018 51 10000 2 80 15:22 05.03.2020
1495 Clouds 4 1018 37 10000 2 60 14:56 05.03.2020
1496 Clouds 4 1018 55 10000 0.45 62 14:37 05.03.2020
1497 Clouds 4 1018 55 10000 1.79 146 14:18 05.03.2020
1498 Clouds 4 1018 55 10000 1 80 13:43 05.03.2020
1499 Clouds 4 1018 55 10000 1 80 13:21 05.03.2020
1500 Clouds 5 1018 47 10000 2 120 12:58 05.03.2020
1501 Clouds 6 1018 41 10000 2 130 12:40 05.03.2020
1502 Clouds 6 1018 41 10000 2 130 12:19 05.03.2020
1503 Clouds 7 1018 35 10000 2 170 11:57 05.03.2020
1504 Clouds 8 1018 30 10000 3 180 11:37 05.03.2020
1505 Clouds 8 1018 30 10000 3 180 11:37 05.03.2020
1506 Clouds 8 1018 30 10000 3 180 11:18 05.03.2020
1507 Clouds 8 1019 28 10000 4 190 10:57 05.03.2020
1508 Clouds 9 1019 24 10000 4 190 10:38 05.03.2020
1509 Clouds 9 1019 24 10000 4 190 10:38 05.03.2020
1510 Clouds 9 1019 24 10000 4 190 10:20 05.03.2020
1511 Clouds 10 1019 24 10000 5 200 09:45 05.03.2020
1512 Clouds 10 1019 24 10000 6 210 09:26 05.03.2020
1513 Clouds 10 1019 24 10000 5 170 08:47 05.03.2020
1514 Clouds 10 1020 23 10000 5 200 08:29 05.03.2020
1515 Clouds 10 1020 23 10000 6 180 07:49 05.03.2020
1516 Clouds 10 1021 23 10000 5 180 07:22 05.03.2020
1517 Clouds 10 1022 23 10000 6 190 06:49 05.03.2020
1518 Clouds 10 1022 23 10000 7 200 06:22 05.03.2020
1519 Clouds 9 1023 22 10000 8 190 05:57 05.03.2020
1520 Clouds 9 1024 23 10000 6 180 05:31 05.03.2020
1521 Clear 7 1025 26 10000 5 200 04:23 05.03.2020
1522 Clear 6 1026 27 10000 4 190 03:56 05.03.2020
1523 Clear 2 1027 37 10000 2 160 02:21 05.03.2020
1524 Clear 0 1027 68 10000 1 40 01:22 05.03.2020
1525 Clear -2 1027 73 10000 1 60 00:26 05.03.2020
1526 Clear -3 1027 79 10000 2 50 23:43 04.03.2020
1527 Clear -3 1027 79 10000 1 20 23:24 04.03.2020
1528 Clear -3 1027 73 10000 2 60 22:59 04.03.2020
1529 Clear -2 1027 67 10000 1 0 22:40 04.03.2020
1530 Clear -2 1027 67 10000 1 0 22:19 04.03.2020
1531 Clear -2 1027 73 10000 1 0 21:58 04.03.2020
1532 Clear -2 1027 67 10000 1 40 21:40 04.03.2020
1533 Clear -2 1027 67 10000 1 40 21:20 04.03.2020
1534 Clear -2 1028 67 10000 2 60 20:56 04.03.2020
1535 Clear -1 1028 73 10000 1 0 20:37 04.03.2020
1536 Clear -1 1028 73 10000 1 0 20:19 04.03.2020
1537 Clear -1 1028 62 10000 1 0 19:42 04.03.2020
1538 Clear 0 1028 50 10000 2 130 19:23 04.03.2020
1539 Clear 0 1029 46 10000 2 140 18:57 04.03.2020
1540 Clear 0 1029 46 10000 2 150 18:37 04.03.2020
1541 Clear 0 1029 46 10000 2 150 18:18 04.03.2020
1542 Clear 1 1029 46 10000 2 140 17:55 04.03.2020
1543 Clear 1 1029 46 10000 2 150 17:37 04.03.2020
1544 Clear 1 1029 46 10000 2 150 17:19 04.03.2020
1545 Clear 2 1030 34 10000 2 150 16:44 04.03.2020
1546 Clear 1 1030 17 10000 2 160 16:25 04.03.2020
1547 Clear 2 1030 17 10000 2 150 15:59 04.03.2020
1548 Clear 2 1030 34 10000 2 150 15:40 04.03.2020
1549 Clear 2 1030 34 10000 2 150 15:21 04.03.2020
1550 Clear 2 1030 37 10000 2 160 14:55 04.03.2020
1551 Clear 3 1030 37 10000 2 150 14:36 04.03.2020
1552 Clear 3 1030 37 10000 2 150 14:18 04.03.2020
1553 Clear 3 1030 37 10000 2 150 13:55 04.03.2020
1554 Clear 3 1030 31 10000 2 140 13:36 04.03.2020
1555 Clear 3 1030 31 10000 2 140 13:18 04.03.2020
1556 Clear 3 1029 34 10000 3 150 12:42 04.03.2020
1557 Clear 3 1029 34 10000 3 150 12:23 04.03.2020
1558 Clear 4 1029 25 10000 3 140 11:55 04.03.2020
1559 Clear 4 1029 25 10000 2 120 11:37 04.03.2020
1560 Clear 5 1029 25 10000 2 120 11:19 04.03.2020
1561 Clear 6 1029 22 10000 3 130 10:45 04.03.2020
1562 Clear 7 1029 20 10000 3 110 10:25 04.03.2020
1563 Clear 8 1029 19 10000 2 110 09:58 04.03.2020
1564 Clear 8 1029 19 10000 1 0 09:39 04.03.2020
1565 Clear 8 1029 17 10000 2 0 09:19 04.03.2020
1566 Clear 8 1029 17 10000 2 0 08:42 04.03.2020
1567 Clear 8 1030 19 10000 3 0 08:24 04.03.2020
1568 Clear 7 1030 17 10000 2 0 07:48 04.03.2020
1569 Clear 7 1031 18 10000 2 0 07:29 04.03.2020
1570 Clear 7 1031 18 10000 2 0 06:54 04.03.2020
1571 Clear 7 1032 20 10000 2 190 06:26 04.03.2020
1572 Clear 7 1033 21 10000 2 270 05:59 04.03.2020
1573 Clear 7 1033 21 10000 2 0 05:28 04.03.2020
1574 Clear 4 1034 25 10000 4 330 03:57 04.03.2020
1575 Clear 5 1034 25 10000 4 350 03:35 04.03.2020
1576 Clear 3 1034 29 10000 4 330 02:58 04.03.2020
1577 Clear 3 1034 29 10000 4 350 02:30 04.03.2020
1578 Clear 0 1034 24 10000 2 10 01:56 04.03.2020
1579 Clear 1 1034 24 10000 1 340 01:37 04.03.2020
1580 Clear -2 1033 62 10000 3 350 00:42 04.03.2020
1581 Clear -3 1033 62 10000 3 350 00:22 04.03.2020
1582 Clear -3 1033 57 10000 2 10 23:43 03.03.2020
1583 Clear -5 1033 57 10000 2 10 23:24 03.03.2020
1584 Clear -3 1032 57 10000 3 350 22:56 03.03.2020
1585 Clear -3 1032 57 10000 3 340 22:37 03.03.2020
1586 Clear -3 1032 57 10000 3 340 22:19 03.03.2020
1587 Clear -3 1032 49 10000 3 330 21:43 03.03.2020
1588 Clear -2 1032 49 10000 4 340 21:22 03.03.2020
1589 Clear -2 1032 49 10000 3 360 20:59 03.03.2020
1590 Clear -2 1031 45 10000 4 20 20:40 03.03.2020
1591 Clear -2 1031 45 10000 4 20 20:19 03.03.2020
1592 Clear -1 1031 42 10000 4 10 19:56 03.03.2020
1593 Clear -1 1031 42 10000 4 10 19:56 03.03.2020
1594 Clear -1 1032 42 10000 4 10 19:37 03.03.2020
1595 Clear -1 1032 42 10000 4 10 19:37 03.03.2020
1596 Clear -1 1032 42 10000 4 10 19:37 03.03.2020
1597 Clear -1 1032 42 10000 4 10 19:18 03.03.2020
1598 Clear -1 1032 39 10000 4 10 18:57 03.03.2020
1599 Clear -1 1032 39 10000 4 10 18:57 03.03.2020
1600 Clear -1 1031 36 10000 5 10 18:39 03.03.2020
1601 Clear -1 1031 36 10000 5 10 18:19 03.03.2020
1602 Clear 0 1031 39 10000 5 360 17:55 03.03.2020
1603 Clear 0 1031 39 10000 5 360 17:36 03.03.2020
1604 Clear 0 1031 39 10000 5 360 17:18 03.03.2020
1605 Clear 0 1031 42 10000 4 340 16:55 03.03.2020
1606 Clear 1 1031 21 10000 4 360 16:36 03.03.2020
1607 Clear 1 1031 21 10000 4 360 16:18 03.03.2020
1608 Clear 1 1031 21 10000 5 350 15:41 03.03.2020
1609 Clear 1 1031 21 10000 5 350 15:21 03.03.2020
1610 Clear 1 1031 21 10000 5 350 15:21 03.03.2020
1611 Clear 1 1031 21 10000 5 350 15:21 03.03.2020
1612 Clear 1 1030 21 10000 4 350 14:55 03.03.2020
1613 Clear 2 1030 21 10000 4 350 14:36 03.03.2020
1614 Clear 2 1030 16 10000 4 350 14:18 03.03.2020
1615 Clear 2 1029 29 10000 4 360 13:42 03.03.2020
1616 Clear 3 1029 27 10000 6 330 13:24 03.03.2020
1617 Clear 3 1028 25 10000 7 320 12:55 03.03.2020
1618 Clear 3 1028 25 10000 7 310 12:37 03.03.2020
1619 Clear 4 1028 25 10000 7 310 12:18 03.03.2020
1620 Clear 5 1027 20 10000 8 300 11:39 03.03.2020
1621 Clear 6 1027 20 10000 8 300 11:20 03.03.2020
1622 Clear 5 1026 18 10000 10 300 10:57 03.03.2020
1623 Clear 6 1026 18 10000 10 300 10:39 03.03.2020
1624 Clear 7 1026 18 10000 10 300 10:19 03.03.2020
1625 Clear 7 1025 17 10000 10 300 09:59 03.03.2020
1626 Clear 7 1025 17 10000 10 290 09:40 03.03.2020
1627 Clear 8 1025 17 10000 10 290 09:19 03.03.2020
1628 Clear 8 1025 17 10000 10 310 08:41 03.03.2020
1629 Clear 8 1025 17 10000 10 310 08:22 03.03.2020
1630 Clear 8 1024 19 10000 11 300 07:45 03.03.2020
1631 Clear 8 1025 19 10000 11 300 07:24 03.03.2020
1632 Clear 8 1025 20 10000 11 290 06:59 03.03.2020
1633 Clear 8 1025 22 10000 10 290 06:39 03.03.2020
1634 Clear 8 1025 22 10000 10 290 06:18 03.03.2020
1635 Clear 7 1025 26 10000 9 300 05:39 03.03.2020
1636 Clear 7 1026 28 10000 10 310 04:51 03.03.2020
1637 Clear 5 1025 40 10000 11 310 02:38 03.03.2020
1638 Clear 3 1024 47 10000 8 310 01:27 03.03.2020
1639 Clear 3 1023 47 10000 8 290 00:41 03.03.2020
1640 Clear 3 1023 47 10000 8 290 00:22 03.03.2020
1641 Rain 3 1023 47 10000 8 300 23:48 02.03.2020
1642 Rain 2 1023 64 10000 6 310 23:23 02.03.2020
1643 Rain 2 1022 92 8000 1 0 22:57 02.03.2020
1644 Fog 2 1022 100 8000 1 0 22:38 02.03.2020
1645 Fog 2 1022 100 8000 1 0 22:19 02.03.2020
1646 Fog 2 1022 59 500 2 20 21:56 02.03.2020
1647 Fog 2 1022 59 300 2 360 21:37 02.03.2020
1648 Fog 2 1022 59 300 2 360 21:19 02.03.2020
1649 Fog 2 1022 59 300 2 330 20:54 02.03.2020
1650 Fog 1 1022 59 500 2 290 20:36 02.03.2020
1651 Fog 1 1022 85 500 2 290 20:18 02.03.2020
1652 Fog 1 1023 87 600 2 350 19:40 02.03.2020
1653 Fog 2 1023 87 600 2 350 19:21 02.03.2020
1654 Fog 2 1023 87 600 2 360 18:57 02.03.2020
1655 Fog 2 1022 87 600 3 330 18:38 02.03.2020
1656 Fog 1 1022 87 600 3 330 18:19 02.03.2020
1657 Mist 1 1022 87 1400 2 350 17:57 02.03.2020
1658 Mist 1 1022 87 3000 3 350 17:39 02.03.2020
1659 Mist 2 1022 79 3000 3 350 17:20 02.03.2020
1660 Mist 3 1022 79 3000 1 0 16:45 02.03.2020
1661 Snow 2 1022 79 2800 1 0 16:27 02.03.2020
1662 Rain 2 1023 79 2200 3 10 15:59 02.03.2020
1663 Rain 3 1023 79 6000 4 350 15:41 02.03.2020
1664 Rain 4 1023 79 6000 4 350 15:19 02.03.2020
1665 Rain 4 1022 79 8000 1 60 14:40 02.03.2020
1666 Rain 5 1022 29 8000 1 60 14:20 02.03.2020
1667 Rain 5 1022 29 10000 3 110 13:57 02.03.2020
1668 Rain 5 1022 56 10000 3 80 13:38 02.03.2020
1669 Rain 5 1022 56 10000 3 80 13:18 02.03.2020
1670 Rain 6 1022 48 10000 2 80 12:43 02.03.2020
1671 Clouds 7 1021 41 10000 3 100 12:19 02.03.2020
1672 Clouds 8 1021 41 10000 3 90 11:55 02.03.2020
1673 Clouds 8 1020 39 10000 4 90 11:36 02.03.2020
1674 Clear 9 1020 39 10000 4 90 11:18 02.03.2020
1675 Clear 8 1020 36 10000 6 100 10:42 02.03.2020
1676 Clear 9 1020 31 10000 4 110 10:20 02.03.2020
1677 Clear 10 1020 31 10000 4 110 09:56 02.03.2020
1678 Clear 10 1021 28 10000 3 100 09:37 02.03.2020
1679 Clear 10 1021 28 10000 3 100 09:18 02.03.2020
1680 Clear 10 1022 28 10000 3 140 08:41 02.03.2020
1681 Clear 10 1022 28 10000 3 140 08:19 02.03.2020
1682 Clear 10 1022 26 10000 6 170 07:41 02.03.2020
1683 Clear 9 1023 24 10000 5 150 06:57 02.03.2020
1684 Clear 10 1024 24 10000 4 130 06:37 02.03.2020
1685 Clear 10 1025 24 10000 5 160 05:52 02.03.2020
1686 Clear 8 1027 28 10000 5 170 04:21 02.03.2020
1687 Clear 8 1028 35 10000 3 110 03:20 02.03.2020
1688 Clear 7 1028 40 10000 2 90 02:37 02.03.2020
1689 Clear 3 1028 50 10000 2 70 01:45 02.03.2020
1690 Clear 2 1028 29 10000 1 50 01:26 02.03.2020
1691 Clear 0 1028 68 10000 2 50 00:23 02.03.2020
1692 Clear -2 1028 79 10000 1 0 23:56 01.03.2020
1693 Clear -2 1028 79 10000 1 0 23:38 01.03.2020
1694 Clear -2 1028 79 10000 1 0 23:19 01.03.2020
1695 Clear -3 1028 85 10000 1 0 22:42 01.03.2020
1696 Clear -3 1028 85 10000 1 0 22:19 01.03.2020
1697 Clear -2 1028 79 10000 1 10 21:55 01.03.2020
1698 Clear -2 1028 73 10000 1 350 21:37 01.03.2020
1699 Clear -2 1028 73 10000 1 350 21:18 01.03.2020
1700 Clear 0 1028 28 10000 1 0 20:43 01.03.2020
1701 Clear 0 1028 58 10000 2 270 20:24 01.03.2020
1702 Clear 1 1028 68 10000 1 0 19:43 01.03.2020
1703 Clear -1 1028 68 10000 1 0 19:24 01.03.2020
1704 Clear -1 1028 68 10000 2 350 18:59 01.03.2020
1705 Clear -1 1028 73 10000 2 340 18:40 01.03.2020
1706 Clear -1 1028 73 10000 2 340 18:20 01.03.2020
1707 Clear -1 1028 79 10000 2 330 17:57 01.03.2020
1708 Clear 0 1028 73 10000 1 0 17:39 01.03.2020
1709 Clear 0 1028 73 10000 1 0 17:20 01.03.2020
1710 Clear 1 1028 68 10000 1.23 63 16:57 01.03.2020
1711 Clear 2 1028 73 10000 2 360 16:38 01.03.2020
1712 Clear 1 1028 73 10000 2 360 16:18 01.03.2020
1713 Clear 1 1028 79 10000 1 40 15:56 01.03.2020
1714 Clear 2 1028 46 10000 1 0 15:37 01.03.2020
1715 Clear 2 1028 46 10000 1 0 15:19 01.03.2020
1716 Clear 3 1027 37 10000 1 0 14:56 01.03.2020
1717 Clear 4 1027 34 10000 1.23 63 14:38 01.03.2020
1718 Clear 4 1027 34 10000 2.23 33 14:19 01.03.2020
1719 Clear 5 1027 27 10000 2 40 13:54 01.03.2020
1720 Clear 5 1027 27 10000 2 40 13:54 01.03.2020
1721 Clear 5 1027 25 10000 2 40 13:36 01.03.2020
1722 Clear 5 1027 25 10000 2 40 13:18 01.03.2020
1723 Clear 6 1026 27 10000 2 20 12:41 01.03.2020
1724 Clear 6 1026 27 10000 2 20 12:21 01.03.2020
1725 Clear 7 1025 22 10000 2 20 11:42 01.03.2020
1726 Clear 8 1025 19 10000 3 360 11:24 01.03.2020
1727 Clear 8 1024 17 10000 5 360 10:57 01.03.2020
1728 Clear 8 1024 17 10000 5 360 10:57 01.03.2020
1729 Clear 9 1024 16 10000 7 350 10:38 01.03.2020
1730 Clear 10 1024 16 10000 7 350 10:20 01.03.2020
1731 Clear 10 1024 15 10000 7 350 09:57 01.03.2020
1732 Clear 11 1024 13 10000 11 330 09:39 01.03.2020
1733 Clear 11 1024 13 10000 11 330 09:21 01.03.2020
1734 Clear 11 1024 17 10000 9 330 08:41 01.03.2020
1735 Clear 11 1024 17 10000 9 330 08:21 01.03.2020
1736 Clear 11 1024 15 10000 11 320 07:43 01.03.2020
1737 Clear 11 1024 17 10000 11 330 07:24 01.03.2020
1738 Clear 11 1024 17 10000 11 330 07:24 01.03.2020
1739 Clear 10 1024 19 10000 7 320 06:57 01.03.2020
1740 Clear 11 1024 21 10000 7 310 06:37 01.03.2020
1741 Clear 9 1025 31 10000 7 290 04:27 01.03.2020
1742 Clear 8 1025 80 6000 3 270 02:55 01.03.2020
1743 Fog 5 1025 100 800 1 0 01:53 01.03.2020
1744 Fog 5 1024 100 800 2 180 01:28 01.03.2020
1745 Fog 3 1024 100 800 2 160 00:45 01.03.2020
1746 Fog 2 1024 100 800 1 0 00:22 01.03.2020
1747 Mist 3 1024 100 1500 1 170 23:54 29.02.2020
1748 Mist 3 1023 100 2800 1 110 23:33 29.02.2020
1749 Mist 3 1023 100 3200 2 160 22:45 29.02.2020
1750 Mist 3 1023 100 3200 2 160 22:25 29.02.2020
1751 Mist 3 1023 93 3500 1 0 21:44 29.02.2020
1752 Mist 3 1023 93 3500 2 160 21:26 29.02.2020
1753 Mist 3 1023 93 3500 2 150 20:45 29.02.2020
1754 Mist 3 1023 93 3500 2 160 20:22 29.02.2020
1755 Mist 3 1023 93 3500 0.56 33 19:59 29.02.2020
1756 Mist 3 1023 93 3500 1 0 19:40 29.02.2020
1757 Mist 3 1023 93 3500 1 0 19:22 29.02.2020
1758 Mist 3 1023 93 3500 1 0 18:56 29.02.2020
1759 Mist 3 1023 93 3500 2 110 18:38 29.02.2020
1760 Mist 3 1023 93 3500 2 110 18:19 29.02.2020
1761 Mist 3 1023 100 3200 1 0 17:54 29.02.2020
1762 Mist 4 1023 100 2900 1 0 17:36 29.02.2020
1763 Mist 3 1023 100 2900 1 0 17:18 29.02.2020
1764 Rain 4 1023 100 3200 1 0 16:42 29.02.2020
1765 Rain 4 1023 100 3200 1 0 16:18 29.02.2020
1766 Rain 4 1023 100 3200 1 0 15:42 29.02.2020
1767 Rain 4 1023 100 3200 1 0 15:24 29.02.2020
1768 Rain 4 1022 100 3200 1 0 14:56 29.02.2020
1769 Rain 4 1022 100 2800 1 0 14:38 29.02.2020
1770 Rain 4 1022 100 2800 1 0 14:20 29.02.2020
1771 Rain 4 1021 100 2000 2 100 13:42 29.02.2020
1772 Rain 5 1021 100 2000 2 100 13:23 29.02.2020
1773 Rain 4 1021 100 1400 1 0 12:43 29.02.2020
1774 Rain 4 1021 100 1400 1 0 12:43 29.02.2020
1775 Rain 5 1021 100 1400 1 0 12:23 29.02.2020
1776 Rain 5 1020 100 1400 1 0 11:59 29.02.2020
1777 Rain 5 1020 100 1400 2 80 11:40 29.02.2020
1778 Rain 5 1020 100 1400 2 80 11:22 29.02.2020
1779 Rain 5 1020 100 1400 2 50 10:49 29.02.2020
1780 Rain 5 1019 100 1500 2 40 10:29 29.02.2020
1781 Rain 5 1019 100 1500 1 40 09:51 29.02.2020
1782 Rain 5 1019 100 1500 2 50 09:27 29.02.2020
1783 Rain 5 1019 100 1700 1 0 08:58 29.02.2020
1784 Rain 5 1019 93 2000 2 90 08:38 29.02.2020
1785 Rain 5 1019 93 2000 2 90 08:19 29.02.2020
1786 Rain 5 1019 100 1700 2 80 07:45 29.02.2020
1787 Rain 5 1019 93 1600 2 80 07:19 29.02.2020
1788 Rain 5 1019 93 1600 2 110 06:51 29.02.2020
1789 Rain 5 1019 100 1600 2 110 06:26 29.02.2020
1790 Rain 5 1020 93 1600 2 100 05:48 29.02.2020
1791 Rain 5 1020 93 1400 2 90 05:21 29.02.2020
1792 Rain 5 1020 93 1400 3 110 03:44 29.02.2020
1793 Rain 4 1020 93 1700 2 100 03:23 29.02.2020
1794 Rain 3 1019 93 2000 1 0 02:42 29.02.2020
1795 Mist 3 1019 86 3000 2 110 01:32 29.02.2020
1796 Mist 3 1018 69 3200 2 80 00:44 29.02.2020
1797 Mist 3 1018 69 3500 2 100 00:25 29.02.2020
1798 Mist 3 1018 69 4500 2 130 23:38 28.02.2020
1799 Mist 3 1018 69 4500 2 130 23:38 28.02.2020
1800 Mist 3 1018 61 4500 2 130 23:20 28.02.2020
1801 Mist 3 1018 61 4500 2 130 22:42 28.02.2020
1802 Mist 3 1018 61 4500 2 130 22:22 28.02.2020
1803 Mist 3 1018 61 5000 1 130 21:42 28.02.2020
1804 Mist 3 1018 61 5000 1 130 21:21 28.02.2020
1805 Mist 3 1018 61 5000 2 120 20:56 28.02.2020
1806 Mist 3 1018 61 5000 1 120 20:38 28.02.2020
1807 Mist 3 1018 61 5000 1 120 20:38 28.02.2020
1808 Mist 3 1018 43 5000 1 120 20:19 28.02.2020
1809 Mist 3 1018 43 5000 2 100 19:56 28.02.2020
1810 Mist 3 1018 43 5000 2 110 19:38 28.02.2020
1811 Mist 4 1018 43 5000 2 110 19:19 28.02.2020
1812 Clouds 3 1018 43 6000 1 90 18:46 28.02.2020
1813 Clouds 4 1018 43 7000 2 160 18:24 28.02.2020
1814 Clouds 3 1018 80 10000 2 160 17:41 28.02.2020
1815 Clouds 4 1018 80 10000 2 160 17:23 28.02.2020
1816 Clouds 4 1018 80 10000 2 160 17:23 28.02.2020
1817 Clear 4 1018 37 10000 4 180 16:57 28.02.2020
1818 Clear 5 1018 37 10000 5 170 16:38 28.02.2020
1819 Clear 4 1018 37 10000 5 170 16:19 28.02.2020
1820 Clear 5 1019 74 10000 4 170 15:55 28.02.2020
1821 Clear 4 1018 74 10000 3 150 15:37 28.02.2020
1822 Clear 5 1018 74 10000 3 150 15:18 28.02.2020
1823 Clear 4 1018 74 10000 1 140 14:42 28.02.2020
1824 Clear 4 1018 74 10000 1 140 14:19 28.02.2020
1825 Clear 4 1018 80 10000 1 110 13:58 28.02.2020
1826 Clear 4 1017 69 10000 1 150 13:40 28.02.2020
1827 Clear 5 1017 69 10000 1 150 13:19 28.02.2020
1828 Clear 5 1017 69 10000 1 130 12:44 28.02.2020
1829 Clear 5 1017 64 10000 1 0 12:26 28.02.2020
1830 Clear 6 1017 56 10000 2 160 11:56 28.02.2020
1831 Clear 7 1017 52 10000 2 170 11:37 28.02.2020
1832 Clear 8 1017 52 10000 2 170 11:19 28.02.2020
1833 Clear 9 1017 48 10000 2 170 10:43 28.02.2020
1834 Clear 9 1017 45 10000 2 180 10:23 28.02.2020
1835 Clear 10 1017 42 10000 1 0 09:49 28.02.2020
1836 Clear 10 1017 42 10000 1 0 09:49 28.02.2020
1837 Clear 10 1017 42 10000 1 0 09:49 28.02.2020
1838 Clear 10 1017 42 10000 1 0 09:49 28.02.2020
1839 Clear 10 1017 42 10000 1 0 09:49 28.02.2020
1840 Clear 10 1017 42 10000 2 180 09:22 28.02.2020
1841 Clear 10 1017 39 10000 2 0 08:59 28.02.2020
1842 Clear 10 1017 39 10000 2 0 08:41 28.02.2020
1843 Clear 10 1017 39 10000 2 0 08:41 28.02.2020
1844 Clear 10 1017 39 10000 2 0 08:20 28.02.2020
1845 Clear 10 1017 39 10000 2 0 07:45 28.02.2020
1846 Clear 10 1018 39 10000 2 180 07:25 28.02.2020
1847 Clear 11 1018 39 10000 2 0 06:48 28.02.2020
1848 Clear 11 1019 42 10000 1 0 06:29 28.02.2020
1849 Clear 8 1019 42 10000 2 0 05:22 28.02.2020
1850 Clear 8 1020 41 10000 2 0 04:31 28.02.2020
1851 Clear 6 1020 47 10000 1 0 02:47 28.02.2020
1852 Clear 6 1020 55 10000 1 0 02:28 28.02.2020
1853 Clouds 3 1020 80 10000 1 0 01:38 28.02.2020
1854 Clouds -1 1020 85 10000 1 120 00:31 28.02.2020
1855 Clouds 0 1020 85 10000 1 150 23:45 27.02.2020
1856 Clouds 0 1020 79 10000 0.09 173 23:22 27.02.2020
1857 Clouds 0 1020 85 10000 1.38 159 22:56 27.02.2020
1858 Clouds 0 1021 86 10000 1.38 159 22:37 27.02.2020
1859 Clouds -1 1021 85 10000 1 0 22:19 27.02.2020
1860 Clouds 0 1021 86 10000 1.38 159 21:41 27.02.2020
1861 Clouds 0 1021 86 10000 1.38 159 21:22 27.02.2020
1862 Clouds 1 1021 74 10000 1.38 159 20:59 27.02.2020
1863 Clouds 1 1021 74 10000 1.38 159 20:40 27.02.2020
1864 Clouds 1 1021 74 10000 2.19 166 20:21 27.02.2020
1865 Clouds 1 1022 63 10000 1 0 19:57 27.02.2020
1866 Clouds 1 1022 38 10000 2 120 19:38 27.02.2020
1867 Clouds 2 1022 38 10000 2 120 19:19 27.02.2020
1868 Clouds 2 1023 47 10000 2 140 18:43 27.02.2020
1869 Clouds 4 1023 47 10000 2 140 18:24 27.02.2020
1870 Clouds 3 1024 47 10000 2 140 17:59 27.02.2020
1871 Clouds 3 1024 44 10000 2 150 17:40 27.02.2020
1872 Clouds 3 1024 44 10000 2 150 17:40 27.02.2020
1873 Clouds 4 1024 44 10000 2 150 17:20 27.02.2020
1874 Clouds 4 1025 44 10000 2 150 16:59 27.02.2020
1875 Clouds 4 1025 44 10000 2 140 16:39 27.02.2020
1876 Clouds 4 1025 44 10000 2 140 16:19 27.02.2020
1877 Clouds 4 1025 44 10000 2 150 15:58 27.02.2020
1878 Clouds 4 1026 47 10000 2 140 15:37 27.02.2020
1879 Clouds 4 1026 47 10000 2 140 15:18 27.02.2020
1880 Clouds 5 1026 40 10000 2 150 14:56 27.02.2020
1881 Clouds 5 1026 40 10000 2 160 14:37 27.02.2020
1882 Clouds 5 1026 40 10000 2 160 14:18 27.02.2020
1883 Clouds 5 1026 40 10000 2 160 13:42 27.02.2020
1884 Clouds 5 1026 40 10000 2 160 13:21 27.02.2020
1885 Clouds 5 1026 38 10000 2 150 12:48 27.02.2020
1886 Clouds 5 1027 38 10000 3 160 12:25 27.02.2020
1887 Clouds 5 1027 38 10000 3 160 11:59 27.02.2020
1888 Clouds 5 1027 38 10000 4 170 11:41 27.02.2020
1889 -273 0 0 0 0 0 11:21 27.02.2020
1890 Clouds 6 1027 38 10000 5 180 10:43 27.02.2020
1891 Clouds 6 1027 38 10000 4 170 10:23 27.02.2020
1892 Clouds 6 1028 35 10000 4 190 09:48 27.02.2020
1893 Clouds 6 1028 35 10000 6 180 09:29 27.02.2020
1894 Clouds 6 1029 35 10000 5 180 08:57 27.02.2020
1895 Clouds 6 1029 35 10000 4 170 08:39 27.02.2020
1896 Clouds 6 1029 35 10000 4 170 08:21 27.02.2020
1897 Clouds 6 1029 35 10000 4 170 07:44 27.02.2020
1898 Clouds 6 1029 38 10000 5 190 07:25 27.02.2020
1899 Clouds 6 1030 38 10000 4 200 06:45 27.02.2020
1900 Clouds 6 1032 41 10000 4 170 05:34 27.02.2020
1901 Clouds 5 1033 59 10000 2 140 03:38 27.02.2020
1902 Clouds 3 1034 59 10000 3 140 02:20 27.02.2020
1903 Clouds 2 1034 45 10000 1 0 00:44 27.02.2020
1904 Clouds 1 1033 45 10000 1 0 00:25 27.02.2020
1905 Clouds 1 1033 45 10000 2 100 23:39 26.02.2020
1906 Clouds 1 1033 46 10000 2 100 23:19 26.02.2020
1907 Clouds 1 1033 46 10000 2 90 22:57 26.02.2020
1908 Clouds 1 1033 46 10000 3 100 22:38 26.02.2020
1909 Clouds 1 1033 46 10000 3 100 22:19 26.02.2020
1910 Clouds 1 1033 46 10000 2 100 21:55 26.02.2020
1911 Clouds 1 1033 46 10000 2 90 21:36 26.02.2020
1912 Clouds 1 1033 46 10000 2 90 21:18 26.02.2020
1913 -273 0 0 0 0 0 20:54 26.02.2020
1914 Clouds 1 1033 46 10000 2 100 20:54 26.02.2020
1915 Clouds 2 1034 46 10000 2 100 20:36 26.02.2020
1916 Clouds 2 1034 42 10000 2 100 20:18 26.02.2020
1917 Clouds 2 1034 55 10000 4 120 19:44 26.02.2020
1918 Clouds 3 1034 55 10000 4 120 19:20 26.02.2020
1919 Clouds 4 1034 55 10000 4 120 18:58 26.02.2020
1920 Clouds 3 1034 59 10000 3 130 18:39 26.02.2020
1921 Clouds 4 1034 59 10000 3 130 18:21 26.02.2020
1922 Clouds 4 1034 48 10000 4 150 17:42 26.02.2020
1923 Clouds 4 1034 48 10000 4 150 17:24 26.02.2020
1924 Clouds 4 1034 51 10000 5 160 16:57 26.02.2020
1925 Clouds 4 1034 51 10000 3 150 16:39 26.02.2020
1926 Clouds 4 1034 51 10000 3 150 16:21 26.02.2020
1927 -273 0 0 0 0 0 16:21 26.02.2020
1928 Clouds 5 1034 48 10000 3 130 15:47 26.02.2020
1929 Clouds 5 1034 48 10000 3 140 15:29 26.02.2020
1930 Clouds 3 1033 64 10000 3.34 183 14:59 26.02.2020
1931 Clouds 4 1033 64 10000 1 100 14:40 26.02.2020
1932 Clouds 4 1033 64 10000 1 100 14:21 26.02.2020
1933 Clouds 5 1033 55 10000 1 140 13:43 26.02.2020
1934 Clouds 5 1033 55 10000 2 140 13:21 26.02.2020
1935 Clouds 6 1032 44 10000 2 160 12:40 26.02.2020
1936 Clouds 7 1032 44 10000 2 160 12:22 26.02.2020
1937 Clouds 7 1032 44 10000 3 180 11:58 26.02.2020
1938 Clouds 8 1032 39 10000 4 190 11:40 26.02.2020
1939 Clouds 8 1032 39 10000 4 190 11:21 26.02.2020
1940 Clouds 9 1031 36 10000 3 170 10:43 26.02.2020
1941 Clouds 9 1031 36 10000 3 170 10:43 26.02.2020
1942 Clouds 9 1031 36 10000 3 170 10:24 26.02.2020
1943 Clouds 9 1031 36 10000 3 160 09:57 26.02.2020
1944 Clouds 9 1031 36 10000 3 170 09:39 26.02.2020
1945 Clouds 9 1031 36 10000 3 170 09:21 26.02.2020
1946 Clouds 10 1031 36 10000 3 0 08:39 26.02.2020
1947 Clear 9 1031 36 10000 3 0 08:20 26.02.2020
1948 Clear 9 1031 31 10000 3 180 07:51 26.02.2020
1949 Clear 9 1032 34 10000 5 210 07:30 26.02.2020
1950 Clear 10 1032 31 10000 3 200 06:59 26.02.2020
1951 Clear 11 1032 31 10000 4 170 06:40 26.02.2020
1952 Clear 9 1032 31 10000 4 170 06:21 26.02.2020
1953 Clear 11 1033 33 10000 4 180 05:48 26.02.2020
1954 Clear 9 1033 29 10000 4 180 05:18 26.02.2020
1955 Clear 8 1033 35 10000 4 170 03:20 26.02.2020
1956 Clear 5 1033 74 10000 1 360 01:57 26.02.2020
1957 Clear 3 1032 80 10000 1 130 01:25 26.02.2020
1958 Clear 3 1031 59 10000 1 150 00:40 26.02.2020
1959 Clear 3 1031 59 10000 1 150 00:20 26.02.2020
1960 Clear 3 1031 55 10000 2 150 23:42 25.02.2020
1961 Clear 3 1031 55 10000 2 150 23:22 25.02.2020
1962 Clear 3 1030 55 10000 2 160 22:56 25.02.2020
1963 Clear 4 1030 51 10000 2 150 22:37 25.02.2020
1964 Clear 3 1030 51 10000 2 150 22:18 25.02.2020
1965 Clear 3 1029 64 10000 1 110 21:38 25.02.2020
1966 Clear 3 1029 64 10000 1 110 21:20 25.02.2020
1967 Clear 4 1029 64 10000 2 70 20:57 25.02.2020
1968 Clear 4 1029 55 10000 1 0 20:38 25.02.2020
1969 Clear 4 1029 55 10000 1 0 20:19 25.02.2020
1970 Clear 4 1029 48 10000 2 210 19:54 25.02.2020
1971 Clear 4 1029 59 10000 1 0 19:36 25.02.2020
1972 Clear 4 1029 59 10000 1 0 19:18 25.02.2020
1973 Clear 4 1028 55 10000 2 190 18:40 25.02.2020
1974 Clear 4 1028 55 10000 2 190 18:21 25.02.2020
1975 Clear 4 1028 55 10000 2 160 17:56 25.02.2020
1976 Clear 5 1028 44 10000 4 190 17:37 25.02.2020
1977 Clear 5 1028 44 10000 4 190 17:18 25.02.2020
1978 Clear 5 1028 48 10000 4 170 16:56 25.02.2020
1979 Clear 5 1028 44 10000 5 170 16:37 25.02.2020
1980 Clear 5 1028 44 10000 5 170 16:19 25.02.2020
1981 Clear 6 1027 41 10000 4 170 15:45 25.02.2020
1982 Clear 6 1027 41 10000 3 150 15:20 25.02.2020
1983 Clear 6 1027 41 10000 3 150 14:59 25.02.2020
1984 Clear 6 1026 38 10000 3 130 14:39 25.02.2020
1985 Clouds 6 1026 38 10000 3 130 14:18 25.02.2020
1986 Clouds 6 1026 41 10000 3 130 13:58 25.02.2020
1987 Clouds 6 1025 41 10000 3 130 13:40 25.02.2020
1988 Clouds 6 1025 41 10000 3 130 13:20 25.02.2020
1989 Clouds 7 1025 41 10000 3 130 13:20 25.02.2020
1990 Clouds 6 1025 51 10000 2 110 12:56 25.02.2020
1991 Clouds 7 1024 41 10000 2 110 12:37 25.02.2020
1992 Clouds 7 1024 41 10000 2 110 12:19 25.02.2020
1993 Clouds 7 1024 39 10000 3 130 11:56 25.02.2020
1994 Clouds 8 1023 36 10000 3 130 11:37 25.02.2020
1995 Clouds 9 1023 36 10000 3 130 11:18 25.02.2020
1996 Clouds 9 1023 34 10000 3 120 10:42 25.02.2020
1997 Clouds 9 1023 34 10000 3 120 10:23 25.02.2020
1998 Clouds 10 1023 34 10000 4 150 09:43 25.02.2020
1999 Clouds 10 1023 34 10000 4 150 09:23 25.02.2020
2000 Clouds 11 1023 34 10000 4 160 09:00 25.02.2020
2001 Clouds 11 1023 31 10000 4 160 08:41 25.02.2020
2002 Clouds 11 1023 31 10000 4 160 08:22 25.02.2020
2003 Clouds 11 1022 32 10000 5 190 07:48 25.02.2020
2004 Clouds 11 1022 34 10000 4 120 07:23 25.02.2020
2005 Clouds 11 1022 34 10000 4 120 07:23 25.02.2020
2006 Clouds 12 1023 31 10000 4 160 06:53 25.02.2020
2007 Clouds 12 1023 29 10000 2 130 05:51 25.02.2020
2008 Clouds 9 1024 42 10000 1 0 03:56 25.02.2020
2009 Clouds 8 1023 56 10000 1 110 02:32 25.02.2020
2010 Clouds 6 1022 69 10000 2 100 00:57 25.02.2020
2011 Clouds 6 1022 60 10000 1 0 00:31 25.02.2020
2012 Clouds 6 1021 60 10000 1 0 23:48 24.02.2020
2013 Clouds 5 1021 64 10000 1 90 23:29 24.02.2020
2014 Clouds 6 1021 60 10000 0.42 205 22:56 24.02.2020
2015 Clouds 5 1021 59 10000 1 90 22:37 24.02.2020
2016 Clouds 5 1021 59 10000 1 90 22:18 24.02.2020
2017 Clouds 5 1021 64 10000 0.42 205 21:54 24.02.2020
2018 Clouds 6 1021 55 10000 0.42 205 21:36 24.02.2020
2019 Clouds 6 1021 55 10000 0.42 205 21:36 24.02.2020
2020 -273 0 0 0 0 0 21:18 24.02.2020
2021 Clouds 6 1021 55 10000 1 170 20:41 24.02.2020
2022 Clouds 6 1021 55 10000 1 170 20:21 24.02.2020
2023 Clouds 6 1021 55 10000 1 170 19:59 24.02.2020
2024 Clouds 6 1021 48 10000 1 0 19:41 24.02.2020
2025 Clouds 6 1021 48 10000 1 0 19:22 24.02.2020
2026 Clouds 6 1021 48 10000 1 0 19:22 24.02.2020
2027 Clouds 6 1021 51 10000 0.7 286 18:58 24.02.2020
2028 Clouds 6 1021 44 10000 1 170 18:40 24.02.2020
2029 Clouds 6 1021 44 10000 1 170 18:21 24.02.2020
2030 Clouds 6 1021 38 10000 2 200 17:54 24.02.2020
2031 Clouds 7 1021 41 10000 2 240 17:36 24.02.2020
2032 Clouds 6 1021 41 10000 2 240 17:18 24.02.2020
2033 Clouds 6 1021 38 10000 3 210 16:54 24.02.2020
2034 Clouds 6 1021 41 10000 2 200 16:36 24.02.2020
2035 Clouds 6 1021 41 10000 2 200 16:18 24.02.2020
2036 Clouds 6 1021 44 10000 2 170 15:54 24.02.2020
2037 Clouds 7 1021 41 10000 2 180 15:36 24.02.2020
2038 Clouds 7 1021 41 10000 2 180 15:18 24.02.2020
2039 Clouds 7 1021 41 10000 4 170 14:40 24.02.2020
2040 Clouds 6 1021 41 10000 4 170 14:19 24.02.2020
2041 Clouds 6 1020 41 10000 4 170 13:57 24.02.2020
2042 Clouds 6 1020 41 10000 4 170 13:57 24.02.2020
2043 Clouds 7 1020 42 10000 5 180 13:38 24.02.2020
2044 Clouds 7 1020 42 10000 5 180 13:20 24.02.2020
2045 Clouds 7 1020 45 10000 3 160 12:56 24.02.2020
2046 Clouds 7 1020 48 10000 1 150 12:38 24.02.2020
2047 Clouds 7 1020 48 10000 1 150 12:38 24.02.2020
2048 Clouds 7 1020 48 10000 1 150 12:19 24.02.2020
2049 Clouds 7 1019 52 10000 1 0 11:44 24.02.2020
2050 Clouds 8 1019 45 10000 1 0 11:26 24.02.2020
2051 Clouds 9 1019 45 10000 1 340 10:45 24.02.2020
2052 Clouds 10 1019 45 10000 2 330 10:26 24.02.2020
2053 Clouds 10 1019 45 10000 1.74 132 09:54 24.02.2020
2054 Clouds 9 1019 45 10000 1.74 132 09:54 24.02.2020
2055 Clouds 9 1019 42 10000 1.74 132 09:36 24.02.2020
2056 Clouds 9 1019 42 10000 1.74 132 09:18 24.02.2020
2057 Clouds 9 1018 42 10000 1 0 08:44 24.02.2020
2058 Clouds 10 1018 42 10000 1 0 08:25 24.02.2020
2059 Clouds 10 1018 39 10000 1 0 07:44 24.02.2020
2060 Clouds 10 1018 39 10000 1 0 07:24 24.02.2020
2061 Clouds 11 1019 39 10000 2 100 06:36 24.02.2020
2062 Clouds 10 1019 39 10000 2 100 06:18 24.02.2020
2063 Clouds 10 1020 36 10000 3 340 05:28 24.02.2020
2064 Clouds 8 1020 48 10000 4 340 03:54 24.02.2020
2065 Clouds 7 1020 52 10000 2 320 02:54 24.02.2020
2066 Clouds 4 1019 38 10000 2 340 01:43 24.02.2020
2067 Clouds 2 1019 79 10000 1 350 00:57 24.02.2020
2068 Clouds 2 1019 74 10000 2 350 00:27 24.02.2020
2069 Clouds 2 1019 74 10000 2 320 23:59 23.02.2020
2070 Clouds 2 1019 79 10000 3 340 23:40 23.02.2020
2071 Clouds 2 1019 79 10000 3 340 23:18 23.02.2020
2072 Clouds 2 1018 80 10000 2 360 22:56 23.02.2020
2073 Clouds 1 1018 86 10000 2 360 22:37 23.02.2020
2074 Clouds 1 1018 86 10000 2 360 22:18 23.02.2020
2075 Clouds 2 1018 79 10000 1 340 21:43 23.02.2020
2076 Clouds 2 1018 79 10000 1 340 21:43 23.02.2020
2077 Clouds 2 1018 79 10000 1 340 21:43 23.02.2020
2078 Clouds 2 1019 74 10000 1 340 21:19 23.02.2020
2079 Clouds 2 1019 39 10000 2 340 20:56 23.02.2020
2080 Clouds 3 1019 39 10000 1 340 20:38 23.02.2020
2081 Clouds 3 1019 35 10000 1 340 20:20 23.02.2020
2082 Clouds 3 1019 34 10000 1 360 19:56 23.02.2020
2083 Clouds 3 1020 34 10000 2 320 19:37 23.02.2020
2084 Clouds 3 1020 34 10000 2 320 19:18 23.02.2020
2085 Clouds 4 1020 59 10000 3 320 18:54 23.02.2020
2086 Clouds 3 1019 34 10000 2 270 18:36 23.02.2020
2087 Clouds 3 1019 34 10000 2 270 18:18 23.02.2020
2088 Clouds 3 1019 80 10000 2 330 17:56 23.02.2020
2089 Clouds 4 1019 74 10000 2 340 17:37 23.02.2020
2090 Clouds 3 1019 74 10000 2 340 17:18 23.02.2020
2091 Clouds 4 1019 29 10000 1 0 16:42 23.02.2020
2092 Clouds 3 1019 29 10000 1 0 16:24 23.02.2020
2093 Clouds 3 1019 29 10000 1 350 15:57 23.02.2020
2094 Clouds 4 1019 74 10000 3 360 15:38 23.02.2020
2095 Clouds 4 1019 74 10000 3 360 15:20 23.02.2020
2096 Clouds 4 1019 29 10000 1.84 359 14:56 23.02.2020
2097 Clouds 5 1019 64 10000 1.84 359 14:38 23.02.2020
2098 Clear 5 1019 64 10000 1.69 10 14:20 23.02.2020
2099 Clear 5 1019 74 10000 2 30 13:57 23.02.2020
2100 Clear 5 1019 59 10000 1 0 13:38 23.02.2020
2101 Clouds 6 1019 55 10000 1 110 13:20 23.02.2020
2102 Clouds 6 1018 55 10000 2 70 12:42 23.02.2020
2103 Clouds 6 1018 55 10000 2 70 12:21 23.02.2020
2104 Clouds 7 1018 48 10000 1 40 11:54 23.02.2020
2105 Clouds 7 1018 41 10000 1 60 11:36 23.02.2020
2106 Clear 8 1018 41 10000 1 60 11:18 23.02.2020
2107 Clear 10 1017 31 10000 1 0 10:41 23.02.2020
2108 Clear 10 1017 31 10000 1 0 10:23 23.02.2020
2109 Clear 11 1017 31 10000 2 130 09:56 23.02.2020
2110 Clear 11 1017 29 10000 1 0 09:38 23.02.2020
2111 Clear 11 1017 29 10000 1 0 09:19 23.02.2020
2112 Clear 12 1017 29 10000 2 150 08:50 23.02.2020
2113 Clear 12 1017 29 10000 3 150 08:29 23.02.2020
2114 Clear 11 1017 29 10000 1 0 07:48 23.02.2020
2115 Clear 10 1018 26 10000 1 0 07:30 23.02.2020
2116 Clear 12 1019 26 10000 1 0 06:27 23.02.2020
2117 Clear 11 1020 30 10000 2 270 05:39 23.02.2020
2118 Clear 7 1021 33 10000 2 0 04:26 23.02.2020
2119 Clear 7 1023 38 10000 1 0 02:58 23.02.2020
2120 Clear 5 1023 44 10000 1 0 02:25 23.02.2020
2121 Clear 1 1024 79 10000 1 350 01:23 23.02.2020
2122 Clear -1 1023 73 10000 1 40 00:45 23.02.2020
2123 Clear -1 1024 79 10000 1 50 00:24 23.02.2020
2124 Clear -1 1024 68 10000 1.24 47 23:45 22.02.2020
2125 Clear -1 1024 68 10000 1.24 47 23:45 22.02.2020
2126 Clear -1 1024 62 10000 1 0 23:26 22.02.2020
2127 Clear 0 1024 63 10000 1 50 22:55 22.02.2020
2128 Clear 0 1025 68 10000 2 50 22:36 22.02.2020
2129 Clear -1 1025 68 10000 2 50 22:18 22.02.2020
2130 Clear 1 1025 54 10000 1 0 21:40 22.02.2020
2131 Clear 0 1025 54 10000 1 0 21:21 22.02.2020
2132 Clear 1 1026 54 10000 2 100 20:43 22.02.2020
2133 Clear 1 1026 58 10000 2 90 20:24 22.02.2020
2134 Clear 1 1026 58 10000 2 90 19:54 22.02.2020
2135 Clear 1 1026 58 10000 2 90 19:54 22.02.2020
2136 Clear 1 1026 58 10000 2 90 19:54 22.02.2020
2137 Clear 1 1027 68 10000 2 80 19:36 22.02.2020
2138 Clear 0 1027 68 10000 2 80 19:18 22.02.2020
2139 Clear 0 1027 68 10000 2 80 19:18 22.02.2020
2140 Clear 1 1027 68 10000 1 0 18:39 22.02.2020
2141 Clear 1 1027 68 10000 1 0 18:21 22.02.2020
2142 Clear 1 1028 68 10000 0.89 153 17:57 22.02.2020
2143 Clear 1 1028 68 10000 0.89 153 17:57 22.02.2020
2144 Clear 2 1028 79 10000 1 0 17:37 22.02.2020
2145 Clear 1 1028 79 10000 1 0 17:19 22.02.2020
2146 Clear 2 1028 68 10000 1.67 196 16:55 22.02.2020
2147 Clear 3 1028 58 10000 1 0 16:37 22.02.2020
2148 Clear 2 1028 58 10000 1 0 16:19 22.02.2020
2149 Clear 2 1029 58 10000 2 70 15:43 22.02.2020
2150 Clear 3 1029 24 10000 1 120 15:24 22.02.2020
2151 Clear 3 1029 37 10000 2 140 14:43 22.02.2020
2152 Clear 5 1029 29 10000 3 170 14:23 22.02.2020
2153 Clear 5 1029 27 10000 4 190 13:57 22.02.2020
2154 Clear 5 1029 26 10000 4 180 13:39 22.02.2020
2155 Clear 6 1029 26 10000 4 180 13:18 22.02.2020
2156 Clear 6 1028 24 10000 5 180 12:42 22.02.2020
2157 Clear 6 1028 24 10000 4 190 12:23 22.02.2020
2158 Clear 7 1028 22 10000 5 190 11:47 22.02.2020
2159 Clear 8 1028 19 10000 5 190 11:28 22.02.2020
2160 Clear 8 1028 16 10000 4 200 10:57 22.02.2020
2161 Clear 9 1028 16 10000 4 180 10:39 22.02.2020
2162 Clear 10 1028 16 10000 4 180 10:19 22.02.2020
2163 Clear 10 1028 12 10000 4 290 09:57 22.02.2020
2164 Clear 10 1028 13 10000 4 300 09:38 22.02.2020
2165 Clear 10 1028 13 10000 4 300 09:20 22.02.2020
2166 Clear 11 1028 12 10000 6 280 08:46 22.02.2020
2167 Clear 10 1029 13 10000 7 280 08:27 22.02.2020
2168 Clear 10 1029 13 10000 7 280 08:27 22.02.2020
2169 Clear 10 1029 13 10000 5 290 07:45 22.02.2020
2170 Clear 10 1029 13 10000 5 290 07:19 22.02.2020
2171 Clear 11 1030 16 10000 6 270 06:47 22.02.2020
2172 Clear 10 1030 16 10000 6 270 06:27 22.02.2020
2173 Clear 8 1032 19 10000 3 290 04:32 22.02.2020
2174 Clear 8 1032 22 10000 3 250 03:21 22.02.2020
2175 Clear 5 1032 23 10000 3 290 02:28 22.02.2020
2176 Clear 3 1031 29 10000 3 310 01:41 22.02.2020
2177 Clear 3 1031 29 10000 3 310 01:23 22.02.2020
2178 Clear 2 1031 42 10000 4 330 00:41 22.02.2020
2179 Clear 1 1031 42 10000 4 330 00:21 22.02.2020
2180 Clear 1 1030 28 10000 5 320 23:43 21.02.2020
2181 Clear 1 1030 42 10000 3 310 23:21 21.02.2020
2182 Clear 1 1030 30 10000 1 0 22:45 21.02.2020
2183 Clear 2 1030 29 10000 2 280 22:27 21.02.2020
2184 Clear 1 1030 46 10000 2 300 21:59 21.02.2020
2185 Clear 1 1030 42 10000 2 300 21:40 21.02.2020
2186 Clear 1 1030 42 10000 2 300 21:22 21.02.2020
2187 Clear 2 1030 30 10000 3 330 20:48 21.02.2020
2188 Clear 2 1030 30 10000 5 340 20:28 21.02.2020
2189 Clear 2 1030 34 10000 2 20 19:41 21.02.2020
2190 Clear 2 1030 34 10000 2 20 19:23 21.02.2020
2191 Clear 2 1030 28 10000 5 340 18:55 21.02.2020
2192 Clear 3 1030 29 10000 6 330 18:37 21.02.2020
2193 Clear 3 1030 29 10000 6 330 18:19 21.02.2020
2194 Clear 3 1030 29 10000 6 320 17:40 21.02.2020
2195 Clear 3 1030 29 10000 6 320 17:21 21.02.2020
2196 Clear 4 1029 27 10000 7 320 16:57 21.02.2020
2197 Clear 4 1029 25 10000 6 310 16:39 21.02.2020
2198 Clear 4 1029 25 10000 6 310 16:20 21.02.2020
2199 Clear 4 1029 25 10000 6 310 16:20 21.02.2020
2200 Clear 4 1029 25 10000 5 300 15:44 21.02.2020
2201 Clear 5 1029 23 10000 5 300 15:19 21.02.2020
2202 Clear 5 1028 23 10000 6 300 14:56 21.02.2020
2203 Clear 6 1028 22 10000 5 290 14:38 21.02.2020
2204 Clouds 6 1028 22 10000 5 290 14:19 21.02.2020
2205 Clouds 7 1027 22 10000 6 300 13:42 21.02.2020
2206 Clouds 7 1027 22 10000 6 300 13:23 21.02.2020
2207 Clouds 7 1026 28 10000 4 290 12:50 21.02.2020
2208 Clouds 7 1026 26 10000 4 290 12:28 21.02.2020
2209 Clouds 7 1026 26 10000 3 310 11:59 21.02.2020
2210 Clouds 7 1026 28 10000 5 320 11:40 21.02.2020
2211 Clouds 8 1026 28 10000 5 320 11:21 21.02.2020
2212 Clouds 8 1026 28 10000 5 320 11:21 21.02.2020
2213 Clouds 8 1025 22 10000 7 290 10:55 21.02.2020
2214 Clouds 8 1025 23 10000 8 300 10:36 21.02.2020
2215 Clouds 9 1025 23 10000 8 300 10:18 21.02.2020
2216 Clouds 9 1024 18 10000 8 300 09:42 21.02.2020
2217 Clouds 10 1024 18 10000 8 300 09:24 21.02.2020
2218 Clouds 10 1024 21 10000 8 320 08:58 21.02.2020
2219 Clouds 11 1024 21 10000 7 340 08:39 21.02.2020
2220 Clouds 11 1024 21 10000 7 340 08:21 21.02.2020
2221 Clouds 11 1024 17 10000 7 280 07:57 21.02.2020
2222 Clouds 10 1024 16 10000 11 280 07:39 21.02.2020
2223 Clouds 10 1024 16 10000 11 280 07:18 21.02.2020
2224 Clouds 10 1024 19 10000 9 280 06:42 21.02.2020
2225 Clouds 11 1025 21 10000 10 290 06:24 21.02.2020
2226 Clouds 11 1025 21 10000 10 290 06:24 21.02.2020
2227 Clouds 9 1026 52 6000 1 0 05:42 21.02.2020
2228 Mist 8 1027 28 4000 2 300 04:30 21.02.2020
2229 Mist 8 1027 28 3500 2 270 03:56 21.02.2020
2230 Mist 7 1028 28 3500 2 310 03:22 21.02.2020
2231 Mist 3 1028 71 2500 1 0 01:50 21.02.2020
2232 Mist 2 1028 92 2300 1 0 01:23 21.02.2020
2233 Mist 0 1028 92 2300 1 0 00:40 21.02.2020
2234 Mist 0 1028 92 2300 1 0 00:21 21.02.2020
2235 Mist 0 1028 92 2500 1 10 23:43 20.02.2020
2236 Mist 0 1028 100 2700 1 0 23:22 20.02.2020
2237 Mist 0 1028 100 2700 1 0 23:22 20.02.2020
2238 Mist 0 1028 100 2700 1 0 22:55 20.02.2020
2239 Mist 0 1028 100 2500 1 0 22:37 20.02.2020
2240 Mist 0 1028 100 2500 1 0 22:18 20.02.2020
2241 Mist 0 1028 100 2500 0.92 4 21:54 20.02.2020
2242 Mist 1 1028 100 2500 0.92 4 21:36 20.02.2020
2243 Mist 0 1028 100 2500 0.92 4 21:18 20.02.2020
2244 Mist 1 1028 92 2500 1 0 20:54 20.02.2020
2245 Mist 1 1028 92 3000 1 150 20:36 20.02.2020
2246 Mist 1 1028 92 3000 1 150 20:18 20.02.2020
2247 Mist 1 1029 92 3200 1 359 19:42 20.02.2020
2248 Mist 1 1029 68 3200 1 140 19:24 20.02.2020
2249 Mist 1 1029 92 3200 1 0 18:58 20.02.2020
2250 Mist 1 1029 100 3200 1 359 18:37 20.02.2020
2251 Mist 1 1029 100 3200 1 359 18:19 20.02.2020
2252 Mist 1 1029 92 3200 1 100 17:40 20.02.2020
2253 Mist 1 1029 92 3200 1 120 17:22 20.02.2020
2254 Mist 1 1029 92 3200 1 120 16:58 20.02.2020
2255 Mist 2 1030 66 3200 0.89 56 16:39 20.02.2020
2256 Mist 2 1030 66 3200 0.89 56 16:19 20.02.2020
2257 Mist 2 1030 86 2800 1 0 15:57 20.02.2020
2258 Mist 2 1030 86 2800 1 0 15:39 20.02.2020
2259 Mist 2 1030 86 2800 1 0 15:20 20.02.2020
2260 -273 0 0 0 0 0 14:54 20.02.2020
2261 Mist 2 1029 86 2800 2 160 14:36 20.02.2020
2262 Mist 2 1029 86 2800 2 160 14:36 20.02.2020
2263 Mist 2 1029 86 2800 2 160 14:18 20.02.2020
2264 Mist 2 1029 86 3000 2 150 13:42 20.02.2020
2265 Mist 2 1029 59 3000 2 160 13:19 20.02.2020
2266 Mist 2 1029 59 3500 2 160 12:43 20.02.2020
2267 Mist 2 1029 80 3500 2 150 12:22 20.02.2020
2268 Mist 2 1030 80 3500 2 160 11:59 20.02.2020
2269 Mist 3 1029 74 3500 2 160 11:41 20.02.2020
2270 Mist 3 1029 74 3500 2 160 11:22 20.02.2020
2271 Haze 3 1029 74 3500 2 150 10:57 20.02.2020
2272 Haze 5 1029 74 4000 3 140 10:39 20.02.2020
2273 Haze 3 1029 74 4000 3 140 10:20 20.02.2020
2274 Haze 6 1029 69 4000 2 150 09:45 20.02.2020
2275 Haze 4 1029 69 4000 2 150 09:25 20.02.2020
2276 Haze 5 1029 69 4000 3 160 08:59 20.02.2020
2277 Haze 5 1029 69 4200 2 150 08:38 20.02.2020
2278 Haze 4 1029 69 4200 2 150 08:20 20.02.2020
2279 Haze 5 1029 60 4200 1 0 07:45 20.02.2020
2280 Haze 5 1029 60 4200 2 90 07:21 20.02.2020
2281 Haze 7 1030 65 4500 2 130 06:52 20.02.2020
2282 Haze 8 1031 65 4500 3 170 06:26 20.02.2020
2283 Haze 8 1031 69 4500 1 0 05:46 20.02.2020
2284 Haze 4 1032 69 4000 1 0 04:54 20.02.2020
2285 Mist 4 1032 69 4000 1 0 03:58 20.02.2020
2286 Mist 5 1032 74 3500 1 350 03:29 20.02.2020
2287 Mist 3 1032 86 3500 1 0 02:25 20.02.2020
2288 Mist 2 1032 73 4000 2 320 00:59 20.02.2020
2289 Mist 1 1031 92 5000 1 0 00:32 20.02.2020
2290 Mist 0 1031 92 5000 1 0 23:49 19.02.2020
2291 Mist 0 1031 92 5000 1 150 23:22 19.02.2020
2292 Mist 0 1030 92 5000 1 110 22:47 19.02.2020
2293 Mist 0 1030 92 5000 0.51 182 22:28 19.02.2020
2294 Clear -1 1030 92 6000 0.51 182 21:59 19.02.2020
2295 Clear -1 1030 92 6000 1 330 21:41 19.02.2020
2296 Clear -1 1030 92 6000 1 330 21:19 19.02.2020
2297 Clear -1 1030 92 6000 1 0 20:58 19.02.2020
2298 Clear 0 1030 92 6000 1 270 20:39 19.02.2020
2299 Clear 0 1030 92 6000 1 270 20:20 19.02.2020
2300 Clear 0 1030 92 7000 1 0 19:59 19.02.2020
2301 Clear 1 1030 86 7000 1 0 19:39 19.02.2020
2302 Clear 1 1030 86 7000 1 0 19:20 19.02.2020
2303 Clear 1 1030 75 7000 1 0 18:58 19.02.2020
2304 Clear 1 1030 80 7000 1 0 18:40 19.02.2020
2305 Clear 1 1030 80 7000 1 0 18:22 19.02.2020
2306 Clear 2 1030 74 7000 1 0 17:59 19.02.2020
2307 Clear 2 1030 74 7000 1 0 17:41 19.02.2020
2308 Clear 2 1030 74 7000 1 0 17:19 19.02.2020
2309 Clear 2 1030 74 7000 2 100 16:43 19.02.2020
2310 Clear 2 1030 74 7000 2 110 16:19 19.02.2020
2311 Clear 1 1030 68 7000 1 90 15:57 19.02.2020
2312 Clear 1 1030 92 6000 1 90 15:38 19.02.2020
2313 Clear 1 1030 92 6000 1 90 15:19 19.02.2020
2314 Clear 2 1029 68 7000 1 120 14:41 19.02.2020
2315 Clear 2 1029 68 7000 1 120 14:23 19.02.2020
2316 Clear 3 1028 80 8000 1 140 13:55 19.02.2020
2317 Clear 4 1028 69 8000 2 170 13:37 19.02.2020
2318 Clear 4 1028 69 8000 2 170 13:18 19.02.2020
2319 Clear 4 1027 64 10000 3 150 12:39 19.02.2020
2320 Clear 4 1027 64 10000 3 150 12:39 19.02.2020
2321 Clear 5 1026 56 10000 2 140 12:19 19.02.2020
2322 Clear 4 1027 64 10000 3 150 12:19 19.02.2020
2323 Clear 5 1026 56 10000 2 140 11:55 19.02.2020
2324 Clear 5 1026 52 10000 2 150 11:37 19.02.2020
2325 Clear 7 1026 52 10000 2 150 11:18 19.02.2020
2326 Clear 7 1025 48 10000 3 140 10:56 19.02.2020
2327 Clear 7 1025 42 10000 2 120 10:36 19.02.2020
2328 Clear 7 1025 42 10000 2 120 10:18 19.02.2020
2329 Clear 8 1025 39 10000 3 110 09:41 19.02.2020
2330 Clear 8 1025 39 10000 3 110 09:20 19.02.2020
2331 Clear 9 1025 39 10000 2 100 08:56 19.02.2020
2332 Clear 9 1024 42 10000 4 110 08:37 19.02.2020
2333 Clear 9 1024 42 10000 4 110 08:37 19.02.2020
2334 Clear 8 1024 42 10000 4 110 08:18 19.02.2020
2335 Clear 8 1025 36 10000 2 100 07:40 19.02.2020
2336 Clear 9 1025 36 10000 2 100 07:20 19.02.2020
2337 Clear 10 1025 36 10000 3 120 06:46 19.02.2020
2338 Clear 9 1026 36 10000 2 100 05:32 19.02.2020
2339 Clear 7 1027 45 10000 1 0 03:56 19.02.2020
2340 Clear 6 1027 59 10000 2 310 02:45 19.02.2020
2341 Clear 3 1026 59 10000 1 350 01:53 19.02.2020
2342 Clear 1 1026 79 10000 0.7 351 01:23 19.02.2020
2343 Clear 0 1025 86 10000 2 340 00:42 19.02.2020
2344 Clear -1 1025 79 10000 2 340 00:22 19.02.2020
2345 Clear 0 1025 86 10000 2 350 23:41 18.02.2020
2346 Clear 0 1025 86 10000 2 350 23:20 18.02.2020
2347 Clear 0 1025 86 10000 1 0 22:55 18.02.2020
2348 Clear 0 1024 86 10000 0.78 42 22:37 18.02.2020
2349 Clear 0 1024 86 10000 0.78 42 22:19 18.02.2020
2350 Clear 0 1024 92 10000 1 10 21:55 18.02.2020
2351 Clear 0 1024 86 10000 1 0 21:36 18.02.2020
2352 Clear 0 1024 86 10000 1 0 21:18 18.02.2020
2353 Clear 0 1024 79 10000 0.78 42 20:54 18.02.2020
2354 Clear 0 1024 79 10000 0.78 42 20:36 18.02.2020
2355 Clear 0 1024 79 10000 1.19 37 20:18 18.02.2020
2356 Clear 0 1024 86 10000 1 10 19:42 18.02.2020
2357 Clear 1 1024 86 10000 1 10 19:19 18.02.2020
2358 Clear 0 1024 86 10000 2 360 18:57 18.02.2020
2359 Clear 1 1024 86 10000 1 0 18:39 18.02.2020
2360 Clear 1 1024 86 10000 1 0 18:19 18.02.2020
2361 Clear 1 1024 79 10000 1 360 17:42 18.02.2020
2362 Clear 1 1024 79 10000 1 360 17:20 18.02.2020
2363 Clear 1 1024 79 10000 1 360 17:19 18.02.2020
2364 Clear 2 1024 49 10000 1.42 57 16:40 18.02.2020
2365 Clear 2 1024 49 10000 1.42 57 16:22 18.02.2020
2366 Clear 2 1024 74 10000 1 70 15:58 18.02.2020
2367 Clear 3 1024 49 10000 1 80 15:39 18.02.2020
2368 Clear 3 1024 49 10000 1 80 15:19 18.02.2020
2369 Clear 3 1024 49 10000 2 80 14:56 18.02.2020
2370 Clear 3 1024 49 10000 2 80 14:56 18.02.2020
2371 Clear 3 1024 49 10000 1 80 14:37 18.02.2020
2372 Clouds 3 1024 43 10000 1 80 14:19 18.02.2020
2373 Clouds 3 1024 64 10000 2 70 13:41 18.02.2020
2374 Clouds 3 1024 64 10000 2 70 13:22 18.02.2020
2375 Clouds 4 1024 59 10000 1 0 12:55 18.02.2020
2376 Clouds 5 1024 41 10000 1 0 12:37 18.02.2020
2377 Clouds 6 1024 41 10000 1 0 12:19 18.02.2020
2378 Clouds 7 1023 36 10000 2 180 11:43 18.02.2020
2379 Clouds 7 1023 36 10000 1 0 11:25 18.02.2020
2380 Clouds 9 1023 29 10000 4 200 10:55 18.02.2020
2381 Clouds 10 1023 34 10000 4 170 10:37 18.02.2020
2382 Clouds 10 1023 34 10000 4 170 10:18 18.02.2020
2383 Clouds 10 1023 29 10000 4 180 09:55 18.02.2020
2384 Clouds 10 1023 27 10000 4 170 09:36 18.02.2020
2385 Clouds 10 1023 27 10000 4 170 09:18 18.02.2020
2386 Clouds 11 1023 25 10000 3 170 08:42 18.02.2020
2387 Clouds 11 1023 25 10000 3 170 08:20 18.02.2020
2388 Clouds 11 1023 27 10000 3 150 07:56 18.02.2020
2389 Clouds 11 1023 27 10000 3 160 07:30 18.02.2020
2390 Clouds 11 1024 27 10000 3 160 06:56 18.02.2020
2391 Clouds 12 1025 29 10000 3 160 06:37 18.02.2020
2392 Clouds 12 1025 25 10000 1 0 05:59 18.02.2020
2393 Clouds 11 1026 25 10000 1 0 05:33 18.02.2020
2394 Clear 6 1027 38 10000 3 20 03:59 18.02.2020
2395 Clear 7 1028 44 10000 2 340 02:59 18.02.2020
2396 Clear 3 1028 55 10000 2 260 01:59 18.02.2020
2397 Clear 0 1028 63 10000 2 300 00:54 18.02.2020
2398 Clear -2 1027 79 10000 3 350 00:22 18.02.2020
2399 Clear -2 1027 79 10000 3 360 23:55 17.02.2020
2400 Clear -2 1027 85 10000 1 0 23:37 17.02.2020
2401 Clear -1 1027 85 10000 1 0 23:18 17.02.2020
2402 Clear -1 1027 85 10000 1 360 22:41 17.02.2020
2403 Clear -2 1027 85 10000 1 360 22:21 17.02.2020
2404 Clear -1 1027 85 10000 1 340 21:58 17.02.2020
2405 Clear -2 1027 85 10000 2.41 18 21:38 17.02.2020
2406 Clear -2 1027 85 10000 2.41 18 21:18 17.02.2020
2407 Clear -2 1028 85 10000 1 200 20:41 17.02.2020
2408 Clear -1 1028 85 10000 1 200 20:21 17.02.2020
2409 Clear -2 1028 85 10000 1 30 19:58 17.02.2020
2410 Clear -1 1028 68 10000 1 0 19:38 17.02.2020
2411 Clear -2 1028 68 10000 1 0 19:20 17.02.2020
2412 Clear -2 1028 85 10000 1 0 18:38 17.02.2020
2413 Clear -2 1028 85 10000 1 0 18:19 17.02.2020
2414 Clear -2 1028 85 10000 1 0 17:58 17.02.2020
2415 Clear -1 1028 85 10000 2.1 13 17:37 17.02.2020
2416 Clear 0 1028 85 10000 1.51 10 17:19 17.02.2020
2417 Clear 0 1028 79 10000 1 360 16:55 17.02.2020
2418 Clear 0 1028 79 10000 2 30 16:37 17.02.2020
2419 Clear -1 1028 79 10000 2 30 16:18 17.02.2020
2420 Clear 0 1028 86 10000 1 0 15:44 17.02.2020
2421 Clear 0 1028 86 10000 1 0 15:44 17.02.2020
2422 Clear 0 1028 79 10000 1.51 10 15:26 17.02.2020
2423 Clear 1 1028 79 10000 1 0 14:55 17.02.2020
2424 Clear 1 1028 68 10000 1 0 14:37 17.02.2020
2425 Clear 1 1028 68 10000 1 0 14:19 17.02.2020
2426 Clear 1 1028 68 10000 1 0 14:19 17.02.2020
2427 Clear 2 1027 68 10000 2 130 13:40 17.02.2020
2428 Clear 2 1027 68 10000 2 130 13:20 17.02.2020
2429 Clear 2 1027 36 10000 1 170 12:57 17.02.2020
2430 Clear 3 1028 50 10000 2 130 12:39 17.02.2020
2431 Clear 3 1028 50 10000 2 130 12:21 17.02.2020
2432 Clear 4 1027 44 10000 2 140 11:45 17.02.2020
2433 Clear 5 1027 41 10000 2 150 11:26 17.02.2020
2434 Clear 6 1027 38 10000 2 110 10:57 17.02.2020
2435 Clear 7 1027 33 10000 3 110 10:39 17.02.2020
2436 Clear 7 1027 33 10000 3 110 10:20 17.02.2020
2437 Clear 7 1027 30 10000 3 80 09:56 17.02.2020
2438 Clear 8 1027 28 10000 3 60 09:38 17.02.2020
2439 Clear 8 1027 28 10000 3 60 09:18 17.02.2020
2440 Clear 8 1027 19 10000 6 300 08:42 17.02.2020
2441 Clear 8 1027 19 10000 6 300 08:23 17.02.2020
2442 Clear 8 1027 21 10000 6 280 07:59 17.02.2020
2443 Clear 8 1027 19 10000 6 280 07:38 17.02.2020
2444 Clear 7 1027 19 10000 6 280 07:19 17.02.2020
2445 Clear 9 1028 20 10000 8 280 06:42 17.02.2020
2446 Clear 7 1028 22 10000 7 280 06:24 17.02.2020
2447 Clear 8 1029 24 10000 6 290 05:40 17.02.2020
2448 Clear 4 1030 29 10000 2 0 04:25 17.02.2020
2449 Clear 3 1030 31 10000 2 30 02:49 17.02.2020
2450 Clear -1 1031 53 10000 1 40 01:22 17.02.2020
2451 Clear -2 1030 49 10000 1 0 00:39 17.02.2020
2452 Clear -2 1030 49 10000 1 0 00:19 17.02.2020
2453 Clear -2 1030 45 10000 2 350 23:48 16.02.2020
2454 Clear -1 1030 36 10000 6 290 23:27 16.02.2020
2455 Clear -1 1030 36 10000 7 290 22:56 16.02.2020
2456 Clear -1 1030 36 10000 7 290 22:38 16.02.2020
2457 Clear -1 1030 36 10000 7 290 22:18 16.02.2020
2458 Clear -2 1030 39 10000 5 290 21:43 16.02.2020
2459 Clear -2 1030 39 10000 5 290 21:24 16.02.2020
2460 Clear -2 1031 39 10000 7 290 20:59 16.02.2020
2461 Clear -2 1031 42 10000 6 270 20:41 16.02.2020
2462 Clear -2 1031 42 10000 6 270 20:22 16.02.2020
2463 Clear -2 1031 39 10000 5 290 19:59 16.02.2020
2464 Clear -2 1031 39 10000 5 280 19:40 16.02.2020
2465 Clear -2 1031 39 10000 5 280 19:19 16.02.2020
2466 Clear -2 1031 39 10000 7 320 18:59 16.02.2020
2467 Clear -2 1031 36 10000 7 300 18:41 16.02.2020
2468 Clear -2 1031 36 10000 7 300 18:23 16.02.2020
2469 Clear -2 1031 36 10000 7 300 18:23 16.02.2020
2470 Clear -1 1032 33 10000 7 300 17:44 16.02.2020
2471 Clear -1 1031 36 10000 6 300 17:21 16.02.2020
2472 Clear -1 1031 39 10000 7 310 16:57 16.02.2020
2473 Clear -2 1031 39 10000 7 300 16:39 16.02.2020
2474 Clear -2 1031 39 10000 7 300 16:21 16.02.2020
2475 Clear -2 1032 39 10000 6 300 15:56 16.02.2020
2476 Clear -1 1032 33 10000 7 300 15:37 16.02.2020
2477 Clear -1 1032 33 10000 7 300 15:18 16.02.2020
2478 Clear -1 1031 36 10000 8 300 14:39 16.02.2020
2479 Clear -1 1031 36 10000 8 300 14:21 16.02.2020
2480 Clear 0 1031 36 10000 8 300 13:47 16.02.2020
2481 Clear 0 1030 28 10000 10 290 13:24 16.02.2020
2482 Clouds 0 1030 27 10000 10 290 13:24 16.02.2020
2483 Clouds 0 1030 27 10000 10 300 12:56 16.02.2020
2484 Clouds 0 1030 27 10000 11 300 12:38 16.02.2020
2485 Clouds 0 1030 27 10000 11 300 12:19 16.02.2020
2486 Clouds 1 1029 31 10000 8 300 11:39 16.02.2020
2487 Clear 1 1029 31 10000 8 300 11:18 16.02.2020
2488 Clear 1 1029 29 10000 9 300 10:56 16.02.2020
2489 Clear 2 1028 29 10000 9 300 10:38 16.02.2020
2490 Clear 3 1028 29 10000 9 300 10:20 16.02.2020
2491 Clear 3 1028 27 10000 9 310 09:57 16.02.2020
2492 Clear 3 1027 29 10000 7 300 09:37 16.02.2020
2493 Clear 3 1027 29 10000 7 300 09:19 16.02.2020
2494 Clear 4 1027 32 10000 3 360 08:46 16.02.2020
2495 Clear 3 1027 37 10000 3 350 08:22 16.02.2020
2496 Clear 3 1027 37 10000 3 350 08:22 16.02.2020
2497 Clear 4 1027 32 10000 3 360 07:56 16.02.2020
2498 Clear 4 1027 34 10000 4 350 07:34 16.02.2020
2499 Clear 4 1028 29 10000 4 330 06:36 16.02.2020
2500 Clear 2 1029 37 10000 6 350 04:57 16.02.2020
2501 Clear 2 1030 34 10000 7 330 03:58 16.02.2020
2502 Clear 1 1029 39 10000 1 0 02:35 16.02.2020
2503 Clouds -2 1029 45 10000 2 40 01:57 16.02.2020
2504 Clouds -2 1029 45 10000 4 360 01:37 16.02.2020
2505 Clouds -2 1029 45 10000 4 360 01:18 16.02.2020
2506 Clouds -2 1029 45 10000 6 320 00:40 16.02.2020
2507 Clouds -3 1029 45 10000 6 320 00:19 16.02.2020
2508 Clouds -3 1028 42 10000 5 330 23:42 15.02.2020
2509 Clouds -3 1028 42 10000 5 330 23:23 15.02.2020
2510 Clouds -3 1028 41 10000 4 320 22:56 15.02.2020
2511 Clouds -3 1029 41 10000 5 310 22:38 15.02.2020
2512 Clouds -3 1029 41 10000 5 310 22:18 15.02.2020
2513 Clouds -3 1029 38 10000 5 310 21:43 15.02.2020
2514 Clouds -3 1029 38 10000 4 310 21:23 15.02.2020
2515 Clouds -3 1029 38 10000 6 300 20:55 15.02.2020
2516 Clouds -3 1029 38 10000 7 310 20:36 15.02.2020
2517 Clouds -3 1029 38 10000 7 310 20:18 15.02.2020
2518 Clouds -3 1030 35 10000 7 330 19:40 15.02.2020
2519 Clouds -3 1030 35 10000 7 330 19:21 15.02.2020
2520 Clouds -3 1031 38 10000 9 330 18:40 15.02.2020
2521 Clouds -3 1031 38 10000 9 330 18:20 15.02.2020
2522 Clouds -3 1031 38 10000 8 320 17:55 15.02.2020
2523 Clouds -3 1031 38 10000 9 320 17:37 15.02.2020
2524 Clouds -3 1031 38 10000 9 320 17:18 15.02.2020
2525 Clouds -3 1031 41 10000 7 330 16:40 15.02.2020
2526 Clouds -4 1031 41 10000 7 330 16:20 15.02.2020
2527 Clouds -4 1031 38 10000 8 320 15:49 15.02.2020
2528 Clouds -4 1031 41 10000 7 310 15:31 15.02.2020
2529 Clouds -4 1031 41 10000 6 320 14:57 15.02.2020
2530 Clouds -3 1031 41 10000 6 320 14:39 15.02.2020
2531 Clouds -3 1031 41 10000 6 320 14:18 15.02.2020
2532 Clouds -3 1031 41 10000 8 320 13:42 15.02.2020
2533 Clouds -3 1031 41 10000 8 320 13:22 15.02.2020
2534 Clouds -3 1031 41 10000 9 320 12:57 15.02.2020
2535 Clouds -3 1031 38 10000 9 310 12:38 15.02.2020
2536 Clouds -3 1031 38 10000 9 310 12:19 15.02.2020
2537 Clouds -3 1031 38 10000 10 310 11:45 15.02.2020
2538 Clear -3 1030 38 10000 9 310 11:26 15.02.2020
2539 Clear -2 1030 36 10000 10 310 10:49 15.02.2020
2540 Clear -2 1030 36 10000 11 310 10:29 15.02.2020
2541 Clear 0 1030 33 10000 12 320 09:56 15.02.2020
2542 Clear 0 1030 39 10000 12 330 09:37 15.02.2020
2543 Clear 0 1030 21 10000 13 330 09:19 15.02.2020
2544 Clear 0 1030 21 10000 11 330 08:41 15.02.2020
2545 Clear 0 1030 32 10000 11 330 08:23 15.02.2020
2546 Clear 1 1030 32 10000 11 320 07:45 15.02.2020
2547 Clear 0 1030 32 10000 12 320 07:27 15.02.2020
2548 Clear 0 1030 32 10000 10 320 06:47 15.02.2020
2549 Clear 0 1031 36 10000 12 320 06:28 15.02.2020
2550 Clear 0 1033 39 10000 9 330 05:31 15.02.2020
2551 Clear -1 1033 36 10000 10 320 04:45 15.02.2020
2552 Clear -1 1034 38 10000 10 320 03:24 15.02.2020
2553 Snow -3 1034 41 10000 9 310 02:42 15.02.2020
2554 Snow -3 1034 41 10000 9 310 02:21 15.02.2020
2555 Clear -4 1033 45 10000 8 310 01:39 15.02.2020
2556 Clear -5 1033 45 10000 11 290 00:41 15.02.2020
2557 Clear -5 1033 45 10000 11 290 00:19 15.02.2020
2558 Clear -5 1033 45 10000 9 310 23:39 14.02.2020
2559 Clear -5 1033 45 10000 9 310 23:19 14.02.2020
2560 Clear -4 1033 45 10000 8 310 22:44 14.02.2020
2561 Clear -4 1033 45 10000 8 310 22:23 14.02.2020
2562 Clear -3 1033 41 10000 10 320 21:52 14.02.2020
2563 Clear -3 1033 45 10000 8 320 21:34 14.02.2020
2564 Clear -4 1033 45 10000 9 320 20:59 14.02.2020
2565 Clear -4 1034 45 10000 9 330 20:41 14.02.2020
2566 Clouds -3 1034 45 10000 9 330 20:19 14.02.2020
2567 Clouds -3 1034 45 10000 10 320 19:54 14.02.2020
2568 Clouds -3 1034 45 10000 11 310 19:36 14.02.2020
2569 Clouds -3 1034 45 10000 10 320 19:18 14.02.2020
2570 Clouds -3 1034 45 10000 10 320 18:54 14.02.2020
2571 Clouds -2 1034 46 10000 10 310 18:36 14.02.2020
2572 Clouds -2 1034 46 10000 10 310 18:18 14.02.2020
2573 Clouds -2 1033 50 10000 9 320 17:40 14.02.2020
2574 Clouds -1 1033 50 10000 9 320 17:19 14.02.2020
2575 Clouds -1 1033 50 10000 9 320 17:19 14.02.2020
2576 Clouds -1 1034 74 10000 4 350 16:43 14.02.2020
2577 Clouds -1 1033 68 10000 4 360 16:24 14.02.2020
2578 Clouds -1 1033 68 10000 4 350 15:58 14.02.2020
2579 Clouds -1 1033 63 10000 5 360 15:40 14.02.2020
2580 Clouds -1 1033 63 10000 5 360 15:21 14.02.2020
2581 Clouds -1 1032 63 10000 5 20 14:59 14.02.2020
2582 Clouds -1 1032 68 10000 3 30 14:41 14.02.2020
2583 Clouds -1 1032 68 10000 3 30 14:22 14.02.2020
2584 Clouds 0 1032 68 10000 3 30 13:57 14.02.2020
2585 Clouds -1 1031 68 10000 3 20 13:39 14.02.2020
2586 Clouds -1 1031 68 10000 3 20 13:20 14.02.2020
2587 Clouds 0 1031 69 10000 4 20 12:57 14.02.2020
2588 Clouds 0 1030 69 10000 4 20 12:38 14.02.2020
2589 Clouds 0 1030 69 10000 4 20 12:20 14.02.2020
2590 Clouds -1 1029 69 10000 5 20 11:56 14.02.2020
2591 Clouds 0 1029 69 10000 5 30 11:37 14.02.2020
2592 Clouds 0 1029 80 10000 5 30 11:19 14.02.2020
2593 Clouds 0 1028 80 10000 4 20 10:41 14.02.2020
2594 Clouds 0 1028 80 10000 4 20 10:22 14.02.2020
2595 Clouds 0 1027 80 10000 5 20 09:55 14.02.2020
2596 Snow -1 1027 86 10000 6 20 09:36 14.02.2020
2597 Snow -1 1027 86 10000 6 20 09:18 14.02.2020
2598 Snow 0 1026 80 10000 6 20 08:40 14.02.2020
2599 Rain 1 1026 86 10000 6 20 08:21 14.02.2020
2600 Rain 1 1026 86 10000 6 20 08:21 14.02.2020
2601 Rain 1 1026 96 10000 6 20 08:21 14.02.2020
2602 Rain 1 1026 86 10000 6 20 08:21 14.02.2020
2603 Snow 0 1026 100 8000 6 20 07:50 14.02.2020
2604 Rain 1 1025 96 4500 6 10 07:30 14.02.2020
2605 Snow 0 1025 96 3500 5 20 06:41 14.02.2020
2606 Snow 0 1025 96 3500 5 20 06:41 14.02.2020
2607 Snow 0 1025 96 3500 5 20 06:21 14.02.2020
2608 Snow 0 1025 96 3500 5 20 06:21 14.02.2020
2609 Snow 0 1025 96 2000 5 30 05:41 14.02.2020
2610 Snow 0 1024 99 1300 8 20 03:50 14.02.2020
2611 Snow 1 1023 99 1300 6 20 02:58 14.02.2020
2612 Snow 1 1023 100 1300 3 10 02:18 14.02.2020
2613 Rain 1 1022 99 2000 1 360 00:59 14.02.2020
2614 Rain 1 1021 99 4000 1 0 00:32 14.02.2020
2615 Rain 2 1020 93 5000 3 100 23:59 13.02.2020
2616 Rain 2 1020 93 5000 3 150 23:41 13.02.2020
2617 Rain 3 1020 93 5000 3 150 23:19 13.02.2020
2618 Rain 4 1018 70 6000 2 210 22:41 13.02.2020
2619 Rain 5 1018 70 6000 2 210 22:20 13.02.2020
2620 Rain 5 1016 70 5000 3 90 21:59 13.02.2020
2621 Rain 5 1016 75 4000 4 80 21:40 13.02.2020
2622 Rain 5 1016 75 4000 4 80 21:20 13.02.2020
2623 Rain 6 1016 81 2800 4 120 20:43 13.02.2020
2624 Rain 7 1016 81 2800 4 120 20:23 13.02.2020
2625 Rain 6 1016 87 2800 5 110 19:58 13.02.2020
2626 Rain 7 1015 81 2500 7 120 19:40 13.02.2020
2627 Rain 8 1015 81 2500 7 120 19:21 13.02.2020
2628 Mist 7 1015 93 2000 2 140 18:59 13.02.2020
2629 Mist 7 1015 93 2000 1 0 18:41 13.02.2020
2630 Mist 8 1015 93 2000 1 0 18:22 13.02.2020
2631 Rain 7 1015 93 1700 1 0 17:57 13.02.2020
2632 Mist 7 1016 87 1600 1 0 17:37 13.02.2020
2633 Mist 7 1016 87 1600 1 0 17:19 13.02.2020
2634 -273 0 0 0 0 0 16:55 13.02.2020
2635 Mist 7 1015 93 1600 1 340 16:55 13.02.2020
2636 Mist 7 1016 93 1600 2 340 16:36 13.02.2020
2637 Mist 7 1016 93 1600 2 340 16:36 13.02.2020
2638 Mist 7 1016 93 1600 2 340 16:18 13.02.2020
2639 Mist 7 1015 93 1600 2 10 15:54 13.02.2020
2640 Mist 7 1015 93 1500 2 360 15:36 13.02.2020
2641 Mist 7 1015 93 1500 2 360 15:18 13.02.2020
2642 Mist 7 1016 93 1500 1 320 14:54 13.02.2020
2643 Mist 7 1015 87 1400 2 300 14:36 13.02.2020
2644 Mist 7 1015 87 1400 2 300 14:18 13.02.2020
2645 Mist 7 1014 93 1300 2 320 13:41 13.02.2020
2646 Mist 7 1014 93 1300 2 320 13:18 13.02.2020
2647 Mist 7 1014 93 1300 2 340 12:48 13.02.2020
2648 Mist 7 1014 93 1200 2 360 12:30 13.02.2020
2649 Mist 8 1013 93 1200 1 340 11:58 13.02.2020
2650 Mist 8 1013 93 1200 1 0 11:40 13.02.2020
2651 Mist 8 1013 93 1200 1 0 11:19 13.02.2020
2652 Mist 8 1013 93 1200 1 0 10:43 13.02.2020
2653 Mist 8 1012 93 1300 1 0 10:25 13.02.2020
2654 Mist 9 1012 87 1300 1 0 09:50 13.02.2020
2655 Mist 9 1012 87 1500 1 0 09:26 13.02.2020
2656 Mist 9 1012 87 1500 2 120 08:48 13.02.2020
2657 Mist 9 1011 87 1500 3 110 08:20 13.02.2020
2658 Mist 10 1011 81 1700 2 110 07:57 13.02.2020
2659 Mist 10 1011 87 2000 3 110 07:38 13.02.2020
2660 Mist 10 1011 87 2000 3 110 07:19 13.02.2020
2661 Mist 11 1012 87 2000 3 100 06:44 13.02.2020
2662 Mist 11 1012 75 1700 1 0 05:59 13.02.2020
2663 Mist 8 1013 75 1700 1 0 05:20 13.02.2020
2664 Mist 7 1013 70 2000 1 0 04:25 13.02.2020
2665 Mist 8 1013 75 2000 2 120 03:45 13.02.2020
2666 Mist 7 1013 80 2000 2 350 03:18 13.02.2020
2667 Mist 5 1013 86 1700 2 340 02:45 13.02.2020
2668 Mist 3 1013 93 1600 2 340 02:19 13.02.2020
2669 Mist 2 1013 100 1600 1 320 01:27 13.02.2020
2670 Mist 1 1012 100 1600 1.33 18 00:32 13.02.2020
2671 Mist 1 1012 100 2000 1 340 23:58 12.02.2020
2672 Mist 1 1012 100 2000 1 0 23:37 12.02.2020
2673 Mist 1 1012 100 2000 1 0 23:18 12.02.2020
2674 Mist 1 1012 100 2000 1 350 22:44 12.02.2020
2675 Mist 1 1012 100 2000 1 360 22:24 12.02.2020
2676 Mist 2 1012 92 2000 2 350 21:58 12.02.2020
2677 Mist 2 1012 100 2000 2 350 21:39 12.02.2020
2678 Mist 2 1012 100 2000 2 350 21:19 12.02.2020
2679 Mist 1 1012 100 2000 1 350 20:56 12.02.2020
2680 Mist 2 1012 92 2000 3 330 20:37 12.02.2020
2681 Mist 2 1012 92 2000 3 330 20:18 12.02.2020
2682 Mist 2 1012 92 2000 3 330 20:18 12.02.2020
2683 Mist 2 1012 92 2000 1.21 2 19:44 12.02.2020
2684 Mist 2 1012 100 2000 1.29 4 19:23 12.02.2020
2685 Mist 2 1012 92 2000 2 350 18:55 12.02.2020
2686 Mist 2 1012 92 2000 1 0 18:37 12.02.2020
2687 Mist 2 1012 92 2000 1 0 18:18 12.02.2020
2688 Mist 3 1013 100 2300 1 30 17:42 12.02.2020
2689 Mist 3 1013 100 2300 1 30 17:20 12.02.2020
2690 Mist 3 1013 92 2300 1 360 16:58 12.02.2020
2691 Mist 3 1013 86 2500 1 30 16:38 12.02.2020
2692 Mist 3 1013 86 2500 1 30 16:19 12.02.2020
2693 Mist 3 1013 86 2500 1 30 16:19 12.02.2020
2694 Mist 4 1013 55 2600 0.78 359 15:41 12.02.2020
2695 Mist 4 1013 54 2600 0.81 4 15:23 12.02.2020
2696 Mist 4 1013 92 2600 1 40 14:57 12.02.2020
2697 Mist 4 1013 86 3000 0.81 4 14:39 12.02.2020
2698 Mist 4 1013 86 3000 0.81 4 14:39 12.02.2020
2699 Mist 4 1013 86 3000 1.01 15 14:19 12.02.2020
2700 Mist 5 1013 86 3100 0.96 6 13:56 12.02.2020
2701 Mist 5 1013 86 3100 0.96 6 13:56 12.02.2020
2702 Mist 5 1013 46 3300 1 0 13:37 12.02.2020
2703 Mist 5 1013 47 3300 1 0 13:19 12.02.2020
2704 Mist 6 1013 47 3500 0.96 6 12:56 12.02.2020
2705 Mist 6 1013 47 3500 0.96 6 12:37 12.02.2020
2706 Mist 6 1013 47 3500 0.96 6 12:18 12.02.2020
2707 Haze 6 1012 47 3500 1 120 11:55 12.02.2020
2708 Haze 7 1012 47 3500 1 0 11:37 12.02.2020
2709 Haze 9 1012 39 3500 1 0 11:19 12.02.2020
2710 Haze 9 1012 39 3500 2 150 10:54 12.02.2020
2711 Haze 10 1012 39 3500 2 150 10:36 12.02.2020
2712 Haze 10 1012 39 3500 2 150 10:18 12.02.2020
2713 Haze 10 1012 39 3500 2 150 10:18 12.02.2020
2714 Haze 11 1012 50 3500 2 190 09:40 12.02.2020
2715 Haze 12 1012 50 3500 2 190 09:21 12.02.2020
2716 Haze 12 1012 39 3500 2 170 08:57 12.02.2020
2717 Haze 12 1012 46 3500 2 170 08:37 12.02.2020
2718 Haze 12 1012 46 3500 2 170 08:19 12.02.2020
2719 Haze 12 1012 37 3500 2 240 07:44 12.02.2020
2720 Haze 12 1013 50 3500 1 0 07:23 12.02.2020
2721 Haze 13 1013 37 3500 2 250 06:53 12.02.2020
2722 Haze 12 1014 46 3500 2 270 06:21 12.02.2020
2723 Haze 11 1015 49 3500 2 300 05:37 12.02.2020
2724 Haze 8 1016 52 3500 2 320 04:57 12.02.2020
2725 Haze 8 1016 48 3000 2 310 04:39 12.02.2020
2726 Mist 8 1016 48 2500 1 340 03:33 12.02.2020
2727 Mist 5 1016 48 2100 1 0 02:58 12.02.2020
2728 Mist 4 1016 48 2100 2 340 02:29 12.02.2020
2729 Mist 2 1016 100 2100 2 350 01:50 12.02.2020
2730 Mist 0 1016 92 1800 1 360 00:45 12.02.2020
2731 Mist 0 1016 92 2100 1 340 00:26 12.02.2020
2732 Mist 1 1016 92 2100 1 340 23:56 11.02.2020
2733 Mist 1 1016 92 2100 2 360 23:38 11.02.2020
2734 Mist 1 1016 92 2100 2 360 23:20 11.02.2020
2735 Mist 1 1016 92 2500 1 350 22:55 11.02.2020
2736 Mist 1 1016 92 2500 2 340 22:37 11.02.2020
2737 Mist 1 1016 92 2500 2 340 22:18 11.02.2020
2738 Mist 1 1016 92 2500 1 330 21:55 11.02.2020
2739 Mist 1 1016 92 2500 1 0 21:37 11.02.2020
2740 Mist 1 1016 92 2500 1 0 21:18 11.02.2020
2741 Mist 1 1016 92 2500 2 340 20:54 11.02.2020
2742 Mist 1 1017 92 2500 2 360 20:36 11.02.2020
2743 Mist 1 1017 92 2500 2 360 20:18 11.02.2020
2744 Mist 1 1017 92 2500 2 320 19:42 11.02.2020
2745 Mist 1 1017 92 2500 2 320 19:23 11.02.2020
2746 Mist 2 1017 92 2500 1 330 18:56 11.02.2020
2747 Mist 2 1017 92 2500 1 350 18:37 11.02.2020
2748 Mist 2 1017 92 2500 1 350 18:19 11.02.2020
2749 Mist 2 1017 92 2500 2 340 17:55 11.02.2020
2750 Mist 2 1018 92 2500 1 0 17:36 11.02.2020
2751 Mist 2 1018 92 2500 1 0 17:18 11.02.2020
2752 Mist 2 1018 92 2800 1 0 16:55 11.02.2020
2753 Mist 2 1018 92 2800 2 360 16:37 11.02.2020
2754 Mist 2 1018 92 2800 2 360 16:19 11.02.2020
2755 Mist 2 1018 92 2800 1 340 15:43 11.02.2020
2756 Mist 3 1018 92 3000 1 340 15:24 11.02.2020
2757 Mist 2 1018 92 3000 1 0 14:55 11.02.2020
2758 Mist 3 1018 51 3000 1 30 14:36 11.02.2020
2759 Mist 3 1018 44 3000 1 30 14:18 11.02.2020
2760 Mist 4 1017 86 3200 1.51 344 13:41 11.02.2020
2761 Mist 4 1017 86 3200 1.56 342 13:21 11.02.2020
2762 Mist 4 1017 46 3200 1 130 12:58 11.02.2020
2763 Mist 5 1017 46 3200 1.56 342 12:40 11.02.2020
2764 Mist 5 1017 46 3200 1.56 342 12:20 11.02.2020
2765 Haze 7 1017 46 3500 1 150 11:42 11.02.2020
2766 Haze 7 1017 38 3500 1 150 11:21 11.02.2020
2767 Haze 8 1017 38 3200 1 150 10:58 11.02.2020
2768 Haze 10 1017 38 2800 2 150 10:39 11.02.2020
2769 Haze 9 1017 38 2800 2 150 10:20 11.02.2020
2770 Haze 10 1017 38 2500 3 160 09:56 11.02.2020
2771 Haze 10 1017 38 2500 3 150 09:38 11.02.2020
2772 Haze 10 1017 38 2500 3 150 09:20 11.02.2020
2773 Haze 11 1017 38 3000 3 140 08:46 11.02.2020
2774 Haze 11 1017 38 3000 2 120 08:24 11.02.2020
2775 Haze 11 1017 33 3500 2 140 07:48 11.02.2020
2776 Haze 11 1017 46 3500 2 130 07:26 11.02.2020
2777 Haze 12 1018 49 3500 2 0 06:44 11.02.2020
2778 Haze 12 1018 49 3500 2 0 06:23 11.02.2020
2779 Haze 11 1019 49 3500 1 0 05:58 11.02.2020
2780 Haze 10 1019 52 3500 1 0 05:26 11.02.2020
2781 Haze 7 1020 52 3500 1 0 04:52 11.02.2020
2782 Haze 6 1020 69 4000 1 0 03:26 11.02.2020
2783 Mist 5 1020 43 4000 1 20 02:33 11.02.2020
2784 Mist 0 1020 92 4000 1 340 01:38 11.02.2020
2785 Mist -1 1019 92 4000 1 40 00:42 11.02.2020
2786 Mist -1 1019 92 4000 1 40 00:20 11.02.2020
2787 Mist -1 1019 85 5000 1 30 23:39 10.02.2020
2788 Mist -1 1019 85 5000 1 30 23:20 10.02.2020
2789 Mist 0 1019 92 5000 1.08 6 22:42 10.02.2020
2790 Mist 0 1019 92 5000 1.08 6 22:21 10.02.2020
2791 Mist 0 1019 92 5000 1 0 21:57 10.02.2020
2792 Mist 0 1019 92 5000 1 0 21:57 10.02.2020
2793 Mist 0 1019 92 5000 1 360 21:39 10.02.2020
2794 Mist 0 1019 92 5000 1 360 21:39 10.02.2020
2795 Mist 0 1019 92 5000 1 360 21:20 10.02.2020
2796 Mist 0 1019 92 5000 2 360 20:54 10.02.2020
2797 Mist 0 1019 92 5000 1 0 20:36 10.02.2020
2798 Mist 0 1019 92 5000 1 0 20:18 10.02.2020
2799 Mist 1 1020 92 5000 1 350 19:54 10.02.2020
2800 Mist 1 1020 92 5000 1 350 19:36 10.02.2020
2801 Mist 1 1020 92 5000 1 350 19:36 10.02.2020
2802 Mist 1 1020 92 5000 1 350 19:18 10.02.2020
2803 Mist 1 1019 86 5000 2 330 18:41 10.02.2020
2804 Mist 1 1019 86 5000 2 330 18:22 10.02.2020
2805 Mist 1 1020 92 5000 2 330 17:59 10.02.2020
2806 Mist 1 1019 92 5000 1 340 17:39 10.02.2020
2807 Mist 2 1019 92 5000 1 340 17:21 10.02.2020
2808 Mist 2 1019 86 5000 2 350 16:59 10.02.2020
2809 Mist 2 1019 86 5000 1 350 16:40 10.02.2020
2810 Mist 2 1019 86 5000 1 350 16:20 10.02.2020
2811 Mist 2 1019 86 5000 1 360 15:58 10.02.2020
2812 Mist 3 1019 86 5000 1 0 15:39 10.02.2020
2813 Mist 3 1019 86 5000 1 0 15:20 10.02.2020
2814 Mist 3 1019 80 5000 1 40 14:57 10.02.2020
2815 Mist 3 1019 48 5000 1 50 14:39 10.02.2020
2816 Mist 3 1019 41 5000 1 50 14:19 10.02.2020
2817 Haze 4 1019 41 5000 1.33 12 13:43 10.02.2020
2818 Haze 4 1018 41 5000 1 0 13:24 10.02.2020
2819 Haze 4 1018 69 5000 1 80 12:56 10.02.2020
2820 Haze 5 1018 59 5000 1 40 12:38 10.02.2020
2821 Haze 6 1018 59 5000 1 40 12:19 10.02.2020
2822 Haze 7 1018 55 5000 1 130 11:45 10.02.2020
2823 Haze 7 1017 52 5000 1 0 11:21 10.02.2020
2824 Haze 9 1017 42 5000 1 70 10:48 10.02.2020
2825 Haze 9 1017 42 5000 1 70 10:48 10.02.2020
2826 Clear 10 1017 37 6000 1 0 10:30 10.02.2020
2827 Clear 12 1017 34 7000 3 170 09:55 10.02.2020
2828 Clear 12 1017 30 7000 2 140 09:36 10.02.2020
2829 Clear 12 1017 30 7000 2 140 09:18 10.02.2020
2830 Clear 11 1017 30 7000 2 170 08:38 10.02.2020
2831 Clear 12 1017 30 7000 2 170 08:20 10.02.2020
2832 Clear 12 1017 32 7000 2 0 07:52 10.02.2020
2833 Clear 11 1017 32 7000 2 170 07:32 10.02.2020
2834 Clear 13 1018 34 7000 2 0 06:44 10.02.2020
2835 Clear 7 1020 45 6000 1 0 04:51 10.02.2020
2836 Clear 8 1020 51 6000 1 0 03:54 10.02.2020
2837 Clear 3 1020 59 6000 2 330 02:58 10.02.2020
2838 Clear 4 1020 59 7000 2 340 02:40 10.02.2020
2839 Clouds -1 1020 79 6000 2 340 01:21 10.02.2020
2840 Mist -2 1019 85 5000 3 340 00:37 10.02.2020
2841 Mist -2 1019 85 5000 3 340 00:19 10.02.2020
2842 Mist -1 1019 85 5000 2 350 23:41 09.02.2020
2843 Mist -3 1019 85 5000 2 350 23:23 09.02.2020
2844 Mist -3 1019 92 5000 2 350 22:44 09.02.2020
2845 Mist -2 1019 92 5000 1 280 22:22 09.02.2020
2846 Mist -2 1019 92 5000 1 0 21:55 09.02.2020
2847 Mist -2 1019 92 5000 1 0 21:36 09.02.2020
2848 Mist -2 1019 92 5000 1 0 21:36 09.02.2020
2849 Mist -2 1019 92 5000 1 0 21:18 09.02.2020
2850 Mist -2 1020 92 5000 2 340 20:44 09.02.2020
2851 Mist -2 1020 92 5000 2 350 20:21 09.02.2020
2852 Mist -2 1020 92 5000 2 360 19:54 09.02.2020
2853 Mist -1 1020 92 5000 2 350 19:36 09.02.2020
2854 Mist -1 1020 92 5000 2 350 19:18 09.02.2020
2855 Mist -1 1021 92 5000 1 0 18:41 09.02.2020
2856 Mist -1 1021 92 5000 1 0 18:23 09.02.2020
2857 Clouds 0 1021 92 6000 1 0 17:44 09.02.2020
2858 Clouds 0 1021 92 6000 1 0 17:23 09.02.2020
2859 Clear 0 1021 92 6000 1 70 16:59 09.02.2020
2860 Clear 0 1021 92 6000 1 0 16:40 09.02.2020
2861 Clear 0 1021 92 6000 1 0 16:21 09.02.2020
2862 Clear 0 1021 92 6000 1.31 10 15:57 09.02.2020
2863 Clear 1 1021 86 6000 1 0 15:39 09.02.2020
2864 Clear 1 1021 86 6000 1 0 15:20 09.02.2020
2865 Clear 0 1021 86 6000 1 150 14:55 09.02.2020
2866 Clear 1 1021 86 6000 1.31 10 14:36 09.02.2020
2867 Clear 1 1021 86 6000 0.98 5 14:18 09.02.2020
2868 Clear 1 1021 86 6000 1 50 13:41 09.02.2020
2869 Clear 1 1021 86 6000 1 50 13:21 09.02.2020
2870 Clear 2 1021 80 6000 1 30 12:54 09.02.2020
2871 Clear 2 1021 69 6000 1.43 0 12:36 09.02.2020
2872 Clear 3 1021 69 6000 1.43 0 12:18 09.02.2020
2873 Haze 4 1021 59 5000 2 170 11:39 09.02.2020
2874 Haze 6 1021 59 5000 2 170 11:19 09.02.2020
2875 Haze 7 1020 48 5000 1 0 10:43 09.02.2020
2876 Haze 7 1020 48 5000 1 0 10:23 09.02.2020
2877 Clear 9 1020 42 6000 1 0 09:58 09.02.2020
2878 Clear 8 1021 39 6000 1 0 09:39 09.02.2020
2879 Clear 8 1021 39 6000 1 0 09:20 09.02.2020
2880 Clear 9 1021 42 6000 2 200 08:41 09.02.2020
2881 Clear 8 1021 42 6000 2 200 08:23 09.02.2020
2882 Clear 8 1021 42 6000 3 200 07:52 09.02.2020
2883 Clear 8 1021 45 6000 2 190 07:30 09.02.2020
2884 Clear 7 1023 48 7000 2 0 06:38 09.02.2020
2885 Clear 7 1023 48 7000 2 0 05:55 09.02.2020
2886 Clear 6 1024 48 7000 1 0 05:33 09.02.2020
2887 Clear 3 1025 51 7000 1 0 04:49 09.02.2020
2888 Clear 2 1026 68 6000 1 0 02:58 09.02.2020
2889 Mist 1 1026 79 4000 1 0 02:38 09.02.2020
2890 Mist -3 1025 85 4500 1 0 01:40 09.02.2020
2891 Mist -3 1025 85 4500 1 0 01:19 09.02.2020
2892 Mist -5 1026 92 5000 1.22 1 00:31 09.02.2020
2893 Mist -5 1026 85 5000 1 40 23:50 08.02.2020
2894 Clouds -5 1026 85 6000 1 10 23:25 08.02.2020
2895 Clouds -5 1027 92 6000 1 0 22:59 08.02.2020
2896 Clouds -4 1027 85 6000 1 30 22:40 08.02.2020
2897 Clouds -4 1027 85 6000 1 30 22:20 08.02.2020
2898 Clouds -4 1027 92 7000 1 80 21:47 08.02.2020
2899 Clouds -4 1027 85 8000 1 0 21:29 08.02.2020
2900 Clouds -4 1028 85 8000 1 0 20:59 08.02.2020
2901 Clouds -3 1028 79 8000 1 0 20:40 08.02.2020
2902 Clouds -3 1028 79 8000 1 0 20:40 08.02.2020
2903 Clear -3 1028 79 8000 1 0 20:20 08.02.2020
2904 Clear -3 1028 79 8000 1 0 20:20 08.02.2020
2905 Clear -3 1028 79 8000 1 0 19:59 08.02.2020
2906 Clear -2 1029 73 8000 1 110 19:39 08.02.2020
2907 Clear -2 1029 73 8000 1 110 19:20 08.02.2020
2908 Clear -2 1029 73 8000 1 0 18:57 08.02.2020
2909 Clear -2 1029 68 8000 1 0 18:39 08.02.2020
2910 Clear -2 1029 68 8000 1 0 18:19 08.02.2020
2911 Clear -2 1030 79 10000 2 80 17:42 08.02.2020
2912 Clear -2 1030 79 10000 2 80 17:20 08.02.2020
2913 Clear -1 1030 85 10000 0.61 55 16:42 08.02.2020
2914 Clear -1 1030 85 10000 0.61 55 16:23 08.02.2020
2915 Clear -2 1030 79 10000 1 0 15:59 08.02.2020
2916 Clear -1 1031 79 10000 0.61 55 15:40 08.02.2020
2917 Clear -1 1031 79 10000 0.61 55 15:18 08.02.2020
2918 Clear 0 1031 79 10000 1 0 14:46 08.02.2020
2919 Clear -1 1031 79 10000 1 0 14:24 08.02.2020
2920 Clouds 0 1031 79 10000 1 0 13:59 08.02.2020
2921 Clouds 0 1031 68 10000 1 140 13:41 08.02.2020
2922 Clouds -1 1031 68 10000 1 140 13:23 08.02.2020
2923 Clouds 1 1031 53 10000 2 150 12:49 08.02.2020
2924 Clouds 2 1030 55 10000 2 160 12:24 08.02.2020
2925 Clouds 2 1031 51 10000 2 170 11:59 08.02.2020
2926 Clouds 3 1030 47 10000 3 180 11:40 08.02.2020
2927 Clouds 4 1030 47 10000 3 180 11:20 08.02.2020
2928 Clouds 5 1030 35 10000 3 190 10:42 08.02.2020
2929 Clouds 5 1030 35 10000 3 190 10:42 08.02.2020
2930 Clouds 6 1030 35 10000 3 190 10:23 08.02.2020
2931 Clouds 6 1030 35 10000 4 200 09:53 08.02.2020
2932 Clouds 7 1030 26 10000 2 180 09:29 08.02.2020
2933 Clouds 7 1030 24 10000 2 190 08:57 08.02.2020
2934 Clouds 7 1030 22 10000 2 200 08:38 08.02.2020
2935 Clear 7 1030 22 10000 2 200 08:20 08.02.2020
2936 Clear 8 1030 22 10000 1 0 07:50 08.02.2020
2937 Clear 8 1031 24 10000 2 80 07:30 08.02.2020
2938 Clear 8 1032 22 10000 1 0 06:33 08.02.2020
2939 Clear 8 1032 26 10000 2 30 05:49 08.02.2020
2940 Clear 9 1033 27 10000 2 60 05:30 08.02.2020
2941 Clear 5 1033 30 10000 2 30 04:50 08.02.2020
2942 Clear 7 1033 37 10000 2 40 03:53 08.02.2020
2943 Clear 3 1033 47 10000 2 40 02:57 08.02.2020
2944 Clear 0 1033 63 10000 3 360 02:20 08.02.2020
2945 Clear -4 1032 79 10000 2 340 01:26 08.02.2020
2946 Clear -5 1032 85 10000 2 10 00:45 08.02.2020
2947 Clear -5 1032 85 10000 2 10 00:22 08.02.2020
2948 Clear -5 1032 78 10000 2 350 23:56 07.02.2020
2949 Clear -4 1032 85 8000 1 0 23:37 07.02.2020
2950 Clear -4 1032 85 8000 1 0 23:19 07.02.2020
2951 Clear -5 1031 85 8000 4 340 22:41 07.02.2020
2952 Clear -5 1031 85 8000 4 340 22:41 07.02.2020
2953 Clear -5 1031 85 8000 4 340 22:19 07.02.2020
2954 Clear -6 1032 79 8000 3 320 21:44 07.02.2020
2955 Clear -5 1031 85 8000 2 330 21:23 07.02.2020
2956 Clear -5 1032 85 8000 2 340 20:59 07.02.2020
2957 Clear -5 1032 92 7000 2 350 20:38 07.02.2020
2958 Clear -5 1032 92 7000 2 350 20:18 07.02.2020
2959 Clear -6 1032 85 7000 2 340 19:43 07.02.2020
2960 Clear -6 1032 85 7000 2 330 19:22 07.02.2020
2961 Clear -5 1032 85 7000 1 300 18:59 07.02.2020
2962 Clear -5 1031 92 7000 1 0 18:41 07.02.2020
2963 Clear -5 1031 92 7000 1 0 18:22 07.02.2020
2964 Clear -4 1031 85 7000 1 0 17:43 07.02.2020
2965 Clear -5 1031 85 7000 2 340 17:22 07.02.2020
2966 Clear -4 1031 85 7000 2 10 16:57 07.02.2020
2967 Clear -3 1031 79 7000 1 0 16:39 07.02.2020
2968 Clear -3 1031 79 7000 1 0 16:20 07.02.2020
2969 Clear -4 1031 67 7000 2 280 15:49 07.02.2020
2970 Clear -4 1031 85 7000 1 0 15:27 07.02.2020
2971 Clear -3 1031 85 7000 1 0 14:54 07.02.2020
2972 Clear -3 1031 85 7000 1 0 14:36 07.02.2020
2973 Clear -3 1031 85 7000 1 0 14:18 07.02.2020
2974 Clear -3 1030 85 7000 1 60 13:40 07.02.2020
2975 Clear -3 1030 85 7000 1 60 13:22 07.02.2020
2976 Clear -2 1030 79 8000 1 0 12:57 07.02.2020
2977 Clear -2 1030 73 8000 1 0 12:39 07.02.2020
2978 Clear -2 1030 73 8000 1 0 12:21 07.02.2020
2979 Clear -1 1029 68 8000 1 0 11:42 07.02.2020
2980 Clear 0 1029 68 8000 1 0 11:22 07.02.2020
2981 Clear 0 1029 63 8000 1 0 10:43 07.02.2020
2982 Clear 1 1028 50 8000 1 210 10:24 07.02.2020
2983 Clear 1 1028 50 8000 1 210 10:24 07.02.2020
2984 Clear 2 1028 50 8000 2 190 09:58 07.02.2020
2985 Clear 2 1028 55 8000 2 190 09:39 07.02.2020
2986 Clear 2 1028 55 8000 2 190 09:39 07.02.2020
2987 Clear 2 1028 55 8000 2 190 09:21 07.02.2020
2988 Clear 3 1028 55 8000 1 0 08:43 07.02.2020
2989 Clear 2 1028 55 8000 1 0 08:21 07.02.2020
2990 Rain 2 1029 51 8000 1 0 07:52 07.02.2020
2991 Rain 2 1029 44 8000 1 0 07:30 07.02.2020
2992 Rain 4 1029 44 8000 1 0 06:47 07.02.2020
2993 Rain 4 1030 44 8000 2 320 06:27 07.02.2020
2994 Rain 3 1030 63 8000 1 0 05:58 07.02.2020
2995 Rain 2 1031 58 8000 1 0 05:36 07.02.2020
2996 Clear -2 1032 62 8000 2 330 03:33 07.02.2020
2997 Clear -7 1032 85 8000 2 340 01:51 07.02.2020
2998 Clear -8 1031 85 8000 3 350 00:51 07.02.2020
2999 Clear -8 1031 85 10000 4 340 00:25 07.02.2020
3000 Clouds -8 1031 85 10000 3 350 23:38 06.02.2020
3001 Clouds -8 1031 85 10000 3 350 23:19 06.02.2020
3002 Clouds -7 1031 79 10000 3 330 22:46 06.02.2020
3003 Clouds -7 1031 85 10000 3 350 22:26 06.02.2020
3004 Clear -7 1031 85 10000 2 340 21:57 06.02.2020
3005 Clear -6 1031 85 10000 1 350 21:36 06.02.2020
3006 Clear -6 1031 85 10000 1 350 21:18 06.02.2020
3007 Clear -7 1031 85 10000 2 340 20:54 06.02.2020
3008 Clear -6 1031 85 10000 3 340 20:36 06.02.2020
3009 Clear -6 1032 79 8000 3 350 20:18 06.02.2020
3010 Clear -6 1032 79 8000 3 350 19:55 06.02.2020
3011 Clear -6 1032 85 6000 3 340 19:36 06.02.2020
3012 Clear -6 1032 85 6000 3 340 19:18 06.02.2020
3013 Clear -6 1032 85 6000 3 360 18:40 06.02.2020
3014 Clear -6 1032 85 6000 3 360 18:22 06.02.2020
3015 Clear -6 1032 85 6000 3 360 17:57 06.02.2020
3016 Clear -6 1032 85 6000 2 350 17:38 06.02.2020
3017 Clear -6 1032 85 6000 2 350 17:19 06.02.2020
3018 Clear -6 1032 85 6000 1 50 16:42 06.02.2020
3019 Clear -5 1032 85 6000 1 50 16:23 06.02.2020
3020 Clear -5 1032 79 6000 1 60 15:43 06.02.2020
3021 Clear -5 1033 79 6000 1.2 52 15:23 06.02.2020
3022 Clouds -5 1033 79 6000 1 0 14:58 06.02.2020
3023 Clouds -5 1033 85 6000 1 0 14:40 06.02.2020
3024 Clouds -5 1033 85 6000 1 0 14:22 06.02.2020
3025 Clouds -5 1033 85 7000 1 70 13:42 06.02.2020
3026 Clouds -5 1033 85 7000 1 70 13:24 06.02.2020
3027 Clouds -5 1033 85 7000 1 0 12:45 06.02.2020
3028 Snow -5 1033 85 6000 1 40 12:19 06.02.2020
3029 Snow -5 1032 85 6000 1 0 11:58 06.02.2020
3030 Snow -5 1032 79 6000 1.17 73 11:39 06.02.2020
3031 Snow -4 1032 79 6000 0.8 97 11:19 06.02.2020
3032 Snow -4 1032 79 6000 1 0 10:57 06.02.2020
3033 Clouds -5 1032 79 7000 1 0 10:38 06.02.2020
3034 Clouds -5 1032 79 7000 1 0 10:38 06.02.2020
3035 Clouds -4 1032 79 7000 1 0 10:20 06.02.2020
3036 Clouds -4 1032 73 7000 2 150 09:56 06.02.2020
3037 Clouds -4 1032 73 6000 1 0 09:37 06.02.2020
3038 Clouds -4 1032 73 6000 1 0 09:19 06.02.2020
3039 Clouds -3 1033 73 6000 2 130 08:41 06.02.2020
3040 Clouds -3 1033 73 6000 2 130 08:22 06.02.2020
3041 Snow -3 1033 73 7000 2 130 07:48 06.02.2020
3042 Snow -3 1033 79 6000 2 100 07:27 06.02.2020
3043 Snow -3 1034 79 5000 2 60 06:37 06.02.2020
3044 Snow -3 1034 79 5000 2 60 06:37 06.02.2020
3045 Snow -3 1034 79 5000 2 60 06:37 06.02.2020
3046 Snow -2 1034 79 5000 2 60 06:18 06.02.2020
3047 Snow -4 1036 79 3500 2 100 04:53 06.02.2020
3048 Snow -5 1037 85 3000 3 110 03:21 06.02.2020
3049 Snow -5 1037 85 3000 3 110 03:21 06.02.2020
3050 Snow -5 1037 85 3000 3 110 03:21 06.02.2020
3051 Snow -5 1037 85 2500 2 90 02:44 06.02.2020
3052 Snow -7 1037 85 3500 2 100 01:41 06.02.2020
3053 Snow -7 1037 85 5000 2 100 00:59 06.02.2020
3054 Snow -7 1037 85 5000 2 110 00:27 06.02.2020
3055 Snow -7 1037 85 5000 3 100 23:48 05.02.2020
3056 Snow -7 1037 85 5000 2 100 23:29 05.02.2020
3057 Snow -7 1037 85 5000 2 90 22:59 05.02.2020
3058 Snow -7 1037 85 5000 2 100 22:40 05.02.2020
3059 Snow -7 1037 85 5000 2 100 22:40 05.02.2020
3060 Snow -7 1037 85 5000 2 100 22:22 05.02.2020
3061 Snow -7 1037 85 5000 2 100 22:22 05.02.2020
3062 Snow -7 1037 85 5000 2 100 21:55 05.02.2020
3063 Snow -7 1037 85 5000 2 100 21:55 05.02.2020
3064 Snow -7 1037 92 5000 2 100 21:36 05.02.2020
3065 Snow -7 1037 92 5000 2 100 21:18 05.02.2020
3066 Snow -7 1037 92 5000 2 100 21:18 05.02.2020
3067 Snow -7 1038 85 5000 3 110 20:39 05.02.2020
3068 Snow -7 1038 85 5000 3 110 20:39 05.02.2020
3069 Snow -7 1038 85 5000 3 110 20:39 05.02.2020
3070 Snow -7 1038 85 5000 3 110 20:20 05.02.2020
3071 Snow -7 1038 85 5000 3 100 19:58 05.02.2020
3072 Snow -7 1038 85 6000 3 110 19:38 05.02.2020
3073 Snow -7 1038 85 6000 3 110 19:19 05.02.2020
3074 Snow -7 1038 85 6000 2 100 18:55 05.02.2020
3075 Snow -7 1038 85 5000 2 100 18:36 05.02.2020
3076 Snow -7 1038 85 5000 2 100 18:18 05.02.2020
3077 Snow -6 1038 85 6000 2 100 17:38 05.02.2020
3078 Snow -6 1038 85 6000 2 100 17:38 05.02.2020
3079 Snow -6 1038 85 6000 2 80 17:19 05.02.2020
3080 Snow -6 1038 85 6000 2 80 16:57 05.02.2020
3081 Snow -6 1038 85 6000 2 100 16:38 05.02.2020
3082 Snow -6 1038 79 6000 2 100 16:19 05.02.2020
3083 Snow -6 1038 79 6000 3 100 15:42 05.02.2020
3084 Snow -6 1038 79 6000 3 100 15:19 05.02.2020
3085 Snow -5 1038 85 6000 3 100 14:57 05.02.2020
3086 Snow -6 1038 85 6000 3 120 14:38 05.02.2020
3087 Snow -5 1038 85 6000 3 120 14:20 05.02.2020
3088 Snow -5 1037 79 7000 3 110 13:43 05.02.2020
3089 Snow -5 1037 79 7000 3 110 13:22 05.02.2020
3090 Snow -5 1037 79 6000 4 110 12:57 05.02.2020
3091 Snow -5 1037 85 6000 3 100 12:36 05.02.2020
3092 Snow -4 1037 85 6000 3 100 12:18 05.02.2020
3093 Snow -4 1037 85 6000 2 100 11:41 05.02.2020
3094 Snow -4 1037 85 6000 2 100 11:22 05.02.2020
3095 Snow -4 1036 85 6000 2 100 10:57 05.02.2020
3096 Snow -4 1036 85 5000 3 110 10:39 05.02.2020
3097 Snow -4 1036 85 5000 3 110 10:18 05.02.2020
3098 Snow -4 1036 73 8000 3 140 09:39 05.02.2020
3099 Snow -4 1036 73 8000 3 140 09:21 05.02.2020
3100 Snow -4 1036 73 10000 3 130 08:48 05.02.2020
3101 Snow -4 1036 73 8000 3 130 08:25 05.02.2020
3102 Snow -3 1036 73 8000 4 130 07:58 05.02.2020
3103 Snow -3 1036 79 6000 3 100 07:39 05.02.2020
3104 Snow -4 1036 79 6000 3 100 07:18 05.02.2020
3105 Snow -4 1037 79 4000 3 100 06:39 05.02.2020
3106 Snow -4 1037 79 4000 3 100 06:20 05.02.2020
3107 Snow -4 1038 73 7000 3 80 05:20 05.02.2020
3108 Snow -4 1038 73 7000 3 80 04:54 05.02.2020
3109 Snow -5 1038 73 7000 2 90 03:58 05.02.2020
3110 Snow -6 1038 62 7000 2 30 02:42 05.02.2020
3111 Snow -6 1038 62 7000 2 30 02:20 05.02.2020
3112 Clouds -7 1038 31 10000 2 10 01:25 05.02.2020
3113 Clouds -7 1037 31 10000 2 20 00:22 05.02.2020
3114 Clouds -8 1037 37 10000 1 0 23:40 04.02.2020
3115 Clear -8 1037 37 10000 1 0 23:20 04.02.2020
3116 Clear -8 1036 51 10000 2 20 22:57 04.02.2020
3117 Clear -8 1036 66 10000 1 10 22:39 04.02.2020
3118 Clear -8 1036 66 10000 1 10 22:20 04.02.2020
3119 Clear -8 1036 61 10000 2 360 21:55 04.02.2020
3120 Clear -7 1036 56 10000 2 30 21:37 04.02.2020
3121 Clear -7 1036 56 10000 2 30 21:18 04.02.2020
3122 Clear -7 1036 57 10000 1 50 20:44 04.02.2020
3123 Clear -7 1036 52 10000 2 40 20:22 04.02.2020
3124 Clear -7 1036 52 10000 2 40 19:59 04.02.2020
3125 Clear -8 1036 66 10000 1 40 19:41 04.02.2020
3126 Clear -7 1036 66 10000 1 40 19:22 04.02.2020
3127 Clear -7 1035 56 10000 1 10 18:57 04.02.2020
3128 Clear -7 1035 61 10000 1 0 18:38 04.02.2020
3129 Clear -7 1035 61 10000 1 0 18:19 04.02.2020
3130 Clear -7 1035 61 10000 1 0 18:19 04.02.2020
3131 Clear -7 1035 72 10000 2 40 17:54 04.02.2020
3132 Clear -6 1035 61 10000 2 40 17:36 04.02.2020
3133 Clear -6 1035 61 10000 2 60 17:18 04.02.2020
3134 Clear -6 1035 56 10000 1 60 16:38 04.02.2020
3135 Clear -6 1035 56 10000 1 60 16:38 04.02.2020
3136 Clear -5 1035 56 10000 1 60 16:20 04.02.2020
3137 Clear -4 1034 38 10000 1 0 15:56 04.02.2020
3138 Clear -5 1034 44 10000 3 360 15:38 04.02.2020
3139 Clear -5 1034 44 10000 3 360 15:19 04.02.2020
3140 Clear -4 1033 48 10000 2 10 14:45 04.02.2020
3141 Clear -3 1033 32 10000 1 20 14:23 04.02.2020
3142 Clear -3 1033 35 10000 2 60 13:58 04.02.2020
3143 Clear -2 1032 27 10000 1 0 13:40 04.02.2020
3144 Clear -2 1032 27 10000 1 0 13:21 04.02.2020
3145 Clear -2 1032 30 10000 1 0 12:45 04.02.2020
3146 Clear -2 1032 28 10000 1 0 12:26 04.02.2020
3147 Clear -1 1031 26 10000 2 30 11:58 04.02.2020
3148 Clear -1 1031 26 10000 2 20 11:39 04.02.2020
3149 Clear 0 1031 26 10000 2 20 11:21 04.02.2020
3150 Clear 0 1030 29 10000 2 30 10:59 04.02.2020
3151 Clear 0 1030 29 10000 3 10 10:40 04.02.2020
3152 Clear 1 1030 29 10000 3 10 10:22 04.02.2020
3153 Clear 2 1029 16 10000 2 300 09:41 04.02.2020
3154 Clear 2 1029 16 10000 2 300 09:23 04.02.2020
3155 Clear 3 1029 17 10000 2 0 08:56 04.02.2020
3156 Clear 2 1029 16 10000 2 0 08:38 04.02.2020
3157 Clear 2 1029 16 10000 2 0 08:38 04.02.2020
3158 Clear 2 1029 16 10000 2 0 08:20 04.02.2020
3159 Clear 2 1029 16 10000 2 30 07:43 04.02.2020
3160 Clear 2 1029 16 10000 2 30 07:22 04.02.2020
3161 Clear 2 1030 15 10000 3 50 06:43 04.02.2020
3162 Clear 2 1031 22 10000 3 20 05:58 04.02.2020
3163 Clear 1 1031 22 10000 4 30 05:28 04.02.2020
3164 Clear 0 1032 19 10000 6 40 03:52 04.02.2020
3165 Clear 0 1032 23 10000 5 30 03:32 04.02.2020
3166 Clear -1 1032 21 10000 7 20 02:55 04.02.2020
3167 Clear -3 1032 25 10000 7 20 02:31 04.02.2020
3168 Clouds -4 1031 25 10000 6 30 01:53 04.02.2020
3169 Clouds -4 1031 27 10000 6 30 01:35 04.02.2020
3170 Clouds -4 1030 29 10000 5 30 00:44 04.02.2020
3171 Clouds -3 1029 32 10000 5 30 00:21 04.02.2020
3172 Clouds -4 1028 32 10000 7 20 23:39 03.02.2020
3173 Clouds -3 1028 32 10000 7 20 23:19 03.02.2020
3174 Clouds -3 1027 41 10000 4 20 22:39 03.02.2020
3175 Clouds -3 1027 41 10000 4 20 22:39 03.02.2020
3176 Clouds -3 1027 45 10000 4 20 22:20 03.02.2020
3177 Clouds -3 1027 45 10000 4 20 21:55 03.02.2020
3178 Clouds -3 1027 45 10000 4 20 21:55 03.02.2020
3179 Clouds -2 1027 45 10000 4 30 21:37 03.02.2020
3180 Clouds -2 1027 45 10000 4 30 21:18 03.02.2020
3181 Clouds -2 1026 46 10000 5 20 20:42 03.02.2020
3182 Clouds -3 1026 46 10000 5 20 20:19 03.02.2020
3183 Clouds -3 1026 58 10000 4 20 19:57 03.02.2020
3184 Clouds -3 1026 53 10000 4 30 19:39 03.02.2020
3185 Clouds -3 1026 53 10000 4 30 19:19 03.02.2020
3186 Clouds -4 1026 67 10000 2 340 18:56 03.02.2020
3187 Clouds -4 1025 67 10000 3 350 18:36 03.02.2020
3188 Clouds -4 1025 67 10000 3 350 18:18 03.02.2020
3189 Clouds -4 1025 67 10000 3 350 18:18 03.02.2020
3190 Clouds -4 1025 67 10000 3 340 17:40 03.02.2020
3191 Clear -4 1025 67 10000 3 340 17:20 03.02.2020
3192 Clear -3 1025 62 10000 2.21 32 16:59 03.02.2020
3193 Clear -3 1025 62 10000 1 0 16:39 03.02.2020
3194 Clear -3 1025 62 10000 1 0 16:20 03.02.2020
3195 Clear -2 1025 58 10000 2 50 15:55 03.02.2020
3196 Clear -2 1025 58 10000 2 50 15:37 03.02.2020
3197 Clear -2 1025 58 10000 2 50 15:18 03.02.2020
3198 Clear -2 1025 79 10000 1 60 14:41 03.02.2020
3199 Clear -3 1025 79 10000 1 60 14:23 03.02.2020
3200 Clear -2 1024 73 10000 1 70 13:56 03.02.2020
3201 Clear -1 1024 53 10000 1 130 13:37 03.02.2020
3202 Clear -1 1024 53 10000 1 130 13:37 03.02.2020
3203 Clear -1 1024 53 10000 1 130 13:19 03.02.2020
3204 Clear 0 1024 54 10000 2 150 12:42 03.02.2020
3205 Clear 0 1024 54 10000 2 150 12:23 03.02.2020
3206 Clear 0 1024 50 10000 2 140 11:59 03.02.2020
3207 Clear 1 1024 44 10000 2 160 11:38 03.02.2020
3208 Clear 2 1024 34 10000 2 160 11:19 03.02.2020
3209 Clear 2 1024 34 10000 1 0 10:55 03.02.2020
3210 Clear 2 1024 34 10000 1 0 10:55 03.02.2020
3211 Clear 2 1024 34 10000 1 0 10:37 03.02.2020
3212 Clear 2 1024 34 10000 1 0 10:18 03.02.2020
3213 Clear 3 1024 29 10000 3 200 09:38 03.02.2020
3214 Clear 3 1024 29 10000 3 200 09:19 03.02.2020
3215 Clear 3 1024 29 10000 3 200 09:19 03.02.2020
3216 Clear 3 1025 31 10000 4 200 08:41 03.02.2020
3217 Clear 3 1025 31 10000 4 200 08:41 03.02.2020
3218 Clear 3 1025 31 10000 4 200 08:22 03.02.2020
3219 Clear 3 1026 29 10000 6 200 07:43 03.02.2020
3220 Clear 4 1026 29 10000 6 200 07:23 03.02.2020
3221 Clear 3 1027 31 10000 6 190 06:57 03.02.2020
3222 Clear 3 1028 21 10000 5 200 06:31 03.02.2020
3223 Clear 2 1028 21 10000 7 180 05:58 03.02.2020
3224 Clear 1 1029 30 10000 5 180 05:34 03.02.2020
3225 Clear 1 1030 33 10000 4 180 04:47 03.02.2020
3226 Clear -2 1031 38 10000 3 170 02:48 03.02.2020
3227 Clear -2 1031 38 10000 3 170 02:48 03.02.2020
3228 Clear -3 1031 45 10000 1 0 02:28 03.02.2020
3229 Clear -7 1031 72 10000 1 110 00:50 03.02.2020
3230 Clear -7 1031 56 10000 1 0 00:28 03.02.2020
3231 Clear -6 1031 48 10000 1 0 23:56 02.02.2020
3232 Clear -7 1031 52 10000 1.12 201 23:36 02.02.2020
3233 Clear -7 1031 52 10000 1.64 15 23:18 02.02.2020
3234 Clear -7 1031 52 10000 2 50 22:39 02.02.2020
3235 Clear -7 1031 52 10000 2 50 22:21 02.02.2020
3236 Clear -6 1031 41 10000 2 350 21:58 02.02.2020
3237 Clear -6 1031 44 10000 2 0 21:39 02.02.2020
3238 Clear -5 1031 44 10000 2 0 21:20 02.02.2020
3239 Clear -6 1031 78 10000 2 30 20:57 02.02.2020
3240 Clear -6 1032 72 10000 1 40 20:39 02.02.2020
3241 Clear -6 1032 72 10000 1 40 20:20 02.02.2020
3242 Clear -5 1032 44 10000 1 20 19:57 02.02.2020
3243 Clear -5 1032 57 10000 1.58 345 19:38 02.02.2020
3244 Clear -5 1032 57 10000 1.58 345 19:38 02.02.2020
3245 Clear -5 1032 57 10000 1.58 345 19:20 02.02.2020
3246 Clear -5 1032 48 10000 1 360 18:55 02.02.2020
3247 Clear -4 1032 41 10000 2 350 18:37 02.02.2020
3248 Clear -4 1032 41 10000 2 350 18:18 02.02.2020
3249 Clear -4 1032 41 10000 2 340 17:57 02.02.2020
3250 Clear -3 1032 41 10000 3 340 17:37 02.02.2020
3251 Clear -3 1032 41 10000 3 340 17:18 02.02.2020
3252 Clear -3 1032 35 10000 3 330 16:56 02.02.2020
3253 Clear -3 1032 32 10000 3 360 16:37 02.02.2020
3254 Clear -2 1032 32 10000 3 360 16:18 02.02.2020
3255 Clear -2 1032 32 10000 4 360 15:54 02.02.2020
3256 Clear -1 1032 32 10000 4 360 15:36 02.02.2020
3257 Clear -2 1032 32 10000 4 360 15:18 02.02.2020
3258 Clear -1 1031 38 10000 6 350 14:41 02.02.2020
3259 Clouds -1 1031 38 10000 6 350 14:19 02.02.2020
3260 Clouds -1 1031 36 10000 4 360 13:58 02.02.2020
3261 Clouds 0 1030 39 10000 3 10 13:39 02.02.2020
3262 Clouds 0 1030 39 10000 3 10 13:20 02.02.2020
3263 Clouds -1 1030 49 10000 4 350 12:55 02.02.2020
3264 Clouds 1 1030 20 10000 4 330 12:36 02.02.2020
3265 Clouds 1 1030 21 10000 4 330 12:18 02.02.2020
3266 Clouds 2 1029 26 10000 6 330 11:41 02.02.2020
3267 Clouds 1 1029 26 10000 6 330 11:19 02.02.2020
3268 Clouds 1 1029 26 10000 6 330 11:19 02.02.2020
3269 Clouds 2 1028 29 10000 6 330 10:57 02.02.2020
3270 Clouds 2 1028 43 10000 4 350 10:38 02.02.2020
3271 Clouds 2 1028 43 10000 4 350 10:20 02.02.2020
3272 Clouds 3 1028 40 10000 8 300 09:56 02.02.2020
3273 Clouds 4 1027 40 10000 8 290 09:38 02.02.2020
3274 Clouds 3 1027 40 10000 8 290 09:19 02.02.2020
3275 Rain 3 1027 48 10000 8 290 08:43 02.02.2020
3276 Rain 3 1027 48 10000 8 290 08:24 02.02.2020
3277 Rain 3 1027 69 7000 4 290 07:47 02.02.2020
3278 Rain 3 1027 74 5000 1 0 07:28 02.02.2020
3279 Rain 3 1027 80 5000 1 0 06:44 02.02.2020
3280 Rain 3 1027 86 4000 1 0 06:26 02.02.2020
3281 Mist 3 1028 36 4000 1 0 05:47 02.02.2020
3282 Snow 0 1028 92 3500 1 0 04:48 02.02.2020
3283 Snow 0 1028 92 2500 2 120 03:26 02.02.2020
3284 Snow 0 1028 92 2200 2 130 02:33 02.02.2020
3285 Snow 0 1028 92 2500 2 100 01:54 02.02.2020
3286 Snow 0 1028 92 2500 2 100 01:54 02.02.2020
3287 Snow -1 1028 92 2500 2 90 01:23 02.02.2020
3288 Snow 0 1028 92 2800 2 120 00:44 02.02.2020
3289 Snow 0 1028 92 2300 1 0 00:22 02.02.2020
3290 Snow -1 1027 92 2300 2 120 23:47 01.02.2020
3291 Snow -1 1028 92 2300 2 120 23:23 01.02.2020
3292 Snow -1 1028 100 2300 3 120 22:54 01.02.2020
3293 Snow -1 1028 100 2300 2 130 22:36 01.02.2020
3294 Snow -1 1028 100 2300 2 130 22:18 01.02.2020
3295 Snow 0 1028 92 2300 2 100 21:39 01.02.2020
3296 Snow -1 1028 92 2300 2 100 21:18 01.02.2020
3297 Snow -1 1029 92 2500 1 0 20:41 01.02.2020
3298 Snow -1 1029 92 2500 1 0 20:20 01.02.2020
3299 Snow 0 1029 92 2000 2 140 19:57 01.02.2020
3300 Snow 0 1029 92 2500 3 160 19:39 01.02.2020
3301 Snow 1 1029 92 2500 3 160 19:19 01.02.2020
3302 Snow 1 1029 49 5000 4 170 18:58 01.02.2020
3303 Snow 2 1029 59 10000 4 150 18:40 01.02.2020
3304 Snow 1 1029 59 10000 4 150 18:21 01.02.2020
3305 Snow 2 1029 47 10000 4 160 17:57 01.02.2020
3306 Snow 2 1029 51 10000 3 160 17:39 01.02.2020
3307 Clouds 2 1029 51 10000 3 160 17:19 01.02.2020
3308 Clouds 2 1029 51 10000 5 170 16:43 01.02.2020
3309 Clouds 2 1029 51 10000 5 170 16:24 01.02.2020
3310 Clouds 2 1029 47 10000 3 150 15:58 01.02.2020
3311 Clouds 2 1029 31 10000 3 150 15:40 01.02.2020
3312 Clouds 2 1029 31 10000 3 150 15:20 01.02.2020
3313 Clouds 2 1029 42 10000 1 110 14:41 01.02.2020
3314 Clouds 2 1029 42 10000 1 110 14:22 01.02.2020
3315 Clouds 2 1029 42 10000 1 110 14:22 01.02.2020
3316 Clouds 2 1029 18 10000 1 0 13:59 01.02.2020
3317 Clouds 2 1029 36 10000 1 140 13:41 01.02.2020
3318 Clouds 2 1029 36 10000 1 140 13:18 01.02.2020
3319 Clouds 3 1029 22 10000 1 0 12:42 01.02.2020
3320 Clouds 3 1029 22 10000 1 0 12:24 01.02.2020
3321 Clouds 4 1028 19 10000 2 170 11:45 01.02.2020
3322 Clouds 3 1028 19 10000 2 170 11:24 01.02.2020
3323 Clouds 4 1028 15 10000 2 190 10:59 01.02.2020
3324 Clouds 4 1028 15 10000 1 0 10:41 01.02.2020
3325 Clouds 4 1028 15 10000 1 0 10:22 01.02.2020
3326 Clouds 5 1028 13 10000 0.62 76 09:59 01.02.2020
3327 Clouds 5 1028 13 10000 1 0 09:40 01.02.2020
3328 Clouds 5 1028 13 10000 1 0 09:21 01.02.2020
3329 Clouds 6 1028 13 10000 1 0 08:54 01.02.2020
3330 Clouds 6 1028 13 10000 2 50 08:18 01.02.2020
3331 Clear 6 1028 20 10000 3 20 07:41 01.02.2020
3332 Clear 6 1028 20 10000 3 20 07:22 01.02.2020
3333 Clear 6 1029 18 10000 3 50 06:43 01.02.2020
3334 Clear 6 1030 21 10000 4 30 05:54 01.02.2020
3335 Clear 6 1030 21 10000 4 30 05:54 01.02.2020
3336 Clear 4 1031 25 10000 5 10 04:22 01.02.2020
3337 Clear 4 1032 27 10000 5 10 03:25 01.02.2020
3338 Clear 2 1032 29 10000 5 20 02:55 01.02.2020
3339 Clear 2 1032 29 10000 4 30 02:37 01.02.2020
3340 Clear 1 1032 29 10000 4 30 02:18 01.02.2020
3341 Clear -1 1031 42 10000 3 10 01:39 01.02.2020
3342 Clear -2 1031 45 10000 3 360 00:47 01.02.2020
3343 Clear -1 1030 39 10000 4 20 00:23 01.02.2020
3344 Clear -1 1029 39 10000 3 30 23:40 31.01.2020
3345 Clear -1 1029 39 10000 3 30 23:18 31.01.2020
3346 Clear 0 1029 36 10000 3 20 22:56 31.01.2020
3347 Clear 0 1029 36 10000 3 10 22:37 31.01.2020
3348 Clear 0 1029 36 10000 3 10 22:19 31.01.2020
3349 Clear 0 1029 36 10000 5 360 21:40 31.01.2020
3350 Clear 0 1029 36 10000 5 360 21:40 31.01.2020
3351 Clear 0 1029 36 10000 5 360 21:21 31.01.2020
3352 Clear 0 1028 33 10000 4 350 20:57 31.01.2020
3353 Clear 1 1028 31 10000 4 360 20:39 31.01.2020
3354 Clear 1 1028 28 10000 4 10 20:21 31.01.2020
3355 Clear 2 1028 28 10000 4 10 19:57 31.01.2020
3356 Clear 1 1028 30 10000 4 340 19:38 31.01.2020
3357 Clear 1 1028 30 10000 4 340 19:20 31.01.2020
3358 Clear 2 1028 24 10000 4 320 18:56 31.01.2020
3359 Clear 2 1027 24 10000 5 330 18:36 31.01.2020
3360 Clear 2 1027 24 10000 5 330 18:18 31.01.2020
3361 Clear 2 1027 28 10000 4 340 17:43 31.01.2020
3362 Clear 2 1027 25 10000 4 340 17:24 31.01.2020
3363 Clear 4 1027 21 10000 6 340 16:57 31.01.2020
3364 Clear 4 1026 21 10000 6 340 16:38 31.01.2020
3365 Clear 4 1026 21 10000 6 340 16:19 31.01.2020
3366 Clear 4 1026 21 10000 6 330 15:57 31.01.2020
3367 Clear 4 1026 21 10000 6 330 15:57 31.01.2020
3368 Clear 4 1026 24 10000 2 350 15:38 31.01.2020
3369 Clear 4 1026 24 10000 2 350 15:19 31.01.2020
3370 Clear 5 1025 21 10000 6 340 14:42 31.01.2020
3371 Clear 4 1025 21 10000 6 340 14:23 31.01.2020
3372 Clear 5 1025 20 10000 5 330 13:53 31.01.2020
3373 Clear 6 1025 18 10000 7 340 13:33 31.01.2020
3374 Clear 5 1024 40 10000 3 350 12:58 31.01.2020
3375 Clear 6 1023 37 10000 3 350 12:39 31.01.2020
3376 Clear 6 1023 37 10000 3 350 12:21 31.01.2020
3377 Clear 6 1023 35 10000 2 360 11:44 31.01.2020
3378 Clear 7 1022 17 10000 4 20 11:26 31.01.2020
3379 Clear 8 1021 18 10000 4 300 10:59 31.01.2020
3380 Clear 9 1021 15 10000 5 310 10:41 31.01.2020
3381 Clear 9 1021 15 10000 5 310 10:21 31.01.2020
3382 Clear 10 1021 18 10000 4 300 09:56 31.01.2020
3383 Clear 9 1021 18 10000 4 260 09:38 31.01.2020
3384 Clear 9 1021 18 10000 4 260 09:18 31.01.2020
3385 Clear 9 1021 19 10000 4 260 08:50 31.01.2020
3386 Clear 10 1021 21 10000 4 0 08:25 31.01.2020
3387 Clear 10 1021 21 10000 4 0 08:25 31.01.2020
3388 Clear 10 1021 24 10000 3 300 07:52 31.01.2020
3389 Clear 9 1021 31 10000 2 310 07:24 31.01.2020
3390 Clear 9 1022 38 10000 1 0 06:42 31.01.2020
3391 Clear 8 1022 41 10000 1 0 05:58 31.01.2020
3392 Clear 8 1023 41 10000 1 0 05:40 31.01.2020
3393 Clear 5 1023 47 10000 1 0 04:47 31.01.2020
3394 Clear 1 1024 63 10000 2 60 02:58 31.01.2020
3395 Clear -3 1024 85 8000 1.09 32 01:33 31.01.2020
3396 Clear -4 1023 92 10000 1.12 31 00:44 31.01.2020
3397 Clear -4 1023 85 10000 1 0 00:25 31.01.2020
3398 Clear -4 1023 85 10000 1 70 23:53 30.01.2020
3399 Clear -4 1022 85 10000 1 20 23:24 30.01.2020
3400 Clear -4 1023 85 10000 2 360 22:56 30.01.2020
3401 Clear -4 1023 85 10000 1 350 22:36 30.01.2020
3402 Clear -4 1023 85 10000 1 350 22:18 30.01.2020
3403 Clear -3 1023 78 10000 1.4 24 21:43 30.01.2020
3404 Clear -3 1023 85 10000 1.4 24 21:20 30.01.2020
3405 Clear -3 1023 85 10000 1.4 24 20:59 30.01.2020
3406 Clear -2 1023 85 10000 1 30 20:39 30.01.2020
3407 Clear -2 1023 85 10000 1 30 20:39 30.01.2020
3408 Clear -3 1023 85 10000 1 30 20:21 30.01.2020
3409 Clear -4 1023 79 10000 1 60 19:55 30.01.2020
3410 Clear -3 1023 79 10000 1.18 31 19:36 30.01.2020
3411 Clear -2 1023 79 10000 1.18 31 19:18 30.01.2020
3412 Clear -1 1023 63 10000 1 60 18:39 30.01.2020
3413 Clear -2 1023 63 10000 1 60 18:20 30.01.2020
3414 Clear -2 1024 73 10000 1 60 17:55 30.01.2020
3415 Clear -2 1024 73 10000 1 40 17:36 30.01.2020
3416 Clear -2 1024 73 10000 1 40 17:18 30.01.2020
3417 Clear -1 1024 62 10000 0.18 2 16:56 30.01.2020
3418 Clear -1 1024 68 10000 1 0 16:36 30.01.2020
3419 Clear -1 1024 68 10000 1 0 16:18 30.01.2020
3420 Clear 0 1024 63 10000 1 140 15:41 30.01.2020
3421 Clear 0 1024 63 10000 1 140 15:19 30.01.2020
3422 Clear 0 1024 63 10000 1 140 15:19 30.01.2020
3423 Clear 0 1024 63 10000 1 140 14:44 30.01.2020
3424 Clear 1 1024 42 10000 2 160 14:26 30.01.2020
3425 Clear 2 1024 43 10000 2 160 13:43 30.01.2020
3426 Clear 2 1024 43 10000 4 170 13:25 30.01.2020
3427 Clear 2 1024 40 10000 4 180 12:59 30.01.2020
3428 Clear 3 1024 37 10000 4 180 12:40 30.01.2020
3429 Clear 3 1024 37 10000 4 180 12:22 30.01.2020
3430 Clear 3 1023 35 10000 3 180 11:54 30.01.2020
3431 Clear 4 1023 35 10000 3 180 11:36 30.01.2020
3432 Clear 4 1023 35 10000 3 180 11:18 30.01.2020
3433 Clear 5 1023 32 10000 4 190 10:41 30.01.2020
3434 Clear 5 1023 32 10000 4 190 10:21 30.01.2020
3435 Clear 6 1023 30 10000 4 200 09:47 30.01.2020
3436 Clear 6 1023 30 10000 3 200 09:29 30.01.2020
3437 Clear 7 1023 26 10000 4 180 08:58 30.01.2020
3438 Clear 7 1024 26 10000 3 190 08:38 30.01.2020
3439 Clear 7 1024 26 10000 3 190 08:19 30.01.2020
3440 Clear 7 1024 26 10000 3 200 07:48 30.01.2020
3441 Clear 6 1024 26 10000 3 0 07:20 30.01.2020
3442 Clear 8 1025 28 10000 3 180 06:47 30.01.2020
3443 Clear 8 1025 28 10000 3 180 06:47 30.01.2020
3444 Clear 8 1025 28 10000 2 0 06:27 30.01.2020
3445 Clear 8 1026 30 10000 2 190 05:44 30.01.2020
3446 Clear 5 1026 32 10000 3 220 05:19 30.01.2020
3447 Clear 4 1028 47 10000 1 0 03:53 30.01.2020
3448 Clear 4 1028 50 10000 1 0 03:35 30.01.2020
3449 Clear 0 1028 74 10000 0.13 291 02:19 30.01.2020
3450 Clear -4 1026 92 10000 1 0 00:40 30.01.2020
3451 Clear -5 1026 92 10000 1 0 00:20 30.01.2020
3452 Clear -4 1026 85 10000 1 0 23:45 29.01.2020
3453 Clear -4 1026 92 10000 0.52 315 23:21 29.01.2020
3454 Clear -4 1026 92 10000 0.52 315 23:21 29.01.2020
3455 Clear -4 1026 85 10000 0.52 315 22:56 29.01.2020
3456 Clear -4 1026 85 10000 0.52 315 22:38 29.01.2020
3457 Clear -4 1026 85 10000 0.52 315 22:19 29.01.2020
3458 Clear -4 1026 85 10000 0.52 315 22:19 29.01.2020
3459 Clear -3 1026 85 10000 0.52 315 21:57 29.01.2020
3460 Clear -4 1026 85 10000 1 0 21:38 29.01.2020
3461 Clear -3 1026 85 10000 1 0 21:19 29.01.2020
3462 Clear -4 1026 85 10000 1 350 20:57 29.01.2020
3463 Clear -3 1026 79 10000 0.52 315 20:38 29.01.2020
3464 Clear -3 1026 79 10000 0.63 16 20:19 29.01.2020
3465 Clear -3 1026 73 10000 1 0 19:55 29.01.2020
3466 Clear -2 1026 79 10000 1 0 19:37 29.01.2020
3467 Clear -3 1026 79 10000 1 0 19:18 29.01.2020
3468 Clear -2 1027 79 10000 1 0 18:43 29.01.2020
3469 Clear -2 1027 79 10000 1 0 18:19 29.01.2020
3470 Clear -2 1027 79 10000 1 110 17:56 29.01.2020
3471 Clear -1 1027 68 10000 1 0 17:38 29.01.2020
3472 Clear 0 1027 68 10000 1 0 17:20 29.01.2020
3473 Clear 0 1027 73 10000 1 0 16:41 29.01.2020
3474 -273 0 0 0 0 0 16:22 29.01.2020
3475 Clear 0 1026 63 10000 1 0 15:55 29.01.2020
3476 Clear 0 1026 58 10000 1 0 15:36 29.01.2020
3477 Clear 0 1026 58 10000 1 0 15:18 29.01.2020
3478 Clear 0 1026 63 10000 1 0 14:41 29.01.2020
3479 Clear 1 1026 63 10000 1 0 14:20 29.01.2020
3480 Clear 2 1026 54 10000 1 70 13:41 29.01.2020
3481 Clear 2 1026 54 10000 1 70 13:23 29.01.2020
3482 Clear 2 1026 54 10000 1 70 13:23 29.01.2020
3483 Clear 2 1025 50 10000 1 0 12:59 29.01.2020
3484 Clear 3 1025 46 10000 2 10 12:39 29.01.2020
3485 Clear 3 1025 46 10000 2 10 12:21 29.01.2020
3486 Clear 4 1025 34 10000 1 0 11:58 29.01.2020
3487 Clear 4 1025 34 10000 1 10 11:40 29.01.2020
3488 Clear 5 1025 34 10000 1 10 11:20 29.01.2020
3489 Clear 7 1018 40 0 1.04 9 10:46 29.01.2020
3490 Clear 7 1024 22 10000 2 30 10:22 29.01.2020
3491 Clear 8 1024 22 10000 2 30 09:58 29.01.2020
3492 Clear 8 1024 22 10000 2 30 09:39 29.01.2020
3493 Clear 8 1024 22 10000 2 30 09:18 29.01.2020
3494 Clear 9 1024 23 10000 3 10 08:44 29.01.2020
3495 Clear 9 1024 26 10000 3 20 08:24 29.01.2020
3496 Clear 9 1024 26 10000 3 20 08:24 29.01.2020
3497 Clouds 9 1024 24 10000 2 20 07:45 29.01.2020
3498 Clouds 9 1024 26 10000 3 10 07:26 29.01.2020
3499 Clouds 9 1024 28 10000 2 20 06:56 29.01.2020
3500 Clouds 11 1024 28 10000 2 20 06:56 29.01.2020
3501 Clouds 11 1025 28 10000 3 20 06:38 29.01.2020
3502 Clouds 10 1025 28 10000 3 20 06:38 29.01.2020
3503 Clouds 10 1025 28 10000 3 20 06:19 29.01.2020
3504 Clouds 10 1025 33 10000 4 30 05:50 29.01.2020
3505 Clouds 10 1026 36 10000 4 360 05:32 29.01.2020
3506 Clear 6 1027 41 10000 3 20 04:38 29.01.2020
3507 Clear 6 1027 41 10000 3 20 03:59 29.01.2020
3508 Clear 4 1027 86 6000 3 350 02:34 29.01.2020
3509 Mist -1 1027 79 5000 2 360 01:18 29.01.2020
3510 Mist -1 1026 79 4500 2 350 00:39 29.01.2020
3511 Mist -1 1026 79 4500 2 350 00:20 29.01.2020
3512 Mist 0 1026 79 4000 1 340 23:40 28.01.2020
3513 Mist 0 1026 79 4000 1 340 23:19 28.01.2020
3514 Mist 0 1026 79 4000 2 350 22:51 28.01.2020
3515 Mist 1 1026 74 4000 0.21 182 22:27 28.01.2020
3516 Mist 1 1026 74 4000 1 0 21:58 28.01.2020
3517 Mist -1 1026 79 4000 0.21 182 21:39 28.01.2020
3518 Mist 0 1026 79 4000 0.21 182 21:19 28.01.2020
3519 Mist 0 1027 74 4000 0.21 182 20:46 28.01.2020
3520 Mist 1 1027 68 4000 1 0 20:26 28.01.2020
3521 Mist 0 1027 74 4000 1 0 19:56 28.01.2020
3522 Mist 0 1027 74 4000 1 10 19:37 28.01.2020
3523 Mist 0 1027 74 4000 1 10 19:19 28.01.2020
3524 Mist 0 1027 79 4000 1 0 19:19 28.01.2020
3525 Mist 0 1027 79 4000 1 0 18:54 28.01.2020
3526 Mist 0 1026 73 4000 1 0 18:36 28.01.2020
3527 Mist 0 1026 73 4000 1 0 18:18 28.01.2020
3528 Mist 0 1026 73 4000 1 0 17:54 28.01.2020
3529 Mist 0 1026 73 4000 1 0 17:36 28.01.2020
3530 Mist 0 1026 73 4000 1 0 17:18 28.01.2020
3531 Mist 0 1026 73 4000 0.74 8 16:44 28.01.2020
3532 Haze 1 1026 74 4000 1 0 16:25 28.01.2020
3533 Haze 1 1026 63 4000 1 0 15:57 28.01.2020
3534 Haze 1 1026 68 4500 0.74 8 15:38 28.01.2020
3535 Haze 1 1026 68 4500 0.74 8 15:18 28.01.2020
3536 Haze 2 1026 51 4500 0.74 8 14:44 28.01.2020
3537 Haze 2 1026 46 4500 0.38 19 14:20 28.01.2020
3538 Haze 2 1026 46 4500 1 100 13:43 28.01.2020
3539 Haze 2 1026 44 4500 1 70 13:24 28.01.2020
3540 Haze 2 1026 44 4500 1 70 12:46 28.01.2020
3541 Haze 3 1025 44 4500 1 0 12:25 28.01.2020
3542 Haze 3 1025 50 4000 1 0 11:59 28.01.2020
3543 Haze 3 1025 47 2900 1 0 11:41 28.01.2020
3544 Haze 3 1025 47 2900 1 0 11:22 28.01.2020
3545 Haze 4 1024 40 2900 2 160 10:55 28.01.2020
3546 Haze 5 1024 38 3500 1 0 10:36 28.01.2020
3547 Haze 5 1024 38 3500 1 0 10:18 28.01.2020
3548 Haze 6 1024 35 3500 2 160 09:41 28.01.2020
3549 Haze 6 1024 35 3500 2 160 09:20 28.01.2020
3550 Haze 7 1024 33 3500 3 160 08:46 28.01.2020
3551 Haze 7 1024 36 3500 2 170 08:26 28.01.2020
3552 Haze 6 1024 38 4000 2 160 07:56 28.01.2020
3553 Haze 7 1024 38 4000 2 150 07:34 28.01.2020
3554 Haze 7 1024 38 4500 2 210 06:48 28.01.2020
3555 Haze 6 1024 41 4500 2 0 06:25 28.01.2020
3556 Clouds 6 1025 41 6000 1 0 05:40 28.01.2020
3557 Clouds 6 1025 41 6000 1 0 05:22 28.01.2020
3558 Clouds 3 1025 59 6000 1 0 03:50 28.01.2020
3559 Clouds 2 1025 57 6000 1 10 02:49 28.01.2020
3560 Mist 1 1025 74 5000 1 10 02:25 28.01.2020
3561 Mist 0 1025 79 5000 1 0 01:56 28.01.2020
3562 Mist -1 1024 85 5000 1 50 01:22 28.01.2020
3563 Mist -1 1024 79 5000 1 160 00:45 28.01.2020
3564 Clouds -1 1024 79 6000 1 50 00:23 28.01.2020
3565 Clouds -1 1024 79 6000 1 0 23:44 27.01.2020
3566 Clouds -2 1024 85 6000 2 360 23:20 27.01.2020
3567 Clouds -1 1023 79 6000 1 0 22:45 27.01.2020
3568 Clouds -2 1023 79 6000 1 0 22:21 27.01.2020
3569 Clouds -2 1024 79 7000 2 350 21:58 27.01.2020
3570 Clouds -1 1024 85 7000 0.98 47 21:39 27.01.2020
3571 Clouds -2 1024 85 7000 0.98 47 21:19 27.01.2020
3572 Clouds -2 1024 85 7000 0.98 47 21:19 27.01.2020
3573 Clouds -1 1024 79 7000 2 350 20:59 27.01.2020
3574 Clouds -1 1024 73 8000 0.98 47 20:38 27.01.2020
3575 Clouds -1 1024 73 8000 0.55 5 20:20 27.01.2020
3576 Clouds -1 1024 73 8000 1 50 19:57 27.01.2020
3577 Clouds 0 1024 73 8000 1 0 19:39 27.01.2020
3578 Clouds 0 1024 73 8000 1 0 19:21 27.01.2020
3579 Clouds 0 1024 73 8000 0.55 5 18:54 27.01.2020
3580 Clouds 0 1024 73 8000 1 80 18:36 27.01.2020
3581 Clouds 0 1024 73 8000 1 80 18:18 27.01.2020
3582 Clouds 0 1024 73 8000 1 80 17:39 27.01.2020
3583 Clouds 0 1024 73 8000 1 80 17:39 27.01.2020
3584 Clouds 0 1024 73 8000 1 80 17:39 27.01.2020
3585 Clouds 0 1024 73 8000 1 80 17:19 27.01.2020
3586 Clouds 0 1024 73 8000 1 80 16:56 27.01.2020
3587 Clouds 0 1024 68 8000 1 30 16:37 27.01.2020
3588 Clouds 0 1024 68 8000 1 30 16:19 27.01.2020
3589 Clouds 0 1024 68 8000 1 80 15:42 27.01.2020
3590 Clouds 0 1024 68 8000 1 80 15:20 27.01.2020
3591 Clouds 1 1024 63 8000 0.85 76 14:59 27.01.2020
3592 Clouds 1 1024 64 8000 1 100 14:40 27.01.2020
3593 Clouds 1 1024 60 8000 1 100 14:21 27.01.2020
3594 Clouds 2 1024 50 8000 1 90 13:46 27.01.2020
3595 Clouds 2 1024 47 8000 1 100 13:24 27.01.2020
3596 Clouds 2 1024 47 8000 1 0 12:58 27.01.2020
3597 Clouds 2 1024 47 8000 1 90 12:39 27.01.2020
3598 Clouds 3 1024 47 8000 1 90 12:21 27.01.2020
3599 Clouds 4 1023 44 6000 1 0 11:43 27.01.2020
3600 Clouds 4 1023 44 6000 1 0 11:43 27.01.2020
3601 Clouds 4 1023 44 6000 1 0 11:22 27.01.2020
3602 Clouds 4 1023 38 6000 1 80 10:57 27.01.2020
3603 Clouds 4 1023 41 6000 1 0 10:39 27.01.2020
3604 Clouds 5 1023 41 6000 1 0 10:20 27.01.2020
3605 Clouds 5 1023 35 6000 1 0 09:40 27.01.2020
3606 Clouds 5 1023 35 6000 1 0 09:19 27.01.2020
3607 Clouds 6 1023 33 6000 1 0 08:56 27.01.2020
3608 Clouds 6 1023 35 6000 1 0 08:38 27.01.2020
3609 Clouds 6 1023 35 6000 1 0 08:18 27.01.2020
3610 Clouds 6 1023 35 6000 1 0 07:46 27.01.2020
3611 Clouds 6 1024 35 7000 1 0 07:26 27.01.2020
3612 Clouds 7 1024 35 7000 1 0 06:38 27.01.2020
3613 Clouds 6 1025 38 7000 2 130 05:45 27.01.2020
3614 Clouds 3 1026 43 7000 2 290 04:37 27.01.2020
3615 Clouds 3 1027 50 6000 1 0 03:35 27.01.2020
3616 Clouds 0 1027 63 6000 3 330 01:55 27.01.2020
3617 Clouds -1 1027 63 6000 3 330 01:27 27.01.2020
3618 Clouds -1 1027 68 6000 2 350 00:41 27.01.2020
3619 Clouds -1 1027 68 6000 2 350 00:21 27.01.2020
3620 Clouds -1 1027 68 6000 2 350 23:43 26.01.2020
3621 Clouds -1 1027 73 6000 2 340 23:22 26.01.2020
3622 Clouds -1 1026 73 6000 2 330 22:59 26.01.2020
3623 Mist -1 1027 79 5000 2 340 22:38 26.01.2020
3624 Mist -2 1027 79 5000 2 340 22:20 26.01.2020
3625 Mist -2 1027 73 4500 2 340 21:58 26.01.2020
3626 Mist -2 1027 73 4500 2 340 21:58 26.01.2020
3627 Mist -1 1027 79 4500 1 340 21:39 26.01.2020
3628 Mist -2 1027 79 4500 1 340 21:21 26.01.2020
3629 Mist -2 1027 79 4500 1 340 21:21 26.01.2020
3630 Mist -2 1028 73 4500 2 340 20:58 26.01.2020
3631 Mist -2 1028 79 4500 2 330 20:38 26.01.2020
3632 Mist -2 1028 79 4500 2 330 20:38 26.01.2020
3633 Mist -2 1028 79 4500 2 330 20:38 26.01.2020
3634 Mist -2 1028 79 4500 2 330 20:19 26.01.2020
3635 Mist -2 1028 73 4500 2 330 19:58 26.01.2020
3636 Mist -2 1029 73 4500 2 330 19:38 26.01.2020
3637 Mist -2 1029 73 4500 2 330 19:38 26.01.2020
3638 Mist -2 1029 73 4500 2 330 19:19 26.01.2020
3639 Mist -2 1029 73 4500 2 360 18:56 26.01.2020
3640 Mist -2 1029 85 4500 2 350 18:38 26.01.2020
3641 Mist -2 1029 85 4500 2 350 18:20 26.01.2020
3642 Mist -2 1029 79 4500 2 10 17:55 26.01.2020
3643 Mist -2 1030 79 4500 1 0 17:36 26.01.2020
3644 Mist -2 1030 79 4500 1 60 17:18 26.01.2020
3645 Mist -2 1030 79 4500 1 60 16:55 26.01.2020
3646 Mist -2 1030 79 4500 1 60 16:55 26.01.2020
3647 Mist -2 1030 73 4500 1.17 349 16:37 26.01.2020
3648 Mist -1 1030 73 4500 1.17 349 16:18 26.01.2020
3649 Clouds 0 1024 63 0 1.17 349 15:43 26.01.2020
3650 Clouds 0 1024 64 0 1.17 349 15:21 26.01.2020
3651 Clouds 0 1025 65 0 1.17 349 14:56 26.01.2020
3652 Clouds 0 1025 65 0 1.17 349 14:38 26.01.2020
3653 Clouds 0 1025 63 0 0.95 359 14:18 26.01.2020
3654 Clouds 0 1025 61 0 0.95 359 13:39 26.01.2020
3655 Clouds 1 1025 61 0 1.04 356 13:18 26.01.2020
3656 Clouds 1 1025 59 0 1.04 356 12:54 26.01.2020
3657 Clouds 1 1025 59 0 1.04 356 12:36 26.01.2020
3658 Clouds 1 1025 58 0 1.04 356 12:18 26.01.2020
3659 Clouds 1 1025 56 0 1.04 356 11:56 26.01.2020
3660 Haze 1 1031 47 4500 1 0 11:36 26.01.2020
3661 Haze 1 1031 47 4500 1 0 11:18 26.01.2020
3662 Haze 2 1031 47 4500 1 0 10:39 26.01.2020
3663 Haze 2 1031 47 4500 1 0 10:21 26.01.2020
3664 Haze 3 1031 44 5000 1 0 09:59 26.01.2020
3665 Haze 3 1031 44 5000 1 0 09:41 26.01.2020
3666 Haze 4 1031 44 5000 1 0 09:22 26.01.2020
3667 Haze 4 1031 41 5000 1 0 08:55 26.01.2020
3668 Haze 4 1031 41 5000 1 0 08:37 26.01.2020
3669 Haze 4 1031 41 5000 1 0 08:18 26.01.2020
3670 Haze 4 1032 38 5000 1 0 07:45 26.01.2020
3671 Haze 4 1032 38 5000 2 150 07:45 26.01.2020
3672 Haze 4 1032 38 5000 2 150 07:22 26.01.2020
3673 Haze 5 1033 40 5000 1 0 06:34 26.01.2020
3674 Haze 4 1034 44 5000 1 0 05:52 26.01.2020
3675 Haze 2 1034 47 5000 1 0 05:22 26.01.2020
3676 Clear 1 1036 68 6000 1 0 03:22 26.01.2020
3677 Mist -1 1036 79 5000 2 350 02:23 26.01.2020
3678 Mist -5 1035 92 4000 1 50 01:40 26.01.2020
3679 Mist -5 1035 92 4000 1 50 01:20 26.01.2020
3680 Clear -5 1034 85 8000 1 70 00:40 26.01.2020
3681 Clear -5 1034 85 8000 1 70 00:20 26.01.2020
3682 Clear -3 1028 69 0 1.26 46 23:38 25.01.2020
3683 Clear -3 1028 67 0 1.36 24 23:20 25.01.2020
3684 Clear -3 1028 67 0 1.36 24 22:43 25.01.2020
3685 Clear -3 1028 66 0 1.36 24 22:21 25.01.2020
3686 Clear -3 1027 65 0 1.36 24 21:59 25.01.2020
3687 Clear -3 1027 65 0 1.36 24 21:59 25.01.2020
3688 Clear -2 1027 65 0 1.36 24 21:41 25.01.2020
3689 Clear -1 1034 49 0 1.36 24 21:22 25.01.2020
3690 Clear -1 1034 49 0 1.36 24 20:54 25.01.2020
3691 Clear -1 1034 49 0 1.36 24 20:36 25.01.2020
3692 Clear -2 1027 62 0 1.04 17 20:18 25.01.2020
3693 Clear -2 1027 62 0 1.04 17 19:41 25.01.2020
3694 Clear -1 1027 57 0 0.97 10 19:19 25.01.2020
3695 Clear -2 1027 57 0 0.97 10 18:56 25.01.2020
3696 Clear -3 1028 61 0 0.97 10 18:38 25.01.2020
3697 Clear -2 1027 57 0 0.97 10 18:20 25.01.2020
3698 Clear -2 1027 55 0 0.97 10 17:39 25.01.2020
3699 Clear -1 1028 55 0 1.3 4 17:19 25.01.2020
3700 Clear -1 1028 55 0 1.3 4 17:19 25.01.2020
3701 Clear -1 1028 56 0 1.45 352 16:56 25.01.2020
3702 Clear -1 1027 55 0 1.45 352 16:38 25.01.2020
3703 Clear 0 1028 58 0 1.45 352 16:19 25.01.2020
3704 Clear -1 1028 60 0 1.45 352 15:46 25.01.2020
3705 Clear -1 1028 59 0 1.45 352 15:25 25.01.2020
3706 Clear 0 1028 58 0 1.45 352 14:57 25.01.2020
3707 Clear 0 1028 57 0 1.45 352 14:39 25.01.2020
3708 Clear 1 1027 55 0 1.3 320 14:18 25.01.2020
3709 Clear 1 1027 54 0 1.3 320 13:41 25.01.2020
3710 Clear 1 1027 54 0 1.3 320 13:22 25.01.2020
3711 Clear 1 1027 54 0 1.3 320 13:22 25.01.2020
3712 Clear 1 1032 40 8000 2 240 12:43 25.01.2020
3713 Clear 1 1032 40 8000 2 240 12:23 25.01.2020
3714 Clear 2 1032 40 8000 2 240 11:45 25.01.2020
3715 Clear 3 1031 37 8000 1 0 11:22 25.01.2020
3716 Clear 3 1031 38 8000 2 250 10:58 25.01.2020
3717 Clear 3 1031 38 8000 2 0 10:40 25.01.2020
3718 Clear 4 1031 38 8000 2 0 10:20 25.01.2020
3719 Clear 5 1031 32 8000 1 0 09:41 25.01.2020
3720 Clear 5 1031 32 8000 1 0 09:22 25.01.2020
3721 Clear 5 1031 30 8000 2 310 08:44 25.01.2020
3722 Clear 5 1032 35 8000 2 0 08:26 25.01.2020
3723 Clear 5 1032 35 8000 2 0 07:49 25.01.2020
3724 Clear 6 1033 35 8000 2 280 06:51 25.01.2020
3725 Clear 6 1033 35 8000 2 360 06:28 25.01.2020
3726 Clear 5 1033 35 8000 2 350 05:47 25.01.2020
3727 Clear 1 1034 40 8000 3 360 04:50 25.01.2020
3728 Clear 3 1035 54 8000 5 360 03:51 25.01.2020
3729 Clear 0 1035 58 7000 4 330 02:57 25.01.2020
3730 Clear -2 1035 58 7000 3 330 02:20 25.01.2020
3731 Clear -4 1035 67 6000 4 330 01:43 25.01.2020
3732 Clear -5 1034 72 6000 3 350 00:44 25.01.2020
3733 Clear -5 1034 67 6000 2 330 00:26 25.01.2020
3734 Clear -5 1034 78 6000 2 340 23:57 24.01.2020
3735 Clear -5 1034 85 6000 1 340 23:39 24.01.2020
3736 Clear -5 1034 85 6000 1 340 23:39 24.01.2020
3737 Clear -5 1034 85 6000 1 340 23:21 24.01.2020
3738 Clear -5 1034 78 6000 2 340 22:44 24.01.2020
3739 Clear -5 1034 92 6000 2 360 22:25 24.01.2020
3740 Clear -5 1035 85 6000 1 20 21:43 24.01.2020
3741 Clear -6 1035 85 6000 1 20 21:21 24.01.2020
3742 Clear -5 1035 92 6000 1 360 20:59 24.01.2020
3743 Clear -5 1035 85 6000 1 0 20:40 24.01.2020
3744 Clear -4 1035 85 6000 1 0 20:20 24.01.2020
3745 Clear -6 1036 85 6000 0.09 257 19:57 24.01.2020
3746 Clear -5 1036 85 6000 0.09 257 19:57 24.01.2020
3747 Clear -5 1036 78 6000 1 30 19:38 24.01.2020
3748 Clear -5 1036 78 6000 1 30 19:38 24.01.2020
3749 Clear -5 1036 78 6000 1 30 19:20 24.01.2020
3750 Clear -5 1036 85 7000 1 20 18:43 24.01.2020
3751 Clear -3 1036 79 8000 0.09 257 18:24 24.01.2020
3752 Clear -4 1036 79 10000 2 90 17:54 24.01.2020
3753 Clear -3 1036 85 10000 1 100 17:36 24.01.2020
3754 Clear -4 1036 85 10000 1 100 17:18 24.01.2020
3755 Clear -2 1036 68 10000 1 60 16:39 24.01.2020
3756 Clear -2 1036 68 10000 1 60 16:20 24.01.2020
3757 Clear -2 1036 68 10000 1 0 15:43 24.01.2020
3758 Clear -1 1037 63 10000 2 140 15:22 24.01.2020
3759 Clear -1 1037 58 10000 2 130 14:58 24.01.2020
3760 Clear 0 1037 50 10000 3 130 14:40 24.01.2020
3761 Clouds -1 1037 50 10000 3 130 14:21 24.01.2020
3762 Clouds -1 1036 49 10000 1 0 13:43 24.01.2020
3763 Clouds -1 1036 45 10000 1 90 13:23 24.01.2020
3764 Clouds -1 1036 49 10000 1 90 12:44 24.01.2020
3765 Clouds 0 1036 38 10000 1 0 12:22 24.01.2020
3766 Clouds 0 1036 33 10000 2 110 11:57 24.01.2020
3767 Clouds 1 1036 40 10000 2 110 11:38 24.01.2020
3768 Clouds 1 1036 37 10000 2 110 11:18 24.01.2020
3769 Clouds 2 1036 22 10000 2 120 10:41 24.01.2020
3770 Clouds 3 1036 22 10000 2 120 10:19 24.01.2020
3771 Clouds 3 1036 21 10000 3 140 09:42 24.01.2020
3772 Clouds 3 1036 21 10000 3 140 09:42 24.01.2020
3773 Clouds 3 1036 21 10000 3 140 09:24 24.01.2020
3774 Clouds 3 1036 21 10000 3 140 09:00 24.01.2020
3775 Clouds 4 1036 19 10000 4 160 08:38 24.01.2020
3776 Clouds 4 1036 19 10000 4 160 08:18 24.01.2020
3777 Clouds 4 1036 19 10000 3 170 07:43 24.01.2020
3778 Clouds 4 1037 19 10000 4 180 07:22 24.01.2020
3779 Clouds 4 1037 19 10000 4 180 07:22 24.01.2020
3780 Clouds 4 1037 19 10000 4 170 06:43 24.01.2020
3781 Clouds 5 1038 18 10000 5 180 06:23 24.01.2020
3782 Clouds 5 1039 19 10000 4 190 05:22 24.01.2020
3783 Clouds 3 1040 26 10000 1 0 03:36 24.01.2020
3784 Clouds 1 1040 68 10000 1 40 02:40 24.01.2020
3785 Clouds -1 1040 68 10000 1 40 02:21 24.01.2020
3786 Clouds -3 1039 72 10000 1 0 01:39 24.01.2020
3787 Clouds -4 1039 67 10000 1.64 150 00:49 24.01.2020
3788 Clouds -3 1039 53 10000 2 150 00:19 24.01.2020
3789 Clouds -2 1038 46 10000 4 140 23:42 23.01.2020
3790 Clouds -1 1038 46 10000 4 140 23:22 23.01.2020
3791 Clouds -1 1038 42 10000 4 140 22:58 23.01.2020
3792 Clouds -2 1038 63 10000 4 120 22:37 23.01.2020
3793 Clouds -2 1038 63 10000 4 120 22:18 23.01.2020
3794 Clouds -4 1038 85 7000 2 90 21:55 23.01.2020
3795 Clouds -3 1038 85 7000 1 70 21:37 23.01.2020
3796 Clouds -3 1038 85 7000 1 70 21:19 23.01.2020
3797 Clouds -3 1038 92 8000 1 0 20:54 23.01.2020
3798 Clouds -3 1038 85 8000 1 30 20:36 23.01.2020
3799 Clear -3 1038 85 8000 1 30 20:18 23.01.2020
3800 Clear -3 1038 92 8000 1 0 19:42 23.01.2020
3801 Clear -2 1038 92 8000 1 0 19:23 23.01.2020
3802 Clear -3 1038 85 6000 1 0 18:57 23.01.2020
3803 Clear -3 1037 85 6000 1 20 18:38 23.01.2020
3804 Clear -2 1037 85 6000 1 20 18:19 23.01.2020
3805 Clear -2 1037 85 6000 1.33 188 17:45 23.01.2020
3806 Clear -2 1037 85 6000 2 360 17:21 23.01.2020
3807 Clear -1 1036 79 6000 1.18 131 16:59 23.01.2020
3808 Clear -1 1036 79 6000 1 0 16:39 23.01.2020
3809 Clear -1 1036 79 6000 1 0 16:20 23.01.2020
3810 Clear 0 1035 63 6000 1 30 15:58 23.01.2020
3811 Clear 1 1034 50 7000 2 120 15:39 23.01.2020
3812 Clear 1 1034 50 7000 2 120 15:19 23.01.2020
3813 Clear 1 1034 55 10000 2 110 14:58 23.01.2020
3814 Clear 2 1033 55 10000 6 140 14:40 23.01.2020
3815 Clear 2 1033 55 10000 6 140 14:22 23.01.2020
3816 Clear 0 1033 54 10000 3 110 13:55 23.01.2020
3817 Clear 1 1032 58 10000 1 0 13:36 23.01.2020
3818 Clear 1 1032 58 10000 1 0 13:18 23.01.2020
3819 Clear 2 1031 50 10000 1 0 12:42 23.01.2020
3820 Clear 2 1031 50 10000 1 0 12:24 23.01.2020
3821 Clear 1 1031 50 10000 1 360 11:56 23.01.2020
3822 Clear 3 1030 34 10000 1 40 11:37 23.01.2020
3823 Clear 4 1030 34 10000 1 40 11:18 23.01.2020
3824 Clear 6 1030 22 10000 1 40 10:41 23.01.2020
3825 Clear 7 1030 22 10000 1 40 10:19 23.01.2020
3826 Clear 8 1029 19 10000 2 40 09:42 23.01.2020
3827 Clear 9 1029 19 10000 2 40 09:23 23.01.2020
3828 Clear 9 1028 19 10000 3 30 08:57 23.01.2020
3829 Clear 9 1028 21 10000 3 50 08:38 23.01.2020
3830 Clear 9 1028 21 10000 3 50 08:20 23.01.2020
3831 Clear 9 1028 23 10000 3 50 07:42 23.01.2020
3832 Clear 9 1028 24 10000 4 20 07:24 23.01.2020
3833 Clear 10 1028 24 10000 2 0 06:46 23.01.2020
3834 Clear 10 1028 24 10000 2 0 06:19 23.01.2020
3835 Clear 7 1029 28 10000 4 20 04:58 23.01.2020
3836 Clear 6 1029 33 10000 4 360 04:21 23.01.2020
3837 Clear 2 1028 63 10000 2 10 02:31 23.01.2020
3838 Clear -2 1027 67 10000 2 20 00:56 23.01.2020
3839 Clear -2 1026 68 10000 3 330 00:26 23.01.2020
3840 Clear -3 1026 73 10000 2 330 23:47 22.01.2020
3841 Clear -3 1025 73 10000 3 330 23:29 22.01.2020
3842 Clear -3 1025 79 10000 2 350 22:56 22.01.2020
3843 Clear -3 1025 67 10000 3 340 22:38 22.01.2020
3844 Clear -3 1025 67 10000 3 340 22:20 22.01.2020
3845 Clear -4 1025 79 10000 1 0 21:39 22.01.2020
3846 Clear -3 1025 79 10000 1 0 21:21 22.01.2020
3847 Clear -4 1025 73 10000 2 330 20:56 22.01.2020
3848 Clear -3 1025 78 10000 3 350 20:36 22.01.2020
3849 Clear -3 1025 78 10000 3 350 20:18 22.01.2020
3850 Clear -4 1025 78 10000 2 360 19:55 22.01.2020
3851 Clear -3 1025 79 10000 2 340 19:37 22.01.2020
3852 Clear -2 1025 79 10000 2 340 19:18 22.01.2020
3853 Clear -3 1025 85 10000 1 0 18:55 22.01.2020
3854 Clear -4 1025 85 10000 1 0 18:37 22.01.2020
3855 Clear -4 1025 85 10000 1 0 18:18 22.01.2020
3856 Clear -2 1024 79 10000 1.4 4 17:40 22.01.2020
3857 Clear -2 1024 79 10000 1 40 17:21 22.01.2020
3858 Clear -3 1024 79 10000 1 40 16:58 22.01.2020
3859 Clear -2 1024 73 10000 1.06 344 16:39 22.01.2020
3860 Clear -2 1024 73 10000 1.06 344 16:21 22.01.2020
3861 Clear -2 1024 67 10000 1 0 15:55 22.01.2020
3862 Clear -2 1024 73 10000 1 30 15:37 22.01.2020
3863 Clear -1 1024 73 10000 1 30 15:18 22.01.2020
3864 Clear -2 1024 73 10000 1 0 14:39 22.01.2020
3865 Clear -1 1024 73 10000 1 0 14:20 22.01.2020
3866 Clear -1 1024 62 10000 1 0 13:58 22.01.2020
3867 Clear 0 1024 68 10000 1 0 13:38 22.01.2020
3868 Clear -1 1024 68 10000 1 0 13:19 22.01.2020
3869 Clear 1 1023 58 10000 0.93 328 12:57 22.01.2020
3870 Clear 0 1023 58 10000 1 0 12:39 22.01.2020
3871 Clear 1 1023 58 10000 1 0 12:19 22.01.2020
3872 Clear 0 1023 54 10000 1 160 11:58 22.01.2020
3873 Clear 1 1023 50 10000 0.93 328 11:39 22.01.2020
3874 Clear 1 1023 50 10000 0.61 236 11:19 22.01.2020
3875 Clear 1 1023 50 10000 0.61 236 11:19 22.01.2020
3876 Clear 3 1022 40 10000 0.61 236 10:54 22.01.2020
3877 Clear 3 1022 34 10000 1 30 10:36 22.01.2020
3878 Clear 4 1022 34 10000 1 30 10:18 22.01.2020
3879 Clear 6 1022 28 10000 1 0 09:41 22.01.2020
3880 Clear 6 1022 28 10000 1 0 09:23 22.01.2020
3881 Clear 6 1022 28 10000 1 0 08:56 22.01.2020
3882 Clear 5 1022 30 10000 3 180 08:37 22.01.2020
3883 Clear 6 1022 30 10000 3 180 08:19 22.01.2020
3884 Clear 6 1022 30 10000 3 180 08:19 22.01.2020
3885 Clear 6 1023 30 10000 3 180 07:45 22.01.2020
3886 Clear 5 1023 27 10000 1 0 07:27 22.01.2020
3887 Clear 7 1023 29 10000 1 0 06:38 22.01.2020
3888 Clear 7 1023 29 10000 1 0 06:19 22.01.2020
3889 Clear 3 1025 40 10000 4 320 04:27 22.01.2020
3890 Clear 2 1025 35 10000 4 320 03:29 22.01.2020
3891 Clear 0 1024 50 10000 4 330 02:49 22.01.2020
3892 Clear -3 1024 67 10000 5 350 01:30 22.01.2020
3893 Clear -3 1023 62 10000 3 330 00:40 22.01.2020
3894 Clear -4 1023 62 10000 3 330 00:19 22.01.2020
3895 Clear -4 1023 67 10000 4 330 23:37 21.01.2020
3896 Clear -4 1023 67 10000 4 330 23:37 21.01.2020
3897 Clear -4 1023 78 10000 3 330 23:19 21.01.2020
3898 Clear -4 1023 73 10000 2 330 22:42 21.01.2020
3899 Clear -4 1023 73 10000 2 330 22:24 21.01.2020
3900 Clear -4 1023 78 10000 2 330 21:59 21.01.2020
3901 Clear -4 1023 72 10000 3 330 21:39 21.01.2020
3902 Clear -5 1023 72 10000 3 330 21:21 21.01.2020
3903 Clear -4 1024 67 10000 2 310 20:58 21.01.2020
3904 Clear -4 1024 73 10000 2 320 20:39 21.01.2020
3905 Clear -3 1024 73 10000 2 320 20:20 21.01.2020
3906 Clear -3 1024 73 10000 2 330 19:58 21.01.2020
3907 Clear -3 1024 67 10000 3 350 19:39 21.01.2020
3908 Clear -3 1024 67 10000 3 350 19:21 21.01.2020
3909 Clear -4 1024 73 10000 2 340 18:57 21.01.2020
3910 Clear -4 1024 79 10000 1 40 18:39 21.01.2020
3911 Clear -4 1024 79 10000 1 40 18:20 21.01.2020
3912 Clear -4 1024 79 10000 1 10 17:57 21.01.2020
3913 Clear -3 1024 79 10000 1 50 17:38 21.01.2020
3914 Clouds -3 1024 79 10000 1 50 17:18 21.01.2020
3915 Clouds -3 1025 73 10000 1 10 16:38 21.01.2020
3916 Clouds -3 1025 73 10000 1 10 16:19 21.01.2020
3917 Clouds -3 1025 68 10000 1 0 15:59 21.01.2020
3918 Clouds -2 1025 63 10000 1.57 356 15:38 21.01.2020
3919 Clouds -2 1025 63 10000 1.57 356 15:19 21.01.2020
3920 Clouds -1 1024 63 10000 1 0 14:40 21.01.2020
3921 Clouds -1 1024 63 10000 1 0 14:21 21.01.2020
3922 Clouds -1 1024 58 10000 1.52 3 13:44 21.01.2020
3923 Clouds 0 1024 54 10000 1 160 13:21 21.01.2020
3924 Clouds 0 1024 38 10000 1 140 12:59 21.01.2020
3925 Clouds 1 1024 38 10000 2 150 12:41 21.01.2020
3926 Clouds 1 1024 38 10000 2 150 12:23 21.01.2020
3927 Clouds 1 1024 43 10000 2 150 11:56 21.01.2020
3928 Clouds 1 1023 40 10000 2 150 11:37 21.01.2020
3929 Clouds 2 1023 40 10000 2 150 11:18 21.01.2020
3930 Clouds 3 1023 34 10000 3 140 10:42 21.01.2020
3931 Clouds 3 1023 34 10000 3 140 10:22 21.01.2020
3932 Clouds 3 1023 34 10000 3 140 10:22 21.01.2020
3933 Clouds 3 1023 32 10000 3 150 09:55 21.01.2020
3934 Clouds 4 1023 29 10000 3 170 09:37 21.01.2020
3935 Clouds 4 1023 29 10000 3 170 09:18 21.01.2020
3936 Clouds 4 1023 27 10000 3 0 08:41 21.01.2020
3937 Clouds 5 1023 27 10000 3 0 08:21 21.01.2020
3938 Clouds 5 1024 27 10000 2 0 07:43 21.01.2020
3939 Clouds 5 1024 27 10000 2 0 07:43 21.01.2020
3940 Clouds 4 1024 32 10000 2 0 07:23 21.01.2020
3941 Clouds 4 1024 32 10000 1 0 06:57 21.01.2020
3942 Clouds 5 1025 34 10000 2 0 06:38 21.01.2020
3943 Clouds 5 1026 34 10000 1 0 05:53 21.01.2020
3944 Clouds 4 1026 37 10000 1 0 05:32 21.01.2020
3945 Clouds 1 1027 37 10000 1 0 04:37 21.01.2020
3946 Clouds -1 1027 62 10000 1 0 02:27 21.01.2020
3947 Clouds -5 1027 72 10000 0.8 37 01:36 21.01.2020
3948 Clouds -5 1027 67 10000 1 30 00:45 21.01.2020
3949 Clouds -7 1026 72 10000 1 60 00:25 21.01.2020
3950 Clouds -6 1026 66 10000 1 90 23:56 20.01.2020
3951 Clouds -6 1026 67 10000 1 0 23:36 20.01.2020
3952 Clear -6 1026 67 10000 1 0 23:18 20.01.2020
3953 Clear -5 1026 67 10000 1 0 22:40 20.01.2020
3954 Clear -5 1026 67 10000 1 0 22:21 20.01.2020
3955 Clear -5 1027 61 10000 1 0 21:58 20.01.2020
3956 Clear -5 1027 61 10000 1 0 21:58 20.01.2020
3957 Clear -5 1027 61 10000 1 0 21:38 20.01.2020
3958 Clear -5 1027 61 10000 1 0 21:20 20.01.2020
3959 Clear -5 1027 67 10000 1 40 20:58 20.01.2020
3960 Clear -4 1027 66 10000 1 50 20:39 20.01.2020
3961 Clear -4 1027 66 10000 1 50 20:20 20.01.2020
3962 Clear -5 1027 61 10000 1 0 19:58 20.01.2020
3963 Clear -4 1027 62 10000 1 0 19:40 20.01.2020
3964 Clear -4 1027 62 10000 1 0 19:19 20.01.2020
3965 Clear -4 1027 61 10000 2 120 18:54 20.01.2020
3966 Clear -3 1027 49 10000 2 150 18:36 20.01.2020
3967 Clear -3 1027 49 10000 2 150 18:18 20.01.2020
3968 Clear -1 1028 45 10000 2 140 17:38 20.01.2020
3969 Clear -1 1028 45 10000 2 140 17:19 20.01.2020
3970 Clear -2 1028 49 10000 2 150 16:45 20.01.2020
3971 Clear -2 1028 49 10000 2 160 16:25 20.01.2020
3972 Clear -2 1028 45 10000 1 0 15:58 20.01.2020
3973 Clear -2 1027 49 10000 2 120 15:40 20.01.2020
3974 Clear -2 1027 49 10000 2 120 15:21 20.01.2020
3975 Clear -2 1027 45 10000 1 0 14:56 20.01.2020
3976 Clear -1 1027 42 10000 1 120 14:37 20.01.2020
3977 Clear 0 1027 42 10000 1 120 14:19 20.01.2020
3978 Clear -2 1027 38 10000 1 150 13:42 20.01.2020
3979 Clear -2 1027 38 10000 1 150 13:23 20.01.2020
3980 Clear -2 1027 35 10000 1 140 12:56 20.01.2020
3981 Clear 0 1027 33 10000 2 160 12:38 20.01.2020
3982 Clear 0 1027 33 10000 2 160 12:19 20.01.2020
3983 Clear 2 1026 22 10000 2 130 11:43 20.01.2020
3984 Clear 2 1026 22 10000 2 130 11:24 20.01.2020
3985 Clear 3 1026 21 10000 2 120 10:57 20.01.2020
3986 Clear 3 1026 19 10000 2 100 10:39 20.01.2020
3987 Clear 4 1026 19 10000 2 100 10:20 20.01.2020
3988 Clear 5 1026 15 10000 3 90 09:41 20.01.2020
3989 Clear 5 1026 15 10000 3 90 09:22 20.01.2020
3990 Clear 5 1026 17 10000 2 110 08:51 20.01.2020
3991 Clear 5 1026 17 10000 3 60 08:31 20.01.2020
3992 Clear 6 1026 14 10000 1 0 07:55 20.01.2020
3993 Clear 6 1027 14 10000 2 320 07:31 20.01.2020
3994 Clear 6 1027 15 10000 2 10 06:59 20.01.2020
3995 Clear 6 1027 15 10000 2 10 06:59 20.01.2020
3996 Clear 6 1027 13 10000 4 320 06:34 20.01.2020
3997 Clear 5 1028 14 10000 4 310 05:49 20.01.2020
3998 Clear 6 1028 15 10000 6 320 05:30 20.01.2020
3999 Clear 6 1028 15 10000 6 320 05:30 20.01.2020
4000 Clear 3 1029 16 10000 8 320 04:58 20.01.2020
4001 Clear 4 1029 24 10000 4 320 03:30 20.01.2020
4002 Clear -1 1028 39 10000 4 350 01:58 20.01.2020
4003 Clear -2 1027 45 10000 3 30 01:38 20.01.2020
4004 Clear -2 1027 36 10000 1 0 00:46 20.01.2020
4005 Clear -1 1027 33 10000 5 310 00:26 20.01.2020
4006 Clear -1 1026 36 10000 5 330 23:54 19.01.2020
4007 Clear -2 1026 38 10000 3 350 23:36 19.01.2020
4008 Clear -2 1026 38 10000 3 350 23:18 19.01.2020
4009 Clear -2 1026 38 10000 3 350 23:18 19.01.2020
4010 Clear -1 1025 33 10000 6 310 22:54 19.01.2020
4011 Clear -1 1025 33 10000 5 300 22:36 19.01.2020
4012 Clear 0 1025 33 10000 5 300 22:18 19.01.2020
4013 Clear 0 1025 30 10000 6 300 21:54 19.01.2020
4014 Clear 0 1025 36 10000 5 310 21:36 19.01.2020
4015 Clear 0 1025 36 10000 5 310 21:36 19.01.2020
4016 Clear 0 1025 36 10000 5 310 21:18 19.01.2020
4017 Clear 0 1025 36 10000 4 300 20:54 19.01.2020
4018 Clear 0 1025 36 10000 4 300 20:36 19.01.2020
4019 Clear 0 1025 36 10000 4 300 20:18 19.01.2020
4020 Clear 0 1025 32 10000 4 290 19:54 19.01.2020
4021 Clear 0 1025 32 10000 5 300 19:36 19.01.2020
4022 Clear 0 1025 32 10000 5 300 19:18 19.01.2020
4023 Clear 0 1025 32 10000 5 290 18:54 19.01.2020
4024 Clear 1 1025 29 10000 5 300 18:36 19.01.2020
4025 Clear 1 1025 29 10000 5 300 18:36 19.01.2020
4026 Clear 1 1025 29 10000 5 300 18:18 19.01.2020
4027 Clear 1 1025 29 10000 5 300 17:56 19.01.2020
4028 Clear 2 1024 29 10000 5 290 17:37 19.01.2020
4029 Clear 2 1024 29 10000 5 290 17:18 19.01.2020
4030 Clear 2 1024 27 10000 5 290 16:54 19.01.2020
4031 Clear 2 1024 27 10000 5 290 16:54 19.01.2020
4032 Clear 2 1024 27 10000 5 290 16:36 19.01.2020
4033 Clear 2 1024 27 10000 5 290 16:18 19.01.2020
4034 Clear 3 1023 25 10000 7 300 15:41 19.01.2020
4035 Clear 3 1023 25 10000 7 300 15:22 19.01.2020
4036 Clear 3 1022 25 10000 5 290 14:59 19.01.2020
4037 Clear 1 1022 35 10000 2 290 14:40 19.01.2020
4038 Clear 2 1022 35 10000 2 290 14:19 19.01.2020
4039 Clear 1 1022 35 10000 1 0 13:58 19.01.2020
4040 Clear 0 1021 39 10000 1 0 13:39 19.01.2020
4041 Clear 0 1021 39 10000 1 0 13:21 19.01.2020
4042 Clear 3 1021 25 10000 3 270 12:58 19.01.2020
4043 Clear 3 1021 25 10000 3 270 12:58 19.01.2020
4044 Clear 2 1020 27 10000 3 230 12:40 19.01.2020
4045 Clear 2 1020 27 10000 3 230 12:21 19.01.2020
4046 Clear 2 1020 27 10000 4 180 11:57 19.01.2020
4047 Clear 3 1020 25 10000 4 190 11:37 19.01.2020
4048 Clear 4 1020 25 10000 4 190 11:18 19.01.2020
4049 Clear 4 1019 25 10000 5 200 10:39 19.01.2020
4050 Clear 4 1019 25 10000 5 200 10:20 19.01.2020
4051 Clear 5 1019 21 10000 4 200 09:57 19.01.2020
4052 Clear 5 1019 21 10000 4 200 09:57 19.01.2020
4053 Clear 5 1019 21 10000 5 200 09:38 19.01.2020
4054 Clear 5 1019 21 10000 5 200 09:19 19.01.2020
4055 Clear 5 1019 21 10000 5 190 08:55 19.01.2020
4056 Clear 6 1019 18 10000 5 200 08:32 19.01.2020
4057 Clear 6 1019 18 10000 4 220 07:54 19.01.2020
4058 Clear 6 1019 18 10000 4 0 07:28 19.01.2020
4059 Clear 6 1020 20 10000 4 210 06:55 19.01.2020
4060 Clear 7 1020 18 10000 5 220 06:22 19.01.2020
4061 Clear 5 1023 21 10000 9 320 03:55 19.01.2020
4062 Clear 2 1023 24 10000 4 300 02:33 19.01.2020
4063 Clear -4 1023 66 10000 1 0 01:39 19.01.2020
4064 Clear -3 1023 66 10000 1 0 01:20 19.01.2020
4065 Clear -3 1023 57 10000 2 270 00:44 19.01.2020
4066 Clear -3 1023 67 10000 1 0 00:21 19.01.2020
4067 Clear -4 1023 67 10000 1 0 23:47 18.01.2020
4068 Clear -3 1022 66 10000 1 160 23:25 18.01.2020
4069 Clear -3 1022 61 10000 1 0 22:59 18.01.2020
4070 Clear -3 1022 61 10000 2 20 22:41 18.01.2020
4071 Clear -2 1022 61 10000 2 20 22:21 18.01.2020
4072 Clear -1 1022 53 10000 1 80 21:58 18.01.2020
4073 Clear -1 1022 49 10000 3 310 21:38 18.01.2020
4074 Clear -1 1022 49 10000 3 310 21:20 18.01.2020
4075 Clear 0 1022 42 10000 4 300 20:56 18.01.2020
4076 Clear -1 1023 57 10000 2 340 20:38 18.01.2020
4077 Clouds -1 1023 57 10000 2 340 20:18 18.01.2020
4078 Clouds -1 1023 57 10000 1 0 19:43 18.01.2020
4079 Clouds -1 1023 57 10000 1 0 19:24 18.01.2020
4080 Clouds -2 1023 72 10000 1 130 18:43 18.01.2020
4081 Clouds -1 1023 79 10000 1 0 18:25 18.01.2020
4082 Clouds -1 1023 79 10000 1 0 18:25 18.01.2020
4083 Clouds -1 1023 67 10000 1 0 17:59 18.01.2020
4084 Clouds 0 1023 67 10000 1 0 17:40 18.01.2020
4085 Clouds -1 1023 67 10000 1 0 17:20 18.01.2020
4086 Mist -1 1023 67 5000 2 320 16:57 18.01.2020
4087 Mist -1 1023 85 3500 2 20 16:38 18.01.2020
4088 Mist -1 1023 85 3500 2 20 16:38 18.01.2020
4089 Mist -1 1023 85 3500 2 20 16:19 18.01.2020
4090 Mist 0 1022 85 2500 1 0 15:44 18.01.2020
4091 Mist 0 1022 79 2500 2 210 15:26 18.01.2020
4092 Mist -1 1022 79 2500 1 0 14:59 18.01.2020
4093 Mist -2 1022 74 2500 2 0 14:40 18.01.2020
4094 Mist -1 1022 74 2500 2 0 14:19 18.01.2020
4095 Mist -1 1022 79 2300 2 300 13:56 18.01.2020
4096 Mist -3 1021 85 2300 1 90 13:36 18.01.2020
4097 Mist -3 1021 85 2300 1 90 13:18 18.01.2020
4098 Mist -3 1021 85 2300 1 90 13:18 18.01.2020
4099 Mist -1 1021 79 2300 2 160 12:41 18.01.2020
4100 Mist -3 1021 79 2300 2 160 12:21 18.01.2020
4101 Mist -1 1021 73 2300 3 170 11:56 18.01.2020
4102 Mist -1 1021 74 2300 3 180 11:37 18.01.2020
4103 Mist -1 1021 74 2300 3 180 11:19 18.01.2020
4104 Haze -1 1020 74 2300 3 170 10:41 18.01.2020
4105 Haze -2 1020 74 2300 3 170 10:20 18.01.2020
4106 Haze -2 1020 74 2300 3 170 10:20 18.01.2020
4107 Haze -2 1020 74 2300 3 170 10:20 18.01.2020
4108 Haze -1 1020 74 2300 3 170 09:50 18.01.2020
4109 Haze 0 1020 48 2800 4 170 09:32 18.01.2020
4110 Haze 0 1020 55 2800 3 190 08:59 18.01.2020
4111 Haze 0 1020 55 2800 4 190 08:41 18.01.2020
4112 Haze 1 1020 55 2800 4 190 08:20 18.01.2020
4113 Haze 1 1021 55 2800 3 180 07:52 18.01.2020
4114 Haze 1 1021 50 2800 3 170 07:32 18.01.2020
4115 Haze 2 1022 47 2800 2 140 06:48 18.01.2020
4116 Haze 2 1022 47 3200 2 180 06:19 18.01.2020
4117 Clouds 1 1024 40 10000 2 200 05:30 18.01.2020
4118 Clouds 0 1025 54 10000 0.87 327 03:39 18.01.2020
4119 Clouds -2 1025 63 10000 1 0 02:20 18.01.2020
4120 Clouds -5 1025 72 10000 1 0 01:36 18.01.2020
4121 Clouds -5 1025 62 10000 1 0 00:38 18.01.2020
4122 Clouds -5 1025 62 10000 1 0 00:19 18.01.2020
4123 Clouds -6 1024 78 10000 2 350 23:44 17.01.2020
4124 Clear -6 1025 78 10000 1.51 2 23:20 17.01.2020
4125 Clear -6 1024 85 10000 1.51 2 22:59 17.01.2020
4126 Clear -5 1024 78 10000 1 0 22:40 17.01.2020
4127 Clear -6 1024 78 10000 1 0 22:19 17.01.2020
4128 Clear -5 1025 78 10000 1 330 21:42 17.01.2020
4129 Clear -5 1025 78 10000 1 330 21:24 17.01.2020
4130 Clear -5 1025 72 10000 2 340 20:59 17.01.2020
4131 Clear -5 1026 67 10000 3 350 20:40 17.01.2020
4132 Clear -5 1026 67 10000 3 350 20:20 17.01.2020
4133 Clear -5 1026 72 10000 2 350 19:57 17.01.2020
4134 Clear -4 1026 73 10000 3 350 19:38 17.01.2020
4135 Clear -4 1026 73 10000 3 350 19:19 17.01.2020
4136 Clear -4 1026 73 10000 2 340 18:57 17.01.2020
4137 Clear -4 1026 78 10000 2 360 18:37 17.01.2020
4138 Clear -4 1026 79 10000 2 350 18:19 17.01.2020
4139 Clear -3 1026 79 10000 1.32 352 17:40 17.01.2020
4140 Clear -3 1026 79 10000 1.32 352 17:40 17.01.2020
4141 Clear -3 1026 79 10000 1.1 348 17:21 17.01.2020
4142 Clear -3 1026 67 10000 1 0 16:55 17.01.2020
4143 Clear -3 1026 67 10000 1 0 16:36 17.01.2020
4144 Clear -3 1026 67 10000 1 0 16:18 17.01.2020
4145 Clear -2 1026 62 10000 1 0 15:43 17.01.2020
4146 Clear -2 1026 73 10000 1 10 15:25 17.01.2020
4147 Clear -1 1026 58 10000 1 0 14:44 17.01.2020
4148 Clear -1 1026 58 10000 1 0 14:25 17.01.2020
4149 Clear -1 1026 50 10000 1 0 13:56 17.01.2020
4150 Clear 1 1026 37 10000 2 230 13:37 17.01.2020
4151 Clear 1 1026 37 10000 2 230 13:18 17.01.2020
4152 Clear 0 1026 34 10000 3 190 12:42 17.01.2020
4153 Clear 0 1026 34 10000 3 190 12:21 17.01.2020
4154 Clear 0 1025 46 10000 1 0 11:38 17.01.2020
4155 Clear 1 1025 46 10000 1 0 11:18 17.01.2020
4156 Clear 2 1025 31 10000 1 0 10:43 17.01.2020
4157 Clear 2 1025 31 10000 1 0 10:23 17.01.2020
4158 Clear 3 1025 27 10000 1 0 09:58 17.01.2020
4159 Clear 4 1025 27 10000 1 0 09:39 17.01.2020
4160 Clear 3 1025 27 10000 1 0 09:19 17.01.2020
4161 Clear 4 1025 25 10000 1 0 08:43 17.01.2020
4162 Clear 4 1025 27 10000 1 0 08:24 17.01.2020
4163 Clouds 4 1025 25 10000 1 0 07:54 17.01.2020
4164 Clouds 4 1026 29 10000 1 0 07:31 17.01.2020
4165 Clouds 4 1026 29 10000 1 0 06:58 17.01.2020
4166 Clouds 4 1026 29 10000 1 0 06:58 17.01.2020
4167 Clouds 5 1026 31 10000 1 0 06:40 17.01.2020
4168 Clouds 4 1027 31 10000 1 0 05:53 17.01.2020
4169 Clouds 1 1023 46 0 0.79 338 03:39 17.01.2020
4170 Clouds 0 1023 50 0 0.79 338 02:52 17.01.2020
4171 Clouds -5 1023 52 0 1.05 360 01:47 17.01.2020
4172 Clouds -6 1023 53 0 1.05 360 01:29 17.01.2020
4173 Clouds -6 1023 56 0 1.06 360 00:50 17.01.2020
4174 Clouds -7 1028 78 10000 2 360 00:26 17.01.2020
4175 Clouds -7 1028 78 10000 2 360 23:44 16.01.2020
4176 Clouds -6 1028 78 10000 2 360 23:26 16.01.2020
4177 Clouds -5 1028 78 10000 2 340 22:57 16.01.2020
4178 Clouds -7 1028 85 10000 1 350 22:39 16.01.2020
4179 Clouds -7 1028 85 10000 1 350 22:20 16.01.2020
4180 Clouds -6 1028 85 10000 1 10 21:55 16.01.2020
4181 Clouds -6 1029 72 10000 2 360 21:36 16.01.2020
4182 Clouds -6 1029 72 10000 2 360 21:18 16.01.2020
4183 Clouds -5 1029 72 10000 1 10 20:41 16.01.2020
4184 Clouds -5 1029 72 10000 1 10 20:21 16.01.2020
4185 Clouds -5 1030 73 10000 2 360 19:59 16.01.2020
4186 Clouds -5 1030 79 10000 0.84 23 19:41 16.01.2020
4187 Clouds -5 1030 79 10000 0.84 23 19:22 16.01.2020
4188 Clouds -5 1030 79 10000 0.84 23 19:22 16.01.2020
4189 Clouds -5 1030 79 10000 0.84 23 19:22 16.01.2020
4190 Clouds -5 1030 79 10000 1 40 18:57 16.01.2020
4191 Clouds -4 1030 73 10000 2 70 18:38 16.01.2020
4192 Clouds -4 1030 73 10000 2 70 18:20 16.01.2020
4193 Clouds -4 1030 67 10000 1 30 17:59 16.01.2020
4194 Clouds -4 1030 72 10000 1 40 17:40 16.01.2020
4195 Clouds -5 1030 72 10000 1 40 17:20 16.01.2020
4196 Clouds -5 1030 73 10000 1 60 16:42 16.01.2020
4197 Clouds -5 1030 73 10000 1 60 16:24 16.01.2020
4198 Clouds -4 1030 67 10000 1 0 15:59 16.01.2020
4199 Clouds -3 1030 62 10000 0.39 2 15:39 16.01.2020
4200 Clouds -4 1030 62 10000 0.39 2 15:20 16.01.2020
4201 Clouds -4 1030 67 10000 0.39 2 14:45 16.01.2020
4202 Clouds -4 1030 62 10000 0.39 2 14:24 16.01.2020
4203 Clouds -3 1031 62 10000 1 0 13:56 16.01.2020
4204 Clouds -4 1031 62 10000 1 0 13:37 16.01.2020
4205 Clouds -3 1031 62 10000 1 0 13:19 16.01.2020
4206 Clouds -3 1031 62 10000 1 0 13:19 16.01.2020
4207 Clouds -3 1031 49 10000 0.17 29 12:42 16.01.2020
4208 Clouds -2 1031 49 10000 0.17 29 12:22 16.01.2020
4209 Clouds -2 1031 45 10000 0.17 29 11:43 16.01.2020
4210 Clouds -2 1030 42 10000 0.17 29 11:25 16.01.2020
4211 Clouds -1 1030 39 10000 1 90 10:59 16.01.2020
4212 Clouds -1 1030 27 10000 1 0 10:38 16.01.2020
4213 Clouds 0 1030 27 10000 1 0 10:20 16.01.2020
4214 Clouds 0 1030 27 10000 1 70 09:56 16.01.2020
4215 Clouds 1 1030 29 10000 2 60 09:37 16.01.2020
4216 Clouds 1 1030 29 10000 2 60 09:19 16.01.2020
4217 Clouds 1 1030 29 10000 1 0 08:49 16.01.2020
4218 Clouds 1 1030 26 10000 1 0 08:29 16.01.2020
4219 Clouds 1 1030 26 10000 1 0 07:57 16.01.2020
4220 Clouds 1 1031 24 10000 1 0 07:37 16.01.2020
4221 Clouds 1 1031 24 10000 1 0 07:18 16.01.2020
4222 Clouds 3 1031 24 10000 1 0 06:42 16.01.2020
4223 Clouds 1 1032 26 10000 2 30 05:58 16.01.2020
4224 Clouds 2 1032 26 10000 2 20 05:40 16.01.2020
4225 Clouds -1 1033 32 10000 2 10 04:37 16.01.2020
4226 Clouds -1 1033 32 10000 2 10 04:37 16.01.2020
4227 Clouds 1 1033 30 10000 4 30 03:28 16.01.2020
4228 Clouds -1 1033 33 10000 5 10 02:42 16.01.2020
4229 Clouds -5 1032 38 10000 4 10 00:53 16.01.2020
4230 Clouds -5 1032 38 10000 4 360 00:24 16.01.2020
4231 Clouds -4 1031 35 10000 5 10 23:48 15.01.2020
4232 Clouds -4 1031 38 10000 5 20 23:23 15.01.2020
4233 Clouds -4 1031 38 10000 5 20 23:23 15.01.2020
4234 Clear -5 1031 38 10000 5 20 22:57 15.01.2020
4235 Clear -3 1030 38 10000 5 20 22:39 15.01.2020
4236 Clear -4 1031 36 10000 4 20 22:19 15.01.2020
4237 Clear -4 1031 36 10000 4 20 21:57 15.01.2020
4238 Clear -4 1031 36 10000 4 20 21:57 15.01.2020
4239 Clear -4 1031 42 10000 4 20 21:38 15.01.2020
4240 Clear -4 1031 62 10000 3 350 21:20 15.01.2020
4241 Clear -5 1031 62 10000 3 350 20:58 15.01.2020
4242 Clear -5 1031 62 10000 3 350 20:58 15.01.2020
4243 Clear -4 1031 67 10000 3 340 20:40 15.01.2020
4244 Clouds -4 1031 67 10000 3 340 20:20 15.01.2020
4245 Clouds -5 1031 66 10000 4 340 19:55 15.01.2020
4246 Clouds -5 1031 67 10000 4 340 19:37 15.01.2020
4247 Clouds -5 1031 67 10000 4 340 19:19 15.01.2020
4248 Clouds -4 1031 62 10000 4 340 18:57 15.01.2020
4249 Clouds -4 1031 67 10000 4 350 18:38 15.01.2020
4250 Clouds -4 1031 67 10000 4 350 18:20 15.01.2020
4251 Clouds -4 1031 67 10000 2 350 17:58 15.01.2020
4252 Clouds -4 1031 67 10000 2 360 17:38 15.01.2020
4253 Clouds -4 1031 67 10000 2 360 17:20 15.01.2020
4254 Clouds -4 1031 67 10000 1 60 16:42 15.01.2020
4255 Clouds -3 1031 67 10000 1 60 16:23 15.01.2020
4256 Clouds -3 1031 62 10000 1 0 15:59 15.01.2020
4257 Clouds -3 1031 57 10000 1.68 330 15:41 15.01.2020
4258 Clouds -3 1031 57 10000 1.68 330 15:20 15.01.2020
4259 Clouds -3 1031 57 10000 1 0 14:44 15.01.2020
4260 Clouds -3 1030 57 10000 1 0 14:21 15.01.2020
4261 Clouds -2 1030 29 10000 2 270 13:56 15.01.2020
4262 Clouds -3 1030 58 10000 1.09 281 13:38 15.01.2020
4263 Clouds -2 1030 49 10000 1 0 13:19 15.01.2020
4264 Clouds 0 1030 34 10000 3 200 12:41 15.01.2020
4265 Clouds 0 1030 34 10000 3 200 12:20 15.01.2020
4266 Clouds -1 1030 30 10000 3 190 11:59 15.01.2020
4267 Clouds -1 1029 45 10000 2 160 11:38 15.01.2020
4268 Clear -1 1029 45 10000 2 160 11:19 15.01.2020
4269 Clear 0 1029 42 10000 1 0 10:46 15.01.2020
4270 Clear 0 1029 39 10000 1 0 10:28 15.01.2020
4271 Clear 1 1029 29 10000 1 0 09:55 15.01.2020
4272 Clear 2 1029 27 10000 1 0 09:37 15.01.2020
4273 Clear 2 1029 27 10000 1 0 09:19 15.01.2020
4274 Clear 2 1029 24 10000 1 0 08:41 15.01.2020
4275 Clouds 2 1029 24 10000 1 0 08:23 15.01.2020
4276 Clouds 3 1029 27 10000 2 330 07:54 15.01.2020
4277 Clouds 3 1029 24 10000 2 300 07:32 15.01.2020
4278 Clouds 4 1029 24 10000 2 300 06:48 15.01.2020
4279 Clouds 3 1030 27 10000 1 0 06:23 15.01.2020
4280 Clear -1 1031 42 10000 2 300 04:45 15.01.2020
4281 Clear -3 1031 62 10000 3 350 02:39 15.01.2020
4282 Clear -6 1031 62 10000 3 330 01:43 15.01.2020
4283 Clear -7 1031 66 10000 3 340 01:20 15.01.2020
4284 Clear -8 1031 72 10000 3 340 00:36 15.01.2020
4285 Clear -8 1031 72 10000 3 340 00:18 15.01.2020
4286 Clear -8 1031 72 10000 3 350 23:45 14.01.2020
4287 Clear -8 1031 78 10000 2 350 23:24 14.01.2020
4288 Clear -9 1030 78 10000 2 350 22:54 14.01.2020
4289 Clear -8 1031 72 10000 3 340 22:36 14.01.2020
4290 Clear -8 1031 72 10000 3 340 22:18 14.01.2020
4291 Clear -8 1031 78 10000 2 340 21:55 14.01.2020
4292 Clear -8 1030 78 10000 2 360 21:36 14.01.2020
4293 Clear -8 1030 78 10000 2 360 21:18 14.01.2020
4294 Clear -8 1030 78 10000 2 360 21:18 14.01.2020
4295 Clear -9 1031 85 10000 1 20 20:41 14.01.2020
4296 Clouds -8 1031 85 10000 1 20 20:21 14.01.2020
4297 Clouds -8 1031 72 10000 0.98 46 19:56 14.01.2020
4298 Clouds -8 1031 72 10000 0.98 46 19:56 14.01.2020
4299 Clouds -8 1031 72 10000 0.98 46 19:38 14.01.2020
4300 Clouds -8 1031 72 10000 0.98 46 19:19 14.01.2020
4301 Clouds -8 1031 72 10000 1 0 18:56 14.01.2020
4302 Clouds -7 1031 78 10000 1 0 18:38 14.01.2020
4303 Clouds -7 1031 78 10000 1 0 18:19 14.01.2020
4304 Clouds -7 1031 72 10000 1 60 17:39 14.01.2020
4305 Clouds -6 1031 72 10000 1 60 17:19 14.01.2020
4306 Clouds -6 1031 66 10000 1 0 16:57 14.01.2020
4307 Clouds -6 1030 66 10000 1 60 16:38 14.01.2020
4308 Clouds -6 1030 66 10000 1 60 16:20 14.01.2020
4309 Clouds -5 1031 57 10000 1 0 15:54 14.01.2020
4310 Clouds -6 1030 62 10000 1 0 15:36 14.01.2020
4311 Clouds -5 1030 62 10000 1 0 15:18 14.01.2020
4312 Clouds -5 1030 61 10000 1 0 14:41 14.01.2020
4313 Clouds -4 1030 61 10000 1 0 14:20 14.01.2020
4314 Clouds -5 1030 48 10000 2 180 13:42 14.01.2020
4315 Clouds -3 1030 45 10000 1 140 13:20 14.01.2020
4316 Clouds -3 1030 45 10000 1 0 12:57 14.01.2020
4317 Clouds -2 1030 38 10000 1 0 12:39 14.01.2020
4318 Clouds -2 1030 38 10000 1 0 12:20 14.01.2020
4319 Clouds -2 1030 38 10000 1 0 12:20 14.01.2020
4320 Clouds -2 1029 38 10000 1 100 11:42 14.01.2020
4321 Clouds -2 1029 38 10000 1 100 11:23 14.01.2020
4322 Clouds -1 1029 33 10000 1 90 10:57 14.01.2020
4323 Clouds 0 1029 33 10000 2 110 10:38 14.01.2020
4324 Clouds 0 1029 33 10000 2 110 10:19 14.01.2020
4325 Clouds 0 1029 33 10000 1 80 09:56 14.01.2020
4326 Clouds 1 1029 28 10000 1 0 09:38 14.01.2020
4327 Clouds 1 1029 28 10000 1 0 09:19 14.01.2020
4328 Clouds 1 1029 20 10000 2 0 08:41 14.01.2020
4329 Clouds 1 1029 20 10000 2 0 08:23 14.01.2020
4330 Clear 1 1029 25 10000 2 0 07:53 14.01.2020
4331 Clear 1 1029 25 10000 1 0 07:26 14.01.2020
4332 Clear 2 1029 25 10000 2 180 06:50 14.01.2020
4333 Clear 2 1030 25 10000 2 320 06:23 14.01.2020
4334 Clear -1 1032 33 10000 2 20 04:58 14.01.2020
4335 Clear 0 1032 32 10000 4 20 03:48 14.01.2020
4336 Clear -3 1032 38 10000 4 20 02:41 14.01.2020
4337 Clear -6 1031 44 10000 4 20 01:35 14.01.2020
4338 Clear -6 1031 44 10000 5 20 00:49 14.01.2020
4339 Clear -6 1031 41 10000 5 30 00:27 14.01.2020
4340 Clear -6 1030 41 10000 5 30 23:48 13.01.2020
4341 Clear -6 1030 41 10000 5 30 23:19 13.01.2020
4342 Clear -6 1030 41 10000 5 30 22:59 13.01.2020
4343 Clear -6 1030 44 10000 4 20 22:40 13.01.2020
4344 Clear -6 1030 44 10000 4 20 22:20 13.01.2020
4345 Clear -6 1030 44 10000 3 20 21:56 13.01.2020
4346 Clear -6 1030 48 10000 3 10 21:37 13.01.2020
4347 Clear -6 1030 48 10000 3 10 21:18 13.01.2020
4348 Clear -6 1030 48 10000 3 10 20:57 13.01.2020
4349 Clear -6 1030 48 10000 3 10 20:57 13.01.2020
4350 Clear -5 1030 48 10000 3 10 20:38 13.01.2020
4351 Clear -5 1030 48 10000 3 10 20:20 13.01.2020
4352 Clear -5 1030 52 10000 3 10 19:56 13.01.2020
4353 Clear -5 1030 47 10000 3 10 19:37 13.01.2020
4354 Clear -5 1030 47 10000 3 10 19:18 13.01.2020
4355 Clear -5 1030 48 10000 3 360 18:55 13.01.2020
4356 Clear -4 1030 44 10000 3 10 18:36 13.01.2020
4357 Clear -4 1030 44 10000 3 10 18:18 13.01.2020
4358 Clear -5 1030 48 10000 3 360 17:40 13.01.2020
4359 Clear -5 1030 48 10000 3 360 17:22 13.01.2020
4360 Clear -4 1030 48 10000 3 360 16:56 13.01.2020
4361 Clear -3 1024 41 0 3.79 345 16:37 13.01.2020
4362 Clear -3 1024 39 0 3.79 345 16:19 13.01.2020
4363 Clear -3 1024 40 0 3.79 345 15:43 13.01.2020
4364 Clear -2 1023 39 0 0.45 0 15:23 13.01.2020
4365 Clear -2 1023 39 0 3.79 345 14:58 13.01.2020
4366 Clear -2 1023 37 0 0.45 315 14:38 13.01.2020
4367 Clear -2 1023 37 0 0.45 315 14:19 13.01.2020
4368 Clear -2 1023 37 0 4.46 334 13:42 13.01.2020
4369 Clear -1 1022 37 0 4.8 333 13:24 13.01.2020
4370 Clear -1 1027 30 10000 6 300 12:59 13.01.2020
4371 Clear -1 1027 30 10000 6 300 12:41 13.01.2020
4372 Clear -1 1027 30 10000 6 300 12:22 13.01.2020
4373 Clear -1 1027 30 10000 6 300 11:57 13.01.2020
4374 Clear -1 1027 30 10000 6 300 11:37 13.01.2020
4375 Clear -1 1027 30 10000 6 300 11:19 13.01.2020
4376 Clear -1 1026 28 10000 5 300 10:55 13.01.2020
4377 Clear -1 1026 26 10000 6 300 10:37 13.01.2020
4378 Clear 0 1026 22 10000 6 300 10:19 13.01.2020
4379 Clear 0 1026 20 10000 7 310 09:43 13.01.2020
4380 Clear 1 1026 20 10000 7 310 09:23 13.01.2020
4381 Clear 1 1026 20 10000 6 300 08:56 13.01.2020
4382 Clear 1 1025 20 10000 6 290 08:36 13.01.2020
4383 Clear 0 1025 20 10000 6 290 08:18 13.01.2020
4384 Clear 0 1025 19 10000 7 330 07:42 13.01.2020
4385 Clear 0 1025 19 10000 7 330 07:21 13.01.2020
4386 Clear 1 1026 20 10000 5 340 06:37 13.01.2020
4387 Clear 1 1026 20 10000 5 340 06:37 13.01.2020
4388 Clear 0 1027 28 10000 6 290 05:37 13.01.2020
4389 Clear -1 1027 30 10000 5 300 04:56 13.01.2020
4390 Clear -3 1028 38 10000 5 340 03:38 13.01.2020
4391 Clear -3 1028 38 10000 5 360 02:49 13.01.2020
4392 Clear -3 1028 45 10000 5 350 02:30 13.01.2020
4393 Clear -3 1028 45 10000 5 350 02:30 13.01.2020
4394 Clear -3 1028 45 10000 5 350 02:30 13.01.2020
4395 Clear -5 1027 57 10000 5 350 01:33 13.01.2020
4396 Clear -6 1027 56 10000 5 350 00:44 13.01.2020
4397 Clear -6 1027 56 10000 5 350 00:26 13.01.2020
4398 Clear -6 1026 61 10000 5 350 23:57 12.01.2020
4399 Clear -6 1026 57 10000 5 350 23:39 12.01.2020
4400 Clear -6 1026 57 10000 5 350 23:21 12.01.2020
4401 Clear -6 1026 61 10000 3 360 22:56 12.01.2020
4402 Clear -6 1026 52 10000 3 360 22:37 12.01.2020
4403 Clear -5 1026 52 10000 3 360 22:18 12.01.2020
4404 Clear -6 1026 61 10000 4 350 21:42 12.01.2020
4405 Clear -6 1026 61 10000 4 350 21:20 12.01.2020
4406 Clear -5 1026 56 10000 4 340 20:59 12.01.2020
4407 Clear -5 1026 52 10000 4 360 20:39 12.01.2020
4408 Clear -5 1026 52 10000 4 360 20:21 12.01.2020
4409 Clear -4 1026 44 10000 4 340 19:56 12.01.2020
4410 Clear -4 1025 44 10000 3 360 19:38 12.01.2020
4411 Clear -4 1025 44 10000 3 360 19:38 12.01.2020
4412 Clear -4 1025 44 10000 3 360 19:19 12.01.2020
4413 Clear -4 1025 48 10000 4 360 18:58 12.01.2020
4414 Clear -4 1025 52 10000 4 350 18:40 12.01.2020
4415 Clear -4 1025 52 10000 4 350 18:21 12.01.2020
4416 Clear -3 1025 48 10000 5 340 17:58 12.01.2020
4417 Clear -3 1025 53 10000 4 340 17:40 12.01.2020
4418 Clear -3 1025 53 10000 4 340 17:19 12.01.2020
4419 Clear -3 1026 45 10000 4 340 16:56 12.01.2020
4420 Clear -2 1026 42 10000 5 330 16:37 12.01.2020
4421 Clear -2 1026 42 10000 5 330 16:19 12.01.2020
4422 Clear -3 1025 45 10000 4 330 15:43 12.01.2020
4423 Clear -2 1025 45 10000 4 330 15:24 12.01.2020
4424 Clear -1 1025 30 10000 7 330 14:57 12.01.2020
4425 Clear -1 1025 36 10000 5 330 14:38 12.01.2020
4426 Clear -1 1025 36 10000 5 330 14:20 12.01.2020
4427 Clear -2 1025 57 10000 4 340 13:54 12.01.2020
4428 Clear -2 1024 58 10000 1 0 13:36 12.01.2020
4429 Clear -2 1024 58 10000 1 0 13:18 12.01.2020
4430 Clear -2 1024 58 10000 1 0 13:18 12.01.2020
4431 Clear -2 1024 58 10000 1 0 13:18 12.01.2020
4432 Clear -2 1024 49 10000 1 0 12:43 12.01.2020
4433 Clear -1 1024 49 10000 1 0 12:21 12.01.2020
4434 Clear -1 1024 53 10000 1 0 11:59 12.01.2020
4435 Clear -1 1024 49 10000 1 70 11:39 12.01.2020
4436 Clear -1 1024 49 10000 1 70 11:21 12.01.2020
4437 Clear 0 1024 42 10000 1 80 10:42 12.01.2020
4438 Clear 1 1024 42 10000 1 80 10:22 12.01.2020
4439 Clear 2 1023 31 10000 1 0 09:59 12.01.2020
4440 Clear 2 1023 29 10000 1 0 09:41 12.01.2020
4441 Clear 2 1023 29 10000 1 0 09:20 12.01.2020
4442 Clear 2 1023 29 10000 1 0 08:45 12.01.2020
4443 Clear 3 1023 29 10000 2 20 08:21 12.01.2020
4444 Clouds 2 1023 29 10000 1 0 07:44 12.01.2020
4445 Clouds 3 1023 27 10000 1 0 07:25 12.01.2020
4446 Clouds 3 1024 27 10000 2 360 06:50 12.01.2020
4447 Clouds 3 1024 29 10000 2 0 06:32 12.01.2020
4448 Clouds 3 1025 35 10000 3 40 05:47 12.01.2020
4449 Clouds 0 1026 43 10000 3 20 04:52 12.01.2020
4450 Clouds 1 1027 36 10000 2 20 03:29 12.01.2020
4451 Clouds -2 1026 45 10000 3 10 02:34 12.01.2020
4452 Clouds -2 1026 45 10000 3 10 02:34 12.01.2020
4453 Clouds -4 1026 62 10000 1 360 01:58 12.01.2020
4454 Clouds -5 1026 62 10000 1 360 01:30 12.01.2020
4455 Clouds -5 1025 57 10000 1 20 00:44 12.01.2020
4456 Clouds -5 1025 53 10000 1 20 00:21 12.01.2020
4457 Clouds -5 1025 57 10000 1 0 23:56 11.01.2020
4458 Clouds -5 1025 67 10000 1 0 23:37 11.01.2020
4459 Clouds -5 1025 67 10000 1 0 23:18 11.01.2020
4460 Clouds -5 1025 62 10000 3 340 22:56 11.01.2020
4461 Clouds -5 1025 62 10000 2 340 22:37 11.01.2020
4462 Clouds -5 1025 62 10000 2 340 22:18 11.01.2020
4463 Clouds -4 1025 62 10000 2 340 21:42 11.01.2020
4464 Clouds -4 1025 62 10000 2 340 21:18 11.01.2020
4465 Clouds -4 1025 67 10000 2 340 20:55 11.01.2020
4466 Clouds -5 1025 67 10000 1 10 20:37 11.01.2020
4467 Clouds -4 1025 67 10000 1 10 20:18 11.01.2020
4468 Clouds -4 1026 57 10000 2 350 19:54 11.01.2020
4469 Clouds -4 1025 49 10000 3 360 19:36 11.01.2020
4470 Clouds -3 1025 49 10000 3 360 19:18 11.01.2020
4471 Clouds -3 1025 53 10000 1 350 18:54 11.01.2020
4472 Clouds -3 1025 53 10000 2 350 18:36 11.01.2020
4473 Clouds -3 1025 53 10000 2 350 18:18 11.01.2020
4474 Clouds -3 1026 49 10000 2 360 17:54 11.01.2020
4475 Clouds -2 1026 46 10000 2 360 17:36 11.01.2020
4476 Clouds -2 1026 46 10000 2 360 17:18 11.01.2020
4477 Clouds -2 1026 46 10000 2 350 16:41 11.01.2020
4478 Clouds -2 1026 46 10000 2 350 16:22 11.01.2020
4479 Clouds -1 1027 46 10000 2 330 15:42 11.01.2020
4480 Clouds -1 1027 46 10000 2 330 15:23 11.01.2020
4481 Clouds -1 1026 46 10000 2 340 14:58 11.01.2020
4482 Clouds -1 1027 39 10000 3 310 14:40 11.01.2020
4483 Clouds -1 1027 39 10000 3 310 14:21 11.01.2020
4484 Clouds -1 1027 36 10000 3 310 13:55 11.01.2020
4485 Clouds -1 1027 36 10000 3 310 13:55 11.01.2020
4486 Clouds -1 1026 39 10000 2 320 13:36 11.01.2020
4487 Clouds -1 1026 39 10000 2 320 13:18 11.01.2020
4488 Clouds -1 1026 42 10000 2 340 12:42 11.01.2020
4489 Clouds -1 1026 42 10000 2 340 12:24 11.01.2020
4490 Clouds -1 1026 42 10000 2 350 11:54 11.01.2020
4491 Clouds -1 1026 42 10000 1 360 11:36 11.01.2020
4492 Clouds -1 1026 42 10000 1 360 11:18 11.01.2020
4493 Clouds -1 1026 39 10000 2 20 10:42 11.01.2020
4494 Clouds -1 1026 39 10000 2 20 10:23 11.01.2020
4495 Clouds 0 1026 39 10000 2 40 09:39 11.01.2020
4496 Clouds 0 1026 39 10000 2 40 09:21 11.01.2020
4497 Clouds 0 1026 36 10000 3 30 08:43 11.01.2020
4498 Clouds 0 1026 36 10000 3 30 08:22 11.01.2020
4499 Clouds 0 1026 36 10000 3 30 07:44 11.01.2020
4500 Clouds 0 1026 36 10000 3 40 07:26 11.01.2020
4501 Clouds 1 1027 36 10000 3 20 06:55 11.01.2020
4502 Clouds 1 1027 36 10000 3 10 06:19 11.01.2020
4503 Clouds -1 1029 36 10000 3 10 04:48 11.01.2020
4504 Clouds -1 1029 33 10000 4 10 04:29 11.01.2020
4505 Clouds -1 1029 39 10000 3 10 03:49 11.01.2020
4506 Clouds -2 1029 42 10000 4 20 02:41 11.01.2020
4507 Clouds -3 1029 38 10000 5 20 01:44 11.01.2020
4508 Clouds -3 1028 41 10000 5 20 01:20 11.01.2020
4509 Clouds -3 1028 41 10000 5 10 00:44 11.01.2020
4510 Clouds -4 1028 45 10000 5 10 00:20 11.01.2020
4511 Clouds -4 1028 45 10000 4 20 23:41 10.01.2020
4512 Clouds -4 1028 45 10000 4 20 23:22 10.01.2020
4513 Clouds -4 1028 45 10000 4 30 22:59 10.01.2020
4514 Clouds -3 1028 45 10000 5 20 22:40 10.01.2020
4515 Clouds -3 1028 45 10000 5 20 22:21 10.01.2020
4516 Clouds -3 1028 49 10000 5 10 21:58 10.01.2020
4517 Clouds -3 1028 45 10000 4 10 21:39 10.01.2020
4518 Clouds -3 1028 45 10000 4 10 21:19 10.01.2020
4519 Clouds -3 1028 49 10000 3 360 20:55 10.01.2020
4520 Clouds -3 1029 53 10000 3 350 20:37 10.01.2020
4521 Clouds -3 1029 53 10000 3 350 20:18 10.01.2020
4522 Clouds -2 1028 49 10000 5 350 19:39 10.01.2020
4523 Clouds -2 1028 49 10000 5 350 19:20 10.01.2020
4524 Clouds -2 1028 45 10000 4 350 18:44 10.01.2020
4525 Clouds -1 1028 39 10000 6 320 18:20 10.01.2020
4526 Clouds 0 1028 39 10000 5 310 17:58 10.01.2020
4527 Clouds 0 1028 39 10000 5 310 17:40 10.01.2020
4528 Clouds 0 1028 39 10000 5 310 17:21 10.01.2020
4529 Clouds 0 1028 44 10000 6 300 16:59 10.01.2020
4530 Clouds 0 1028 44 10000 5 310 16:41 10.01.2020
4531 Clouds 0 1028 44 10000 5 310 16:21 10.01.2020
4532 Clouds 1 1028 29 10000 6 310 15:56 10.01.2020
4533 Clouds 1 1027 29 10000 7 310 15:37 10.01.2020
4534 Clouds 1 1027 29 10000 7 310 15:19 10.01.2020
4535 Clouds 1 1027 29 10000 8 310 14:56 10.01.2020
4536 Clouds 2 1026 24 10000 8 310 14:38 10.01.2020
4537 Clouds 2 1026 24 10000 8 310 14:19 10.01.2020
4538 Clouds 2 1026 23 10000 8 310 13:45 10.01.2020
4539 Clear 3 1026 23 10000 8 310 13:27 10.01.2020
4540 Clear 3 1026 27 10000 7 300 12:59 10.01.2020
4541 Clear 3 1025 27 10000 6 290 12:40 10.01.2020
4542 Clear 3 1025 27 10000 6 290 12:21 10.01.2020
4543 Clear 4 1025 25 10000 6 290 11:58 10.01.2020
4544 Clear 2 1025 31 10000 4 330 11:40 10.01.2020
4545 Clear 3 1025 31 10000 4 330 11:21 10.01.2020
4546 Clear 3 1024 25 10000 6 280 10:59 10.01.2020
4547 Clear 4 1024 23 10000 6 280 10:38 10.01.2020
4548 Clear 4 1024 23 10000 6 280 10:19 10.01.2020
4549 Clear 5 1024 23 10000 7 280 09:46 10.01.2020
4550 Clear 5 1024 23 10000 6 270 09:26 10.01.2020
4551 Clear 5 1024 23 10000 7 280 08:58 10.01.2020
4552 Clear 6 1024 22 10000 7 270 08:38 10.01.2020
4553 Clear 6 1024 22 10000 7 270 08:20 10.01.2020
4554 Clear 6 1024 22 10000 7 300 07:41 10.01.2020
4555 Clear 6 1024 22 10000 7 300 07:22 10.01.2020
4556 Clear 7 1025 24 10000 5 320 06:42 10.01.2020
4557 Clear 7 1025 24 10000 5 320 06:24 10.01.2020
4558 Clear 5 1026 27 10000 6 330 05:33 10.01.2020
4559 Clear 2 1027 43 10000 6 350 03:32 10.01.2020
4560 Clear 3 1027 43 10000 4 350 02:54 10.01.2020
4561 Clear 1 1027 58 10000 3 350 02:33 10.01.2020
4562 Clouds -2 1027 62 10000 5 340 01:33 10.01.2020
4563 Clouds -3 1027 73 10000 5 350 00:56 10.01.2020
4564 Clouds -3 1026 73 10000 2 0 00:38 10.01.2020
4565 Clouds -3 1026 67 10000 1 10 23:57 09.01.2020
4566 Clouds -4 1026 73 10000 1 0 23:37 09.01.2020
4567 Clouds -4 1026 73 10000 1 0 23:19 09.01.2020
4568 Clouds -4 1026 73 10000 3 350 22:56 09.01.2020
4569 Clouds -3 1026 67 10000 5 340 22:37 09.01.2020
4570 Clouds -3 1026 67 10000 5 340 22:18 09.01.2020
4571 Clouds -4 1026 73 10000 3 350 21:55 09.01.2020
4572 Clouds -3 1026 73 10000 2 350 21:37 09.01.2020
4573 Clouds -3 1026 73 10000 2 350 21:18 09.01.2020
4574 Clouds -4 1027 73 10000 4 350 20:55 09.01.2020
4575 Clouds -2 1027 73 10000 4 350 20:37 09.01.2020
4576 Clouds -2 1027 79 10000 3 340 20:18 09.01.2020
4577 Clouds -3 1027 79 10000 2 350 19:39 09.01.2020
4578 Clouds -3 1027 79 10000 2 350 19:21 09.01.2020
4579 Clouds -3 1027 85 10000 2 340 18:59 09.01.2020
4580 Clouds -3 1027 85 10000 1 10 18:40 09.01.2020
4581 Clouds -3 1027 85 10000 1 10 18:21 09.01.2020
4582 Clouds -2 1027 79 10000 1.38 3 17:57 09.01.2020
4583 Clouds -3 1027 85 10000 1 50 17:39 09.01.2020
4584 Clouds -2 1027 85 10000 1 50 17:18 09.01.2020
4585 Clouds -2 1027 79 10000 1 30 16:42 09.01.2020
4586 Clouds -1 1027 68 10000 1 0 16:21 09.01.2020
4587 Clouds -1 1027 73 10000 1 0 15:43 09.01.2020
4588 Clouds -2 1027 73 10000 1 80 15:23 09.01.2020
4589 Clouds -2 1027 79 10000 2 10 14:59 09.01.2020
4590 Clouds -1 1027 62 10000 1.32 9 14:41 09.01.2020
4591 Clouds -1 1027 62 10000 1.25 0 14:19 09.01.2020
4592 Clouds -1 1027 62 10000 1 110 13:56 09.01.2020
4593 Clouds -1 1027 73 10000 1 80 13:38 09.01.2020
4594 Clouds -1 1027 73 10000 1 80 13:19 09.01.2020
4595 Clouds -1 1026 68 10000 1 70 12:56 09.01.2020
4596 Clouds -1 1026 68 10000 2 70 12:38 09.01.2020
4597 Clouds 0 1026 68 10000 2 70 12:18 09.01.2020
4598 Clouds 1 1026 63 10000 1 80 11:42 09.01.2020
4599 Clouds 1 1026 58 10000 1 50 11:24 09.01.2020
4600 Clouds 0 1026 58 10000 1 50 11:24 09.01.2020
4601 Clouds 1 1026 58 10000 1 50 11:24 09.01.2020
4602 Clouds 2 1026 50 10000 1 70 10:58 09.01.2020
4603 Clouds 2 1026 50 10000 1 80 10:40 09.01.2020
4604 Clouds 2 1026 50 10000 1 80 10:21 09.01.2020
4605 Clouds 4 1026 34 10000 1 0 09:47 09.01.2020
4606 Clouds 4 1026 32 10000 1 0 09:25 09.01.2020
4607 Clouds 4 1026 32 10000 1 0 08:59 09.01.2020
4608 Clouds 4 1026 29 10000 1 0 08:40 09.01.2020
4609 Clear 4 1026 29 10000 1 0 08:21 09.01.2020
4610 Clear 4 1026 29 10000 1 0 07:53 09.01.2020
4611 Clear 4 1026 29 10000 1 0 07:33 09.01.2020
4612 Clear 5 1027 29 10000 1 0 06:52 09.01.2020
4613 Clear 5 1027 32 10000 1 0 06:32 09.01.2020
4614 Clear 5 1027 34 10000 1 0 05:52 09.01.2020
4615 Clear 3 1028 34 10000 2 320 05:26 09.01.2020
4616 Clear 2 1029 37 10000 3 320 04:40 09.01.2020
4617 Clear 2 1029 32 10000 3 350 03:28 09.01.2020
4618 Clear 0 1029 54 10000 3 350 02:47 09.01.2020
4619 Clear -3 1029 62 10000 4 340 01:42 09.01.2020
4620 Clear -3 1029 62 10000 4 340 01:18 09.01.2020
4621 Clear -3 1029 62 10000 4 340 01:18 09.01.2020
4622 Clear -4 1028 62 10000 4 340 00:38 09.01.2020
4623 Clear -4 1028 62 10000 4 340 00:19 09.01.2020
4624 Clear -5 1028 62 10000 4 340 00:19 09.01.2020
4625 Clear -5 1028 67 10000 3 340 23:40 08.01.2020
4626 Clear -4 1028 67 10000 3 340 23:22 08.01.2020
4627 Clear -4 1028 62 10000 3 340 22:56 08.01.2020
4628 Clear -4 1028 62 10000 2 340 22:38 08.01.2020
4629 Clear -4 1028 62 10000 2 340 22:19 08.01.2020
4630 Clear -4 1028 62 10000 3 330 21:55 08.01.2020
4631 Clear -3 1029 57 10000 3 340 21:37 08.01.2020
4632 Clear -3 1029 57 10000 3 340 21:18 08.01.2020
4633 Clear -3 1029 62 10000 2 330 20:55 08.01.2020
4634 Clear -4 1029 67 10000 3 330 20:37 08.01.2020
4635 Clear -4 1029 67 10000 3 330 20:18 08.01.2020
4636 Clear -3 1029 62 10000 2 360 19:39 08.01.2020
4637 Clear -3 1029 62 10000 2 360 19:20 08.01.2020
4638 Clear -3 1029 62 10000 4 340 18:58 08.01.2020
4639 Clear -2 1029 67 10000 3 350 18:39 08.01.2020
4640 Clear -2 1029 67 10000 3 350 18:39 08.01.2020
4641 Clear -3 1029 67 10000 3 350 18:19 08.01.2020
4642 Clear -3 1029 67 10000 2 350 17:57 08.01.2020
4643 Clear -3 1029 67 10000 2 340 17:39 08.01.2020
4644 Clear -3 1029 67 10000 2 340 17:20 08.01.2020
4645 Clear -2 1029 62 10000 2 330 16:57 08.01.2020
4646 Clear -2 1029 62 10000 2 330 16:57 08.01.2020
4647 Clear -3 1029 67 10000 1 0 16:38 08.01.2020
4648 Clear -3 1029 67 10000 1 0 16:19 08.01.2020
4649 Clear -3 1029 67 10000 1 0 15:45 08.01.2020
4650 Clear -3 1029 67 10000 2.44 337 15:22 08.01.2020
4651 Clear -2 1029 73 10000 1 360 14:59 08.01.2020
4652 Clear -3 1029 73 10000 1 0 14:40 08.01.2020
4653 Clear -3 1029 73 10000 1 0 14:21 08.01.2020
4654 Clear -2 1029 67 10000 2.4 333 13:42 08.01.2020
4655 Clear -2 1029 73 10000 1 30 13:22 08.01.2020
4656 Clear -2 1029 73 10000 1 0 12:55 08.01.2020
4657 Clear -2 1029 73 10000 1 0 12:55 08.01.2020
4658 Clear -2 1029 63 10000 1 0 12:37 08.01.2020
4659 Clear -1 1029 63 10000 1 0 12:18 08.01.2020
4660 Clear -1 1029 63 10000 1 0 12:18 08.01.2020
4661 Clear -2 1029 67 10000 1 20 11:48 08.01.2020
4662 Clear 1 1029 50 10000 1 0 11:19 08.01.2020
4663 Clear 1 1028 46 10000 1 0 10:59 08.01.2020
4664 Clear 2 1028 40 10000 1 0 10:41 08.01.2020
4665 Clear 3 1028 40 10000 1 0 10:21 08.01.2020
4666 Clear 3 1028 32 10000 1 0 09:57 08.01.2020
4667 Clear 5 1028 29 10000 2 90 09:36 08.01.2020
4668 Clear 5 1028 29 10000 2 90 09:18 08.01.2020
4669 Clear 5 1028 32 10000 2 50 08:41 08.01.2020
4670 Clear 5 1028 32 10000 2 50 08:22 08.01.2020
4671 Clear 5 1028 27 10000 1 0 07:59 08.01.2020
4672 Clear 5 1028 27 10000 2 360 07:40 08.01.2020
4673 Clear 5 1028 27 10000 2 360 07:19 08.01.2020
4674 Clear 4 1028 29 10000 2 360 06:42 08.01.2020
4675 Clear 5 1029 32 10000 3 360 05:56 08.01.2020
4676 Clear 4 1029 29 10000 2 360 05:27 08.01.2020
4677 Clear 2 1030 34 10000 3 360 04:37 08.01.2020
4678 Clear 2 1031 31 10000 4 320 02:47 08.01.2020
4679 Clear 1 1031 29 10000 4 340 02:28 08.01.2020
4680 Clouds -1 1030 42 10000 5 320 01:58 08.01.2020
4681 Clouds -1 1030 46 10000 4 330 01:32 08.01.2020
4682 Clouds -2 1030 53 10000 4 350 00:51 08.01.2020
4683 Clouds -2 1030 49 10000 3 20 00:23 08.01.2020
4684 Clouds -3 1030 57 10000 4 350 23:46 07.01.2020
4685 Clouds -2 1029 49 10000 5 320 23:21 07.01.2020
4686 Clouds -2 1029 46 10000 5 310 22:56 07.01.2020
4687 Clouds -2 1029 46 10000 6 310 22:37 07.01.2020
4688 Clouds -2 1029 46 10000 6 310 22:19 07.01.2020
4689 Clouds -1 1029 46 10000 7 300 21:42 07.01.2020
4690 Clouds -1 1029 46 10000 7 300 21:22 07.01.2020
4691 Clouds -1 1028 42 10000 8 320 20:58 07.01.2020
4692 Clouds -1 1028 42 10000 8 330 20:40 07.01.2020
4693 Clouds -1 1028 42 10000 8 330 20:22 07.01.2020
4694 Clouds -1 1029 42 10000 8 320 19:57 07.01.2020
4695 Clouds -1 1029 42 10000 7 330 19:38 07.01.2020
4696 Clouds -1 1029 42 10000 7 330 19:19 07.01.2020
4697 Clouds -1 1028 42 10000 9 320 18:56 07.01.2020
4698 Clouds -1 1028 42 10000 8 320 18:38 07.01.2020
4699 Clouds -1 1028 42 10000 8 320 18:18 07.01.2020
4700 Clouds -1 1028 42 10000 8 320 18:18 07.01.2020
4701 Clouds 0 1028 35 10000 8 320 17:55 07.01.2020
4702 Clouds 0 1028 35 10000 7 330 17:37 07.01.2020
4703 Clouds 0 1028 35 10000 7 310 17:18 07.01.2020
4704 Clouds 0 1028 35 10000 7 310 16:55 07.01.2020
4705 Clouds 0 1028 35 10000 7 310 16:37 07.01.2020
4706 Clouds 0 1028 35 10000 7 310 16:18 07.01.2020
4707 Clouds 0 1027 35 10000 7 310 15:43 07.01.2020
4708 Clouds 1 1027 35 10000 7 320 15:24 07.01.2020
4709 Clouds 1 1026 34 10000 8 310 14:58 07.01.2020
4710 Clouds 1 1026 34 10000 6 310 14:40 07.01.2020
4711 Clouds 1 1026 34 10000 6 310 14:20 07.01.2020
4712 Clouds 1 1026 34 10000 7 320 13:46 07.01.2020
4713 Clouds 1 1026 40 10000 5 330 13:21 07.01.2020
4714 Clouds 1 1026 37 10000 5 330 12:56 07.01.2020
4715 Clouds 1 1025 40 10000 5 330 12:37 07.01.2020
4716 Clouds 1 1025 40 10000 5 330 12:19 07.01.2020
4717 Clouds 2 1025 37 10000 4 330 11:41 07.01.2020
4718 Clouds 2 1025 37 10000 4 330 11:41 07.01.2020
4719 Clouds 1 1025 37 10000 4 330 11:23 07.01.2020
4720 Clouds 2 1025 37 10000 5 320 10:57 07.01.2020
4721 Clouds 2 1025 37 10000 5 320 10:57 07.01.2020
4722 Clouds 2 1024 37 10000 5 310 10:39 07.01.2020
4723 Clouds 2 1024 37 10000 5 310 10:20 07.01.2020
4724 Clouds 2 1024 40 10000 4 330 09:39 07.01.2020
4725 Clouds 2 1024 40 10000 4 330 09:21 07.01.2020
4726 Clouds 2 1024 40 10000 4 330 09:21 07.01.2020
4727 Clouds 2 1024 40 10000 4 330 09:21 07.01.2020
4728 Clouds 2 1025 37 10000 5 320 08:57 07.01.2020
4729 Clouds 2 1024 43 10000 2 340 08:38 07.01.2020
4730 Clouds 2 1024 43 10000 2 340 08:18 07.01.2020
4731 Clouds 2 1025 43 10000 3 350 07:47 07.01.2020
4732 Clouds 2 1025 43 10000 3 330 07:20 07.01.2020
4733 Clouds 2 1025 40 10000 3 330 06:49 07.01.2020
4734 Clouds 2 1026 43 10000 4 360 06:29 07.01.2020
4735 Clouds 1 1026 33 10000 4 20 05:41 07.01.2020
4736 Clouds 1 1028 36 10000 5 360 03:47 07.01.2020
4737 Clouds 1 1028 36 10000 5 10 03:25 07.01.2020
4738 Clouds 0 1027 43 10000 4 10 02:19 07.01.2020
4739 Clouds 0 1027 50 10000 4 10 01:40 07.01.2020
4740 Clouds 0 1027 50 10000 4 20 00:58 07.01.2020
4741 Clouds 0 1026 50 10000 3 10 00:21 07.01.2020
4742 Clouds 0 1026 50 10000 3 10 00:21 07.01.2020
4743 Clouds 0 1026 50 10000 3 10 00:21 07.01.2020
4744 Clouds 0 1026 43 10000 4 20 23:57 06.01.2020
4745 Clouds 0 1026 43 10000 4 20 23:57 06.01.2020
4746 Clouds 0 1026 50 10000 4 360 23:38 06.01.2020
4747 Clouds 0 1026 50 10000 4 360 23:20 06.01.2020
4748 Clouds 0 1025 45 10000 5 10 22:44 06.01.2020
4749 Clouds 0 1026 45 10000 5 10 22:25 06.01.2020
4750 Clouds 0 1026 45 10000 5 10 21:59 06.01.2020
4751 Clouds 0 1027 50 10000 4 350 21:40 06.01.2020
4752 Clouds 0 1027 50 10000 4 350 21:21 06.01.2020
4753 Clouds 1 1027 45 10000 4 360 20:58 06.01.2020
4754 Clouds 1 1027 43 10000 4 10 20:40 06.01.2020
4755 Clouds 1 1027 43 10000 4 10 20:20 06.01.2020
4756 Clouds 1 1026 48 10000 4 350 19:57 06.01.2020
4757 Clouds 1 1026 48 10000 5 350 19:39 06.01.2020
4758 Clouds 1 1026 48 10000 5 350 19:20 06.01.2020
4759 Clouds 1 1026 58 10000 5 340 18:48 06.01.2020
4760 Clouds 1 1026 48 10000 5 330 18:25 06.01.2020
4761 Clouds 2 1026 50 10000 6 330 17:59 06.01.2020
4762 Clouds 1 1026 63 10000 5 350 17:39 06.01.2020
4763 Clouds 1 1026 63 10000 5 350 17:39 06.01.2020
4764 Clouds 1 1026 63 10000 5 350 17:19 06.01.2020
4765 Clouds 1 1026 50 10000 4 360 16:55 06.01.2020
4766 Clouds 1 1026 55 10000 5 360 16:36 06.01.2020
4767 Clouds 1 1026 55 10000 5 360 16:18 06.01.2020
4768 Clouds 1 1025 50 10000 3 340 15:42 06.01.2020
4769 Clouds 1 1025 50 10000 3 340 15:20 06.01.2020
4770 Clouds 1 1025 80 10000 4 360 14:59 06.01.2020
4771 Clouds 1 1025 86 10000 4 350 14:40 06.01.2020
4772 Clouds 1 1025 86 10000 4 350 14:21 06.01.2020
4773 Clouds 1 1025 73 10000 5 330 13:57 06.01.2020
4774 Clouds 1 1025 86 10000 3 330 13:38 06.01.2020
4775 Clouds 1 1025 86 10000 3 330 13:19 06.01.2020
4776 Clouds 0 1025 86 10000 2 340 12:43 06.01.2020
4777 Clouds 1 1025 69 10000 2 320 12:21 06.01.2020
4778 Clouds 1 1024 74 10000 2 280 11:58 06.01.2020
4779 Clouds 1 1024 80 7000 2 310 11:39 06.01.2020
4780 Clouds 1 1024 80 7000 2 310 11:21 06.01.2020
4781 Clouds 1 1023 73 6000 1 0 10:57 06.01.2020
4782 Clouds 1 1024 80 6000 3 340 10:39 06.01.2020
4783 Clouds 1 1024 80 6000 3 340 10:20 06.01.2020
4784 Clouds 2 1024 74 8000 2 330 09:38 06.01.2020
4785 Clouds 2 1024 74 8000 2 330 09:19 06.01.2020
4786 Clouds 2 1024 74 10000 2 340 08:46 06.01.2020
4787 Clouds 3 1024 74 10000 3 350 08:26 06.01.2020
4788 Rain 3 1024 74 10000 2 340 07:53 06.01.2020
4789 Rain 3 1025 69 9000 2 330 07:32 06.01.2020
4790 Rain 3 1025 80 7000 2 320 06:45 06.01.2020
4791 Rain 3 1025 80 5000 2 360 06:23 06.01.2020
4792 Rain 3 1026 86 4500 2 360 05:45 06.01.2020
4793 Mist 2 1028 86 3300 1 0 04:38 06.01.2020
4794 Mist 2 1028 86 3300 1 0 04:19 06.01.2020
4795 Mist 1 1027 79 3300 1 0 02:46 06.01.2020
4796 Mist 0 1027 94 3000 1 0 02:24 06.01.2020
4797 Mist 0 1027 100 3000 1 0 01:44 06.01.2020
4798 Mist -1 1027 100 2800 1 50 01:26 06.01.2020
4799 Mist 0 1026 92 2300 1 0 00:42 06.01.2020
4800 Mist -1 1026 92 2300 1 0 00:21 06.01.2020
4801 Mist -1 1026 92 2300 2 360 23:42 05.01.2020
4802 Snow -1 1026 92 2300 2 360 23:42 05.01.2020
4803 Snow -1 1026 92 2300 2 360 23:22 05.01.2020
4804 Snow -1 1026 92 2300 2 360 22:56 05.01.2020
4805 Snow -1 1026 100 2300 2 10 22:38 05.01.2020
4806 Snow -1 1026 100 2300 2 10 22:19 05.01.2020
4807 Snow -1 1027 100 2300 2 360 21:54 05.01.2020
4808 Snow -1 1027 92 2500 1 10 21:36 05.01.2020
4809 Snow -1 1027 92 2500 1 10 21:18 05.01.2020
4810 Snow -1 1028 92 3000 1 20 20:55 05.01.2020
4811 Snow -1 1028 92 3000 1 20 20:36 05.01.2020
4812 Snow -1 1028 92 3000 1 20 20:18 05.01.2020
4813 Snow 0 1028 92 3000 1.02 2 19:56 05.01.2020
4814 Snow -1 1028 100 2800 1 0 19:37 05.01.2020
4815 Snow -1 1028 100 2800 1 0 19:18 05.01.2020
4816 Snow -1 1028 100 2500 1 0 18:54 05.01.2020
4817 Snow -1 1029 100 2000 1 0 18:36 05.01.2020
4818 Snow 0 1022 96 0 1.02 2 18:18 05.01.2020
4819 Snow 0 1029 96 2000 1 0 17:55 05.01.2020
4820 Snow 0 1029 96 2000 1 0 17:55 05.01.2020
4821 Snow 0 1029 100 2000 2 360 17:37 05.01.2020
4822 Snow 0 1029 100 2000 2 360 17:18 05.01.2020
4823 Snow 0 1029 94 1700 2 360 16:54 05.01.2020
4824 Snow 0 1030 94 1500 2 10 16:36 05.01.2020
4825 Snow 0 1030 94 1500 2 10 16:18 05.01.2020
4826 Snow 0 1030 94 2000 1 30 15:36 05.01.2020
4827 Snow 0 1030 94 2000 1 30 15:18 05.01.2020
4828 Snow 0 1030 92 2000 1 50 14:54 05.01.2020
4829 Snow 0 1030 94 3000 1 0 14:36 05.01.2020
4830 Snow 0 1030 57 3000 1 0 14:18 05.01.2020
4831 Snow 1 1030 74 5000 2 240 13:39 05.01.2020
4832 Snow 1 1030 74 5000 2 240 13:21 05.01.2020
4833 Snow 1 1030 59 10000 1 0 12:57 05.01.2020
4834 Snow 1 1030 59 10000 1 0 12:57 05.01.2020
4835 Snow 1 1030 59 10000 1 0 12:57 05.01.2020
4836 Snow 2 1030 59 10000 1.2 335 12:39 05.01.2020
4837 Snow 2 1030 59 10000 1.2 335 12:39 05.01.2020
4838 Snow 2 1030 59 10000 1.2 335 12:39 05.01.2020
4839 Snow 2 1030 59 10000 1.2 335 12:21 05.01.2020
4840 Snow 2 1030 59 10000 1.2 335 12:21 05.01.2020
4841 Snow 2 1030 59 10000 2 360 11:55 05.01.2020
4842 Snow 2 1030 59 10000 1 0 11:37 05.01.2020
4843 Clouds 2 1030 59 10000 1 0 11:19 05.01.2020
4844 Clouds 2 1030 59 10000 0.4 295 10:55 05.01.2020
4845 Clouds 2 1030 55 10000 0.4 295 10:36 05.01.2020
4846 Clouds 2 1030 55 10000 0.4 295 10:36 05.01.2020
4847 Clouds 2 1030 55 10000 0.4 295 10:18 05.01.2020
4848 Clouds 2 1030 55 10000 1 0 09:41 05.01.2020
4849 Clouds 2 1030 55 10000 1 0 09:21 05.01.2020
4850 Clouds 3 1030 55 10000 1 0 08:45 05.01.2020
4851 Clouds 3 1030 55 10000 1 0 08:26 05.01.2020
4852 Clouds 3 1030 51 10000 2 20 07:55 05.01.2020
4853 Clouds 3 1031 47 10000 1 0 07:32 05.01.2020
4854 Clouds 3 1031 47 10000 1 0 06:58 05.01.2020
4855 Clouds 2 1032 51 10000 2 30 05:55 05.01.2020
4856 Clouds 3 1032 51 10000 1 0 05:30 05.01.2020
4857 Clouds 1 1033 48 10000 2 320 04:34 05.01.2020
4858 Clouds 1 1033 48 10000 2 340 03:47 05.01.2020
4859 Clouds 0 1033 74 10000 2 350 02:45 05.01.2020
4860 Clouds -2 1033 85 10000 2 350 02:20 05.01.2020
4861 Clouds -2 1032 79 10000 2 350 01:40 05.01.2020
4862 Clouds -2 1032 79 10000 2 350 01:18 05.01.2020
4863 Clouds -3 1032 79 10000 2 350 00:41 05.01.2020
4864 Clouds -3 1032 79 10000 2 340 00:22 05.01.2020
4865 Clouds -3 1032 79 10000 2 340 23:59 04.01.2020
4866 Clouds -3 1032 85 10000 2 360 23:39 04.01.2020
4867 Clear -3 1032 85 10000 2 360 23:19 04.01.2020
4868 Clear -3 1032 85 10000 2 340 22:39 04.01.2020
4869 Clear -3 1032 85 10000 2 340 22:21 04.01.2020
4870 Clear -3 1031 85 10000 0.74 17 21:57 04.01.2020
4871 Clear -3 1031 92 10000 1 40 21:38 04.01.2020
4872 Clear -3 1031 92 10000 1 40 21:19 04.01.2020
4873 Clear -3 1032 85 10000 0.74 17 20:57 04.01.2020
4874 Clear -3 1032 79 10000 0.74 17 20:38 04.01.2020
4875 Clouds -3 1032 79 10000 0.99 43 20:19 04.01.2020
4876 Clouds -3 1032 85 10000 1.13 33 19:42 04.01.2020
4877 Clouds -2 1032 79 10000 1 350 19:24 04.01.2020
4878 Clouds -2 1032 79 10000 1 360 18:58 04.01.2020
4879 Clouds -2 1032 85 10000 1 0 18:39 04.01.2020
4880 Clouds -2 1032 85 10000 1 0 18:21 04.01.2020
4881 Clouds -1 1032 73 10000 1 360 17:58 04.01.2020
4882 Clouds -1 1032 68 10000 1 50 17:40 04.01.2020
4883 -273 0 0 0 0 0 17:22 04.01.2020
4884 Clouds -1 1032 68 10000 2 80 16:42 04.01.2020
4885 Clouds -1 1032 63 10000 1 70 16:24 04.01.2020
4886 Clouds -1 1032 59 10000 2 110 15:59 04.01.2020
4887 Clouds -1 1032 59 10000 2 110 15:59 04.01.2020
4888 Clouds -1 1032 52 10000 2 130 15:41 04.01.2020
4889 Clouds -1 1032 52 10000 2 130 15:19 04.01.2020
4890 Clouds -1 1031 54 10000 1 120 14:58 04.01.2020
4891 Clouds -1 1031 54 10000 1 120 14:58 04.01.2020
4892 Clouds -1 1031 50 10000 2 130 14:40 04.01.2020
4893 Clear 0 1031 50 10000 2 130 14:19 04.01.2020
4894 Clear -1 1031 62 10000 1 0 13:56 04.01.2020
4895 Clear 0 1030 58 10000 1 0 13:37 04.01.2020
4896 Clear 0 1030 58 10000 1 0 13:18 04.01.2020
4897 Clear 0 1030 50 10000 1 0 12:42 04.01.2020
4898 Clear 1 1030 54 10000 2 180 12:20 04.01.2020
4899 Clear 1 1029 46 10000 1 0 12:20 04.01.2020
4900 Clear -1 1029 46 10000 1 0 11:59 04.01.2020
4901 Clear 0 1029 37 10000 1 0 11:40 04.01.2020
4902 Clear 3 1029 37 10000 1 0 11:19 04.01.2020
4903 Clear 4 1028 29 10000 2 120 10:55 04.01.2020
4904 Clear 4 1028 29 10000 2 120 10:55 04.01.2020
4905 Clear 5 1028 23 10000 1.48 19 10:37 04.01.2020
4906 Clear 5 1028 23 10000 1.48 19 10:19 04.01.2020
4907 Clear 9 1028 18 10000 1 0 09:42 04.01.2020
4908 Clear 8 1028 16 10000 1 0 09:23 04.01.2020
4909 Clear 9 1028 16 10000 1 0 08:42 04.01.2020
4910 Clear 9 1028 16 10000 2 40 08:21 04.01.2020
4911 Clear 9 1028 16 10000 3 30 07:44 04.01.2020
4912 Clear 9 1028 19 10000 3 50 07:26 04.01.2020
4913 Clear 10 1028 19 10000 3 30 06:36 04.01.2020
4914 Clear 10 1029 20 10000 4 30 05:46 04.01.2020
4915 Clear 6 1029 24 10000 4 20 04:47 04.01.2020
4916 Clear 5 1029 26 10000 5 10 04:27 04.01.2020
4917 Clear 6 1029 30 10000 4 330 03:19 04.01.2020
4918 Clear 3 1029 43 10000 5 350 02:36 04.01.2020
4919 Clear 0 1028 54 10000 4 350 01:58 04.01.2020
4920 Clear -1 1028 58 10000 4 360 01:32 04.01.2020
4921 Clear -2 1028 67 10000 4 340 00:56 04.01.2020
4922 Clear -3 1027 67 10000 4 340 00:28 04.01.2020
4923 Clear -3 1027 68 10000 4 330 23:52 03.01.2020
4924 Clear -3 1027 73 10000 2 330 23:27 03.01.2020
4925 Clear -4 1027 67 10000 4 330 22:55 03.01.2020
4926 Clear -3 1027 68 10000 1 300 22:37 03.01.2020
4927 Clear -3 1027 67 10000 1 0 22:18 03.01.2020
4928 Clear -3 1027 67 10000 1 0 21:56 03.01.2020
4929 Clear -4 1027 67 10000 2 330 21:37 03.01.2020
4930 Clear -3 1027 67 10000 2 330 21:18 03.01.2020
4931 Clear -3 1027 73 10000 2 310 20:43 03.01.2020
4932 Clouds -3 1027 68 10000 2 330 20:19 03.01.2020
4933 Clouds -3 1027 62 10000 2 320 19:59 03.01.2020
4934 Clouds -3 1027 68 10000 2 330 19:41 03.01.2020
4935 Clouds -3 1027 68 10000 2 330 19:22 03.01.2020
4936 Clouds -3 1027 62 10000 1 0 18:46 03.01.2020
4937 Clouds -3 1027 73 10000 3 330 18:26 03.01.2020
4938 Clouds -3 1027 68 10000 1 0 17:58 03.01.2020
4939 Clouds -3 1027 68 10000 1 0 17:58 03.01.2020
4940 Clouds -2 1027 68 10000 3 360 17:39 03.01.2020
4941 Clouds -2 1027 68 10000 3 360 17:21 03.01.2020
4942 Clouds -2 1027 67 10000 1 0 16:43 03.01.2020
4943 Clouds -2 1027 67 10000 1 0 16:24 03.01.2020
4944 Clouds -2 1027 73 10000 2 360 15:59 03.01.2020
4945 Clouds -2 1027 67 10000 1 0 15:41 03.01.2020
4946 Clouds -2 1027 67 10000 1 0 15:19 03.01.2020
4947 Clouds -1 1027 62 10000 0.52 331 14:39 03.01.2020
4948 Clear -1 1027 62 10000 0.95 297 14:20 03.01.2020
4949 Clear -1 1027 62 10000 0.95 297 13:57 03.01.2020
4950 Clear -1 1027 58 10000 0.95 297 13:38 03.01.2020
4951 Clear 0 1027 58 10000 0.86 291 13:20 03.01.2020
4952 Clear 0 1027 54 10000 1 0 12:41 03.01.2020
4953 Clear 0 1027 54 10000 1 0 12:22 03.01.2020
4954 Clear 0 1027 54 10000 0.86 291 11:49 03.01.2020
4955 Clear 2 1027 53 10000 0.86 291 11:31 03.01.2020
4956 Clear 3 1027 37 10000 1 0 10:57 03.01.2020
4957 Clear 4 1027 37 10000 1 30 10:38 03.01.2020
4958 Clear 4 1027 37 10000 1 30 10:20 03.01.2020
4959 Clear 6 1027 25 10000 0.54 329 09:54 03.01.2020
4960 Clear 6 1027 22 10000 0.54 329 09:36 03.01.2020
4961 Clear 6 1027 22 10000 0.54 329 09:18 03.01.2020
4962 Clear 6 1027 24 10000 1 0 08:44 03.01.2020
4963 Clear 7 1027 22 10000 2 340 08:21 03.01.2020
4964 Clear 7 1027 22 10000 1 0 07:42 03.01.2020
4965 Clear 6 1027 24 10000 1 0 07:19 03.01.2020
4966 Clear 6 1027 24 10000 1 0 07:19 03.01.2020
4967 Clear 6 1027 26 10000 2 310 06:57 03.01.2020
4968 Clear 9 1028 26 10000 2 320 06:39 03.01.2020
4969 Clear 9 1028 26 10000 2 320 06:20 03.01.2020
4970 Clear 3 1030 25 10000 3 360 04:43 03.01.2020
4971 Clear 4 1031 40 10000 3 340 03:38 03.01.2020
4972 Clear 1 1031 58 10000 1 0 02:53 03.01.2020
4973 Clear -4 1030 67 10000 2 350 01:50 03.01.2020
4974 Clear -4 1030 67 10000 2 350 01:18 03.01.2020
4975 Clear -5 1030 67 10000 3 330 00:34 03.01.2020
4976 Clear -6 1030 73 10000 2 330 23:59 02.01.2020
4977 Clear -5 1030 73 10000 2 330 23:39 02.01.2020
4978 Clear -5 1029 72 10000 2 330 23:20 02.01.2020
4979 Clear -5 1029 72 10000 2 330 22:58 02.01.2020
4980 Clear -5 1029 72 10000 2 330 22:40 02.01.2020
4981 Clear -6 1029 72 10000 2 330 22:19 02.01.2020
4982 Clear -5 1029 62 10000 2 340 21:55 02.01.2020
4983 Clear -5 1029 67 10000 2 340 21:37 02.01.2020
4984 Clear -5 1029 67 10000 2 340 21:18 02.01.2020
4985 Clear -5 1030 73 10000 1 330 20:56 02.01.2020
4986 Clear -5 1030 62 10000 2 340 20:37 02.01.2020
4987 Clouds -5 1030 62 10000 2 340 20:18 02.01.2020
4988 Clouds -5 1030 67 10000 2 350 19:54 02.01.2020
4989 Clouds -4 1030 67 10000 3 350 19:36 02.01.2020
4990 Clouds -4 1030 67 10000 3 350 19:18 02.01.2020
4991 Clouds -4 1030 72 10000 1 0 18:42 02.01.2020
4992 Clouds -4 1030 72 10000 1 0 18:23 02.01.2020
4993 Clouds -4 1031 67 10000 1 0 17:58 02.01.2020
4994 Clouds -4 1031 67 10000 1 0 17:38 02.01.2020
4995 Clouds -4 1031 67 10000 1 0 17:19 02.01.2020
4996 Clouds -4 1031 67 10000 1 0 16:58 02.01.2020
4997 Clouds -3 1031 57 10000 1 0 16:40 02.01.2020
4998 Clouds -3 1031 57 10000 1 0 16:20 02.01.2020
4999 Clouds -3 1031 62 10000 1.17 31 15:57 02.01.2020
5000 Clouds -2 1031 58 10000 1.17 31 15:39 02.01.2020
5001 Clouds -2 1031 49 10000 1 0 15:19 02.01.2020
5002 Clouds -2 1031 49 10000 1 0 14:55 02.01.2020
5003 Clouds -2 1031 49 10000 1 0 14:55 02.01.2020
5004 Clouds -1 1031 46 10000 1 0 14:36 02.01.2020
5005 Clouds -1 1031 49 10000 3 350 14:18 02.01.2020
5006 Clouds 0 1031 49 10000 3 350 13:47 02.01.2020
5007 Clouds 0 1031 34 10000 2 310 13:29 02.01.2020
5008 Clouds 1 1031 29 10000 1 0 12:45 02.01.2020
5009 Clouds 1 1030 27 10000 2 0 12:25 02.01.2020
5010 Clouds 1 1030 27 10000 2 0 12:25 02.01.2020
5011 Clouds 1 1030 27 10000 2 0 11:57 02.01.2020
5012 Clouds 2 1030 25 10000 2 290 11:37 02.01.2020
5013 Clouds 2 1030 25 10000 2 290 11:19 02.01.2020
5014 Clouds 2 1030 27 10000 3 270 10:43 02.01.2020
5015 Clouds 2 1030 27 10000 3 270 10:25 02.01.2020
5016 Clouds 3 1030 27 10000 4 250 09:46 02.01.2020
5017 Clouds 3 1030 27 10000 2 270 09:28 02.01.2020
5018 Clouds 3 1030 27 10000 3 300 08:45 02.01.2020
5019 Clouds 3 1030 27 10000 3 300 08:27 02.01.2020
5020 Clouds 3 1030 27 10000 2 300 07:51 02.01.2020
5021 Clouds 3 1030 23 10000 3 280 07:30 02.01.2020
5022 Clouds 5 1030 23 10000 3 330 06:45 02.01.2020
5023 Clouds 5 1031 25 10000 3 330 06:27 02.01.2020
5024 Clouds 0 1032 27 10000 4 320 05:21 02.01.2020
5025 Clouds -2 1033 36 10000 3 290 04:31 02.01.2020
5026 Clouds 0 1032 45 10000 2 300 02:48 02.01.2020
5027 Clouds -6 1032 62 10000 3 350 01:59 02.01.2020
5028 Clouds -6 1032 66 10000 3 340 01:37 02.01.2020
5029 Clouds -7 1032 61 10000 3 330 00:58 02.01.2020
5030 Clouds -7 1032 66 10000 3 340 00:33 02.01.2020
5031 Clouds -7 1032 66 10000 3 340 23:52 01.01.2020
5032 Clouds -8 1031 66 10000 3 340 23:28 01.01.2020
5033 Clouds -8 1031 61 10000 2 310 22:59 01.01.2020
5034 Clouds -7 1031 61 10000 2 320 22:38 01.01.2020
5035 Clouds -8 1031 66 10000 2 330 22:19 01.01.2020
5036 Clouds -8 1031 66 10000 2 330 21:56 01.01.2020
5037 Clouds -7 1031 66 10000 2 330 21:37 01.01.2020
5038 Clouds -7 1031 66 10000 2 330 21:19 01.01.2020
5039 Clouds -7 1031 72 10000 2 330 20:55 01.01.2020
5040 Clouds -7 1032 66 10000 2 330 20:37 01.01.2020
5041 Clear -7 1032 66 10000 2 330 20:18 01.01.2020
5042 Clouds -6 1032 57 10000 2 330 19:54 01.01.2020
5043 Clouds -7 1032 66 10000 2 340 19:36 01.01.2020
5044 Clouds -7 1032 66 10000 2 340 19:18 01.01.2020
5045 Clouds -6 1032 61 10000 2 340 18:55 01.01.2020
5046 Clouds -7 1032 66 10000 2 340 18:36 01.01.2020
5047 Clouds -7 1032 66 10000 2 340 18:18 01.01.2020
5048 Clouds -6 1032 61 10000 2 360 17:55 01.01.2020
5049 Clouds -6 1032 66 10000 1 360 17:36 01.01.2020
5050 Clear -6 1032 66 10000 1 360 17:18 01.01.2020
5051 Clear -6 1032 61 10000 1 360 16:39 01.01.2020
5052 Clear -6 1032 61 10000 1 360 16:39 01.01.2020
5053 Clear -6 1032 61 10000 1 360 16:20 01.01.2020
5054 Clear -6 1032 61 10000 1 20 15:57 01.01.2020
5055 Clear -6 1032 61 10000 1 10 15:39 01.01.2020
5056 Clear -6 1032 61 10000 1 10 15:20 01.01.2020
5057 Clear -6 1032 61 10000 1 0 14:58 01.01.2020
5058 Clear -6 1032 61 10000 1 0 14:58 01.01.2020
5059 Clear -6 1032 48 10000 1 60 14:39 01.01.2020
5060 Clear -5 1032 48 10000 1 60 14:21 01.01.2020
5061 Clear -5 1032 52 10000 2 80 13:56 01.01.2020
5062 Clear -5 1032 52 10000 2 80 13:37 01.01.2020
5063 Clear -5 1032 52 10000 2 80 13:18 01.01.2020
5064 Clear -5 1032 57 10000 2 80 12:55 01.01.2020
5065 Clear -5 1032 48 10000 2 60 12:37 01.01.2020
5066 Clear -5 1032 48 10000 2 60 12:18 01.01.2020
5067 Clear -4 1031 41 10000 1 50 11:43 01.01.2020
5068 Clear -3 1031 35 10000 1 0 11:22 01.01.2020
5069 Clear -3 1031 32 10000 1 0 10:58 01.01.2020
5070 Clear -2 1030 30 10000 1 0 10:40 01.01.2020
5071 Clear -2 1030 30 10000 1 0 10:20 01.01.2020
5072 Clear -1 1030 26 10000 1 0 09:55 01.01.2020
5073 Clear 0 1030 22 10000 1 0 09:36 01.01.2020
5074 Clear 0 1030 22 10000 1 0 09:18 01.01.2020
5075 Clear 0 1030 22 10000 1 0 08:54 01.01.2020
5076 Clear 0 1030 22 10000 2 130 08:36 01.01.2020
5077 Clear 0 1030 21 10000 2 130 08:18 01.01.2020
5078 Clear 0 1030 20 10000 1 0 07:45 01.01.2020
5079 Clear 0 1030 23 10000 2 260 07:26 01.01.2020
5080 Clear 0 1031 22 10000 1 0 06:44 01.01.2020
5081 Clear 0 1031 25 10000 2 300 06:19 01.01.2020
5082 Clear -3 1033 30 10000 2 320 04:44 01.01.2020
5083 Clear -4 1034 38 10000 3 330 03:43 01.01.2020
5084 Clear -4 1034 48 10000 2 320 03:22 01.01.2020
5085 Clear -6 1033 48 10000 3 330 02:55 01.01.2020
5086 Clear -6 1033 56 10000 3 360 02:32 01.01.2020
5087 Clear -8 1033 61 10000 3 350 01:45 01.01.2020
5088 Clear -9 1033 56 10000 3 330 01:24 01.01.2020
5089 Clear -10 1033 60 10000 3 340 00:57 01.01.2020
5090 Clear -10 1032 61 10000 4 340 00:37 01.01.2020
5091 Clear -10 1032 61 10000 4 340 00:19 01.01.2020
5092 Clear -10 1032 65 10000 4 350 23:40 31.12.2019
5093 Clear -10 1032 65 10000 4 350 23:21 31.12.2019
5094 Clear -9 1032 61 10000 4 330 22:57 31.12.2019
5095 Clear -9 1032 61 10000 4 340 22:38 31.12.2019
5096 Clear -9 1032 61 10000 4 340 22:18 31.12.2019
5097 Clear -9 1032 66 10000 2 330 21:54 31.12.2019
5098 Clear -10 1032 66 10000 3 340 21:36 31.12.2019
5099 Clear -10 1032 66 10000 3 340 21:18 31.12.2019
5100 Clear -10 1033 66 10000 3 340 20:40 31.12.2019
5101 Clear -10 1033 66 10000 3 340 20:21 31.12.2019
5102 Clear -10 1033 66 10000 3 340 19:59 31.12.2019
5103 Clear -10 1033 66 10000 3 340 19:40 31.12.2019
5104 Clear -10 1033 66 10000 3 340 19:22 31.12.2019
5105 Clear -10 1033 66 10000 3 340 19:22 31.12.2019
5106 Clear -10 1033 61 10000 2 330 18:58 31.12.2019
5107 Clear -9 1033 66 10000 3 350 18:40 31.12.2019
5108 Clear -9 1033 66 10000 3 350 18:20 31.12.2019
5109 Clear -10 1033 60 10000 1 0 17:56 31.12.2019
5110 Clear -9 1033 56 10000 1.94 14 17:38 31.12.2019
5111 Clear -9 1033 56 10000 2.07 27 17:19 31.12.2019
5112 Clear -9 1033 56 10000 1 40 16:57 31.12.2019
5113 Clear -9 1033 56 10000 2 30 16:38 31.12.2019
5114 Clear -9 1033 56 10000 2 30 16:19 31.12.2019
5115 Clear -9 1033 51 10000 2 30 15:56 31.12.2019
5116 Clear -9 1033 51 10000 1 20 15:38 31.12.2019
5117 Clear -9 1033 51 10000 1 20 15:38 31.12.2019
5118 Clear -9 1033 51 10000 1 20 15:20 31.12.2019
5119 Clear -8 1033 47 10000 1 40 14:57 31.12.2019
5120 Clear -9 1033 60 10000 1 30 14:38 31.12.2019
5121 Clear -9 1033 60 10000 1 30 14:19 31.12.2019
5122 Clear -8 1033 56 10000 1 20 13:57 31.12.2019
5123 Clear -8 1033 47 10000 1 0 13:39 31.12.2019
5124 Clear -8 1033 47 10000 1 0 13:20 31.12.2019
5125 Clear -7 1034 43 10000 1 0 12:56 31.12.2019
5126 Clear -7 1034 40 10000 1.91 26 12:38 31.12.2019
5127 Clear -6 1034 40 10000 1.91 26 12:19 31.12.2019
5128 Clear -6 1034 40 10000 1.91 26 12:19 31.12.2019
5129 Clear -6 1034 31 10000 1 0 11:56 31.12.2019
5130 Clear -6 1034 31 10000 1 0 11:56 31.12.2019
5131 Clear -6 1034 34 10000 1 0 11:38 31.12.2019
5132 Clear -5 1034 34 10000 1 0 11:19 31.12.2019
5133 Clear -4 1034 23 10000 2 190 10:57 31.12.2019
5134 Clear -4 1034 23 10000 2 190 10:57 31.12.2019
5135 Clear -4 1034 23 10000 3 210 10:38 31.12.2019
5136 Clear -4 1034 23 10000 3 210 10:20 31.12.2019
5137 Clear -4 1034 23 10000 3 190 09:58 31.12.2019
5138 Clear -3 1034 21 10000 2 0 09:39 31.12.2019
5139 Clear -3 1034 21 10000 2 0 09:20 31.12.2019
5140 Clear -2 1035 21 10000 3 210 08:57 31.12.2019
5141 Clear -3 1035 21 10000 3 230 08:37 31.12.2019
5142 Clear -3 1035 21 10000 3 230 08:18 31.12.2019
5143 Clear -3 1029 24 0 0.42 249 07:41 31.12.2019
5144 Clear -3 1036 21 10000 3 210 07:19 31.12.2019
5145 Clear -2 1036 23 10000 3 220 06:49 31.12.2019
5146 Clear -3 1038 27 10000 2 0 05:55 31.12.2019
5147 Clear -6 1041 37 10000 1 0 04:27 31.12.2019
5148 Clear -6 1042 40 10000 1 0 03:27 31.12.2019
5149 Clear -7 1042 40 10000 1 0 02:49 31.12.2019
5150 Clear -11 1042 65 10000 1 10 01:55 31.12.2019
5151 Clear -11 1042 65 10000 1 0 01:34 31.12.2019
5152 Clear -11 1042 55 10000 2 340 00:59 31.12.2019
5153 Clear -11 1042 55 10000 2 340 00:41 31.12.2019
5154 Clear -12 1042 55 10000 2 340 00:21 31.12.2019
5155 Clear -12 1042 55 10000 2 10 23:56 30.12.2019
5156 Clear -13 1042 54 10000 1 0 23:37 30.12.2019
5157 Clear -12 1042 54 10000 1 0 23:19 30.12.2019
5158 Clear -12 1043 50 10000 1 360 22:56 30.12.2019
5159 Clear -11 1043 43 10000 2.49 356 22:37 30.12.2019
5160 Clear -11 1043 43 10000 2.49 356 22:37 30.12.2019
5161 Clear -11 1043 43 10000 2.49 356 22:18 30.12.2019
5162 Clear -12 1043 43 10000 2 30 21:56 30.12.2019
5163 Clear -11 1043 43 10000 2 20 21:38 30.12.2019
5164 Clear -11 1043 43 10000 2 20 21:18 30.12.2019
5165 Clear -11 1044 43 10000 3 30 20:56 30.12.2019
5166 Clear -11 1044 43 10000 3 30 20:56 30.12.2019
5167 Clear -11 1044 43 10000 3 10 20:38 30.12.2019
5168 Clear -11 1044 43 10000 3 10 20:19 30.12.2019
5169 Clear -10 1045 39 10000 2 60 19:56 30.12.2019
5170 Clear -11 1045 39 10000 3 10 19:37 30.12.2019
5171 Clear -10 1045 39 10000 3 10 19:18 30.12.2019
5172 Clear -10 1045 39 10000 2 40 18:56 30.12.2019
5173 Clear -10 1045 33 10000 2 10 18:37 30.12.2019
5174 Clear -10 1045 33 10000 2 10 18:19 30.12.2019
5175 Clear -10 1045 35 10000 3 10 17:54 30.12.2019
5176 Clear -10 1045 33 10000 2 10 17:36 30.12.2019
5177 Clear -10 1045 33 10000 2 10 17:18 30.12.2019
5178 Clear -10 1045 39 10000 5 350 16:54 30.12.2019
5179 Clear -9 1045 33 10000 4 360 16:36 30.12.2019
5180 Clear -9 1045 33 10000 4 360 16:18 30.12.2019
5181 Clear -9 1045 28 10000 7 320 15:54 30.12.2019
5182 Clear -9 1045 28 10000 6 320 15:36 30.12.2019
5183 Clear -9 1045 28 10000 6 320 15:18 30.12.2019
5184 Clear -8 1045 28 10000 7 310 14:42 30.12.2019
5185 Clear -8 1045 26 10000 7 320 14:19 30.12.2019
5186 Clear -8 1045 23 10000 8 320 13:54 30.12.2019
5187 Clear -8 1045 23 10000 9 310 13:36 30.12.2019
5188 Clear -8 1045 23 10000 9 310 13:18 30.12.2019
5189 Clear -7 1045 26 10000 8 320 12:42 30.12.2019
5190 Clear -7 1045 26 10000 8 320 12:20 30.12.2019
5191 Clear -7 1044 23 10000 8 320 11:58 30.12.2019
5192 Clear -7 1043 22 10000 9 310 11:39 30.12.2019
5193 Clear -7 1043 22 10000 9 310 11:19 30.12.2019
5194 Clear -7 1043 22 10000 10 310 10:43 30.12.2019
5195 Clear -6 1042 22 10000 9 310 10:21 30.12.2019
5196 Clear -6 1042 20 10000 11 310 09:57 30.12.2019
5197 Clear -6 1041 20 10000 11 310 09:37 30.12.2019
5198 Clear -6 1041 20 10000 11 310 09:19 30.12.2019
5199 Clear -6 1041 20 10000 12 320 08:49 30.12.2019
5200 Clear -5 1040 19 10000 12 320 08:23 30.12.2019
5201 Clear -5 1040 19 10000 14 320 07:55 30.12.2019
5202 Clear -5 1040 19 10000 13 330 07:34 30.12.2019
5203 Clear -5 1040 20 10000 10 330 06:52 30.12.2019
5204 Clear -6 1041 20 10000 8 310 04:57 30.12.2019
5205 Clear -6 1042 22 10000 8 300 03:55 30.12.2019
5206 Clear -7 1041 23 10000 8 310 02:56 30.12.2019
5207 Clear -7 1041 23 10000 10 320 02:37 30.12.2019
5208 Clear -8 1040 23 10000 10 320 01:50 30.12.2019
5209 Clear -8 1040 25 10000 10 320 01:21 30.12.2019
5210 Clear -8 1039 25 10000 9 320 00:44 30.12.2019
5211 Clear -8 1039 23 10000 8 320 00:19 30.12.2019
5212 Clear -8 1037 23 10000 9 320 23:39 29.12.2019
5213 Clear -8 1037 23 10000 9 320 23:21 29.12.2019
5214 Clear -8 1037 23 10000 7 320 22:54 29.12.2019
5215 Clear -7 1036 23 10000 8 320 22:36 29.12.2019
5216 Clear -7 1036 23 10000 8 320 22:18 29.12.2019
5217 Clear -6 1036 22 10000 9 320 21:42 29.12.2019
5218 Clear -6 1036 24 10000 9 320 21:21 29.12.2019
5219 Clear -6 1035 24 10000 9 310 20:57 29.12.2019
5220 Clear -5 1035 24 10000 9 310 20:39 29.12.2019
5221 Clouds -5 1035 24 10000 9 310 20:21 29.12.2019
5222 Clouds -5 1035 24 10000 8 310 19:59 29.12.2019
5223 Clouds -5 1034 23 10000 10 320 19:40 29.12.2019
5224 Clouds -4 1034 23 10000 10 320 19:21 29.12.2019
5225 Clouds -4 1033 25 10000 10 320 18:58 29.12.2019
5226 Clouds -3 1033 23 10000 8 320 18:38 29.12.2019
5227 Clouds -3 1033 23 10000 7 320 18:20 29.12.2019
5228 Clouds -3 1033 23 10000 7 320 17:58 29.12.2019
5229 Clouds -2 1032 23 10000 8 340 17:39 29.12.2019
5230 Clouds -2 1032 23 10000 8 340 17:20 29.12.2019
5231 Clouds -2 1032 23 10000 6 330 16:56 29.12.2019
5232 Clouds -1 1031 23 10000 6 360 16:38 29.12.2019
5233 Clouds -1 1031 23 10000 6 360 16:20 29.12.2019
5234 Clouds -1 1030 26 10000 8 340 15:58 29.12.2019
5235 Clouds 0 1030 25 10000 9 340 15:39 29.12.2019
5236 Clouds 0 1030 25 10000 9 340 15:20 29.12.2019
5237 Clouds 1 1029 22 10000 12 330 14:58 29.12.2019
5238 Clouds 1 1028 24 10000 12 340 14:38 29.12.2019
5239 Clouds 1 1028 24 10000 12 340 14:18 29.12.2019
5240 Clouds 2 1028 24 10000 10 350 13:57 29.12.2019
5241 Clouds 2 1028 24 10000 9 350 13:38 29.12.2019
5242 Clouds 2 1028 24 10000 9 350 13:20 29.12.2019
5243 Clouds 3 1026 27 10000 6 350 12:45 29.12.2019
5244 Clouds 3 1026 27 10000 6 340 12:27 29.12.2019
5245 Clouds 3 1026 27 10000 6 340 12:27 29.12.2019
5246 Clouds 3 1025 27 10000 7 340 11:58 29.12.2019
5247 Clouds 4 1024 38 10000 5 360 11:40 29.12.2019
5248 Clouds 4 1024 38 10000 5 360 11:20 29.12.2019
5249 Clouds 4 1024 38 10000 5 360 11:20 29.12.2019
5250 Clouds 4 1023 41 10000 3 10 10:55 29.12.2019
5251 Clouds 4 1022 51 6000 4 360 10:37 29.12.2019
5252 Clouds 4 1022 51 6000 4 360 10:18 29.12.2019
5253 Clouds 4 1022 51 6000 4 360 10:18 29.12.2019
5254 Haze 5 1021 48 5000 4 10 09:41 29.12.2019
5255 Haze 5 1021 44 4800 2 10 09:22 29.12.2019
5256 Haze 5 1020 44 4800 3 10 08:48 29.12.2019
5257 Haze 5 1020 44 4500 4 20 08:28 29.12.2019
5258 Haze 6 1019 48 4500 4 30 07:58 29.12.2019
5259 Haze 6 1019 48 4500 4 10 07:31 29.12.2019
5260 Haze 6 1019 48 4500 4 10 07:31 29.12.2019
5261 Haze 7 1019 48 4500 4 360 06:57 29.12.2019
5262 Haze 6 1019 52 5000 4 350 06:27 29.12.2019
5263 Haze 6 1019 51 5000 4 340 05:54 29.12.2019
5264 Clear 3 1020 59 6000 4 330 04:42 29.12.2019
5265 Clear 2 1020 59 6000 2 350 04:21 29.12.2019
5266 Mist 1 1020 59 5000 3 330 03:21 29.12.2019
5267 Clear -1 1019 80 6000 2 340 02:22 29.12.2019
5268 Clear -1 1019 80 6000 2 340 02:22 29.12.2019
5269 Clear -1 1019 79 6000 3 350 01:42 29.12.2019
5270 Clear -1 1019 79 6000 2 340 01:23 29.12.2019
5271 Clear -2 1018 86 6000 1 10 00:44 29.12.2019
5272 Clear -2 1018 85 6000 3 350 00:24 29.12.2019
5273 Clear -3 1018 85 6000 2 360 23:45 28.12.2019
5274 Clear -3 1018 85 6000 2 360 23:18 28.12.2019
5275 Clear -3 1017 85 7000 1 340 22:54 28.12.2019
5276 Clear -3 1017 85 7000 1 330 22:36 28.12.2019
5277 Clear -3 1017 85 7000 1 330 22:18 28.12.2019
5278 Clear -3 1017 85 7000 2 310 21:55 28.12.2019
5279 Clear -3 1017 85 7000 1 340 21:36 28.12.2019
5280 Clear -3 1017 85 7000 1 340 21:18 28.12.2019
5281 Clear -4 1018 92 7000 2 360 20:38 28.12.2019
5282 Clear -4 1018 92 7000 2 360 20:20 28.12.2019
5283 Clear -4 1018 92 7000 1.39 17 19:58 28.12.2019
5284 Clear -4 1018 92 7000 2 350 19:39 28.12.2019
5285 Clear -4 1018 85 7000 1.39 17 19:21 28.12.2019
5286 Clear -4 1018 85 7000 1.39 17 18:58 28.12.2019
5287 Clear -3 1018 92 7000 1 150 18:40 28.12.2019
5288 Clear -4 1018 92 7000 1 150 18:19 28.12.2019
5289 Clear -3 1018 92 7000 1 350 17:55 28.12.2019
5290 Clear -3 1018 92 7000 1 350 17:55 28.12.2019
5291 Clear -3 1019 85 7000 2 350 17:37 28.12.2019
5292 Clear -3 1019 85 7000 2 350 17:18 28.12.2019
5293 Clear -2 1019 92 8000 1 0 16:46 28.12.2019
5294 Clear -2 1019 85 8000 1.49 11 16:26 28.12.2019
5295 Clear -2 1019 85 8000 1.49 11 16:26 28.12.2019
5296 Clear -2 1019 85 8000 1.49 11 16:26 28.12.2019
5297 Clear -2 1019 79 8000 1.49 11 15:49 28.12.2019
5298 Clear -2 1019 85 8000 1.49 11 15:25 28.12.2019
5299 Clear -2 1020 85 8000 1 50 14:59 28.12.2019
5300 Clear -2 1019 79 8000 1 0 14:40 28.12.2019
5301 Clouds -2 1019 79 8000 1 0 14:21 28.12.2019
5302 Clouds -2 1019 79 8000 1.19 17 13:56 28.12.2019
5303 Clouds -2 1020 85 8000 1 40 13:37 28.12.2019
5304 Clouds -2 1020 85 8000 1 40 13:18 28.12.2019
5305 Clouds -1 1019 79 8000 1 0 12:43 28.12.2019
5306 Clouds -1 1019 79 8000 1 0 12:43 28.12.2019
5307 Clouds -1 1019 79 8000 1 0 12:24 28.12.2019
5308 Clouds -1 1019 73 8000 1.1 17 11:56 28.12.2019
5309 Clouds -1 1019 73 8000 1.1 17 11:56 28.12.2019
5310 Clouds -1 1019 73 8000 1.1 17 11:38 28.12.2019
5311 Clouds 0 1019 73 8000 0.18 3 11:19 28.12.2019
5312 Clouds 0 1018 74 10000 0.18 3 10:44 28.12.2019
5313 Clouds 1 1018 58 10000 0.18 3 10:22 28.12.2019
5314 Clouds 2 1018 51 10000 1 0 09:57 28.12.2019
5315 Clouds 3 1018 51 10000 1 0 09:39 28.12.2019
5316 Clouds 3 1018 51 10000 1 0 09:19 28.12.2019
5317 Clouds 3 1018 51 10000 2 110 08:44 28.12.2019
5318 Clear 4 1018 44 10000 1 0 08:26 28.12.2019
5319 Clear 4 1019 48 10000 2 120 07:53 28.12.2019
5320 Clear 4 1019 48 10000 2 140 07:30 28.12.2019
5321 Clear 5 1020 44 10000 2 300 06:27 28.12.2019
5322 Clear 1 1021 47 10000 2 320 04:51 28.12.2019
5323 Clear 1 1022 63 10000 2 310 03:47 28.12.2019
5324 Clear 0 1022 73 10000 2 350 02:48 28.12.2019
5325 Clear -3 1022 79 10000 3 350 01:59 28.12.2019
5326 Clear -4 1022 85 10000 2 360 01:30 28.12.2019
5327 Clear -5 1021 85 10000 1 0 00:58 28.12.2019
5328 Clear -5 1021 92 10000 1 0 00:38 28.12.2019
5329 Clear -5 1021 92 10000 1 0 00:19 28.12.2019
5330 Clear -4 1021 85 10000 1 10 23:43 27.12.2019
5331 Clear -4 1021 79 10000 1 0 23:20 27.12.2019
5332 Clear -4 1021 79 10000 2 330 22:58 27.12.2019
5333 Clear -4 1021 79 10000 3 330 22:38 27.12.2019
5334 Clear -4 1021 79 10000 3 330 22:20 27.12.2019
5335 Clear -5 1021 79 10000 3 340 21:55 27.12.2019
5336 Clear -5 1021 78 10000 3 350 21:37 27.12.2019
5337 Clear -5 1021 78 10000 3 350 21:18 27.12.2019
5338 Clear -4 1022 85 10000 1 0 20:41 27.12.2019
5339 Clear -4 1022 85 10000 1 0 20:22 27.12.2019
5340 Clear -4 1022 79 10000 1.49 15 19:43 27.12.2019
5341 Clear -6 1022 79 10000 1.49 15 19:21 27.12.2019
5342 Clear -6 1022 79 10000 1.49 15 19:21 27.12.2019
5343 Clear -5 1022 79 10000 1 350 18:59 27.12.2019
5344 Clear -5 1022 79 10000 1 10 18:39 27.12.2019
5345 Clear -5 1022 79 10000 1 10 18:39 27.12.2019
5346 Clear -4 1022 79 10000 1 10 18:21 27.12.2019
5347 Clear -4 1022 79 10000 1 0 17:58 27.12.2019
5348 Clear -4 1022 79 10000 1 360 17:39 27.12.2019
5349 Clear -5 1022 79 10000 1 360 17:19 27.12.2019
5350 Clear -3 1022 79 10000 1 50 16:58 27.12.2019
5351 Clear -3 1022 79 10000 1 0 16:38 27.12.2019
5352 Clear -3 1022 79 10000 1 0 16:19 27.12.2019
5353 Clear -3 1022 79 10000 1 80 15:45 27.12.2019
5354 Clear -3 1022 73 10000 1 10 15:22 27.12.2019
5355 Clear -3 1022 73 10000 1 0 14:58 27.12.2019
5356 Clear -3 1022 73 10000 2 80 14:39 27.12.2019
5357 Clear -2 1022 73 10000 2 80 14:20 27.12.2019
5358 Clear -2 1022 73 10000 1 50 13:57 27.12.2019
5359 Clear -4 1021 73 10000 2 50 13:38 27.12.2019
5360 Clear -3 1021 73 10000 2 50 13:38 27.12.2019
5361 Clear -2 1021 73 10000 2 50 13:20 27.12.2019
5362 Clear -3 1021 62 10000 1 90 12:42 27.12.2019
5363 Clear -3 1021 62 10000 1 90 12:23 27.12.2019
5364 Clear -2 1021 62 10000 2 80 11:46 27.12.2019
5365 Clear -2 1021 58 10000 1 0 11:27 27.12.2019
5366 Clear -1 1020 50 10000 1 110 10:59 27.12.2019
5367 Clear 1 1020 41 10000 1 80 10:41 27.12.2019
5368 Clear 1 1020 41 10000 1 80 10:22 27.12.2019
5369 Clear 3 1020 29 10000 1 0 09:46 27.12.2019
5370 Clear 4 1020 29 10000 2 180 09:22 27.12.2019
5371 Clear 4 1019 29 10000 2 180 08:59 27.12.2019
5372 Clear 4 1019 29 10000 2 180 08:59 27.12.2019
5373 Clear 4 1019 29 10000 2 190 08:38 27.12.2019
5374 Clear 4 1019 29 10000 1 0 07:57 27.12.2019
5375 Clear 4 1020 29 10000 1 0 07:38 27.12.2019
5376 Clear 6 1021 34 10000 1 0 06:39 27.12.2019
5377 Clear 6 1021 34 10000 1 0 06:18 27.12.2019
5378 Clear 1 1023 44 10000 1 0 04:20 27.12.2019
5379 Clear -3 1023 73 10000 2 10 02:26 27.12.2019
5380 Clear -4 1024 85 10000 1 0 01:42 27.12.2019
5381 Clear -6 1023 85 10000 1 30 01:20 27.12.2019
5382 Clear -7 1023 85 10000 1 30 00:46 27.12.2019
5383 Clear -7 1023 78 10000 1 0 00:25 27.12.2019
5384 Clear -7 1023 78 10000 1 0 00:25 27.12.2019
5385 Clear -6 1023 78 10000 2 10 23:44 26.12.2019
5386 Clear -6 1023 78 10000 2 360 23:24 26.12.2019
5387 Clear -6 1023 78 10000 1 360 22:58 26.12.2019
5388 Clear -6 1023 72 10000 1.11 19 22:38 26.12.2019
5389 Clear -6 1023 72 10000 1.11 19 22:18 26.12.2019
5390 Clear -6 1024 78 10000 1 0 21:39 26.12.2019
5391 Clear -6 1024 78 10000 1 0 21:21 26.12.2019
5392 Clear -6 1024 72 10000 1 0 20:54 26.12.2019
5393 Clear -5 1024 78 10000 1 0 20:36 26.12.2019
5394 Clear -5 1024 78 10000 1 0 20:18 26.12.2019
5395 Clear -5 1024 78 10000 1 0 20:18 26.12.2019
5396 Clear -5 1024 67 10000 1 0 19:54 26.12.2019
5397 Clear -5 1024 72 10000 1 0 19:36 26.12.2019
5398 Clear -5 1024 72 10000 1 0 19:18 26.12.2019
5399 Clear -5 1024 72 10000 1 0 19:18 26.12.2019
5400 Clear -5 1024 67 10000 1 30 18:55 26.12.2019
5401 Clear -5 1024 67 10000 1 30 18:55 26.12.2019
5402 Clear -4 1025 73 10000 1 0 18:36 26.12.2019
5403 Clear -4 1025 73 10000 1 0 18:18 26.12.2019
5404 Clear -4 1025 62 10000 1 50 17:40 26.12.2019
5405 Clear -3 1025 62 10000 1 50 17:20 26.12.2019
5406 Clear -3 1025 53 10000 2 170 16:48 26.12.2019
5407 Clear -2 1025 53 10000 1 0 16:26 26.12.2019
5408 Clear -2 1025 42 10000 2 190 15:57 26.12.2019
5409 Clear -1 1025 42 10000 2 190 15:38 26.12.2019
5410 Clear -1 1025 42 10000 2 190 15:19 26.12.2019
5411 Clear -1 1025 36 10000 1 0 14:41 26.12.2019
5412 Clear -1 1025 29 10000 3 230 14:23 26.12.2019
5413 Clear -1 1025 29 10000 3 230 14:23 26.12.2019
5414 Clear -1 1025 29 10000 3 230 14:23 26.12.2019
5415 Clear 0 1025 24 10000 2 280 13:55 26.12.2019
5416 Clear 0 1025 26 10000 3 260 13:36 26.12.2019
5417 Clear 0 1025 26 10000 3 260 13:18 26.12.2019
5418 Clear 0 1025 24 10000 4 280 12:44 26.12.2019
5419 Clear 1 1025 24 10000 4 250 12:24 26.12.2019
5420 Clear 1 1025 24 10000 5 280 11:59 26.12.2019
5421 Clear 1 1025 24 10000 4 290 11:40 26.12.2019
5422 Clear 1 1025 24 10000 4 290 11:21 26.12.2019
5423 Clear 2 1025 24 10000 3 280 10:50 26.12.2019
5424 Clear 2 1025 24 10000 5 280 10:26 26.12.2019
5425 Clear 2 1025 22 10000 7 280 09:55 26.12.2019
5426 Clear 3 1025 21 10000 7 280 09:36 26.12.2019
5427 Clear 3 1025 21 10000 7 280 09:18 26.12.2019
5428 Clear 3 1025 21 10000 8 280 08:39 26.12.2019
5429 Clear 3 1025 21 10000 8 280 08:20 26.12.2019
5430 Clear 3 1025 21 10000 8 290 07:41 26.12.2019
5431 Clear 3 1025 23 10000 5 290 07:19 26.12.2019
5432 Clear 5 1025 21 10000 5 320 06:38 26.12.2019
5433 Clear 5 1025 21 10000 5 320 06:20 26.12.2019
5434 Clear 4 1027 23 10000 6 300 05:42 26.12.2019
5435 Clear 2 1028 27 10000 6 300 04:33 26.12.2019
5436 Clear 3 1028 31 10000 2 290 03:31 26.12.2019
5437 Clear 2 1028 54 10000 1 0 02:46 26.12.2019
5438 Clear -1 1028 54 10000 1 0 02:27 26.12.2019
5439 Clouds -1 1027 73 10000 2 350 01:44 26.12.2019
5440 Clouds -2 1027 73 10000 2 350 01:25 26.12.2019
5441 Clouds -4 1027 78 10000 2 30 00:44 26.12.2019
5442 Clouds -3 1027 73 10000 1 0 00:23 26.12.2019
5443 Clouds -3 1027 73 10000 1 0 00:23 26.12.2019
5444 Clouds -4 1027 78 10000 3 360 23:57 25.12.2019
5445 Clouds -4 1027 73 10000 1 320 23:37 25.12.2019
5446 Clouds -3 1027 73 10000 1 320 23:19 25.12.2019
5447 Clouds -4 1026 67 10000 1.51 5 22:56 25.12.2019
5448 Clouds -4 1027 62 10000 2 320 22:37 25.12.2019
5449 Clouds -4 1027 62 10000 2 320 22:18 25.12.2019
5450 Clouds -4 1027 62 10000 2 320 22:18 25.12.2019
5451 Clouds -3 1027 57 10000 3 340 21:55 25.12.2019
5452 Clouds -3 1027 57 10000 3 340 21:55 25.12.2019
5453 Clouds -3 1027 62 10000 2 330 21:37 25.12.2019
5454 Clouds -2 1027 62 10000 2 330 21:18 25.12.2019
5455 Clouds -2 1028 50 10000 2 350 20:40 25.12.2019
5456 Clouds -1 1028 50 10000 2 350 20:21 25.12.2019
5457 Clouds -1 1028 42 10000 1 290 19:59 25.12.2019
5458 Clouds 0 1028 42 10000 1.51 45 19:41 25.12.2019
5459 Clouds 0 1028 42 10000 1.51 45 19:21 25.12.2019
5460 Clouds 0 1029 55 10000 3 20 18:40 25.12.2019
5461 Clouds 0 1029 55 10000 3 20 18:21 25.12.2019
5462 Clouds 0 1029 55 10000 3 20 17:58 25.12.2019
5463 Clouds 0 1029 55 10000 4 10 17:39 25.12.2019
5464 Snow 0 1029 49 10000 4 10 17:18 25.12.2019
5465 Snow 0 1029 49 10000 3 20 16:54 25.12.2019
5466 Snow 1 1029 49 10000 5 20 16:36 25.12.2019
5467 Snow 1 1029 49 10000 5 20 16:18 25.12.2019
5468 Snow 1 1029 49 10000 4 20 15:55 25.12.2019
5469 Snow 1 1029 49 10000 4 30 15:36 25.12.2019
5470 Snow 1 1029 49 10000 4 30 15:18 25.12.2019
5471 Snow 1 1028 34 10000 4 20 14:42 25.12.2019
5472 Clouds 1 1028 34 10000 4 20 14:23 25.12.2019
5473 Clouds 2 1028 37 10000 4 10 13:58 25.12.2019
5474 Clouds 2 1028 37 10000 4 10 13:40 25.12.2019
5475 Clouds 2 1028 37 10000 4 10 13:20 25.12.2019
5476 Clouds 2 1028 40 10000 3 10 12:43 25.12.2019
5477 Clouds 2 1028 40 10000 3 10 12:22 25.12.2019
5478 Clouds 2 1028 43 10000 3 10 11:58 25.12.2019
5479 Clouds 2 1028 40 10000 4 10 11:40 25.12.2019
5480 Clouds 2 1028 40 10000 4 10 11:20 25.12.2019
5481 Clouds 3 1027 40 10000 3 360 10:39 25.12.2019
5482 Clouds 3 1027 40 10000 3 360 10:21 25.12.2019
5483 Clouds 3 1026 37 10000 4 20 09:58 25.12.2019
5484 Clouds 4 1026 35 10000 3 30 09:40 25.12.2019
5485 Clouds 4 1026 35 10000 3 30 09:21 25.12.2019
5486 Clouds 4 1025 35 10000 3 30 08:42 25.12.2019
5487 Clouds 5 1025 30 10000 4 10 08:23 25.12.2019
5488 Clouds 5 1025 30 10000 6 330 07:42 25.12.2019
5489 Clouds 5 1025 33 10000 4 20 07:22 25.12.2019
5490 Clouds 6 1025 33 10000 5 350 06:24 25.12.2019
5491 Clouds 5 1026 35 10000 6 330 05:49 25.12.2019
5492 Clouds 3 1027 44 10000 3 350 04:44 25.12.2019
5493 Clouds 2 1027 55 7000 3 350 04:24 25.12.2019
5494 Clouds 2 1027 64 6000 4 360 03:43 25.12.2019
5495 Mist 1 1027 74 5000 5 340 02:59 25.12.2019
5496 Mist 1 1026 79 4000 4 340 02:29 25.12.2019
5497 Mist -1 1026 79 3500 3 360 01:44 25.12.2019
5498 Mist -2 1026 86 2800 2.28 12 01:19 25.12.2019
5499 Mist -2 1026 85 2800 2 10 00:42 25.12.2019
5500 Mist -3 1025 92 2800 4 350 00:23 25.12.2019
5501 Mist -4 1025 92 3500 3 350 23:40 24.12.2019
5502 Mist -3 1025 92 3500 3 350 23:20 24.12.2019
5503 Mist -3 1024 92 3500 2 340 22:55 24.12.2019
5504 Mist -3 1024 92 3500 3 340 22:37 24.12.2019
5505 Mist -3 1024 92 3500 3 340 22:19 24.12.2019
5506 Mist -3 1024 92 4000 1 0 21:41 24.12.2019
5507 Mist -3 1024 92 4000 1 0 21:20 24.12.2019
5508 Mist -3 1024 92 4000 2.13 0 20:43 24.12.2019
5509 Mist -2 1025 92 5000 2 360 20:23 24.12.2019
5510 Mist -2 1025 92 5000 1 360 19:56 24.12.2019
5511 Mist -2 1025 92 5000 1.41 8 19:37 24.12.2019
5512 Mist -2 1025 92 5000 1.41 8 19:18 24.12.2019
5513 Clouds -2 1025 92 6000 1 110 18:42 24.12.2019
5514 Clouds -1 1025 86 6000 1 0 18:19 24.12.2019
5515 Clouds -1 1024 86 6000 1 0 17:45 24.12.2019
5516 Clouds -1 1025 80 6000 1 20 17:23 24.12.2019
5517 Clouds -1 1025 80 6000 1.07 24 16:58 24.12.2019
5518 Clouds -1 1025 80 6000 1.07 24 16:58 24.12.2019
5519 Clouds -1 1024 80 6000 1.07 24 16:40 24.12.2019
5520 Clouds -1 1024 80 6000 1.07 24 16:40 24.12.2019
5521 Clouds -1 1024 80 6000 1.07 24 16:22 24.12.2019
5522 Clouds -1 1024 80 6000 1.07 24 15:58 24.12.2019
5523 Clouds -1 1024 80 6000 1 10 15:38 24.12.2019
5524 Clouds -1 1024 80 6000 1 10 15:19 24.12.2019
5525 Clouds 0 1024 80 6000 1 0 14:58 24.12.2019
5526 Clouds -1 1024 80 6000 2 30 14:40 24.12.2019
5527 Clouds -1 1024 80 6000 2 30 14:22 24.12.2019
5528 Mist -1 1024 80 5000 2 60 13:56 24.12.2019
5529 Mist 0 1024 80 5000 1 0 13:38 24.12.2019
5530 Mist 0 1024 80 5000 1 0 13:20 24.12.2019
5531 Mist 0 1024 80 5000 1 0 12:57 24.12.2019
5532 Mist 0 1024 80 5000 1 0 12:38 24.12.2019
5533 Mist 0 1024 80 5000 1 0 12:19 24.12.2019
5534 Mist 0 1024 86 5000 2 90 11:57 24.12.2019
5535 Mist 0 1024 86 5000 2 50 11:38 24.12.2019
5536 Mist 0 1024 86 5000 2 50 11:20 24.12.2019
5537 Mist 0 1024 86 5000 2 80 10:57 24.12.2019
5538 Mist 0 1024 86 5000 2 80 10:57 24.12.2019
5539 Mist 0 1024 86 4500 2 100 10:38 24.12.2019
5540 Mist 0 1024 86 4500 2 100 10:20 24.12.2019
5541 Mist 0 1025 86 4500 1 0 09:58 24.12.2019
5542 Mist 0 1025 86 4500 1 0 09:58 24.12.2019
5543 Snow 0 1025 86 4500 2 100 09:39 24.12.2019
5544 Snow 0 1025 86 4500 2 100 09:39 24.12.2019
5545 Snow 0 1025 86 4500 2 100 09:21 24.12.2019
5546 Snow 0 1025 86 4500 2 100 08:47 24.12.2019
5547 Snow 0 1025 86 4500 2 70 08:25 24.12.2019
5548 Snow 0 1025 86 5000 2 120 07:59 24.12.2019
5549 Snow 0 1025 86 6000 2 130 07:39 24.12.2019
5550 Snow 0 1025 86 6000 2 130 07:21 24.12.2019
5551 Snow 0 1025 86 6000 2 130 07:21 24.12.2019
5552 Snow 0 1026 80 6000 2 120 06:40 24.12.2019
5553 Snow 0 1026 80 6000 2 120 06:19 24.12.2019
5554 Snow 0 1026 80 6000 4 130 05:53 24.12.2019
5555 Snow 0 1027 80 6000 3 120 05:19 24.12.2019
5556 Snow 0 1028 80 6000 3 130 04:21 24.12.2019
5557 Snow -1 1028 80 6000 3 130 03:48 24.12.2019
5558 Snow -1 1029 79 6000 3 120 02:29 24.12.2019
5559 Snow -1 1029 79 7000 3 130 01:55 24.12.2019
5560 Snow -2 1029 79 7000 2 130 01:26 24.12.2019
5561 Snow -2 1029 79 7000 2 110 00:58 24.12.2019
5562 Snow -2 1029 79 7000 2 110 00:39 24.12.2019
5563 Snow -2 1029 79 7000 2 110 00:20 24.12.2019
5564 Snow -2 1029 79 7000 3 100 23:43 23.12.2019
5565 Snow -1 1029 79 8000 3 110 23:24 23.12.2019
5566 Snow -1 1029 79 8000 3 110 23:24 23.12.2019
5567 Snow -2 1029 74 8000 2 110 22:57 23.12.2019
5568 Snow -2 1029 74 8000 2 100 22:38 23.12.2019
5569 Snow -2 1029 74 8000 2 100 22:38 23.12.2019
5570 Snow -1 1029 74 8000 2 100 22:20 23.12.2019
5571 Snow -2 1030 79 7000 2 120 21:56 23.12.2019
5572 Snow -2 1030 79 6000 3 100 21:37 23.12.2019
5573 Snow -2 1030 79 6000 3 100 21:19 23.12.2019
5574 Snow -2 1030 79 6000 2 110 20:58 23.12.2019
5575 Snow -2 1030 79 6000 2 100 20:40 23.12.2019
5576 Snow -1 1030 79 6000 2 100 20:19 23.12.2019
5577 Snow -1 1030 79 6000 2 100 20:19 23.12.2019
5578 Snow -1 1031 74 6000 2 120 19:58 23.12.2019
5579 Snow -1 1031 74 6000 2 130 19:39 23.12.2019
5580 Snow -1 1031 74 6000 2 130 19:20 23.12.2019
5581 Snow -1 1031 74 6000 3 130 18:58 23.12.2019
5582 Snow -1 1031 74 6000 3 130 18:58 23.12.2019
5583 Snow -1 1031 74 6000 3 130 18:39 23.12.2019
5584 Snow -1 1031 74 6000 3 130 18:20 23.12.2019
5585 Snow 0 1031 74 6000 3 140 17:58 23.12.2019
5586 Snow 0 1031 74 6000 2 110 17:40 23.12.2019
5587 Snow 0 1031 74 6000 2 110 17:19 23.12.2019
5588 Snow 0 1031 74 6000 3 130 16:57 23.12.2019
5589 Snow 0 1031 68 6000 1 0 16:39 23.12.2019
5590 Snow 0 1031 68 6000 1 0 16:18 23.12.2019
5591 Snow 0 1031 68 6000 2 130 15:57 23.12.2019
5592 Snow 0 1031 68 6000 1 0 15:37 23.12.2019
5593 Snow 0 1031 68 6000 1 0 15:19 23.12.2019
5594 Snow -1 1031 74 6000 1 40 14:56 23.12.2019
5595 Snow -1 1031 74 6000 1 40 14:56 23.12.2019
5596 Snow -1 1031 74 6000 1 60 14:38 23.12.2019
5597 Clouds -1 1031 74 6000 1 60 14:18 23.12.2019
5598 Clouds -1 1031 74 6000 1 50 13:56 23.12.2019
5599 Clouds 0 1031 68 6000 1 50 13:37 23.12.2019
5600 Clouds 0 1031 68 6000 1 50 13:19 23.12.2019
5601 Clouds 0 1031 68 6000 1 40 12:54 23.12.2019
5602 Clouds 0 1030 68 6000 1 110 12:36 23.12.2019
5603 Clouds 0 1030 68 6000 1 110 12:18 23.12.2019
5604 Haze 0 1030 63 5000 1 100 11:42 23.12.2019
5605 Haze 0 1030 63 5000 1 100 11:22 23.12.2019
5606 Haze 0 1030 63 5000 2 100 10:56 23.12.2019
5607 Haze 0 1029 63 5000 2 100 10:37 23.12.2019
5608 Haze 0 1029 63 5000 2 100 10:18 23.12.2019
5609 Haze 0 1029 66 5000 2 100 09:56 23.12.2019
5610 Haze 0 1029 66 5000 2 110 09:37 23.12.2019
5611 Haze 0 1029 66 5000 2 110 09:19 23.12.2019
5612 Haze 1 1029 64 4500 3 130 08:41 23.12.2019
5613 Haze 1 1029 64 4500 3 130 08:22 23.12.2019
5614 Clouds 1 1029 55 10000 3 120 07:57 23.12.2019
5615 Clouds 1 1029 43 10000 2 120 07:38 23.12.2019
5616 Clouds 1 1029 43 10000 2 120 07:19 23.12.2019
5617 Clouds 1 1029 34 10000 2 0 06:39 23.12.2019
5618 Clouds 1 1029 34 10000 2 0 06:21 23.12.2019
5619 Clouds 2 1030 31 10000 1 0 05:45 23.12.2019
5620 Clouds 0 1031 31 10000 2 10 04:55 23.12.2019
5621 Clouds 0 1031 50 10000 3 50 03:59 23.12.2019
5622 Clouds -1 1031 46 10000 3 20 02:48 23.12.2019
5623 Clouds -2 1030 54 10000 1 0 02:20 23.12.2019
5624 Clouds -2 1030 53 10000 2 40 01:51 23.12.2019
5625 Clouds -4 1030 57 10000 1 60 01:32 23.12.2019
5626 Clouds -4 1030 57 10000 1 60 01:32 23.12.2019
5627 Clouds -4 1030 57 10000 1 60 01:32 23.12.2019
5628 Clouds -3 1029 53 10000 2 30 00:49 23.12.2019
5629 Clouds -3 1029 49 10000 3 40 00:30 23.12.2019
5630 Clouds -3 1029 49 10000 4 10 23:57 22.12.2019
5631 Clouds -3 1028 53 10000 4 20 23:38 22.12.2019
5632 Clouds -3 1028 53 10000 4 20 23:20 22.12.2019
5633 Clouds -2 1028 53 10000 4 20 22:57 22.12.2019
5634 Clouds -2 1027 50 10000 4 20 22:38 22.12.2019
5635 Clouds -2 1027 50 10000 4 20 22:19 22.12.2019
5636 Clouds -2 1027 53 10000 3 10 21:56 22.12.2019
5637 Clouds -3 1027 62 10000 4 360 21:38 22.12.2019
5638 Clouds -3 1027 62 10000 4 360 21:20 22.12.2019
5639 Clouds -2 1027 62 10000 4 340 20:41 22.12.2019
5640 Clouds -2 1027 62 10000 4 340 20:19 22.12.2019
5641 Clouds -1 1026 54 10000 4 10 19:58 22.12.2019
5642 Clouds -2 1026 58 10000 3 20 19:40 22.12.2019
5643 Clouds -1 1026 58 10000 3 20 19:20 22.12.2019
5644 Clouds -2 1026 67 10000 4 350 18:58 22.12.2019
5645 Clouds -2 1026 68 10000 3 350 18:38 22.12.2019
5646 Clouds -1 1026 68 10000 3 350 18:19 22.12.2019
5647 Clouds -1 1026 68 10000 3 350 17:55 22.12.2019
5648 Clouds -1 1026 68 10000 3 360 17:36 22.12.2019
5649 Clouds -1 1026 68 10000 3 360 17:18 22.12.2019
5650 Clouds -1 1026 62 10000 2 320 16:42 22.12.2019
5651 Clouds 0 1025 58 10000 2 330 16:23 22.12.2019
5652 Clouds -1 1025 62 10000 3 340 15:57 22.12.2019
5653 Clouds -1 1025 67 10000 1 0 15:39 22.12.2019
5654 Clouds -1 1025 67 10000 1 0 15:21 22.12.2019
5655 Clouds 1 1024 55 10000 2 300 14:57 22.12.2019
5656 Clouds -1 1023 67 10000 2 360 14:38 22.12.2019
5657 Clear -1 1023 67 10000 2 360 14:19 22.12.2019
5658 Clear -1 1023 63 10000 1 0 13:56 22.12.2019
5659 Clear -1 1023 54 10000 2 330 13:38 22.12.2019
5660 Clear 0 1023 54 10000 2 330 13:19 22.12.2019
5661 Clear -2 1022 73 10000 2 40 12:57 22.12.2019
5662 Clear -2 1022 62 10000 2 350 12:38 22.12.2019
5663 Clear -1 1022 62 10000 2 350 12:19 22.12.2019
5664 Clear -1 1022 68 10000 3 10 11:57 22.12.2019
5665 Clear -1 1021 68 10000 2 20 11:38 22.12.2019
5666 Clear 0 1021 68 10000 2 20 11:19 22.12.2019
5667 Clear 1 1021 58 10000 1 0 10:57 22.12.2019
5668 Clear 1 1020 54 10000 1 0 10:38 22.12.2019
5669 Clear 2 1020 54 10000 1 0 10:19 22.12.2019
5670 Clear 2 1020 37 10000 2 220 09:57 22.12.2019
5671 Clear 2 1020 37 10000 2 220 09:57 22.12.2019
5672 Clear 3 1019 35 10000 2 0 09:39 22.12.2019
5673 Clear 3 1019 35 10000 2 0 09:20 22.12.2019
5674 Clear 4 1019 35 10000 1 0 08:45 22.12.2019
5675 Clear 4 1019 35 10000 1 0 08:22 22.12.2019
5676 Clear 4 1019 35 10000 1 0 07:44 22.12.2019
5677 Clear 4 1019 35 10000 1 0 07:21 22.12.2019
5678 Clear 4 1019 35 10000 1 0 07:21 22.12.2019
5679 Clear 4 1019 35 10000 1 0 07:21 22.12.2019
5680 Clear 5 1019 34 10000 1 0 06:55 22.12.2019
5681 Clear 5 1019 32 10000 2 330 06:26 22.12.2019
5682 Clear 4 1020 47 10000 2 280 05:33 22.12.2019
5683 Clear 2 1021 43 10000 2 330 04:55 22.12.2019
5684 Clear 1 1021 50 10000 3 320 04:26 22.12.2019
5685 Clear -1 1022 63 10000 4 330 02:46 22.12.2019
5686 Clear -3 1021 73 10000 2 350 02:23 22.12.2019
5687 Clear -4 1021 73 10000 2 340 01:32 22.12.2019
5688 Clear -5 1021 79 10000 2 350 00:56 22.12.2019
5689 Clear -5 1021 79 10000 2 350 00:56 22.12.2019
5690 Clear -5 1021 78 10000 3 360 00:36 22.12.2019
5691 Clear -5 1021 78 10000 3 360 00:18 22.12.2019
5692 Clear -5 1021 85 10000 2 360 23:41 21.12.2019
5693 Clear -5 1021 85 10000 2 360 23:21 21.12.2019
5694 Clear -5 1021 85 10000 2 350 22:57 21.12.2019
5695 Clear -5 1021 85 10000 2 360 22:39 21.12.2019
5696 Clear -6 1021 85 10000 2 360 22:18 21.12.2019
5697 Clear -6 1021 85 10000 2 360 22:18 21.12.2019
5698 Clear -5 1021 85 10000 1 350 21:55 21.12.2019
5699 Clear -5 1021 78 10000 1 30 21:36 21.12.2019
5700 Clear -5 1021 78 10000 1 30 21:18 21.12.2019
5701 Clear -5 1021 85 10000 1 360 20:57 21.12.2019
5702 Clear -5 1021 73 10000 1 350 20:37 21.12.2019
5703 Clouds -5 1021 73 10000 1 350 20:19 21.12.2019
5704 Clouds -5 1021 78 10000 2 20 19:55 21.12.2019
5705 Clouds -3 1021 62 10000 2 100 19:36 21.12.2019
5706 Clouds -3 1021 62 10000 2 100 19:18 21.12.2019
5707 Clouds -3 1022 68 10000 2 60 18:41 21.12.2019
5708 Clouds -3 1022 68 10000 2 60 18:23 21.12.2019
5709 Clouds -2 1022 63 10000 1 0 17:56 21.12.2019
5710 Clouds -2 1022 62 10000 1 70 17:38 21.12.2019
5711 Clouds -2 1022 62 10000 1 70 17:20 21.12.2019
5712 Clouds -2 1023 63 10000 2 60 16:57 21.12.2019
5713 Clouds -1 1023 58 10000 2 60 16:38 21.12.2019
5714 Clouds -1 1023 58 10000 2 60 16:18 21.12.2019
5715 Clouds -2 1023 63 10000 2 60 15:55 21.12.2019
5716 Clouds -2 1023 58 10000 1 0 15:37 21.12.2019
5717 Clouds 0 1023 58 10000 1 0 15:18 21.12.2019
5718 Clouds 0 1023 58 10000 1 110 14:41 21.12.2019
5719 Clouds 0 1023 58 10000 1 0 14:23 21.12.2019
5720 Clouds -1 1023 68 10000 2 110 13:58 21.12.2019
5721 Clouds 0 1023 58 10000 1 0 13:39 21.12.2019
5722 Clouds 0 1023 58 10000 1 0 13:19 21.12.2019
5723 Clouds 0 1023 54 10000 1 0 12:56 21.12.2019
5724 Clouds 0 1024 54 10000 2 100 12:38 21.12.2019
5725 Clouds 0 1024 54 10000 2 100 12:20 21.12.2019
5726 Clouds 0 1024 59 10000 2 100 11:48 21.12.2019
5727 Clouds 0 1024 50 10000 2 80 11:27 21.12.2019
5728 Clouds -1 1024 54 10000 2 90 10:59 21.12.2019
5729 Clouds 0 1023 52 10000 1 110 10:40 21.12.2019
5730 Clouds 0 1023 52 10000 1 110 10:21 21.12.2019
5731 Clouds 2 1023 34 10000 2 70 09:58 21.12.2019
5732 Clouds 3 1023 32 10000 1 0 09:39 21.12.2019
5733 Clouds 3 1023 32 10000 1 0 09:19 21.12.2019
5734 Clouds 3 1023 29 10000 1 0 08:47 21.12.2019
5735 Clouds 4 1024 32 10000 1 0 08:27 21.12.2019
5736 Clear 3 1024 34 10000 3 200 07:47 21.12.2019
5737 Clear 3 1024 37 10000 2 170 07:23 21.12.2019
5738 Clear 3 1024 40 10000 3 190 06:58 21.12.2019
5739 Clear 4 1024 37 10000 2 0 06:40 21.12.2019
5740 Clear 4 1024 37 10000 2 0 06:21 21.12.2019
5741 Clear 3 1025 37 10000 1 0 05:25 21.12.2019
5742 Clear 0 1027 50 10000 2 290 04:34 21.12.2019
5743 Clear 1 1027 54 10000 2 320 03:56 21.12.2019
5744 Clear -2 1026 58 10000 2 320 02:25 21.12.2019
5745 Clear -3 1026 58 10000 2 320 02:25 21.12.2019
5746 Clear -5 1026 67 10000 2 310 01:43 21.12.2019
5747 Clear -7 1026 72 10000 3 340 01:24 21.12.2019
5748 Clear -6 1026 67 10000 2 310 00:40 21.12.2019
5749 Clear -7 1026 67 10000 2 310 00:21 21.12.2019
5750 Clear -7 1025 72 10000 2 340 23:39 20.12.2019
5751 Clear -7 1025 72 10000 2 340 23:21 20.12.2019
5752 Clear -7 1025 67 10000 2 300 22:59 20.12.2019
5753 Clear -7 1025 67 10000 2 300 22:59 20.12.2019
5754 Clear -7 1025 78 10000 2 340 22:39 20.12.2019
5755 Clear -7 1025 78 10000 2 340 22:18 20.12.2019
5756 Clear -7 1026 78 10000 4 340 21:41 20.12.2019
5757 Clear -7 1026 78 10000 4 340 21:21 20.12.2019
5758 Clear -7 1026 85 10000 2 350 20:59 20.12.2019
5759 Clear -7 1026 78 10000 1 350 20:38 20.12.2019
5760 Clear -7 1026 78 10000 1 350 20:19 20.12.2019
5761 Clear -6 1026 72 10000 1 330 19:56 20.12.2019
5762 Clear -7 1026 78 10000 2 350 19:38 20.12.2019
5763 Clear -7 1026 78 10000 2 350 19:18 20.12.2019
5764 Clear -6 1027 72 10000 1 360 18:41 20.12.2019
5765 Clear -6 1027 72 10000 1 360 18:22 20.12.2019
5766 Clear -6 1027 72 10000 2 360 17:58 20.12.2019
5767 Clear -6 1027 72 10000 2 360 17:39 20.12.2019
5768 Clear -6 1027 72 10000 2 360 17:20 20.12.2019
5769 Clear -6 1027 72 10000 2 360 16:57 20.12.2019
5770 Clear -5 1027 67 10000 2 350 16:38 20.12.2019
5771 Clear -5 1027 67 10000 2 350 16:19 20.12.2019
5772 Clear -5 1027 72 10000 1.45 19 15:55 20.12.2019
5773 Clear -5 1027 72 10000 1 0 15:37 20.12.2019
5774 Clear -5 1027 72 10000 1 0 15:18 20.12.2019
5775 Clear -5 1027 67 10000 1 30 14:42 20.12.2019
5776 Clear -5 1027 67 10000 1 30 14:24 20.12.2019
5777 Clear -5 1027 57 10000 1 40 13:57 20.12.2019
5778 Clear -4 1027 53 10000 2 10 13:37 20.12.2019
5779 Clear -4 1027 53 10000 2 10 13:19 20.12.2019
5780 Clear -3 1027 49 10000 1 60 12:56 20.12.2019
5781 Clear -3 1027 45 10000 2 60 12:36 20.12.2019
5782 Clear -3 1027 45 10000 2 60 12:18 20.12.2019
5783 Clear -2 1026 45 10000 2 50 11:57 20.12.2019
5784 Clear -2 1026 42 10000 2 50 11:38 20.12.2019
5785 Clear -2 1026 42 10000 2 50 11:38 20.12.2019
5786 Clear -2 1026 42 10000 2 50 11:18 20.12.2019
5787 Clear -2 1026 49 10000 1 0 10:56 20.12.2019
5788 Clear -1 1026 42 10000 2 50 10:37 20.12.2019
5789 Clear -1 1026 42 10000 2 50 10:19 20.12.2019
5790 Clear 0 1026 39 10000 2 60 09:43 20.12.2019
5791 Clear 0 1026 39 10000 2 60 09:21 20.12.2019
5792 Clear 1 1026 39 10000 2 70 08:55 20.12.2019
5793 Clear 0 1026 39 10000 1 0 08:37 20.12.2019
5794 Clouds 0 1026 39 10000 1 0 08:19 20.12.2019
5795 Clouds 1 1026 36 10000 1 0 07:57 20.12.2019
5796 Clouds 0 1027 36 10000 2 50 07:37 20.12.2019
5797 Clouds 0 1027 36 10000 2 50 07:18 20.12.2019
5798 Clouds 1 1028 36 10000 2 0 06:44 20.12.2019
5799 Clouds 1 1028 36 10000 1 0 06:26 20.12.2019
5800 Clouds 1 1029 36 10000 1 0 05:47 20.12.2019
5801 Clear 0 1030 38 10000 2 60 04:59 20.12.2019
5802 Clear -3 1031 49 10000 2 60 03:49 20.12.2019
5803 Clear -4 1032 53 10000 1 0 02:55 20.12.2019
5804 Clear -7 1032 67 10000 2 350 01:59 20.12.2019
5805 Clear -7 1031 66 10000 2 340 01:35 20.12.2019
5806 Clear -8 1031 72 10000 2 350 00:55 20.12.2019
5807 Clear -8 1031 66 10000 2 360 00:35 20.12.2019
5808 Clear -9 1031 78 10000 2 360 23:58 19.12.2019
5809 Clear -8 1031 72 10000 1 0 23:40 19.12.2019
5810 Clear -9 1031 72 10000 1 0 23:19 19.12.2019
5811 Clear -8 1031 72 10000 1 0 22:40 19.12.2019
5812 Clear -8 1031 72 10000 1 0 22:22 19.12.2019
5813 Clear -8 1031 61 10000 2 340 21:57 19.12.2019
5814 Clear -8 1031 56 10000 2 350 21:39 19.12.2019
5815 Clear -7 1031 56 10000 2 350 21:19 19.12.2019
5816 Clear -8 1032 61 10000 2 330 20:57 19.12.2019
5817 Clear -8 1032 61 10000 2 350 20:38 19.12.2019
5818 Clear -8 1032 61 10000 2 350 20:20 19.12.2019
5819 Clear -7 1032 61 10000 2 350 19:58 19.12.2019
5820 Clear -8 1032 72 10000 2 10 19:39 19.12.2019
5821 Clear -7 1032 72 10000 2 10 19:19 19.12.2019
5822 Clear -7 1032 72 10000 2 10 19:19 19.12.2019
5823 Clear -7 1032 72 10000 2 10 19:19 19.12.2019
5824 Clear -6 1033 48 10000 1 0 18:57 19.12.2019
5825 Clear -6 1033 48 10000 1 0 18:57 19.12.2019
5826 Clear -6 1033 41 10000 1 0 18:39 19.12.2019
5827 Clear -5 1033 41 10000 1 0 18:19 19.12.2019
5828 Clear -5 1033 44 10000 2 50 17:56 19.12.2019
5829 Clear -5 1033 41 10000 3 20 17:37 19.12.2019
5830 Clear -5 1033 41 10000 3 20 17:18 19.12.2019
5831 Clear -5 1034 41 10000 2 20 16:56 19.12.2019
5832 Clear -4 1034 38 10000 2 30 16:37 19.12.2019
5833 Clear -4 1034 38 10000 2 30 16:19 19.12.2019
5834 Clear -4 1034 44 10000 3 360 15:57 19.12.2019
5835 Clear -4 1034 37 10000 3 360 15:37 19.12.2019
5836 Clear -4 1034 37 10000 3 360 15:19 19.12.2019
5837 Clear -3 1034 32 10000 2 20 14:44 19.12.2019
5838 Clear -2 1034 30 10000 5 330 14:20 19.12.2019
5839 Clear -2 1034 30 10000 5 330 13:59 19.12.2019
5840 Clear -2 1033 30 10000 5 300 13:38 19.12.2019
5841 Clear -2 1033 30 10000 5 300 13:19 19.12.2019
5842 Clear -2 1033 33 10000 6 290 12:57 19.12.2019
5843 Clear -1 1033 30 10000 7 300 12:39 19.12.2019
5844 Clear -1 1033 30 10000 7 300 12:19 19.12.2019
5845 Clear -1 1033 30 10000 6 290 11:58 19.12.2019
5846 Clear -1 1032 30 10000 5 300 11:40 19.12.2019
5847 Clear -1 1032 30 10000 5 300 11:18 19.12.2019
5848 Clear -1 1032 30 10000 5 300 11:18 19.12.2019
5849 Clear -1 1032 30 10000 4 290 10:58 19.12.2019
5850 Clear -1 1032 28 10000 5 290 10:38 19.12.2019
5851 Clear -1 1032 28 10000 5 290 10:20 19.12.2019
5852 Clear -1 1032 37 10000 6 290 09:56 19.12.2019
5853 Clear 0 1031 37 10000 2 40 09:37 19.12.2019
5854 Clear 0 1031 37 10000 2 360 09:18 19.12.2019
5855 Clear 0 1031 37 10000 2 360 08:55 19.12.2019
5856 Clear 0 1031 20 10000 2 360 08:36 19.12.2019
5857 Clear 0 1031 20 10000 2 360 08:18 19.12.2019
5858 Clear 0 1031 22 10000 6 350 07:40 19.12.2019
5859 Clear 0 1031 22 10000 6 350 07:22 19.12.2019
5860 Clear 1 1031 22 10000 6 340 06:54 19.12.2019
5861 Clear 1 1032 22 10000 6 330 06:36 19.12.2019
5862 Clear 1 1032 30 10000 6 330 06:18 19.12.2019
5863 Clear 0 1032 30 10000 7 330 05:41 19.12.2019
5864 Clear 0 1032 34 10000 7 330 05:18 19.12.2019
5865 Clear -1 1033 30 10000 8 320 03:51 19.12.2019
5866 Clear -2 1032 33 10000 9 300 02:25 19.12.2019
5867 Clear -2 1031 36 10000 7 290 01:24 19.12.2019
5868 Clear -2 1031 39 10000 5 290 00:55 19.12.2019
5869 Clear -2 1030 42 10000 7 300 00:36 19.12.2019
5870 Clear -2 1030 42 10000 7 300 00:18 19.12.2019
5871 Clear -2 1029 58 10000 6 330 23:43 18.12.2019
5872 Clear -2 1029 58 10000 6 330 23:19 18.12.2019
5873 Clear -1 1029 58 10000 8 320 22:56 18.12.2019
5874 Clear -2 1029 58 10000 3 250 22:38 18.12.2019
5875 Clear -2 1029 58 10000 3 250 22:20 18.12.2019
5876 Clear -3 1029 79 10000 3 350 21:58 18.12.2019
5877 Clear -3 1029 79 10000 3 350 21:58 18.12.2019
5878 Clear -3 1029 85 10000 2 330 21:39 18.12.2019
5879 Clear -4 1029 85 10000 2 330 21:20 18.12.2019
5880 Clear -4 1029 85 10000 3 340 20:56 18.12.2019
5881 Clear -4 1029 78 10000 2 350 20:38 18.12.2019
5882 Clear -5 1029 78 10000 2 350 20:19 18.12.2019
5883 Clear -5 1029 78 10000 1 340 19:56 18.12.2019
5884 Clear -4 1029 85 10000 1 0 19:37 18.12.2019
5885 Clear -4 1029 85 10000 1 0 19:18 18.12.2019
5886 Clear -5 1029 79 10000 2 10 18:45 18.12.2019
5887 Clear -5 1029 79 10000 2 10 18:25 18.12.2019
5888 Clear -4 1029 79 10000 1 110 17:58 18.12.2019
5889 Clear -4 1029 79 10000 2 360 17:40 18.12.2019
5890 Clear -4 1029 79 10000 2 360 17:20 18.12.2019
5891 Clear -4 1030 79 10000 1 0 16:58 18.12.2019
5892 Clear -4 1030 79 10000 1 0 16:40 18.12.2019
5893 Clear -4 1030 85 10000 1 60 16:22 18.12.2019
5894 Clear -4 1030 85 10000 2 30 15:57 18.12.2019
5895 Clear -4 1030 85 10000 1 60 15:38 18.12.2019
5896 Clear -4 1030 85 10000 1 60 15:20 18.12.2019
5897 Clear -3 1030 79 10000 2 50 14:43 18.12.2019
5898 Clouds -3 1030 73 10000 1 70 14:22 18.12.2019
5899 Clouds -3 1030 68 10000 1 0 13:58 18.12.2019
5900 Clouds -1 1030 73 10000 3 190 13:39 18.12.2019
5901 Clouds -1 1030 72 10000 3 190 13:21 18.12.2019
5902 Clouds -1 1030 54 10000 3 190 12:59 18.12.2019
5903 Clouds -1 1030 54 10000 4 180 12:40 18.12.2019
5904 Clouds -1 1030 54 10000 4 180 12:21 18.12.2019
5905 Clouds 0 1029 72 10000 4 180 11:57 18.12.2019
5906 Clouds 0 1029 72 10000 4 180 11:39 18.12.2019
5907 Clouds 0 1029 68 10000 4 180 11:20 18.12.2019
5908 Clouds 0 1029 54 10000 2 160 10:58 18.12.2019
5909 Clouds 0 1029 68 10000 4 180 10:39 18.12.2019
5910 Clouds 0 1029 68 10000 4 180 10:20 18.12.2019
5911 Clouds 0 1029 68 10000 4 180 10:20 18.12.2019
5912 Clouds 1 1029 68 10000 3 170 09:57 18.12.2019
5913 Clouds 1 1029 43 10000 4 180 09:20 18.12.2019
5914 Clouds 2 1029 37 10000 2 150 08:43 18.12.2019
5915 Clouds 2 1029 37 10000 2 150 08:24 18.12.2019
5916 Clouds 2 1030 40 10000 2 130 07:57 18.12.2019
5917 Clouds 2 1030 34 10000 1 0 07:39 18.12.2019
5918 Clouds 2 1030 34 10000 1 0 07:20 18.12.2019
5919 Clouds 3 1030 40 10000 3 180 06:52 18.12.2019
5920 Clouds 3 1031 37 10000 2 0 06:24 18.12.2019
5921 Clouds 3 1033 43 10000 1 0 05:35 18.12.2019
5922 Clouds 3 1033 43 10000 1 0 05:35 18.12.2019
5923 Clouds 1 1034 46 10000 2 320 03:49 18.12.2019
5924 Clouds -1 1035 62 10000 3 360 02:46 18.12.2019
5925 Clouds -1 1034 53 10000 3 320 02:27 18.12.2019
5926 Clear -3 1034 58 10000 3 310 01:44 18.12.2019
5927 Clouds -4 1034 62 10000 2 330 01:25 18.12.2019
5928 Clouds -5 1034 72 10000 3 350 00:55 18.12.2019
5929 Clouds -5 1034 67 10000 2 350 00:36 18.12.2019
5930 Clouds -4 1034 67 10000 2 350 00:18 18.12.2019
5931 Clouds -4 1034 67 10000 2 350 23:43 17.12.2019
5932 Clear -4 1034 67 10000 2 350 23:23 17.12.2019
5933 Clear -5 1034 61 10000 3 350 22:57 17.12.2019
5934 Clear -5 1034 61 10000 3 350 22:57 17.12.2019
5935 Clear -4 1034 57 10000 2 360 22:39 17.12.2019
5936 Clear -4 1034 57 10000 2 360 22:20 17.12.2019
5937 Clear -4 1034 53 10000 1 360 21:57 17.12.2019
5938 Clear -4 1034 49 10000 2 20 21:39 17.12.2019
5939 Clear -4 1034 49 10000 2 20 21:20 17.12.2019
5940 Clear -4 1034 53 10000 2 10 20:59 17.12.2019
5941 Clear -4 1034 62 10000 2 20 20:40 17.12.2019
5942 Clear -4 1034 62 10000 2 20 20:19 17.12.2019
5943 Clear -4 1035 57 10000 2 360 19:57 17.12.2019
5944 Clear -4 1034 57 10000 2 20 19:39 17.12.2019
5945 Clear -3 1034 57 10000 2 20 19:20 17.12.2019
5946 Clear -3 1034 62 10000 2 20 18:57 17.12.2019
5947 Clear -3 1034 53 10000 2 30 18:38 17.12.2019
5948 Clear -3 1034 53 10000 2 30 18:20 17.12.2019
5949 Clear -3 1034 49 10000 2 20 17:55 17.12.2019
5950 Clear -3 1035 57 10000 1 0 17:37 17.12.2019
5951 Clear -2 1035 45 10000 2.51 15 17:18 17.12.2019
5952 Clear -2 1035 45 10000 2.51 15 16:55 17.12.2019
5953 Clear -2 1035 42 10000 3 40 16:36 17.12.2019
5954 Clear -2 1035 42 10000 3 40 16:18 17.12.2019
5955 Clear -1 1035 42 10000 4 20 15:38 17.12.2019
5956 Clear -1 1035 42 10000 4 20 15:20 17.12.2019
5957 Clear -1 1034 46 10000 4 10 14:57 17.12.2019
5958 Clear -1 1034 46 10000 4 360 14:38 17.12.2019
5959 Clear -1 1034 46 10000 4 360 14:19 17.12.2019
5960 Clear 0 1034 46 10000 3 340 13:59 17.12.2019
5961 Clear -1 1034 53 10000 2 10 13:41 17.12.2019
5962 Clear -1 1034 53 10000 2 10 13:19 17.12.2019
5963 Clear 0 1033 45 10000 3 320 12:59 17.12.2019
5964 Clear 0 1033 50 10000 4 330 12:38 17.12.2019
5965 Clear 0 1033 58 10000 3 350 12:18 17.12.2019
5966 Clear 0 1033 58 10000 3 350 11:57 17.12.2019
5967 Clear 0 1033 54 10000 3 340 11:37 17.12.2019
5968 Clear 1 1032 46 10000 1 0 11:18 17.12.2019
5969 Clear 1 1032 46 10000 1 0 10:57 17.12.2019
5970 Clear 1 1032 42 10000 2 10 10:39 17.12.2019
5971 Clear 1 1032 42 10000 2 10 10:39 17.12.2019
5972 Clear 1 1032 42 10000 2 10 10:19 17.12.2019
5973 Clear 2 1032 37 10000 3 30 09:56 17.12.2019
5974 Clear 2 1031 37 10000 4 20 09:38 17.12.2019
5975 Clear 3 1031 37 10000 4 20 09:19 17.12.2019
5976 Clear 3 1031 37 10000 4 20 08:55 17.12.2019
5977 Clear 3 1031 37 10000 4 30 08:36 17.12.2019
5978 Clouds 3 1031 37 10000 4 30 08:18 17.12.2019
5979 Clouds 3 1030 37 10000 4 20 07:42 17.12.2019
5980 Clouds 3 1030 37 10000 4 20 07:23 17.12.2019
5981 Clouds 4 1030 40 10000 6 360 06:53 17.12.2019
5982 Clouds 4 1030 37 10000 7 350 06:32 17.12.2019
5983 Clouds 4 1031 37 10000 7 360 05:52 17.12.2019
5984 Clouds 3 1031 40 10000 8 350 05:32 17.12.2019
5985 Clouds 2 1032 37 10000 10 340 04:19 17.12.2019
5986 Clouds 2 1030 47 10000 6 340 02:27 17.12.2019
5987 Clouds 1 1030 40 10000 6 330 01:50 17.12.2019
5988 Clear 0 1029 63 10000 4 340 00:56 17.12.2019
5989 Clear 0 1028 63 10000 3 360 00:36 17.12.2019
5990 Clear 0 1027 58 10000 5 340 00:18 17.12.2019
5991 Clear 1 1027 47 10000 6 330 23:40 16.12.2019
5992 Clear 1 1027 47 10000 6 330 23:19 16.12.2019
5993 Clear 1 1026 58 10000 4 350 22:55 16.12.2019
5994 Clear 1 1025 53 10000 5 360 22:37 16.12.2019
5995 Clear 1 1025 53 10000 5 360 22:19 16.12.2019
5996 Rain 2 1025 53 10000 3 10 21:54 16.12.2019
5997 Rain 2 1024 50 10000 5 340 21:36 16.12.2019
5998 Rain 2 1024 50 10000 5 340 21:18 16.12.2019
5999 Clear 2 1024 50 10000 5 330 20:56 16.12.2019
6000 Clear 3 1024 51 10000 7 310 20:37 16.12.2019
6001 Clouds 2 1024 51 10000 7 310 20:18 16.12.2019
6002 Clouds 2 1023 54 10000 4 340 19:55 16.12.2019
6003 Clouds 1 1023 54 10000 5 340 19:36 16.12.2019
6004 Clouds 1 1023 54 10000 5 340 19:18 16.12.2019
6005 Clouds 2 1022 54 10000 5 340 18:55 16.12.2019
6006 Clouds 3 1022 59 10000 5 340 18:37 16.12.2019
6007 Clouds 2 1022 59 10000 5 340 18:18 16.12.2019
6008 Clouds 2 1022 54 10000 5 340 17:56 16.12.2019
6009 Clouds 2 1021 86 10000 5 350 17:37 16.12.2019
6010 Clouds 1 1021 86 10000 4 340 17:19 16.12.2019
6011 Clouds 2 1021 86 10000 4 340 16:54 16.12.2019
6012 Clouds 2 1020 92 8000 1 0 16:36 16.12.2019
6013 Clouds -1 1020 92 8000 1 0 16:18 16.12.2019
6014 Clouds 1 1020 92 8000 4 350 15:55 16.12.2019
6015 Clouds 0 1019 92 6000 3 340 15:37 16.12.2019
6016 Clouds 0 1019 92 6000 3 340 15:37 16.12.2019
6017 Clouds 0 1019 92 6000 3 340 15:19 16.12.2019
6018 Clouds 0 1019 92 6000 5 350 14:54 16.12.2019
6019 Clouds 0 1019 92 6000 5 360 14:36 16.12.2019
6020 Clouds 0 1019 92 6000 5 360 14:18 16.12.2019
6021 Clouds 0 1019 92 6000 5 360 14:18 16.12.2019
6022 Mist 1 1018 86 4000 4 280 13:38 16.12.2019
6023 Mist 1 1018 86 4000 4 280 13:20 16.12.2019
6024 Mist 1 1018 86 3700 3 290 12:59 16.12.2019
6025 Mist 0 1018 95 3700 2 330 12:41 16.12.2019
6026 Mist 0 1018 95 3700 2 330 12:20 16.12.2019
6027 Mist 1 1017 95 3000 2 300 11:59 16.12.2019
6028 Mist 0 1017 92 2800 2 20 11:41 16.12.2019
6029 Mist 0 1017 92 2800 2 20 11:22 16.12.2019
6030 Mist 0 1017 97 2800 2 340 11:00 16.12.2019
6031 Mist 0 1017 97 3000 1 0 10:40 16.12.2019
6032 Mist 0 1017 97 3000 1 0 10:21 16.12.2019
6033 Rain 1 1017 97 3000 1 0 09:55 16.12.2019
6034 Rain 1 1017 97 3000 1 0 09:37 16.12.2019
6035 Rain 1 1017 97 3000 1 0 09:19 16.12.2019
6036 Rain 2 1017 97 2500 1 0 08:39 16.12.2019
6037 Rain 2 1017 98 2500 1 0 08:19 16.12.2019
6038 Rain 2 1017 98 2500 1 0 08:19 16.12.2019
6039 Rain 2 1017 98 2500 2 360 07:51 16.12.2019
6040 Rain 2 1017 98 2200 2 10 07:31 16.12.2019
6041 Rain 2 1018 98 1400 1 360 06:49 16.12.2019
6042 Rain 2 1018 98 1400 1 360 06:27 16.12.2019
6043 Snow 1 1018 98 1200 2 10 05:58 16.12.2019
6044 Snow 1 1019 98 1000 2 350 05:39 16.12.2019
6045 Snow 1 1019 98 1000 2 350 05:21 16.12.2019
6046 Snow 1 1021 98 1400 1 0 02:59 16.12.2019
6047 Snow 0 1021 97 1600 1 0 01:45 16.12.2019
6048 Snow 0 1021 95 2200 1 0 00:56 16.12.2019
6049 Snow 0 1022 95 2200 1 0 00:38 16.12.2019
6050 Snow 0 1022 95 2200 1 0 00:18 16.12.2019
6051 Snow 0 1022 95 2500 1 0 23:41 15.12.2019
6052 Snow 0 1022 96 2500 1 0 23:22 15.12.2019
6053 Snow 0 1022 96 2500 1 0 22:57 15.12.2019
6054 Snow 0 1023 96 3200 1 0 22:38 15.12.2019
6055 Snow 0 1023 96 3200 1 0 22:19 15.12.2019
6056 Snow 0 1023 96 3500 1 0 21:58 15.12.2019
6057 Snow 0 1024 96 4000 1 110 21:38 15.12.2019
6058 Snow 0 1024 96 4000 1 110 21:20 15.12.2019
6059 Mist 1 1024 96 4500 1.12 25 20:58 15.12.2019
6060 Mist 1 1024 96 5000 1 60 20:39 15.12.2019
6061 Mist 1 1024 93 5000 1 60 20:21 15.12.2019
6062 Snow 1 1025 95 5000 1.46 21 19:58 15.12.2019
6063 Snow 1 1025 95 5000 1.46 21 19:40 15.12.2019
6064 Snow 1 1025 95 5000 1.46 21 19:20 15.12.2019
6065 Snow 1 1025 95 5000 1 70 18:57 15.12.2019
6066 Snow 1 1025 95 5000 1 60 18:39 15.12.2019
6067 Snow 1 1025 95 5000 1 120 18:19 15.12.2019
6068 Snow 1 1025 95 5000 1 120 18:19 15.12.2019
6069 Snow 1 1025 95 5000 1 120 17:56 15.12.2019
6070 Snow 1 1025 95 5000 1 120 17:56 15.12.2019
6071 Snow 1 1026 80 6000 2 160 17:38 15.12.2019
6072 Snow 2 1026 74 10000 1 160 17:19 15.12.2019
6073 Snow 2 1026 74 10000 1 160 16:57 15.12.2019
6074 Snow 2 1026 64 10000 1 150 16:39 15.12.2019
6075 Snow 2 1026 64 10000 1 150 16:20 15.12.2019
6076 Clouds 2 1026 69 10000 1 140 15:55 15.12.2019
6077 Clouds 2 1026 59 10000 1 0 15:37 15.12.2019
6078 Clouds 2 1026 59 10000 1 0 15:18 15.12.2019
6079 Snow 2 1026 59 10000 2 190 14:55 15.12.2019
6080 Snow 2 1026 47 10000 3 180 14:37 15.12.2019
6081 Snow 2 1026 47 10000 3 180 14:37 15.12.2019
6082 Snow 2 1026 47 10000 3 180 14:18 15.12.2019
6083 Clouds 2 1026 47 10000 3 190 13:58 15.12.2019
6084 Clouds 3 1026 59 10000 2 160 13:37 15.12.2019
6085 Clouds 3 1026 59 10000 2 160 13:37 15.12.2019
6086 Clouds 3 1026 59 10000 2 160 13:19 15.12.2019
6087 Clouds 3 1026 59 10000 2 160 13:19 15.12.2019
6088 Clouds 3 1026 64 10000 1 150 12:56 15.12.2019
6089 Clouds 3 1026 55 10000 1 0 12:38 15.12.2019
6090 Clouds 3 1026 55 10000 1 0 12:20 15.12.2019
6091 Clouds 3 1026 51 10000 2 180 11:55 15.12.2019
6092 Clouds 3 1026 51 10000 2 180 11:36 15.12.2019
6093 Clouds 2 1026 59 10000 1 110 11:18 15.12.2019
6094 Clouds 2 1026 59 10000 1 110 10:55 15.12.2019
6095 Clouds 3 1026 55 10000 1 130 10:36 15.12.2019
6096 Clouds 3 1026 55 10000 1 130 10:18 15.12.2019
6097 Clouds 3 1026 47 10000 1 90 09:40 15.12.2019
6098 Clouds 3 1026 47 10000 1 90 09:20 15.12.2019
6099 Clouds 3 1026 51 10000 1 0 08:58 15.12.2019
6100 Clouds 3 1026 51 10000 1 0 08:39 15.12.2019
6101 Clouds 4 1026 51 10000 1 0 08:20 15.12.2019
6102 Clouds 4 1026 51 10000 1 0 07:56 15.12.2019
6103 Clouds 4 1026 51 10000 1 0 07:34 15.12.2019
6104 Clouds 5 1027 51 10000 1 0 06:44 15.12.2019
6105 Clouds 5 1028 51 10000 2 60 06:19 15.12.2019
6106 Clouds 3 1029 47 10000 1 0 05:25 15.12.2019
6107 Clouds 3 1029 47 10000 1 0 04:47 15.12.2019
6108 Clouds 2 1029 55 10000 1 0 03:22 15.12.2019
6109 Clouds 0 1028 68 10000 2 20 02:33 15.12.2019
6110 Clouds 0 1028 79 10000 1 0 01:46 15.12.2019
6111 Clouds -1 1028 79 10000 1 30 01:28 15.12.2019
6112 Clouds 0 1028 73 10000 1 150 00:57 15.12.2019
6113 Clouds -1 1028 68 10000 1.17 17 00:38 15.12.2019
6114 Clouds -1 1028 68 10000 1.17 17 00:20 15.12.2019
6115 Clouds -1 1028 73 10000 1 0 23:39 14.12.2019
6116 Clouds -1 1028 68 10000 1 150 23:19 14.12.2019
6117 Clouds -1 1028 68 10000 1 150 22:58 14.12.2019
6118 Clouds -1 1028 73 10000 1 0 22:40 14.12.2019
6119 Clouds -1 1028 73 10000 1 0 22:20 14.12.2019
6120 Clouds -1 1028 79 10000 1 0 21:56 14.12.2019
6121 Clouds -1 1028 73 10000 0.86 36 21:37 14.12.2019
6122 Clouds -2 1028 73 10000 0.86 36 21:18 14.12.2019
6123 Clouds -2 1028 67 10000 0.86 36 20:56 14.12.2019
6124 Clouds -3 1029 73 10000 0.86 36 20:37 14.12.2019
6125 Clear -2 1029 73 10000 0.88 71 20:19 14.12.2019
6126 Clear -2 1029 73 10000 0.85 66 20:19 14.12.2019
6127 Clear -2 1029 73 10000 1 0 19:54 14.12.2019
6128 Clear -1 1029 68 10000 1 0 19:36 14.12.2019
6129 Clear -1 1029 68 10000 1 0 19:18 14.12.2019
6130 Clear -1 1029 73 10000 1 50 18:55 14.12.2019
6131 Clear -1 1029 67 10000 2 70 18:36 14.12.2019
6132 Clear -1 1029 73 10000 1 70 18:18 14.12.2019
6133 Clear -2 1029 73 10000 2 90 17:42 14.12.2019
6134 Clear -1 1029 73 10000 2 90 17:22 14.12.2019
6135 Clear 0 1030 58 10000 1 0 16:42 14.12.2019
6136 Clear 0 1030 58 10000 1 0 16:20 14.12.2019
6137 Clear -1 1030 68 10000 2 50 15:58 14.12.2019
6138 Clear -1 1030 62 10000 1 0 15:39 14.12.2019
6139 Clear -1 1030 62 10000 1 0 15:20 14.12.2019
6140 Clear -1 1030 58 10000 1 0 14:57 14.12.2019
6141 Clear -1 1030 62 10000 1.18 92 14:38 14.12.2019
6142 Clear -1 1030 62 10000 1.18 92 14:38 14.12.2019
6143 Clouds -1 1030 62 10000 0.53 64 14:19 14.12.2019
6144 Clouds 0 1030 58 10000 1 0 13:45 14.12.2019
6145 Clouds -1 1030 62 10000 2 80 13:20 14.12.2019
6146 Clouds 0 1031 50 10000 1 60 12:58 14.12.2019
6147 Clouds 0 1030 50 10000 1 80 12:40 14.12.2019
6148 Clouds 0 1030 50 10000 1 80 12:21 14.12.2019
6149 Clouds 0 1030 50 10000 2 90 11:58 14.12.2019
6150 Clouds 1 1030 46 10000 1 0 11:39 14.12.2019
6151 Clouds 2 1031 31 10000 1 150 11:19 14.12.2019
6152 Clouds 2 1031 31 10000 1 150 10:57 14.12.2019
6153 Clouds 2 1031 31 10000 2 150 10:39 14.12.2019
6154 Clouds 3 1031 31 10000 2 150 10:21 14.12.2019
6155 Clouds 3 1031 27 10000 3 160 09:57 14.12.2019
6156 Clouds 4 1031 25 10000 4 160 09:38 14.12.2019
6157 Clouds 4 1031 25 10000 4 160 09:18 14.12.2019
6158 Clouds 5 1031 22 10000 4 160 08:43 14.12.2019
6159 Clouds 5 1031 22 10000 4 160 08:20 14.12.2019
6160 Clouds 6 1032 22 10000 6 180 07:44 14.12.2019
6161 Clouds 6 1032 22 10000 6 180 07:23 14.12.2019
6162 Clouds 6 1032 26 10000 4 170 06:57 14.12.2019
6163 Clouds 6 1033 26 10000 4 170 06:37 14.12.2019
6164 Clouds 7 1033 25 10000 5 180 06:18 14.12.2019
6165 Clouds 4 1034 32 10000 3 200 04:48 14.12.2019
6166 Clouds 2 1035 58 10000 3 360 02:41 14.12.2019
6167 Clouds 0 1035 58 10000 3 360 02:19 14.12.2019
6168 Clouds 0 1035 58 10000 3 330 01:37 14.12.2019
6169 Clouds -2 1034 58 10000 3 330 00:49 14.12.2019
6170 Clouds -2 1034 62 10000 2 340 00:28 14.12.2019
6171 Clouds -2 1034 62 10000 1 10 23:57 13.12.2019
6172 Clouds -2 1034 73 10000 3 350 23:37 13.12.2019
6173 Clear -2 1034 62 10000 2 350 23:18 13.12.2019
6174 Clear -2 1034 68 10000 4 340 22:41 13.12.2019
6175 Clear -2 1034 68 10000 4 340 22:19 13.12.2019
6176 Clear -1 1034 62 10000 1 0 21:56 13.12.2019
6177 Clear -1 1034 57 10000 2 20 21:38 13.12.2019
6178 Clear -1 1034 57 10000 2 20 21:20 13.12.2019
6179 Clear -1 1034 62 10000 2 30 20:42 13.12.2019
6180 Clear -1 1034 62 10000 2 30 20:23 13.12.2019
6181 Clear -1 1034 62 10000 2 30 19:59 13.12.2019
6182 Clear 1 1034 38 10000 2 310 19:41 13.12.2019
6183 Clear 1 1034 38 10000 2 310 19:22 13.12.2019
6184 Clear 0 1033 46 10000 2 20 18:59 13.12.2019
6185 Clear 1 1033 50 10000 3 20 18:40 13.12.2019
6186 Clear 1 1033 50 10000 3 20 18:19 13.12.2019
6187 Clear 1 1033 50 10000 3 30 17:55 13.12.2019
6188 Clear 0 1033 53 10000 3 350 17:37 13.12.2019
6189 Clear 1 1033 53 10000 3 350 17:18 13.12.2019
6190 Clear 1 1033 53 10000 3 350 17:18 13.12.2019
6191 Clear 2 1033 50 10000 1 0 16:54 13.12.2019
6192 Clear 2 1033 35 10000 3 360 16:36 13.12.2019
6193 Clear 2 1033 35 10000 3 360 16:18 13.12.2019
6194 Clear 4 1032 27 10000 5 330 15:38 13.12.2019
6195 Clear 4 1032 27 10000 5 330 15:20 13.12.2019
6196 Clear 5 1031 25 10000 8 320 14:41 13.12.2019
6197 Clear 4 1031 25 10000 8 320 14:21 13.12.2019
6198 Clear 5 1031 25 10000 8 320 13:58 13.12.2019
6199 Clear 5 1031 25 10000 8 320 13:58 13.12.2019
6200 Clear 5 1031 25 10000 7 320 13:39 13.12.2019
6201 Clear 5 1031 25 10000 7 320 13:21 13.12.2019
6202 Clear 6 1030 22 10000 7 310 12:44 13.12.2019
6203 Clear 6 1030 22 10000 7 310 12:20 13.12.2019
6204 Clear 6 1029 22 10000 8 320 11:58 13.12.2019
6205 Clear 7 1029 20 10000 7 310 11:40 13.12.2019
6206 Clear 6 1029 20 10000 7 310 11:22 13.12.2019
6207 Clear 7 1028 20 10000 8 320 10:55 13.12.2019
6208 Clear 7 1028 19 10000 7 310 10:37 13.12.2019
6209 Clear 7 1028 19 10000 7 310 10:19 13.12.2019
6210 Clear 9 1027 15 10000 10 310 09:39 13.12.2019
6211 Clear 9 1027 15 10000 10 310 09:20 13.12.2019
6212 Clear 10 1026 14 10000 11 310 08:42 13.12.2019
6213 Clear 9 1026 14 10000 11 310 08:24 13.12.2019
6214 Clear 10 1025 14 10000 11 310 07:46 13.12.2019
6215 Clear 10 1025 14 10000 10 320 07:24 13.12.2019
6216 -273 0 0 0 0 0 06:55 13.12.2019
6217 Clear 12 1024 19 10000 7 310 06:29 13.12.2019
6218 Clear 9 1025 28 10000 3 350 05:47 13.12.2019
6219 Clear 9 1025 28 10000 3 350 05:28 13.12.2019
6220 Clear 3 1025 30 10000 4 350 04:46 13.12.2019
6221 Clear 4 1025 37 10000 3 320 03:47 13.12.2019
6222 Clear 1 1024 54 10000 3 330 02:34 13.12.2019
6223 Clear -1 1024 63 10000 3 330 01:48 13.12.2019
6224 Clear -3 1023 67 10000 3 330 00:57 13.12.2019
6225 Clear -3 1023 73 10000 3 340 00:37 13.12.2019
6226 Clear -4 1023 67 10000 3 330 23:59 12.12.2019
6227 Clear -4 1022 67 10000 2 340 23:40 12.12.2019
6228 Clear -4 1022 67 10000 2 340 23:22 12.12.2019
6229 Clear -4 1022 67 10000 2 340 22:56 12.12.2019
6230 Clear -4 1022 73 10000 3 330 22:37 12.12.2019
6231 Clear -4 1022 73 10000 3 330 22:19 12.12.2019
6232 Clear -4 1023 67 10000 2 340 21:55 12.12.2019
6233 Clear -4 1023 67 10000 2 340 21:37 12.12.2019
6234 Clear -3 1023 67 10000 2 340 21:18 12.12.2019
6235 Clear -4 1023 67 10000 2 330 20:56 12.12.2019
6236 Clear -4 1023 67 10000 3 330 20:38 12.12.2019
6237 Clear -3 1023 67 10000 3 330 20:20 12.12.2019
6238 Clear -4 1023 67 10000 2 350 19:43 12.12.2019
6239 Clear -3 1023 67 10000 2 350 19:23 12.12.2019
6240 Clear -4 1023 67 10000 3 350 18:58 12.12.2019
6241 Clear -3 1023 62 10000 2 360 18:40 12.12.2019
6242 Clear -3 1023 62 10000 2 360 18:21 12.12.2019
6243 Clear -4 1024 67 10000 3 350 17:59 12.12.2019
6244 Clear -4 1024 62 10000 2 350 17:40 12.12.2019
6245 Clear -3 1024 62 10000 2 350 17:21 12.12.2019
6246 Clear -3 1024 62 10000 1 350 16:59 12.12.2019
6247 Clear -3 1024 67 10000 1 0 16:41 12.12.2019
6248 Clear -3 1024 67 10000 1 0 16:21 12.12.2019
6249 Clear -3 1024 57 10000 1.43 10 15:58 12.12.2019
6250 Clear -3 1024 53 10000 1 20 15:40 12.12.2019
6251 Clear -3 1024 53 10000 1 20 15:18 12.12.2019
6252 Clear -2 1025 49 10000 1.43 10 14:56 12.12.2019
6253 Clear -3 1025 62 10000 1 0 14:36 12.12.2019
6254 Clear -2 1025 53 10000 1 70 14:18 12.12.2019
6255 Clear -2 1025 53 10000 1 70 13:54 12.12.2019
6256 Clear -2 1025 49 10000 1 70 13:36 12.12.2019
6257 Clear -2 1025 49 10000 1 70 13:18 12.12.2019
6258 Clear -1 1025 38 10000 1 0 12:40 12.12.2019
6259 Clear -1 1025 38 10000 1 0 12:22 12.12.2019
6260 Clear 0 1025 39 10000 2 20 11:57 12.12.2019
6261 Clear 1 1025 29 10000 1 0 11:38 12.12.2019
6262 Clear 0 1025 29 10000 1 0 11:38 12.12.2019
6263 Clear 0 1025 29 10000 1 0 11:20 12.12.2019
6264 Clear 0 1025 39 10000 1 30 10:57 12.12.2019
6265 Clear 1 1025 33 10000 2 60 10:39 12.12.2019
6266 Clear 1 1025 33 10000 2 60 10:21 12.12.2019
6267 Clear 2 1025 24 10000 1 50 09:55 12.12.2019
6268 Clear 2 1025 24 10000 1 50 09:55 12.12.2019
6269 Clear 3 1025 21 10000 2 50 09:37 12.12.2019
6270 Clear 3 1025 21 10000 2 50 09:19 12.12.2019
6271 Clear 4 1025 19 10000 1 0 08:46 12.12.2019
6272 Clear 5 1025 19 10000 1 0 08:27 12.12.2019
6273 Clear 4 1026 21 10000 1 0 07:50 12.12.2019
6274 Clear 3 1026 20 10000 1 0 07:27 12.12.2019
6275 Clear 4 1027 21 10000 1 0 06:56 12.12.2019
6276 Clear 3 1027 21 10000 1 0 06:35 12.12.2019
6277 Clear 2 1029 24 10000 2 250 05:42 12.12.2019
6278 Clear 0 1029 26 10000 2 0 04:55 12.12.2019
6279 Clear 1 1030 21 10000 2 70 04:23 12.12.2019
6280 Clear 0 1030 49 10000 1 0 02:40 12.12.2019
6281 Clear -4 1030 49 10000 1 0 02:22 12.12.2019
6282 Clear -3 1030 57 10000 3 350 01:54 12.12.2019
6283 Clear -3 1030 57 10000 3 360 01:32 12.12.2019
6284 Clear -6 1030 61 10000 3 350 00:47 12.12.2019
6285 Clear -5 1030 48 10000 2 350 00:21 12.12.2019
6286 Clear -5 1029 52 10000 2 350 23:45 11.12.2019
6287 Clear -5 1029 48 10000 2 350 23:21 11.12.2019
6288 Clear -5 1029 48 10000 2 350 22:59 11.12.2019
6289 Clear -5 1029 44 10000 2 330 22:39 11.12.2019
6290 Clear -6 1029 44 10000 2 330 22:21 11.12.2019
6291 Clear -6 1030 52 10000 2 310 21:59 11.12.2019
6292 Clear -5 1030 41 10000 2 260 21:39 11.12.2019
6293 Clear -4 1030 41 10000 2 260 21:20 11.12.2019
6294 Clear -5 1030 48 10000 2 340 20:58 11.12.2019
6295 Clear -5 1030 48 10000 2 340 20:39 11.12.2019
6296 Clear -5 1030 48 10000 2 340 20:19 11.12.2019
6297 Clear -5 1030 52 10000 3 340 19:59 11.12.2019
6298 Clear -4 1030 41 10000 2 320 19:40 11.12.2019
6299 Clear -4 1030 41 10000 2 320 19:40 11.12.2019
6300 Clear -4 1030 41 10000 2 320 19:21 11.12.2019
6301 Clear -4 1030 35 10000 1 320 18:57 11.12.2019
6302 Clear -4 1030 35 10000 2 360 18:38 11.12.2019
6303 Clear -4 1030 35 10000 2 360 18:18 11.12.2019
6304 Clear -2 1030 30 10000 2 10 17:55 11.12.2019
6305 Clear -3 1030 32 10000 5 20 17:37 11.12.2019
6306 Clear -3 1030 32 10000 5 20 17:18 11.12.2019
6307 Clear -3 1030 44 10000 3 360 16:55 11.12.2019
6308 Clear -3 1030 35 10000 1 0 16:36 11.12.2019
6309 Clear -3 1030 35 10000 1 0 16:18 11.12.2019
6310 Clear -3 1030 38 10000 1 0 15:54 11.12.2019
6311 Clear -2 1030 35 10000 3 40 15:36 11.12.2019
6312 Clear -2 1030 35 10000 3 40 15:18 11.12.2019
6313 Clear -3 1030 32 10000 1 60 14:54 11.12.2019
6314 Clear -2 1030 28 10000 2 30 14:36 11.12.2019
6315 Clear -2 1030 28 10000 2 30 14:36 11.12.2019
6316 Clear -2 1030 28 10000 2 30 14:18 11.12.2019
6317 Clear -2 1030 32 10000 3 360 13:41 11.12.2019
6318 Clear -2 1030 32 10000 3 360 13:21 11.12.2019
6319 Clear -1 1030 22 10000 2 360 12:57 11.12.2019
6320 Clear -1 1029 25 10000 3 360 12:38 11.12.2019
6321 Clear 0 1029 25 10000 3 360 12:20 11.12.2019
6322 Clear 0 1029 23 10000 4 360 11:58 11.12.2019
6323 Clear 0 1029 23 10000 5 360 11:39 11.12.2019
6324 Clear 0 1029 21 10000 2 10 11:19 11.12.2019
6325 Clear 0 1029 21 10000 2 10 11:19 11.12.2019
6326 Clear 0 1029 21 10000 2 10 10:57 11.12.2019
6327 Clear 1 1028 15 10000 6 330 10:38 11.12.2019
6328 Clear 1 1028 15 10000 6 330 10:19 11.12.2019
6329 Clear 3 1028 12 10000 8 330 09:44 11.12.2019
6330 Clear 3 1028 12 10000 8 330 09:21 11.12.2019
6331 Clear 3 1028 12 10000 8 330 09:21 11.12.2019
6332 Clear 3 1028 13 10000 8 320 08:58 11.12.2019
6333 Clear 3 1028 13 10000 8 320 08:40 11.12.2019
6334 Clear 3 1028 13 10000 8 320 08:20 11.12.2019
6335 Clear 3 1028 14 10000 9 320 07:59 11.12.2019
6336 Clear 3 1027 12 10000 10 320 07:41 11.12.2019
6337 Clear 3 1027 12 10000 10 320 07:22 11.12.2019
6338 Clear 4 1028 12 10000 11 320 06:44 11.12.2019
6339 Clear 4 1028 13 10000 13 320 06:23 11.12.2019
6340 Clear 4 1028 16 10000 10 320 05:46 11.12.2019
6341 Clear 4 1028 16 10000 11 330 05:27 11.12.2019
6342 Clear 4 1028 17 10000 11 320 04:47 11.12.2019
6343 Clear 4 1027 19 10000 11 330 02:50 11.12.2019
6344 Clear 1 1024 29 10000 6 330 01:30 11.12.2019
6345 Clear 1 1024 37 10000 6 300 00:56 11.12.2019
6346 Clear 3 1023 34 10000 4 290 00:36 11.12.2019
6347 Clear 3 1023 34 10000 4 290 00:18 11.12.2019
6348 Clear 2 1022 54 10000 3 300 23:41 10.12.2019
6349 Clear 0 1022 54 10000 3 300 23:22 10.12.2019
6350 Clear 0 1021 67 10000 2 330 22:42 10.12.2019
6351 Clear 0 1021 67 10000 2 330 22:24 10.12.2019
6352 Clear 0 1021 67 10000 2 330 22:24 10.12.2019
6353 Clear -1 1021 67 10000 1 0 21:58 10.12.2019
6354 Clear -1 1021 62 10000 1 0 21:39 10.12.2019
6355 Clear -1 1021 62 10000 1 0 21:21 10.12.2019
6356 Clear -1 1021 79 10000 2 0 20:58 10.12.2019
6357 Clear -1 1021 67 10000 2 170 20:38 10.12.2019
6358 Clear -1 1021 67 10000 2 170 20:19 10.12.2019
6359 Clear -1 1021 67 10000 2 170 20:19 10.12.2019
6360 Clear -1 1021 67 10000 2 170 20:19 10.12.2019
6361 Clear -1 1021 67 10000 2 170 20:19 10.12.2019
6362 Clear -1 1021 67 10000 2 170 20:19 10.12.2019
6363 Clear -1 1022 67 10000 1 0 19:56 10.12.2019
6364 Clear -1 1022 62 10000 1 350 19:38 10.12.2019
6365 Clear -1 1022 62 10000 1 350 19:20 10.12.2019
6366 Clear -1 1021 62 10000 1 0 18:55 10.12.2019
6367 Clear -1 1021 62 10000 1 0 18:55 10.12.2019
6368 Clear -1 1022 58 10000 3.88 301 18:36 10.12.2019
6369 Clear -1 1022 58 10000 3.88 301 18:36 10.12.2019
6370 Clear 0 1022 58 10000 3.88 301 18:18 10.12.2019
6371 Clear 0 1022 58 10000 2 40 17:42 10.12.2019
6372 Clear 1 1022 58 10000 2 40 17:23 10.12.2019
6373 Clear 2 1022 36 10000 1 60 16:58 10.12.2019
6374 Clear 2 1022 31 10000 2 20 16:39 10.12.2019
6375 Clear 2 1022 31 10000 2 20 16:19 10.12.2019
6376 Clear 2 1022 37 10000 3 350 15:39 10.12.2019
6377 Clear 2 1022 37 10000 3 350 15:19 10.12.2019
6378 Clear 3 1022 31 10000 1 0 14:57 10.12.2019
6379 Clear 3 1021 31 10000 4 360 14:38 10.12.2019
6380 Clouds 3 1021 31 10000 4 360 14:20 10.12.2019
6381 Clouds 3 1021 34 10000 5 360 13:58 10.12.2019
6382 Clouds 3 1021 29 10000 5 360 13:40 10.12.2019
6383 Clouds 4 1021 29 10000 5 360 13:20 10.12.2019
6384 Clouds 4 1021 29 10000 5 360 13:20 10.12.2019
6385 Clouds 5 1021 27 10000 7 350 12:49 10.12.2019
6386 Clouds 6 1020 25 10000 6 340 12:28 10.12.2019
6387 Clouds 6 1020 25 10000 6 340 11:58 10.12.2019
6388 Clouds 6 1019 24 10000 8 330 11:40 10.12.2019
6389 Clear 6 1019 24 10000 8 330 11:21 10.12.2019
6390 Clear 7 1018 24 10000 6 310 10:43 10.12.2019
6391 Clear 7 1018 24 10000 6 310 10:24 10.12.2019
6392 Clear 7 1018 20 10000 8 320 09:57 10.12.2019
6393 Clear 8 1017 19 10000 8 320 09:39 10.12.2019
6394 Clear 8 1017 19 10000 8 320 09:20 10.12.2019
6395 Clear 9 1017 19 10000 9 290 08:58 10.12.2019
6396 Clear 9 1016 21 10000 8 290 08:39 10.12.2019
6397 Clear 9 1016 21 10000 8 290 08:21 10.12.2019
6398 Clear 9 1016 21 10000 9 280 07:45 10.12.2019
6399 Clear 9 1016 23 10000 9 280 07:27 10.12.2019
6400 Clear 10 1016 23 10000 8 270 06:56 10.12.2019
6401 Clear 10 1016 34 10000 6 280 06:38 10.12.2019
6402 Clear 10 1016 34 10000 6 280 06:19 10.12.2019
6403 Haze 9 1017 45 4000 5 290 05:51 10.12.2019
6404 Mist 5 1018 74 3200 1 0 04:23 10.12.2019
6405 Mist 4 1018 80 2800 1 0 03:27 10.12.2019
6406 Mist 1 1018 92 2300 1 80 02:36 10.12.2019
6407 Mist -1 1017 92 1700 1 0 01:40 10.12.2019
6408 Mist -3 1017 92 1700 1 0 01:19 10.12.2019
6409 Mist -3 1017 92 2800 2 350 00:31 10.12.2019
6410 Mist -3 1017 92 2800 1 0 23:59 09.12.2019
6411 Mist -3 1017 85 2800 2 350 23:39 09.12.2019
6412 Mist -3 1017 85 2800 2 350 23:21 09.12.2019
6413 Mist -3 1016 92 2800 1 0 22:57 09.12.2019
6414 Mist -3 1017 92 2800 1 350 22:39 09.12.2019
6415 Mist -3 1017 92 2800 1 350 22:18 09.12.2019
6416 Mist -3 1017 92 2800 1 0 21:56 09.12.2019
6417 Mist -2 1017 92 3000 1 90 21:38 09.12.2019
6418 Mist -2 1017 92 3000 1 90 21:18 09.12.2019
6419 Mist -3 1017 92 3200 1 50 20:55 09.12.2019
6420 Mist -2 1018 92 3200 1 80 20:37 09.12.2019
6421 Mist -2 1018 92 3200 1 80 20:19 09.12.2019
6422 Mist -2 1018 92 3500 2 50 19:55 09.12.2019
6423 Mist -2 1018 92 3500 2 50 19:55 09.12.2019
6424 Mist -2 1018 92 3500 1 0 19:37 09.12.2019
6425 Mist -2 1018 92 3500 1 0 19:18 09.12.2019
6426 Mist -2 1018 92 4000 2 110 18:54 09.12.2019
6427 Mist -2 1019 86 4000 2 90 18:36 09.12.2019
6428 Mist -1 1019 86 4000 2 90 18:18 09.12.2019
6429 Mist -1 1019 86 4000 2 90 18:18 09.12.2019
6430 Mist -1 1019 86 4000 2 90 18:18 09.12.2019
6431 Mist -1 1018 80 4000 1 0 17:55 09.12.2019
6432 Mist -1 1018 86 4000 2 50 17:37 09.12.2019
6433 Mist -1 1018 86 4000 2 50 17:18 09.12.2019
6434 Mist -1 1018 86 4000 2 50 17:18 09.12.2019
6435 Mist 0 1019 92 4000 1 0 16:54 09.12.2019
6436 Mist 0 1019 86 4000 2 150 16:36 09.12.2019
6437 Mist 0 1019 86 4000 2 150 16:18 09.12.2019
6438 Mist 0 1019 86 5000 2 120 15:54 09.12.2019
6439 Mist 0 1019 86 5000 1 0 15:36 09.12.2019
6440 Mist 0 1019 86 5000 1 0 15:18 09.12.2019
6441 Mist 0 1019 86 5000 1 0 14:41 09.12.2019
6442 Mist -1 1019 86 5000 1 0 14:18 09.12.2019
6443 Mist 0 1019 86 5000 1 130 13:56 09.12.2019
6444 Mist -1 1019 85 5000 2 50 13:38 09.12.2019
6445 Mist -1 1019 85 5000 2 50 13:19 09.12.2019
6446 Mist 0 1019 86 5000 1 70 12:56 09.12.2019
6447 Mist 0 1019 79 5000 1 0 12:37 09.12.2019
6448 Mist 1 1019 79 5000 1 0 12:18 09.12.2019
6449 Haze 1 1018 74 5000 2 150 11:55 09.12.2019
6450 Haze 1 1018 64 4000 1 0 11:36 09.12.2019
6451 Haze 1 1018 64 4000 1 0 11:18 09.12.2019
6452 Haze 2 1018 59 3500 2 140 10:40 09.12.2019
6453 Haze 2 1018 59 3500 2 140 10:20 09.12.2019
6454 Haze 3 1018 55 3500 2 170 09:56 09.12.2019
6455 Haze 4 1018 52 3500 3 180 09:38 09.12.2019
6456 Haze 3 1018 52 3500 3 180 09:20 09.12.2019
6457 Haze 5 1017 52 3500 2 180 08:42 09.12.2019
6458 Haze 6 1017 52 3500 2 180 08:24 09.12.2019
6459 Haze 5 1017 52 3200 3 190 07:53 09.12.2019
6460 Haze 5 1017 48 3000 1 0 07:34 09.12.2019
6461 Haze 8 1018 56 3000 1 0 06:59 09.12.2019
6462 Haze 8 1018 60 3000 2 200 06:39 09.12.2019
6463 Haze 7 1018 60 3000 2 200 06:21 09.12.2019
6464 Haze 4 1019 64 2700 1 0 05:25 09.12.2019
6465 Mist 2 1020 69 2700 1 0 04:29 09.12.2019
6466 Mist 3 1020 80 2100 2 350 03:19 09.12.2019
6467 Mist -1 1020 92 1400 2 20 02:18 09.12.2019
6468 Mist -3 1020 92 1600 2 360 01:40 09.12.2019
6469 Mist -3 1019 92 1700 2 360 00:45 09.12.2019
6470 Mist -3 1019 92 2000 1 0 00:24 09.12.2019
6471 Mist -3 1019 92 2000 2 350 23:39 08.12.2019
6472 Mist -3 1019 92 2000 2 350 23:21 08.12.2019
6473 Mist -3 1019 92 2000 2 360 22:56 08.12.2019
6474 Mist -3 1019 92 2000 2 360 22:38 08.12.2019
6475 Mist -3 1019 92 2000 2 360 22:18 08.12.2019
6476 Mist -3 1019 92 2200 2 360 21:57 08.12.2019
6477 Mist -3 1020 92 2200 2 320 21:39 08.12.2019
6478 Mist -3 1020 92 2200 2 320 21:39 08.12.2019
6479 Mist -2 1020 92 2200 2 320 21:19 08.12.2019
6480 Mist -3 1020 92 2200 2 10 20:57 08.12.2019
6481 Mist -3 1020 92 2400 2 20 20:38 08.12.2019
6482 Mist -3 1020 92 2400 2 20 20:38 08.12.2019
6483 Mist -3 1020 92 2400 2 20 20:20 08.12.2019
6484 Mist -3 1021 92 2400 2 10 19:57 08.12.2019
6485 Mist -2 1021 92 2400 1 0 19:39 08.12.2019
6486 Mist -3 1021 92 2400 1 0 19:21 08.12.2019
6487 Mist -3 1021 92 2200 1 0 18:55 08.12.2019
6488 Mist -3 1021 92 2200 1 0 18:37 08.12.2019
6489 Mist -3 1021 92 2200 1 0 18:37 08.12.2019
6490 Mist -2 1021 92 2200 1 0 18:18 08.12.2019
6491 Mist -2 1021 92 2200 1 0 17:56 08.12.2019
6492 Mist -2 1021 92 2200 1 0 17:56 08.12.2019
6493 Mist -2 1021 92 2200 1 90 17:38 08.12.2019
6494 Mist -2 1021 92 2200 1 90 17:19 08.12.2019
6495 Mist -3 1022 92 2200 1 120 16:56 08.12.2019
6496 Mist -3 1022 92 2200 2 80 16:38 08.12.2019
6497 Mist -2 1022 92 2200 2 80 16:20 08.12.2019
6498 Mist -2 1022 92 2200 1 0 15:54 08.12.2019
6499 Mist -2 1022 92 2200 1 90 15:36 08.12.2019
6500 Mist -2 1022 92 2200 1 90 15:18 08.12.2019
6501 Snow -1 1022 86 2200 1 0 14:40 08.12.2019
6502 Snow -1 1022 86 2200 1 0 14:22 08.12.2019
6503 Snow -2 1022 92 2200 1 0 13:57 08.12.2019
6504 Snow -2 1022 92 2200 1 90 13:38 08.12.2019
6505 Snow -1 1022 92 2200 1 90 13:20 08.12.2019
6506 Snow -1 1022 86 2200 1 0 12:54 08.12.2019
6507 Snow -1 1022 86 2200 1 0 12:36 08.12.2019
6508 Snow -1 1022 86 2200 1 0 12:18 08.12.2019
6509 Snow -1 1022 86 2200 1 0 11:39 08.12.2019
6510 Snow -1 1022 86 2200 1 0 11:39 08.12.2019
6511 Snow -2 1022 86 2200 1 0 11:20 08.12.2019
6512 Snow -2 1022 86 2200 2 100 10:59 08.12.2019
6513 Snow -1 1022 86 2200 2 110 10:38 08.12.2019
6514 Snow -1 1022 86 2200 2 110 10:20 08.12.2019
6515 Mist -2 1022 86 2000 2 110 09:57 08.12.2019
6516 Mist -1 1022 79 2000 3 120 09:39 08.12.2019
6517 Mist -1 1022 79 2000 3 120 09:20 08.12.2019
6518 Mist 0 1022 79 2000 2 120 08:58 08.12.2019
6519 Mist 0 1022 86 2000 3 120 08:38 08.12.2019
6520 Mist -1 1022 86 2000 3 120 08:19 08.12.2019
6521 Mist 0 1022 80 2000 3 110 07:44 08.12.2019
6522 Mist 1 1022 80 2000 2 100 07:20 08.12.2019
6523 Mist 2 1022 80 1800 2 100 06:51 08.12.2019
6524 Mist 1 1023 79 1700 2 100 06:22 08.12.2019
6525 Mist 1 1023 79 1700 2 80 05:49 08.12.2019
6526 Mist -1 1024 86 1400 1 0 05:18 08.12.2019
6527 Mist 0 1026 92 1000 1 0 03:50 08.12.2019
6528 Snow 0 1026 92 900 2 150 03:23 08.12.2019
6529 Snow -1 1026 92 800 1 0 02:39 08.12.2019
6530 Fog -2 1026 100 800 2 150 01:56 08.12.2019
6531 Fog -3 1026 100 700 2 130 01:27 08.12.2019
6532 Mist -4 1026 92 4000 2 140 00:40 08.12.2019
6533 Mist -4 1026 92 4000 2 140 00:21 08.12.2019
6534 Clouds -4 1026 85 8000 1 90 23:42 07.12.2019
6535 Clouds -4 1026 85 8000 1 90 23:21 07.12.2019
6536 Clouds -5 1026 92 8000 1 50 22:58 07.12.2019
6537 Clouds -4 1026 85 10000 1 90 22:40 07.12.2019
6538 Clouds -4 1026 85 10000 1 90 22:40 07.12.2019
6539 Clouds -4 1026 85 10000 1 90 22:40 07.12.2019
6540 Clouds -4 1026 85 10000 1 90 22:40 07.12.2019
6541 Clouds -4 1026 85 10000 1 90 22:40 07.12.2019
6542 Clouds -4 1026 85 10000 1 90 22:22 07.12.2019
6543 Clouds -4 1027 85 10000 1 30 21:56 07.12.2019
6544 Clouds -4 1027 85 10000 1 0 21:38 07.12.2019
6545 Clouds -4 1027 85 10000 1 0 21:20 07.12.2019
6546 Clouds -4 1027 85 10000 1 0 20:59 07.12.2019
6547 Clouds -4 1028 85 10000 1 0 20:37 07.12.2019
6548 Clouds -4 1028 85 10000 1 0 20:18 07.12.2019
6549 Clouds -3 1028 79 10000 0.91 41 19:56 07.12.2019
6550 Clouds -3 1028 79 10000 1 60 19:38 07.12.2019
6551 Clouds -3 1028 79 10000 1 60 19:20 07.12.2019
6552 Clouds -3 1029 79 8000 1 0 18:44 07.12.2019
6553 Clouds -3 1029 79 8000 2 70 18:20 07.12.2019
6554 Clouds -2 1029 79 8000 1 80 17:58 07.12.2019
6555 Clouds -3 1029 85 8000 1 80 17:40 07.12.2019
6556 Clouds -3 1029 85 8000 1 80 17:22 07.12.2019
6557 Clouds -3 1030 85 8000 2 80 16:57 07.12.2019
6558 Clouds -3 1030 85 8000 2 70 16:38 07.12.2019
6559 Clouds -3 1030 85 8000 2 70 16:20 07.12.2019
6560 Clouds -2 1030 85 10000 1 60 15:57 07.12.2019
6561 Clouds -1 1030 79 10000 1 340 15:38 07.12.2019
6562 Clouds -1 1030 79 10000 1 340 15:38 07.12.2019
6563 Clouds -1 1030 79 10000 1 340 15:20 07.12.2019
6564 Clouds -1 1031 73 10000 1 50 14:42 07.12.2019
6565 Clear 0 1031 73 10000 1 50 14:19 07.12.2019
6566 Clear 0 1031 79 10000 1 0 13:56 07.12.2019
6567 Clear 0 1031 79 10000 1 0 13:56 07.12.2019
6568 Clear 0 1031 73 10000 1 0 13:37 07.12.2019
6569 Clear 0 1031 73 10000 1 0 13:19 07.12.2019
6570 Clear 0 1031 73 10000 1 150 12:41 07.12.2019
6571 Clear 0 1031 73 10000 1 150 12:23 07.12.2019
6572 Clear 0 1031 68 10000 1 0 11:58 07.12.2019
6573 Clear 1 1031 58 10000 1 170 11:40 07.12.2019
6574 Clear 1 1031 58 10000 1 170 11:22 07.12.2019
6575 Clear 2 1031 50 10000 1 160 10:39 07.12.2019
6576 Clear 2 1031 50 10000 1 160 10:20 07.12.2019
6577 Clear 3 1031 44 10000 2 180 09:58 07.12.2019
6578 Clear 4 1031 38 10000 2 170 09:38 07.12.2019
6579 Clear 4 1031 38 10000 2 170 09:19 07.12.2019
6580 Clear 5 1031 35 10000 3 180 08:43 07.12.2019
6581 Clear 5 1031 35 10000 3 180 08:21 07.12.2019
6582 Clear 5 1031 35 10000 3 190 07:47 07.12.2019
6583 Clear 5 1031 41 10000 3 190 07:27 07.12.2019
6584 Clear 6 1031 38 10000 3 180 06:52 07.12.2019
6585 Clear 6 1032 35 10000 2 130 06:25 07.12.2019
6586 Clear 7 1032 32 10000 3 120 05:44 07.12.2019
6587 Clear 3 1034 34 10000 2 70 04:19 07.12.2019
6588 Clear 4 1034 34 10000 2 70 03:47 07.12.2019
6589 Clear -1 1033 43 10000 3 10 02:22 07.12.2019
6590 Clear -1 1033 50 10000 3 10 01:37 07.12.2019
6591 Clear -2 1033 50 10000 3 10 01:18 07.12.2019
6592 Clear -2 1032 54 10000 3 10 00:21 07.12.2019
6593 Clear -3 1032 58 10000 3 360 23:57 06.12.2019
6594 Clear -3 1032 67 10000 4 340 23:38 06.12.2019
6595 Clear -3 1032 67 10000 4 340 23:19 06.12.2019
6596 Clear -3 1032 73 10000 5 350 22:39 06.12.2019
6597 Clear -4 1032 73 10000 5 350 22:21 06.12.2019
6598 Clear -3 1032 68 10000 6 330 21:58 06.12.2019
6599 Clear -2 1032 68 10000 3 300 21:40 06.12.2019
6600 Clear -2 1032 68 10000 3 300 21:20 06.12.2019
6601 Clear -3 1032 79 10000 2 360 20:46 06.12.2019
6602 Clear -3 1032 79 10000 3 350 20:26 06.12.2019
6603 Clear -4 1032 79 10000 2 340 19:59 06.12.2019
6604 Clear -3 1032 79 10000 3 350 19:40 06.12.2019
6605 Clear -4 1032 79 10000 3 350 19:22 06.12.2019
6606 Clear -4 1032 79 10000 3 350 19:22 06.12.2019
6607 Clear -4 1031 73 10000 3 360 18:58 06.12.2019
6608 Clear -4 1031 73 10000 3 360 18:40 06.12.2019
6609 Clear -4 1031 73 10000 3 360 18:21 06.12.2019
6610 Clear -4 1031 79 10000 2 350 17:57 06.12.2019
6611 Clear -4 1031 79 10000 2 350 17:57 06.12.2019
6612 Clear -4 1031 85 10000 1 0 17:39 06.12.2019
6613 Clear -4 1031 85 10000 1 0 17:21 06.12.2019
6614 Clear -3 1031 79 10000 2 360 16:56 06.12.2019
6615 Clear -3 1031 79 10000 1 10 16:37 06.12.2019
6616 Clear -3 1031 79 10000 1 10 16:18 06.12.2019
6617 Clear -1 1031 79 10000 1.28 6 15:41 06.12.2019
6618 Clear -1 1031 79 10000 1.28 6 15:41 06.12.2019
6619 Clear -2 1032 79 10000 1 0 15:21 06.12.2019
6620 Clear -2 1032 79 10000 1 0 14:57 06.12.2019
6621 Clear -1 1032 79 10000 2 60 14:39 06.12.2019
6622 Clear 0 1032 79 10000 2 60 14:19 06.12.2019
6623 Clear 0 1032 85 10000 2 60 13:45 06.12.2019
6624 Clear -1 1032 85 10000 2 70 13:26 06.12.2019
6625 Clear -1 1031 85 10000 2 80 12:56 06.12.2019
6626 Clear 0 1031 79 10000 2 20 12:38 06.12.2019
6627 Clear 0 1031 79 10000 2 20 12:19 06.12.2019
6628 Clear 0 1031 73 10000 1 0 11:42 06.12.2019
6629 Clear 1 1031 73 10000 1 0 11:23 06.12.2019
6630 Clear 2 1031 68 10000 1 0 10:55 06.12.2019
6631 Clear 2 1032 55 10000 3 200 10:37 06.12.2019
6632 Clear 2 1032 55 10000 3 200 10:18 06.12.2019
6633 Clear 2 1031 51 10000 5 220 09:54 06.12.2019
6634 Clear 3 1032 51 10000 4 190 09:36 06.12.2019
6635 Clear 3 1032 51 10000 4 190 09:18 06.12.2019
6636 Clear 3 1032 40 10000 2 0 08:40 06.12.2019
6637 Clear 3 1032 40 10000 2 0 08:21 06.12.2019
6638 Clear 3 1033 31 10000 2 0 07:38 06.12.2019
6639 Clear 2 1033 31 10000 2 0 07:20 06.12.2019
6640 Clear 5 1033 31 10000 1 0 06:48 06.12.2019
6641 Clear 4 1034 31 10000 2 230 06:24 06.12.2019
6642 Clear 6 1035 31 10000 2 0 05:46 06.12.2019
6643 Clear -4 1038 58 10000 2 350 02:44 06.12.2019
6644 Clear -4 1039 72 10000 1 20 01:43 06.12.2019
6645 Clear -5 1039 72 10000 1 10 00:50 06.12.2019
6646 Clear -5 1039 72 10000 2 350 00:23 06.12.2019
6647 Clear -5 1039 72 10000 1 360 23:51 05.12.2019
6648 Clear -5 1039 72 10000 2 360 23:20 05.12.2019
6649 Clear -5 1040 78 10000 1 360 22:58 05.12.2019
6650 Clear -5 1040 78 10000 1 360 22:58 05.12.2019
6651 Clear -5 1040 78 10000 1 360 22:39 05.12.2019
6652 Clear -5 1040 78 10000 1 350 22:19 05.12.2019
6653 Clear -5 1040 78 10000 1 350 21:56 05.12.2019
6654 Clear -5 1040 78 10000 1 50 21:37 05.12.2019
6655 Clear -5 1040 78 10000 1 50 21:19 05.12.2019
6656 Clear -4 1041 72 10000 1 20 20:56 05.12.2019
6657 Clear -4 1041 72 10000 1 20 20:56 05.12.2019
6658 Clear -4 1041 72 10000 1 20 20:56 05.12.2019
6659 Clear -4 1041 72 10000 1 20 20:37 05.12.2019
6660 Clear -4 1041 72 10000 1 0 20:18 05.12.2019
6661 Clear -4 1041 72 10000 1 0 20:18 05.12.2019
6662 Clear -4 1041 72 10000 1 0 20:18 05.12.2019
6663 Clear -4 1042 78 10000 1 50 19:41 05.12.2019
6664 Clear -4 1042 78 10000 1 50 19:22 05.12.2019
6665 Clear -4 1042 78 10000 1 60 18:59 05.12.2019
6666 Clear -3 1042 67 10000 2 60 18:39 05.12.2019
6667 Clear -3 1042 67 10000 2 60 18:20 05.12.2019
6668 Clear -3 1042 67 10000 1 30 17:56 05.12.2019
6669 Clear -3 1043 61 10000 1 0 17:37 05.12.2019
6670 Clear -3 1043 61 10000 1 0 17:18 05.12.2019
6671 Clear -3 1043 66 10000 2 70 16:40 05.12.2019
6672 Clear -3 1043 66 10000 2 70 16:22 05.12.2019
6673 Clear -3 1043 61 10000 1 20 15:59 05.12.2019
6674 Clear -2 1043 41 10000 1 0 15:40 05.12.2019
6675 Clear -2 1043 41 10000 1 0 15:21 05.12.2019
6676 Clear -2 1043 44 10000 0.81 72 14:57 05.12.2019
6677 Clear -2 1043 41 10000 1 30 14:38 05.12.2019
6678 Clear -1 1043 41 10000 1 30 14:20 05.12.2019
6679 Clear -1 1043 62 10000 1 0 13:58 05.12.2019
6680 Clear -1 1044 44 10000 1 40 13:40 05.12.2019
6681 Clear -1 1044 44 10000 1 40 13:21 05.12.2019
6682 Clear 0 1044 41 10000 1 0 12:59 05.12.2019
6683 Clear 0 1043 41 10000 1.48 19 12:40 05.12.2019
6684 Clear 0 1043 41 10000 1.48 19 12:21 05.12.2019
6685 Clear 0 1043 38 10000 1 0 11:55 05.12.2019
6686 Clear -1 1043 38 10000 1 0 11:36 05.12.2019
6687 Clear 1 1043 38 10000 1 0 11:18 05.12.2019
6688 Clear 1 1043 35 10000 1 80 10:54 05.12.2019
6689 Clear 1 1043 23 10000 1 30 10:36 05.12.2019
6690 Clear 2 1043 23 10000 1 30 10:18 05.12.2019
6691 Clear 3 1043 15 10000 2 70 09:42 05.12.2019
6692 Clear 2 1043 15 10000 2 70 09:20 05.12.2019
6693 Clear 2 1042 16 10000 2 60 08:57 05.12.2019
6694 Clear 3 1042 16 10000 3 50 08:37 05.12.2019
6695 Clear 2 1042 16 10000 3 50 08:19 05.12.2019
6696 Clear 2 1042 16 10000 3 50 08:19 05.12.2019
6697 Clear 3 1042 17 10000 3 10 07:41 05.12.2019
6698 Clear 3 1042 17 10000 3 10 07:23 05.12.2019
6699 Clear 6 1043 17 10000 2 40 06:48 05.12.2019
6700 Clear 6 1043 19 10000 3 10 06:24 05.12.2019
6701 Clear 5 1043 20 10000 3 0 05:56 05.12.2019
6702 Clear 4 1043 20 10000 3 30 05:24 05.12.2019
6703 Clear 3 1044 31 10000 4 20 04:59 05.12.2019
6704 Clear 3 1045 30 10000 4 20 03:41 05.12.2019
6705 Clear 2 1044 42 10000 5 30 02:42 05.12.2019
6706 Clear 0 1044 42 10000 5 30 02:22 05.12.2019
6707 Clear -1 1044 46 10000 3 10 01:51 05.12.2019
6708 Clear -1 1043 68 10000 3 10 01:23 05.12.2019
6709 Clear -2 1043 92 10000 3 10 00:44 05.12.2019
6710 Clear -3 1042 85 10000 3 360 00:21 05.12.2019
6711 Clear -1 1042 85 10000 2 360 23:55 04.12.2019
6712 Clear -3 1041 85 10000 1 0 23:37 04.12.2019
6713 Clear -2 1041 85 10000 1 0 23:18 04.12.2019
6714 Clear -3 1041 85 10000 1 340 22:39 04.12.2019
6715 Clear -2 1041 85 10000 1 340 22:20 04.12.2019
6716 Clear -2 1040 92 10000 1 0 21:58 04.12.2019
6717 Clear -3 1040 92 10000 1 0 21:39 04.12.2019
6718 Clear -3 1040 92 10000 1 0 21:19 04.12.2019
6719 Clear -3 1040 85 10000 1 360 20:57 04.12.2019
6720 Clear -3 1040 85 10000 1 360 20:39 04.12.2019
6721 Clear -1 1040 85 10000 1 360 20:21 04.12.2019
6722 Clear -1 1039 85 10000 3.42 89 19:57 04.12.2019
6723 Clear -1 1039 73 10000 1 0 19:38 04.12.2019
6724 Clear -1 1039 73 10000 1 0 19:20 04.12.2019
6725 Clear -1 1038 79 10000 2 100 18:42 04.12.2019
6726 Clear -1 1038 74 10000 3 100 18:24 04.12.2019
6727 Clear -1 1037 80 10000 3 110 17:59 04.12.2019
6728 -273 0 0 0 0 0 17:39 04.12.2019
6729 Clear 0 1037 80 10000 3 100 17:39 04.12.2019
6730 Clear 0 1037 80 10000 3 100 17:21 04.12.2019
6731 Clear 1 1037 80 10000 3 110 16:56 04.12.2019
6732 Clear 0 1036 80 10000 3 90 16:38 04.12.2019
6733 Clear 0 1036 80 10000 3 90 16:19 04.12.2019
6734 Clear 0 1035 42 10000 3 110 15:55 04.12.2019
6735 Clear -1 1034 58 10000 3 20 15:37 04.12.2019
6736 Clear 0 1034 58 10000 3 20 15:19 04.12.2019
6737 Clear 0 1033 50 10000 2 10 14:44 04.12.2019
6738 Clear 2 1033 50 10000 2 10 14:23 04.12.2019
6739 Clear 0 1033 50 10000 2 10 14:23 04.12.2019
6740 Clear 3 1033 40 10000 1 0 13:58 04.12.2019
6741 Clear 4 1032 32 10000 3 310 13:38 04.12.2019
6742 Clear 5 1032 32 10000 3 310 13:19 04.12.2019
6743 Clear 5 1032 24 10000 3 300 12:44 04.12.2019
6744 Clear 5 1032 22 10000 4 270 12:24 04.12.2019
6745 Clear 8 1031 22 10000 3 280 11:56 04.12.2019
6746 Clear 8 1031 20 10000 3 280 11:37 04.12.2019
6747 Clear 7 1031 20 10000 3 280 11:19 04.12.2019
6748 Clear 7 1030 22 10000 4 280 10:43 04.12.2019
6749 Clear 7 1030 22 10000 4 280 10:23 04.12.2019
6750 Clear 7 1030 22 10000 4 280 10:23 04.12.2019
6751 Clear 8 1030 19 10000 6 300 09:56 04.12.2019
6752 Clear 9 1030 19 10000 8 290 09:37 04.12.2019
6753 Clear 9 1030 19 10000 8 290 09:19 04.12.2019
6754 Clear 9 1029 18 10000 9 280 08:40 04.12.2019
6755 Clear 9 1029 18 10000 9 280 08:21 04.12.2019
6756 Clear 9 1030 18 10000 8 290 07:48 04.12.2019
6757 Clear 10 1030 16 10000 8 300 07:30 04.12.2019
6758 Clear 10 1030 18 10000 7 280 06:36 04.12.2019
6759 Clear 10 1030 19 10000 6 310 05:48 04.12.2019
6760 Clear 9 1031 20 10000 7 300 05:29 04.12.2019
6761 Clear 8 1031 22 10000 7 310 04:25 04.12.2019
6762 Clear 7 1031 26 10000 5 310 02:55 04.12.2019
6763 Clear 2 1030 32 10000 6 310 00:52 04.12.2019
6764 Clear 0 1029 32 10000 6 310 00:28 04.12.2019
6765 Clear 0 1029 43 10000 4 320 23:59 03.12.2019
6766 Clear -1 1028 73 10000 2 330 23:40 03.12.2019
6767 Clear -3 1028 73 10000 2 330 23:19 03.12.2019
6768 Clear -3 1028 73 10000 2 320 22:41 03.12.2019
6769 Clear -3 1028 73 10000 2 320 22:19 03.12.2019
6770 Clear -2 1028 68 10000 2.35 341 21:59 03.12.2019
6771 Clear -3 1028 79 10000 1 0 21:39 03.12.2019
6772 Clear -3 1028 79 10000 1 0 21:19 03.12.2019
6773 Clear -2 1028 68 10000 1 0 20:58 03.12.2019
6774 Clear -3 1028 79 10000 1 0 20:40 03.12.2019
6775 Clear -3 1028 79 10000 1 0 20:19 03.12.2019
6776 Clear -2 1028 73 10000 1 0 19:55 03.12.2019
6777 Clear -2 1028 63 10000 1 0 19:37 03.12.2019
6778 Clear -2 1028 63 10000 1 0 19:19 03.12.2019
6779 Clear -2 1028 73 10000 2 350 18:56 03.12.2019
6780 Clear -2 1028 63 10000 1 70 18:38 03.12.2019
6781 Clear -2 1028 63 10000 1 70 18:20 03.12.2019
6782 Clear 0 1027 44 10000 1 0 17:56 03.12.2019
6783 Clear -1 1028 54 10000 2 100 17:36 03.12.2019
6784 Clear 1 1028 54 10000 2 100 17:18 03.12.2019
6785 Clear 2 1027 37 10000 2 30 16:56 03.12.2019
6786 Clear 3 1027 28 10000 3 250 16:38 03.12.2019
6787 Clear 4 1027 28 10000 3 250 16:19 03.12.2019
6788 Clear 5 1027 28 10000 3 270 15:54 03.12.2019
6789 Clear 4 1027 30 10000 3 280 15:36 03.12.2019
6790 Clear 5 1027 30 10000 3 280 15:18 03.12.2019
6791 Clear 6 1027 26 10000 3 270 14:42 03.12.2019
6792 Clear 5 1027 26 10000 3 300 14:20 03.12.2019
6793 Clear 5 1027 26 10000 3 300 14:20 03.12.2019
6794 Clear 5 1026 26 10000 3 300 13:56 03.12.2019
6795 Clear 5 1026 24 10000 3 300 13:36 03.12.2019
6796 Clear 5 1026 24 10000 3 300 13:18 03.12.2019
6797 Clear 5 1026 22 10000 5 290 12:40 03.12.2019
6798 Clear 5 1026 22 10000 5 290 12:18 03.12.2019
6799 Clear 5 1026 24 10000 4 290 11:58 03.12.2019
6800 Clear 5 1025 24 10000 4 290 11:39 03.12.2019
6801 Clear 5 1025 24 10000 4 290 11:20 03.12.2019
6802 Clear 6 1025 22 10000 5 280 10:58 03.12.2019
6803 Clear 7 1025 20 10000 6 280 10:40 03.12.2019
6804 Clear 7 1025 20 10000 6 280 10:19 03.12.2019
6805 Clear 8 1025 20 10000 7 280 09:46 03.12.2019
6806 Clear 9 1024 19 10000 8 280 09:25 03.12.2019
6807 Clear 9 1024 18 10000 8 280 08:59 03.12.2019
6808 Clear 9 1024 19 10000 9 280 08:40 03.12.2019
6809 Clear 9 1024 19 10000 9 280 08:21 03.12.2019
6810 Clear 9 1024 19 10000 8 280